<?xml version="1.0" encoding="UTF-8" standalone="no" ?>
<gpx xmlns="http://www.topografix.com/GPX/1/1" xmlns:xsi="http://www.w3.org/2001/XMLSchema-instance" xsi:schemaLocation="http://www.topografix.com/GPX/1/1 http://www.topografix.com/GPX/1/1/gpx.xsd" version="1.1" creator="VisuGPX - https://www.visugpx.com">
  <metadata>
    <name>trace mai 2022</name>
  </metadata>
  <wpt lat="47.34328" lon="1.107">
    <ele>114.4</ele>
  </wpt>
  <wpt lat="47.26385" lon="1.12468">
    <ele>85.3</ele>
  </wpt>
  <wpt lat="47.16544" lon="0.23741">
    <ele>28</ele>
  </wpt>
  <trk>
    <name><![CDATA[TET_F-17_20211201]]></name>
    <extensions>
      <line xmlns="http://www.topografix.com/GPX/gpx_style/0/2">
        <color>0000FF</color>
        <width>4</width>
      </line>
    </extensions>
    <trkseg>
      <trkpt lat="47.45999" lon="0.1784">
        <ele>90.7</ele>
        <time>2020-06-14T08:42:00Z</time>
      </trkpt>
      <trkpt lat="47.4598" lon="0.17878">
        <ele>92.17</ele>
        <time>2020-06-14T08:42:05Z</time>
      </trkpt>
      <trkpt lat="47.45946" lon="0.17905">
        <ele>95.98</ele>
        <time>2020-06-14T08:42:09Z</time>
      </trkpt>
      <trkpt lat="47.45843" lon="0.17951">
        <ele>101.48</ele>
        <time>2020-06-14T08:42:17Z</time>
      </trkpt>
      <trkpt lat="47.45623" lon="0.18044">
        <ele>105.72</ele>
        <time>2020-06-14T08:42:32Z</time>
      </trkpt>
      <trkpt lat="47.45461" lon="0.18072">
        <ele>108.88</ele>
        <time>2020-06-14T08:42:43Z</time>
      </trkpt>
      <trkpt lat="47.45308" lon="0.18124">
        <ele>109.87</ele>
        <time>2020-06-14T08:42:54Z</time>
      </trkpt>
      <trkpt lat="47.45216" lon="0.18149">
        <ele>114.16</ele>
        <time>2020-06-14T08:43:00Z</time>
      </trkpt>
      <trkpt lat="47.45051" lon="0.18193">
        <ele>115.1</ele>
        <time>2020-06-14T08:43:11Z</time>
      </trkpt>
      <trkpt lat="47.44925" lon="0.18189">
        <ele>114.86</ele>
        <time>2020-06-14T08:43:19Z</time>
      </trkpt>
      <trkpt lat="47.44794" lon="0.18194">
        <ele>114.27</ele>
        <time>2020-06-14T08:43:27Z</time>
      </trkpt>
      <trkpt lat="47.44681" lon="0.18213">
        <ele>112.42</ele>
        <time>2020-06-14T08:43:34Z</time>
      </trkpt>
      <trkpt lat="47.44521" lon="0.18238">
        <ele>112.56</ele>
        <time>2020-06-14T08:43:44Z</time>
      </trkpt>
      <trkpt lat="47.44362" lon="0.18263">
        <ele>109.29</ele>
        <time>2020-06-14T08:43:56Z</time>
      </trkpt>
      <trkpt lat="47.44258" lon="0.18266">
        <ele>108.59</ele>
        <time>2020-06-14T08:44:03Z</time>
      </trkpt>
      <trkpt lat="47.44083" lon="0.1826">
        <ele>108.31</ele>
        <time>2020-06-14T08:44:14Z</time>
      </trkpt>
      <trkpt lat="47.4396" lon="0.18264">
        <ele>103.57</ele>
        <time>2020-06-14T08:44:27Z</time>
      </trkpt>
      <trkpt lat="47.43957" lon="0.18261">
        <ele>103.67</ele>
        <time>2020-06-14T08:44:28Z</time>
      </trkpt>
      <trkpt lat="47.43947" lon="0.1823">
        <ele>104.11</ele>
        <time>2020-06-14T08:44:32Z</time>
      </trkpt>
      <trkpt lat="47.43926" lon="0.18191">
        <ele>105.18</ele>
        <time>2020-06-14T08:44:36Z</time>
      </trkpt>
      <trkpt lat="47.43893" lon="0.18141">
        <ele>106.68</ele>
        <time>2020-06-14T08:44:40Z</time>
      </trkpt>
      <trkpt lat="47.43836" lon="0.18055">
        <ele>110.38</ele>
        <time>2020-06-14T08:44:45Z</time>
      </trkpt>
      <trkpt lat="47.43669" lon="0.17819">
        <ele>108.22</ele>
        <time>2020-06-14T08:45:41Z</time>
      </trkpt>
      <trkpt lat="47.43621" lon="0.18012">
        <ele>112.14</ele>
        <time>2020-06-14T08:45:53Z</time>
      </trkpt>
      <trkpt lat="47.43569" lon="0.18301">
        <ele>109.11</ele>
        <time>2020-06-14T08:46:09Z</time>
      </trkpt>
      <trkpt lat="47.43568" lon="0.18314">
        <ele>108.2</ele>
        <time>2020-06-14T08:46:11Z</time>
      </trkpt>
      <trkpt lat="47.43566" lon="0.18414">
        <ele>109.55</ele>
        <time>2020-06-14T08:46:20Z</time>
      </trkpt>
      <trkpt lat="47.43553" lon="0.18662">
        <ele>104.67</ele>
        <time>2020-06-14T08:46:35Z</time>
      </trkpt>
      <trkpt lat="47.4353" lon="0.18941">
        <ele>99.69</ele>
        <time>2020-06-14T08:46:54Z</time>
      </trkpt>
      <trkpt lat="47.43523" lon="0.19044">
        <ele>96.42</ele>
        <time>2020-06-14T08:47:01Z</time>
      </trkpt>
      <trkpt lat="47.43522" lon="0.19056">
        <ele>96.15</ele>
        <time>2020-06-14T08:47:02Z</time>
      </trkpt>
      <trkpt lat="47.4352" lon="0.19083">
        <ele>94.83</ele>
        <time>2020-06-14T08:47:05Z</time>
      </trkpt>
      <trkpt lat="47.43518" lon="0.19088">
        <ele>94.65</ele>
        <time>2020-06-14T08:47:06Z</time>
      </trkpt>
      <trkpt lat="47.43509" lon="0.19086">
        <ele>95.28</ele>
        <time>2020-06-14T08:47:09Z</time>
      </trkpt>
      <trkpt lat="47.43496" lon="0.19081">
        <ele>96.11</ele>
        <time>2020-06-14T08:47:12Z</time>
      </trkpt>
      <trkpt lat="47.43444" lon="0.19051">
        <ele>98.93</ele>
        <time>2020-06-14T08:47:20Z</time>
      </trkpt>
      <trkpt lat="47.43276" lon="0.18939">
        <ele>103.25</ele>
        <time>2020-06-14T08:47:40Z</time>
      </trkpt>
      <trkpt lat="47.43165" lon="0.18838">
        <ele>102.84</ele>
        <time>2020-06-14T08:47:54Z</time>
      </trkpt>
      <trkpt lat="47.43133" lon="0.18788">
        <ele>102.18</ele>
        <time>2020-06-14T08:48:00Z</time>
      </trkpt>
      <trkpt lat="47.43116" lon="0.18754">
        <ele>102.79</ele>
        <time>2020-06-14T08:48:04Z</time>
      </trkpt>
      <trkpt lat="47.43104" lon="0.18728">
        <ele>102.26</ele>
        <time>2020-06-14T08:48:07Z</time>
      </trkpt>
      <trkpt lat="47.43092" lon="0.1871">
        <ele>102.52</ele>
        <time>2020-06-14T08:48:09Z</time>
      </trkpt>
      <trkpt lat="47.42978" lon="0.18499">
        <ele>98.75</ele>
        <time>2020-06-14T08:48:27Z</time>
      </trkpt>
      <trkpt lat="47.42968" lon="0.18481">
        <ele>96.01</ele>
        <time>2020-06-14T08:48:30Z</time>
      </trkpt>
      <trkpt lat="47.42963" lon="0.1848">
        <ele>95.78</ele>
        <time>2020-06-14T08:48:31Z</time>
      </trkpt>
      <trkpt lat="47.41097" lon="0.17987">
        <ele>71.89</ele>
        <time>2020-06-14T08:52:04Z</time>
      </trkpt>
      <trkpt lat="47.41091" lon="0.17996">
        <ele>74.98</ele>
        <time>2020-06-14T08:52:24Z</time>
      </trkpt>
      <trkpt lat="47.4109" lon="0.17996">
        <ele>78.16</ele>
        <time>2020-06-14T08:52:32Z</time>
      </trkpt>
      <trkpt lat="47.41093" lon="0.17991">
        <ele>79.1</ele>
        <time>2020-06-14T08:53:27Z</time>
      </trkpt>
      <trkpt lat="47.4109" lon="0.17993">
        <ele>79.06</ele>
        <time>2020-06-14T08:53:29Z</time>
      </trkpt>
      <trkpt lat="47.40965" lon="0.18045">
        <ele>87.65</ele>
        <time>2020-06-14T08:53:41Z</time>
      </trkpt>
      <trkpt lat="47.40951" lon="0.18056">
        <ele>86.37</ele>
        <time>2020-06-14T08:53:42Z</time>
      </trkpt>
      <trkpt lat="47.40775" lon="0.18185">
        <ele>81.24</ele>
        <time>2020-06-14T08:53:56Z</time>
      </trkpt>
      <trkpt lat="47.40771" lon="0.1819">
        <ele>81.13</ele>
        <time>2020-06-14T08:53:57Z</time>
      </trkpt>
      <trkpt lat="47.40776" lon="0.18216">
        <ele>79.71</ele>
        <time>2020-06-14T08:54:01Z</time>
      </trkpt>
      <trkpt lat="47.40847" lon="0.18323">
        <ele>79.89</ele>
        <time>2020-06-14T08:54:12Z</time>
      </trkpt>
      <trkpt lat="47.40947" lon="0.18384">
        <ele>77.07</ele>
        <time>2020-06-14T08:54:24Z</time>
      </trkpt>
      <trkpt lat="47.40992" lon="0.18434">
        <ele>77.04</ele>
        <time>2020-06-14T08:54:42Z</time>
      </trkpt>
      <trkpt lat="47.40986" lon="0.18439">
        <ele>77.5</ele>
        <time>2020-06-14T08:54:43Z</time>
      </trkpt>
      <trkpt lat="47.40928" lon="0.18479">
        <ele>74.47</ele>
        <time>2020-06-14T08:54:54Z</time>
      </trkpt>
      <trkpt lat="47.4081" lon="0.18528">
        <ele>79.72</ele>
        <time>2020-06-14T08:55:13Z</time>
      </trkpt>
      <trkpt lat="47.40677" lon="0.18735">
        <ele>80.42</ele>
        <time>2020-06-14T08:55:27Z</time>
      </trkpt>
      <trkpt lat="47.40594" lon="0.18857">
        <ele>80.02</ele>
        <time>2020-06-14T08:55:36Z</time>
      </trkpt>
      <trkpt lat="47.40528" lon="0.18945">
        <ele>76.53</ele>
        <time>2020-06-14T08:55:43Z</time>
      </trkpt>
      <trkpt lat="47.40447" lon="0.19084">
        <ele>76.46</ele>
        <time>2020-06-14T08:55:52Z</time>
      </trkpt>
      <trkpt lat="47.40359" lon="0.19253">
        <ele>71.73</ele>
        <time>2020-06-14T08:56:01Z</time>
      </trkpt>
      <trkpt lat="47.40351" lon="0.19269">
        <ele>71.65</ele>
        <time>2020-06-14T08:56:02Z</time>
      </trkpt>
      <trkpt lat="47.40337" lon="0.19297">
        <ele>68.2</ele>
        <time>2020-06-14T08:56:04Z</time>
      </trkpt>
      <trkpt lat="47.40329" lon="0.19319">
        <ele>66.1</ele>
        <time>2020-06-14T08:56:06Z</time>
      </trkpt>
      <trkpt lat="47.40325" lon="0.19332">
        <ele>65.5</ele>
        <time>2020-06-14T08:56:21Z</time>
      </trkpt>
      <trkpt lat="47.40104" lon="0.19148">
        <ele>66.72</ele>
        <time>2020-06-14T08:56:42Z</time>
      </trkpt>
      <trkpt lat="47.4001" lon="0.19035">
        <ele>64.87</ele>
        <time>2020-06-14T08:56:51Z</time>
      </trkpt>
      <trkpt lat="47.39938" lon="0.1894">
        <ele>61.47</ele>
        <time>2020-06-14T08:57:05Z</time>
      </trkpt>
      <trkpt lat="47.39936" lon="0.1894">
        <ele>62.2</ele>
        <time>2020-06-14T08:57:06Z</time>
      </trkpt>
      <trkpt lat="47.39914" lon="0.18958">
        <ele>63.82</ele>
        <time>2020-06-14T08:57:10Z</time>
      </trkpt>
      <trkpt lat="47.39906" lon="0.18967">
        <ele>64.06</ele>
        <time>2020-06-14T08:57:11Z</time>
      </trkpt>
      <trkpt lat="47.39832" lon="0.19081">
        <ele>67.25</ele>
        <time>2020-06-14T08:57:19Z</time>
      </trkpt>
      <trkpt lat="47.39764" lon="0.192">
        <ele>64.22</ele>
        <time>2020-06-14T08:57:26Z</time>
      </trkpt>
      <trkpt lat="47.39531" lon="0.1938">
        <ele>63.3</ele>
        <time>2020-06-14T08:57:49Z</time>
      </trkpt>
      <trkpt lat="47.39374" lon="0.19439">
        <ele>62.16</ele>
        <time>2020-06-14T08:58:04Z</time>
      </trkpt>
      <trkpt lat="47.39364" lon="0.19438">
        <ele>61.14</ele>
        <time>2020-06-14T08:58:05Z</time>
      </trkpt>
      <trkpt lat="47.39293" lon="0.19433">
        <ele>59.38</ele>
        <time>2020-06-14T08:58:13Z</time>
      </trkpt>
      <trkpt lat="47.39286" lon="0.19437">
        <ele>59.09</ele>
        <time>2020-06-14T08:58:14Z</time>
      </trkpt>
      <trkpt lat="47.39276" lon="0.19465">
        <ele>61.17</ele>
        <time>2020-06-14T08:58:17Z</time>
      </trkpt>
      <trkpt lat="47.39258" lon="0.19552">
        <ele>56.83</ele>
        <time>2020-06-14T09:00:12Z</time>
      </trkpt>
      <trkpt lat="47.39257" lon="0.19549">
        <ele>57.4</ele>
        <time>2020-06-14T09:00:13Z</time>
      </trkpt>
      <trkpt lat="47.39103" lon="0.19488">
        <ele>58.06</ele>
        <time>2020-06-14T09:00:32Z</time>
      </trkpt>
      <trkpt lat="47.38926" lon="0.19447">
        <ele>63.34</ele>
        <time>2020-06-14T09:00:46Z</time>
      </trkpt>
      <trkpt lat="47.38776" lon="0.19437">
        <ele>63.05</ele>
        <time>2020-06-14T09:00:58Z</time>
      </trkpt>
      <trkpt lat="47.38748" lon="0.19439">
        <ele>59.69</ele>
        <time>2020-06-14T09:01:01Z</time>
      </trkpt>
      <trkpt lat="47.38732" lon="0.19438">
        <ele>56.84</ele>
        <time>2020-06-14T09:01:04Z</time>
      </trkpt>
      <trkpt lat="47.38731" lon="0.19439">
        <ele>57.4</ele>
        <time>2020-06-14T09:02:34Z</time>
      </trkpt>
      <trkpt lat="47.38637" lon="0.19452">
        <ele>64</ele>
        <time>2020-06-14T09:02:43Z</time>
      </trkpt>
      <trkpt lat="47.38498" lon="0.19465">
        <ele>60.77</ele>
        <time>2020-06-14T09:02:52Z</time>
      </trkpt>
      <trkpt lat="47.38361" lon="0.19478">
        <ele>58.52</ele>
        <time>2020-06-14T09:03:02Z</time>
      </trkpt>
      <trkpt lat="47.38348" lon="0.19473">
        <ele>55.5</ele>
        <time>2020-06-14T09:03:04Z</time>
      </trkpt>
      <trkpt lat="47.38338" lon="0.19431">
        <ele>57.77</ele>
        <time>2020-06-14T09:03:08Z</time>
      </trkpt>
      <trkpt lat="47.38335" lon="0.19262">
        <ele>58.47</ele>
        <time>2020-06-14T09:03:18Z</time>
      </trkpt>
      <trkpt lat="47.38426" lon="0.19018">
        <ele>56.78</ele>
        <time>2020-06-14T09:03:36Z</time>
      </trkpt>
      <trkpt lat="47.3856" lon="0.18858">
        <ele>59.08</ele>
        <time>2020-06-14T09:04:05Z</time>
      </trkpt>
      <trkpt lat="47.38688" lon="0.18733">
        <ele>60.11</ele>
        <time>2020-06-14T09:04:16Z</time>
      </trkpt>
      <trkpt lat="47.38788" lon="0.18638">
        <ele>61.05</ele>
        <time>2020-06-14T09:04:24Z</time>
      </trkpt>
      <trkpt lat="47.38798" lon="0.18623">
        <ele>60.78</ele>
        <time>2020-06-14T09:04:25Z</time>
      </trkpt>
      <trkpt lat="47.38806" lon="0.18607">
        <ele>60.1</ele>
        <time>2020-06-14T09:04:26Z</time>
      </trkpt>
      <trkpt lat="47.3891" lon="0.18419">
        <ele>61.29</ele>
        <time>2020-06-14T09:04:37Z</time>
      </trkpt>
      <trkpt lat="47.38993" lon="0.18317">
        <ele>58.34</ele>
        <time>2020-06-14T09:04:46Z</time>
      </trkpt>
      <trkpt lat="47.38977" lon="0.18278">
        <ele>59.48</ele>
        <time>2020-06-14T09:04:51Z</time>
      </trkpt>
      <trkpt lat="47.38941" lon="0.18236">
        <ele>62.95</ele>
        <time>2020-06-14T09:04:55Z</time>
      </trkpt>
      <trkpt lat="47.3893" lon="0.18224">
        <ele>62.22</ele>
        <time>2020-06-14T09:04:56Z</time>
      </trkpt>
      <trkpt lat="47.38898" lon="0.18188">
        <ele>60.89</ele>
        <time>2020-06-14T09:04:59Z</time>
      </trkpt>
      <trkpt lat="47.38885" lon="0.18179">
        <ele>61</ele>
        <time>2020-06-14T09:05:00Z</time>
      </trkpt>
      <trkpt lat="47.38841" lon="0.1816">
        <ele>64.29</ele>
        <time>2020-06-14T09:05:03Z</time>
      </trkpt>
      <trkpt lat="47.38762" lon="0.1813">
        <ele>63.06</ele>
        <time>2020-06-14T09:05:08Z</time>
      </trkpt>
      <trkpt lat="47.38653" lon="0.18086">
        <ele>59.74</ele>
        <time>2020-06-14T09:05:17Z</time>
      </trkpt>
      <trkpt lat="47.3866" lon="0.18057">
        <ele>59.32</ele>
        <time>2020-06-14T09:05:22Z</time>
      </trkpt>
      <trkpt lat="47.38851" lon="0.17887">
        <ele>60.54</ele>
        <time>2020-06-14T09:05:41Z</time>
      </trkpt>
      <trkpt lat="47.38861" lon="0.17865">
        <ele>59.73</ele>
        <time>2020-06-14T09:05:43Z</time>
      </trkpt>
      <trkpt lat="47.3891" lon="0.17833">
        <ele>61.14</ele>
        <time>2020-06-14T09:05:48Z</time>
      </trkpt>
      <trkpt lat="47.38982" lon="0.17797">
        <ele>64.85</ele>
        <time>2020-06-14T09:05:53Z</time>
      </trkpt>
      <trkpt lat="47.39134" lon="0.17721">
        <ele>61.06</ele>
        <time>2020-06-14T09:06:05Z</time>
      </trkpt>
      <trkpt lat="47.39141" lon="0.17717">
        <ele>60.97</ele>
        <time>2020-06-14T09:06:06Z</time>
      </trkpt>
      <trkpt lat="47.39152" lon="0.17684">
        <ele>61.14</ele>
        <time>2020-06-14T09:06:10Z</time>
      </trkpt>
      <trkpt lat="47.39155" lon="0.17586">
        <ele>60.48</ele>
        <time>2020-06-14T09:06:18Z</time>
      </trkpt>
      <trkpt lat="47.3916" lon="0.17548">
        <ele>60.09</ele>
        <time>2020-06-14T09:06:23Z</time>
      </trkpt>
      <trkpt lat="47.39177" lon="0.17523">
        <ele>61.4</ele>
        <time>2020-06-14T09:06:26Z</time>
      </trkpt>
      <trkpt lat="47.39214" lon="0.17471">
        <ele>62.96</ele>
        <time>2020-06-14T09:06:31Z</time>
      </trkpt>
      <trkpt lat="47.3929" lon="0.174">
        <ele>61.97</ele>
        <time>2020-06-14T09:06:43Z</time>
      </trkpt>
      <trkpt lat="47.39289" lon="0.1738">
        <ele>62.09</ele>
        <time>2020-06-14T09:06:45Z</time>
      </trkpt>
      <trkpt lat="47.39281" lon="0.17309">
        <ele>64.98</ele>
        <time>2020-06-14T09:06:50Z</time>
      </trkpt>
      <trkpt lat="47.39277" lon="0.17161">
        <ele>66.28</ele>
        <time>2020-06-14T09:06:58Z</time>
      </trkpt>
      <trkpt lat="47.39285" lon="0.16938">
        <ele>69.64</ele>
        <time>2020-06-14T09:07:11Z</time>
      </trkpt>
      <trkpt lat="47.39282" lon="0.16926">
        <ele>69.2</ele>
        <time>2020-06-14T09:07:13Z</time>
      </trkpt>
      <trkpt lat="47.39256" lon="0.16914">
        <ele>72.37</ele>
        <time>2020-06-14T09:07:18Z</time>
      </trkpt>
      <trkpt lat="47.39245" lon="0.16913">
        <ele>72.62</ele>
        <time>2020-06-14T09:07:19Z</time>
      </trkpt>
      <trkpt lat="47.39109" lon="0.16883">
        <ele>76.31</ele>
        <time>2020-06-14T09:07:29Z</time>
      </trkpt>
      <trkpt lat="47.38994" lon="0.16855">
        <ele>72.82</ele>
        <time>2020-06-14T09:07:37Z</time>
      </trkpt>
      <trkpt lat="47.3891" lon="0.1684">
        <ele>68.57</ele>
        <time>2020-06-14T09:07:43Z</time>
      </trkpt>
      <trkpt lat="47.38713" lon="0.16801">
        <ele>65.14</ele>
        <time>2020-06-14T09:07:58Z</time>
      </trkpt>
      <trkpt lat="47.38665" lon="0.16789">
        <ele>64.44</ele>
        <time>2020-06-14T09:08:02Z</time>
      </trkpt>
      <trkpt lat="47.38645" lon="0.16775">
        <ele>63.35</ele>
        <time>2020-06-14T09:08:04Z</time>
      </trkpt>
      <trkpt lat="47.38367" lon="0.16677">
        <ele>64.29</ele>
        <time>2020-06-14T09:08:28Z</time>
      </trkpt>
      <trkpt lat="47.38164" lon="0.16542">
        <ele>67.95</ele>
        <time>2020-06-14T09:08:43Z</time>
      </trkpt>
      <trkpt lat="47.38096" lon="0.16486">
        <ele>64.59</ele>
        <time>2020-06-14T09:08:49Z</time>
      </trkpt>
      <trkpt lat="47.3808" lon="0.16473">
        <ele>63.71</ele>
        <time>2020-06-14T09:08:52Z</time>
      </trkpt>
      <trkpt lat="47.38077" lon="0.16403">
        <ele>67.13</ele>
        <time>2020-06-14T09:08:58Z</time>
      </trkpt>
      <trkpt lat="47.38094" lon="0.16271">
        <ele>71.11</ele>
        <time>2020-06-14T09:09:04Z</time>
      </trkpt>
      <trkpt lat="47.38156" lon="0.159">
        <ele>66.02</ele>
        <time>2020-06-14T09:09:22Z</time>
      </trkpt>
      <trkpt lat="47.38155" lon="0.15896">
        <ele>66.06</ele>
        <time>2020-06-14T09:09:23Z</time>
      </trkpt>
      <trkpt lat="47.38137" lon="0.15896">
        <ele>68.4</ele>
        <time>2020-06-14T09:09:27Z</time>
      </trkpt>
      <trkpt lat="47.38128" lon="0.159">
        <ele>68.39</ele>
        <time>2020-06-14T09:09:28Z</time>
      </trkpt>
      <trkpt lat="47.37991" lon="0.15961">
        <ele>73.27</ele>
        <time>2020-06-14T09:09:38Z</time>
      </trkpt>
      <trkpt lat="47.37808" lon="0.16043">
        <ele>76.38</ele>
        <time>2020-06-14T09:09:49Z</time>
      </trkpt>
      <trkpt lat="47.37503" lon="0.16148">
        <ele>70.4</ele>
        <time>2020-06-14T09:10:07Z</time>
      </trkpt>
      <trkpt lat="47.37488" lon="0.16152">
        <ele>67.33</ele>
        <time>2020-06-14T09:10:09Z</time>
      </trkpt>
      <trkpt lat="47.37482" lon="0.16152">
        <ele>67.33</ele>
        <time>2020-06-14T09:10:10Z</time>
      </trkpt>
      <trkpt lat="47.37465" lon="0.16065">
        <ele>72.4</ele>
        <time>2020-06-14T09:10:17Z</time>
      </trkpt>
      <trkpt lat="47.37463" lon="0.16045">
        <ele>71.81</ele>
        <time>2020-06-14T09:10:18Z</time>
      </trkpt>
      <trkpt lat="47.37456" lon="0.15999">
        <ele>75.74</ele>
        <time>2020-06-14T09:10:20Z</time>
      </trkpt>
      <trkpt lat="47.37443" lon="0.15905">
        <ele>74.25</ele>
        <time>2020-06-14T09:10:24Z</time>
      </trkpt>
      <trkpt lat="47.37371" lon="0.15447">
        <ele>76.29</ele>
        <time>2020-06-14T09:10:44Z</time>
      </trkpt>
      <trkpt lat="47.37367" lon="0.15355">
        <ele>78.8</ele>
        <time>2020-06-14T09:10:48Z</time>
      </trkpt>
      <trkpt lat="47.37359" lon="0.14943">
        <ele>78.83</ele>
        <time>2020-06-14T09:11:07Z</time>
      </trkpt>
      <trkpt lat="47.37392" lon="0.14892">
        <ele>81.55</ele>
        <time>2020-06-14T09:11:17Z</time>
      </trkpt>
      <trkpt lat="47.37569" lon="0.14877">
        <ele>82.35</ele>
        <time>2020-06-14T09:11:30Z</time>
      </trkpt>
      <trkpt lat="47.37638" lon="0.14828">
        <ele>84.73</ele>
        <time>2020-06-14T09:11:37Z</time>
      </trkpt>
      <trkpt lat="47.37695" lon="0.14765">
        <ele>87.83</ele>
        <time>2020-06-14T09:11:42Z</time>
      </trkpt>
      <trkpt lat="47.37769" lon="0.14681">
        <ele>85.25</ele>
        <time>2020-06-14T09:11:49Z</time>
      </trkpt>
      <trkpt lat="47.37772" lon="0.14609">
        <ele>88.52</ele>
        <time>2020-06-14T09:11:56Z</time>
      </trkpt>
      <trkpt lat="47.37741" lon="0.1445">
        <ele>91.18</ele>
        <time>2020-06-14T09:12:07Z</time>
      </trkpt>
      <trkpt lat="47.37847" lon="0.14341">
        <ele>93.76</ele>
        <time>2020-06-14T09:12:18Z</time>
      </trkpt>
      <trkpt lat="47.37917" lon="0.14229">
        <ele>97.1</ele>
        <time>2020-06-14T09:12:27Z</time>
      </trkpt>
      <trkpt lat="47.3793" lon="0.14208">
        <ele>98.1</ele>
        <time>2020-06-14T09:12:29Z</time>
      </trkpt>
      <trkpt lat="47.38026" lon="0.14131">
        <ele>98.83</ele>
        <time>2020-06-14T09:12:39Z</time>
      </trkpt>
      <trkpt lat="47.38073" lon="0.14081">
        <ele>94.7</ele>
        <time>2020-06-14T09:12:43Z</time>
      </trkpt>
      <trkpt lat="47.38106" lon="0.14049">
        <ele>90.41</ele>
        <time>2020-06-14T09:12:46Z</time>
      </trkpt>
      <trkpt lat="47.38133" lon="0.14032">
        <ele>86.84</ele>
        <time>2020-06-14T09:12:49Z</time>
      </trkpt>
      <trkpt lat="47.3814" lon="0.14027">
        <ele>86.61</ele>
        <time>2020-06-14T09:12:50Z</time>
      </trkpt>
      <trkpt lat="47.38147" lon="0.14023">
        <ele>85.77</ele>
        <time>2020-06-14T09:12:51Z</time>
      </trkpt>
      <trkpt lat="47.38172" lon="0.14016">
        <ele>87.22</ele>
        <time>2020-06-14T09:12:54Z</time>
      </trkpt>
      <trkpt lat="47.38269" lon="0.14019">
        <ele>83.67</ele>
        <time>2020-06-14T09:13:03Z</time>
      </trkpt>
      <trkpt lat="47.38272" lon="0.14014">
        <ele>83.99</ele>
        <time>2020-06-14T09:13:04Z</time>
      </trkpt>
      <trkpt lat="47.38271" lon="0.13979">
        <ele>87.15</ele>
        <time>2020-06-14T09:13:08Z</time>
      </trkpt>
      <trkpt lat="47.38268" lon="0.13966">
        <ele>88.58</ele>
        <time>2020-06-14T09:13:09Z</time>
      </trkpt>
      <trkpt lat="47.3825" lon="0.13904">
        <ele>91.81</ele>
        <time>2020-06-14T09:13:13Z</time>
      </trkpt>
      <trkpt lat="47.38219" lon="0.13819">
        <ele>97.59</ele>
        <time>2020-06-14T09:13:18Z</time>
      </trkpt>
      <trkpt lat="47.38213" lon="0.13802">
        <ele>97.61</ele>
        <time>2020-06-14T09:13:19Z</time>
      </trkpt>
      <trkpt lat="47.38163" lon="0.13694">
        <ele>102.85</ele>
        <time>2020-06-14T09:13:25Z</time>
      </trkpt>
      <trkpt lat="47.38142" lon="0.13643">
        <ele>105.84</ele>
        <time>2020-06-14T09:13:28Z</time>
      </trkpt>
      <trkpt lat="47.38115" lon="0.136">
        <ele>106.95</ele>
        <time>2020-06-14T09:13:31Z</time>
      </trkpt>
      <trkpt lat="47.378" lon="0.13375">
        <ele>106.25</ele>
        <time>2020-06-14T09:13:55Z</time>
      </trkpt>
      <trkpt lat="47.37745" lon="0.13332">
        <ele>109.74</ele>
        <time>2020-06-14T09:14:00Z</time>
      </trkpt>
      <trkpt lat="47.37677" lon="0.13291">
        <ele>114.6</ele>
        <time>2020-06-14T09:14:05Z</time>
      </trkpt>
      <trkpt lat="47.37664" lon="0.13283">
        <ele>114.51</ele>
        <time>2020-06-14T09:14:06Z</time>
      </trkpt>
      <trkpt lat="47.37541" lon="0.13223">
        <ele>112.39</ele>
        <time>2020-06-14T09:14:15Z</time>
      </trkpt>
      <trkpt lat="47.37527" lon="0.13219">
        <ele>113.23</ele>
        <time>2020-06-14T09:14:16Z</time>
      </trkpt>
      <trkpt lat="47.37434" lon="0.13188">
        <ele>112.31</ele>
        <time>2020-06-14T09:14:23Z</time>
      </trkpt>
      <trkpt lat="47.37275" lon="0.13176">
        <ele>115.24</ele>
        <time>2020-06-14T09:14:35Z</time>
      </trkpt>
      <trkpt lat="47.37041" lon="0.1315">
        <ele>116.68</ele>
        <time>2020-06-14T09:14:50Z</time>
      </trkpt>
      <trkpt lat="47.36908" lon="0.13126">
        <ele>116.76</ele>
        <time>2020-06-14T09:14:59Z</time>
      </trkpt>
      <trkpt lat="47.36772" lon="0.13125">
        <ele>117.99</ele>
        <time>2020-06-14T09:15:08Z</time>
      </trkpt>
      <trkpt lat="47.36683" lon="0.13127">
        <ele>117.09</ele>
        <time>2020-06-14T09:15:14Z</time>
      </trkpt>
      <trkpt lat="47.36478" lon="0.13072">
        <ele>116.27</ele>
        <time>2020-06-14T09:15:28Z</time>
      </trkpt>
      <trkpt lat="47.3597" lon="0.1294">
        <ele>115.59</ele>
        <time>2020-06-14T09:16:02Z</time>
      </trkpt>
      <trkpt lat="47.35802" lon="0.12887">
        <ele>114.96</ele>
        <time>2020-06-14T09:16:12Z</time>
      </trkpt>
      <trkpt lat="47.35712" lon="0.12864">
        <ele>117.98</ele>
        <time>2020-06-14T09:16:17Z</time>
      </trkpt>
      <trkpt lat="47.35511" lon="0.12815">
        <ele>114.74</ele>
        <time>2020-06-14T09:16:28Z</time>
      </trkpt>
      <trkpt lat="47.35275" lon="0.12744">
        <ele>113.17</ele>
        <time>2020-06-14T09:16:41Z</time>
      </trkpt>
      <trkpt lat="47.35111" lon="0.12717">
        <ele>116.64</ele>
        <time>2020-06-14T09:16:50Z</time>
      </trkpt>
      <trkpt lat="47.35092" lon="0.12716">
        <ele>116.84</ele>
        <time>2020-06-14T09:16:51Z</time>
      </trkpt>
      <trkpt lat="47.34988" lon="0.12703">
        <ele>113.92</ele>
        <time>2020-06-14T09:16:57Z</time>
      </trkpt>
      <trkpt lat="47.34814" lon="0.1265">
        <ele>110.75</ele>
        <time>2020-06-14T09:17:08Z</time>
      </trkpt>
      <trkpt lat="47.34694" lon="0.12608">
        <ele>109.37</ele>
        <time>2020-06-14T09:17:17Z</time>
      </trkpt>
      <trkpt lat="47.34661" lon="0.12603">
        <ele>105.3</ele>
        <time>2020-06-14T09:17:21Z</time>
      </trkpt>
      <trkpt lat="47.34656" lon="0.12602">
        <ele>105.06</ele>
        <time>2020-06-14T09:17:59Z</time>
      </trkpt>
      <trkpt lat="47.34656" lon="0.12604">
        <ele>99.62</ele>
        <time>2020-06-14T09:18:52Z</time>
      </trkpt>
      <trkpt lat="47.34653" lon="0.12603">
        <ele>105.8</ele>
        <time>2020-06-14T09:23:47Z</time>
      </trkpt>
      <trkpt lat="47.34566" lon="0.12525">
        <ele>110.4</ele>
        <time>2020-06-14T09:23:57Z</time>
      </trkpt>
      <trkpt lat="47.34504" lon="0.12465">
        <ele>113.09</ele>
        <time>2020-06-14T09:24:02Z</time>
      </trkpt>
      <trkpt lat="47.34464" lon="0.12417">
        <ele>109.41</ele>
        <time>2020-06-14T09:24:05Z</time>
      </trkpt>
      <trkpt lat="47.34408" lon="0.12345">
        <ele>111.06</ele>
        <time>2020-06-14T09:24:09Z</time>
      </trkpt>
      <trkpt lat="47.34296" lon="0.12167">
        <ele>107.98</ele>
        <time>2020-06-14T09:24:17Z</time>
      </trkpt>
      <trkpt lat="47.34282" lon="0.12144">
        <ele>107.77</ele>
        <time>2020-06-14T09:24:18Z</time>
      </trkpt>
      <trkpt lat="47.34256" lon="0.12102">
        <ele>104.23</ele>
        <time>2020-06-14T09:24:20Z</time>
      </trkpt>
      <trkpt lat="47.34218" lon="0.1205">
        <ele>99.09</ele>
        <time>2020-06-14T09:24:23Z</time>
      </trkpt>
      <trkpt lat="47.34183" lon="0.11996">
        <ele>93.53</ele>
        <time>2020-06-14T09:24:26Z</time>
      </trkpt>
      <trkpt lat="47.34144" lon="0.1189">
        <ele>87.7</ele>
        <time>2020-06-14T09:24:31Z</time>
      </trkpt>
      <trkpt lat="47.34139" lon="0.11866">
        <ele>87.69</ele>
        <time>2020-06-14T09:24:32Z</time>
      </trkpt>
      <trkpt lat="47.34124" lon="0.11792">
        <ele>83.57</ele>
        <time>2020-06-14T09:24:35Z</time>
      </trkpt>
      <trkpt lat="47.34107" lon="0.1172">
        <ele>80</ele>
        <time>2020-06-14T09:24:38Z</time>
      </trkpt>
      <trkpt lat="47.34087" lon="0.11659">
        <ele>76.93</ele>
        <time>2020-06-14T09:24:41Z</time>
      </trkpt>
      <trkpt lat="47.34075" lon="0.11627">
        <ele>73.65</ele>
        <time>2020-06-14T09:24:43Z</time>
      </trkpt>
      <trkpt lat="47.34069" lon="0.11599">
        <ele>72.91</ele>
        <time>2020-06-14T09:24:45Z</time>
      </trkpt>
      <trkpt lat="47.34069" lon="0.11577">
        <ele>69.77</ele>
        <time>2020-06-14T09:24:48Z</time>
      </trkpt>
      <trkpt lat="47.34092" lon="0.11563">
        <ele>69.27</ele>
        <time>2020-06-14T09:24:54Z</time>
      </trkpt>
      <trkpt lat="47.34148" lon="0.11552">
        <ele>70.74</ele>
        <time>2020-06-14T09:25:02Z</time>
      </trkpt>
      <trkpt lat="47.34206" lon="0.11528">
        <ele>75.06</ele>
        <time>2020-06-14T09:25:09Z</time>
      </trkpt>
      <trkpt lat="47.34248" lon="0.11512">
        <ele>78.32</ele>
        <time>2020-06-14T09:25:13Z</time>
      </trkpt>
      <trkpt lat="47.3429" lon="0.11503">
        <ele>81.63</ele>
        <time>2020-06-14T09:25:17Z</time>
      </trkpt>
      <trkpt lat="47.34348" lon="0.11503">
        <ele>85.73</ele>
        <time>2020-06-14T09:25:22Z</time>
      </trkpt>
      <trkpt lat="47.34385" lon="0.11512">
        <ele>88.97</ele>
        <time>2020-06-14T09:25:25Z</time>
      </trkpt>
      <trkpt lat="47.34603" lon="0.11673">
        <ele>93.15</ele>
        <time>2020-06-14T09:25:43Z</time>
      </trkpt>
      <trkpt lat="47.34784" lon="0.11573">
        <ele>97.37</ele>
        <time>2020-06-14T09:25:56Z</time>
      </trkpt>
      <trkpt lat="47.34836" lon="0.11564">
        <ele>99.25</ele>
        <time>2020-06-14T09:26:00Z</time>
      </trkpt>
      <trkpt lat="47.34852" lon="0.11568">
        <ele>99.06</ele>
        <time>2020-06-14T09:26:01Z</time>
      </trkpt>
      <trkpt lat="47.34988" lon="0.11589">
        <ele>103.67</ele>
        <time>2020-06-14T09:26:09Z</time>
      </trkpt>
      <trkpt lat="47.35055" lon="0.1161">
        <ele>109.61</ele>
        <time>2020-06-14T09:26:13Z</time>
      </trkpt>
      <trkpt lat="47.35071" lon="0.11619">
        <ele>108.85</ele>
        <time>2020-06-14T09:26:14Z</time>
      </trkpt>
      <trkpt lat="47.35155" lon="0.11657">
        <ele>112.51</ele>
        <time>2020-06-14T09:26:19Z</time>
      </trkpt>
      <trkpt lat="47.35172" lon="0.11663">
        <ele>112.1</ele>
        <time>2020-06-14T09:26:20Z</time>
      </trkpt>
      <trkpt lat="47.35343" lon="0.11759">
        <ele>109.96</ele>
        <time>2020-06-14T09:26:31Z</time>
      </trkpt>
      <trkpt lat="47.35423" lon="0.11768">
        <ele>106.69</ele>
        <time>2020-06-14T09:26:36Z</time>
      </trkpt>
      <trkpt lat="47.35524" lon="0.11774">
        <ele>103.99</ele>
        <time>2020-06-14T09:26:42Z</time>
      </trkpt>
      <trkpt lat="47.35633" lon="0.11763">
        <ele>100.43</ele>
        <time>2020-06-14T09:26:48Z</time>
      </trkpt>
      <trkpt lat="47.35716" lon="0.1174">
        <ele>95.48</ele>
        <time>2020-06-14T09:26:53Z</time>
      </trkpt>
      <trkpt lat="47.35731" lon="0.11731">
        <ele>95.7</ele>
        <time>2020-06-14T09:26:54Z</time>
      </trkpt>
      <trkpt lat="47.35783" lon="0.11689">
        <ele>92.69</ele>
        <time>2020-06-14T09:26:58Z</time>
      </trkpt>
      <trkpt lat="47.35862" lon="0.11574">
        <ele>90.6</ele>
        <time>2020-06-14T09:27:05Z</time>
      </trkpt>
      <trkpt lat="47.35944" lon="0.11464">
        <ele>89.53</ele>
        <time>2020-06-14T09:27:12Z</time>
      </trkpt>
      <trkpt lat="47.35956" lon="0.11454">
        <ele>85.9</ele>
        <time>2020-06-14T09:27:14Z</time>
      </trkpt>
      <trkpt lat="47.3599" lon="0.11425">
        <ele>86.67</ele>
        <time>2020-06-14T09:27:26Z</time>
      </trkpt>
      <trkpt lat="47.3609" lon="0.11397">
        <ele>89.34</ele>
        <time>2020-06-14T09:27:36Z</time>
      </trkpt>
      <trkpt lat="47.36389" lon="0.11333">
        <ele>87.88</ele>
        <time>2020-06-14T09:27:55Z</time>
      </trkpt>
      <trkpt lat="47.36501" lon="0.11326">
        <ele>87.04</ele>
        <time>2020-06-14T09:28:02Z</time>
      </trkpt>
      <trkpt lat="47.36884" lon="0.11292">
        <ele>90.04</ele>
        <time>2020-06-14T09:28:29Z</time>
      </trkpt>
      <trkpt lat="47.36921" lon="0.11288">
        <ele>90.11</ele>
        <time>2020-06-14T09:28:33Z</time>
      </trkpt>
      <trkpt lat="47.3693" lon="0.11289">
        <ele>90.13</ele>
        <time>2020-06-14T09:28:34Z</time>
      </trkpt>
      <trkpt lat="47.36971" lon="0.11295">
        <ele>93.51</ele>
        <time>2020-06-14T09:28:38Z</time>
      </trkpt>
      <trkpt lat="47.36983" lon="0.11297">
        <ele>92.59</ele>
        <time>2020-06-14T09:28:39Z</time>
      </trkpt>
      <trkpt lat="47.37023" lon="0.11303">
        <ele>95.48</ele>
        <time>2020-06-14T09:28:42Z</time>
      </trkpt>
      <trkpt lat="47.37102" lon="0.11303">
        <ele>96.77</ele>
        <time>2020-06-14T09:28:47Z</time>
      </trkpt>
      <trkpt lat="47.37214" lon="0.11307">
        <ele>92.87</ele>
        <time>2020-06-14T09:28:54Z</time>
      </trkpt>
      <trkpt lat="47.37229" lon="0.11308">
        <ele>92.71</ele>
        <time>2020-06-14T09:28:55Z</time>
      </trkpt>
      <trkpt lat="47.3727" lon="0.11311">
        <ele>89.65</ele>
        <time>2020-06-14T09:28:58Z</time>
      </trkpt>
      <trkpt lat="47.37343" lon="0.11317">
        <ele>88.07</ele>
        <time>2020-06-14T09:29:05Z</time>
      </trkpt>
      <trkpt lat="47.37423" lon="0.11307">
        <ele>84.38</ele>
        <time>2020-06-14T09:29:12Z</time>
      </trkpt>
      <trkpt lat="47.37573" lon="0.11274">
        <ele>82.85</ele>
        <time>2020-06-14T09:29:24Z</time>
      </trkpt>
      <trkpt lat="47.37616" lon="0.11235">
        <ele>82.55</ele>
        <time>2020-06-14T09:29:28Z</time>
      </trkpt>
      <trkpt lat="47.37745" lon="0.11071">
        <ele>87.77</ele>
        <time>2020-06-14T09:29:45Z</time>
      </trkpt>
      <trkpt lat="47.37773" lon="0.11036">
        <ele>85.81</ele>
        <time>2020-06-14T09:29:50Z</time>
      </trkpt>
      <trkpt lat="47.37772" lon="0.11015">
        <ele>87.1</ele>
        <time>2020-06-14T09:29:53Z</time>
      </trkpt>
      <trkpt lat="47.37763" lon="0.10997">
        <ele>88.35</ele>
        <time>2020-06-14T09:29:55Z</time>
      </trkpt>
      <trkpt lat="47.37731" lon="0.10944">
        <ele>89.56</ele>
        <time>2020-06-14T09:30:00Z</time>
      </trkpt>
      <trkpt lat="47.37637" lon="0.10852">
        <ele>95.48</ele>
        <time>2020-06-14T09:30:10Z</time>
      </trkpt>
      <trkpt lat="47.37564" lon="0.10745">
        <ele>100.77</ele>
        <time>2020-06-14T09:30:18Z</time>
      </trkpt>
      <trkpt lat="47.37505" lon="0.10635">
        <ele>104.14</ele>
        <time>2020-06-14T09:30:25Z</time>
      </trkpt>
      <trkpt lat="47.37497" lon="0.10619">
        <ele>104.42</ele>
        <time>2020-06-14T09:30:26Z</time>
      </trkpt>
      <trkpt lat="47.37385" lon="0.10436">
        <ele>108.95</ele>
        <time>2020-06-14T09:30:39Z</time>
      </trkpt>
      <trkpt lat="47.3737" lon="0.10393">
        <ele>110.4</ele>
        <time>2020-06-14T09:30:42Z</time>
      </trkpt>
      <trkpt lat="47.3736" lon="0.10357">
        <ele>109.75</ele>
        <time>2020-06-14T09:30:45Z</time>
      </trkpt>
      <trkpt lat="47.37343" lon="0.10329">
        <ele>110.83</ele>
        <time>2020-06-14T09:30:49Z</time>
      </trkpt>
      <trkpt lat="47.37292" lon="0.10263">
        <ele>113.01</ele>
        <time>2020-06-14T09:30:58Z</time>
      </trkpt>
      <trkpt lat="47.37254" lon="0.10225">
        <ele>116.17</ele>
        <time>2020-06-14T09:31:02Z</time>
      </trkpt>
      <trkpt lat="47.37232" lon="0.102">
        <ele>118.21</ele>
        <time>2020-06-14T09:31:04Z</time>
      </trkpt>
      <trkpt lat="47.36955" lon="0.09882">
        <ele>116.4</ele>
        <time>2020-06-14T09:31:25Z</time>
      </trkpt>
      <trkpt lat="47.36939" lon="0.09869">
        <ele>116.92</ele>
        <time>2020-06-14T09:31:26Z</time>
      </trkpt>
      <trkpt lat="47.36807" lon="0.09762">
        <ele>116.65</ele>
        <time>2020-06-14T09:31:35Z</time>
      </trkpt>
      <trkpt lat="47.36724" lon="0.09703">
        <ele>118.15</ele>
        <time>2020-06-14T09:31:41Z</time>
      </trkpt>
      <trkpt lat="47.36516" lon="0.09473">
        <ele>118.09</ele>
        <time>2020-06-14T09:31:56Z</time>
      </trkpt>
      <trkpt lat="47.36457" lon="0.09421">
        <ele>114.82</ele>
        <time>2020-06-14T09:32:00Z</time>
      </trkpt>
      <trkpt lat="47.36424" lon="0.09391">
        <ele>110.57</ele>
        <time>2020-06-14T09:32:03Z</time>
      </trkpt>
      <trkpt lat="47.36409" lon="0.09377">
        <ele>106.72</ele>
        <time>2020-06-14T09:32:05Z</time>
      </trkpt>
      <trkpt lat="47.36402" lon="0.09359">
        <ele>105.14</ele>
        <time>2020-06-14T09:32:18Z</time>
      </trkpt>
      <trkpt lat="47.36409" lon="0.09348">
        <ele>106.06</ele>
        <time>2020-06-14T09:32:20Z</time>
      </trkpt>
      <trkpt lat="47.3643" lon="0.09326">
        <ele>109.06</ele>
        <time>2020-06-14T09:32:23Z</time>
      </trkpt>
      <trkpt lat="47.36529" lon="0.09233">
        <ele>116.21</ele>
        <time>2020-06-14T09:32:31Z</time>
      </trkpt>
      <trkpt lat="47.36565" lon="0.09201">
        <ele>120.07</ele>
        <time>2020-06-14T09:32:33Z</time>
      </trkpt>
      <trkpt lat="47.36587" lon="0.09187">
        <ele>120.16</ele>
        <time>2020-06-14T09:32:34Z</time>
      </trkpt>
      <trkpt lat="47.36741" lon="0.09073">
        <ele>116.49</ele>
        <time>2020-06-14T09:32:42Z</time>
      </trkpt>
      <trkpt lat="47.36762" lon="0.09065">
        <ele>117.6</ele>
        <time>2020-06-14T09:32:43Z</time>
      </trkpt>
      <trkpt lat="47.36853" lon="0.09049">
        <ele>119.67</ele>
        <time>2020-06-14T09:32:47Z</time>
      </trkpt>
      <trkpt lat="47.37064" lon="0.0902">
        <ele>112.72</ele>
        <time>2020-06-14T09:32:56Z</time>
      </trkpt>
      <trkpt lat="47.37151" lon="0.09008">
        <ele>109.27</ele>
        <time>2020-06-14T09:33:00Z</time>
      </trkpt>
      <trkpt lat="47.37269" lon="0.08988">
        <ele>105.29</ele>
        <time>2020-06-14T09:33:06Z</time>
      </trkpt>
      <trkpt lat="47.37366" lon="0.08972">
        <ele>101.42</ele>
        <time>2020-06-14T09:33:11Z</time>
      </trkpt>
      <trkpt lat="47.37429" lon="0.0897">
        <ele>102.42</ele>
        <time>2020-06-14T09:33:14Z</time>
      </trkpt>
      <trkpt lat="47.37491" lon="0.08991">
        <ele>100.37</ele>
        <time>2020-06-14T09:33:17Z</time>
      </trkpt>
      <trkpt lat="47.3753" lon="0.09013">
        <ele>95.63</ele>
        <time>2020-06-14T09:33:19Z</time>
      </trkpt>
      <trkpt lat="47.37565" lon="0.09033">
        <ele>92.34</ele>
        <time>2020-06-14T09:33:21Z</time>
      </trkpt>
      <trkpt lat="47.376" lon="0.09047">
        <ele>89.23</ele>
        <time>2020-06-14T09:33:23Z</time>
      </trkpt>
      <trkpt lat="47.37617" lon="0.09049">
        <ele>90.16</ele>
        <time>2020-06-14T09:33:24Z</time>
      </trkpt>
      <trkpt lat="47.37704" lon="0.09002">
        <ele>93.25</ele>
        <time>2020-06-14T09:33:29Z</time>
      </trkpt>
      <trkpt lat="47.37724" lon="0.08984">
        <ele>93.44</ele>
        <time>2020-06-14T09:33:30Z</time>
      </trkpt>
      <trkpt lat="47.38109" lon="0.08618">
        <ele>88.06</ele>
        <time>2020-06-14T09:33:50Z</time>
      </trkpt>
      <trkpt lat="47.38201" lon="0.08525">
        <ele>84.84</ele>
        <time>2020-06-14T09:33:55Z</time>
      </trkpt>
      <trkpt lat="47.38365" lon="0.08363">
        <ele>79.98</ele>
        <time>2020-06-14T09:34:05Z</time>
      </trkpt>
      <trkpt lat="47.38397" lon="0.08332">
        <ele>75.34</ele>
        <time>2020-06-14T09:34:08Z</time>
      </trkpt>
      <trkpt lat="47.3853" lon="0.08201">
        <ele>69.29</ele>
        <time>2020-06-14T09:34:23Z</time>
      </trkpt>
      <trkpt lat="47.38557" lon="0.08175">
        <ele>65.86</ele>
        <time>2020-06-14T09:34:26Z</time>
      </trkpt>
      <trkpt lat="47.38713" lon="0.08021">
        <ele>62.92</ele>
        <time>2020-06-14T09:34:46Z</time>
      </trkpt>
      <trkpt lat="47.38717" lon="0.08019">
        <ele>61.92</ele>
        <time>2020-06-14T09:34:47Z</time>
      </trkpt>
      <trkpt lat="47.38723" lon="0.08016">
        <ele>62.16</ele>
        <time>2020-06-14T09:34:53Z</time>
      </trkpt>
      <trkpt lat="47.38726" lon="0.08013">
        <ele>61.92</ele>
        <time>2020-06-14T09:34:55Z</time>
      </trkpt>
      <trkpt lat="47.38722" lon="0.07969">
        <ele>63.34</ele>
        <time>2020-06-14T09:35:05Z</time>
      </trkpt>
      <trkpt lat="47.38736" lon="0.07894">
        <ele>62.28</ele>
        <time>2020-06-14T09:35:14Z</time>
      </trkpt>
      <trkpt lat="47.38738" lon="0.07891">
        <ele>61.99</ele>
        <time>2020-06-14T09:35:15Z</time>
      </trkpt>
      <trkpt lat="47.38734" lon="0.07877">
        <ele>62.78</ele>
        <time>2020-06-14T09:35:19Z</time>
      </trkpt>
      <trkpt lat="47.38725" lon="0.07869">
        <ele>63.16</ele>
        <time>2020-06-14T09:35:21Z</time>
      </trkpt>
      <trkpt lat="47.38707" lon="0.07842">
        <ele>64.81</ele>
        <time>2020-06-14T09:35:25Z</time>
      </trkpt>
      <trkpt lat="47.38674" lon="0.07821">
        <ele>66.93</ele>
        <time>2020-06-14T09:35:30Z</time>
      </trkpt>
      <trkpt lat="47.38672" lon="0.07823">
        <ele>66.12</ele>
        <time>2020-06-14T09:35:37Z</time>
      </trkpt>
      <trkpt lat="47.38678" lon="0.07825">
        <ele>65.9</ele>
        <time>2020-06-14T09:35:38Z</time>
      </trkpt>
      <trkpt lat="47.38708" lon="0.07844">
        <ele>64.52</ele>
        <time>2020-06-14T09:35:42Z</time>
      </trkpt>
      <trkpt lat="47.3873" lon="0.07899">
        <ele>63.22</ele>
        <time>2020-06-14T09:35:50Z</time>
      </trkpt>
      <trkpt lat="47.38721" lon="0.07963">
        <ele>62.97</ele>
        <time>2020-06-14T09:35:57Z</time>
      </trkpt>
      <trkpt lat="47.38722" lon="0.07979">
        <ele>63.77</ele>
        <time>2020-06-14T09:36:00Z</time>
      </trkpt>
      <trkpt lat="47.38731" lon="0.07994">
        <ele>62.89</ele>
        <time>2020-06-14T09:37:05Z</time>
      </trkpt>
      <trkpt lat="47.38732" lon="0.08006">
        <ele>68.22</ele>
        <time>2020-06-14T09:39:36Z</time>
      </trkpt>
      <trkpt lat="47.3873" lon="0.08005">
        <ele>73.01</ele>
        <time>2020-06-14T09:39:51Z</time>
      </trkpt>
      <trkpt lat="47.38731" lon="0.08005">
        <ele>76.03</ele>
        <time>2020-06-14T09:40:07Z</time>
      </trkpt>
      <trkpt lat="47.3873" lon="0.08005">
        <ele>79.38</ele>
        <time>2020-06-14T09:40:29Z</time>
      </trkpt>
      <trkpt lat="47.38729" lon="0.08001">
        <ele>79.81</ele>
        <time>2020-06-14T09:41:05Z</time>
      </trkpt>
      <trkpt lat="47.38748" lon="0.07869">
        <ele>80.57</ele>
        <time>2020-06-14T09:41:22Z</time>
      </trkpt>
      <trkpt lat="47.38784" lon="0.07729">
        <ele>78.91</ele>
        <time>2020-06-14T09:41:32Z</time>
      </trkpt>
      <trkpt lat="47.38915" lon="0.07184">
        <ele>75.82</ele>
        <time>2020-06-14T09:42:05Z</time>
      </trkpt>
      <trkpt lat="47.3893" lon="0.07135">
        <ele>72.41</ele>
        <time>2020-06-14T09:42:09Z</time>
      </trkpt>
      <trkpt lat="47.38958" lon="0.07086">
        <ele>73.76</ele>
        <time>2020-06-14T09:42:17Z</time>
      </trkpt>
      <trkpt lat="47.38956" lon="0.07074">
        <ele>73.82</ele>
        <time>2020-06-14T09:42:18Z</time>
      </trkpt>
      <trkpt lat="47.39023" lon="0.06733">
        <ele>78.27</ele>
        <time>2020-06-14T09:42:35Z</time>
      </trkpt>
      <trkpt lat="47.39192" lon="0.06034">
        <ele>73.97</ele>
        <time>2020-06-14T09:43:05Z</time>
      </trkpt>
      <trkpt lat="47.39324" lon="0.0548">
        <ele>72.58</ele>
        <time>2020-06-14T09:43:38Z</time>
      </trkpt>
      <trkpt lat="47.39356" lon="0.05339">
        <ele>71</ele>
        <time>2020-06-14T09:43:49Z</time>
      </trkpt>
      <trkpt lat="47.39349" lon="0.05248">
        <ele>71.16</ele>
        <time>2020-06-14T09:44:04Z</time>
      </trkpt>
      <trkpt lat="47.39345" lon="0.05245">
        <ele>71.21</ele>
        <time>2020-06-14T09:44:05Z</time>
      </trkpt>
      <trkpt lat="47.3934" lon="0.05241">
        <ele>71.25</ele>
        <time>2020-06-14T09:44:06Z</time>
      </trkpt>
      <trkpt lat="47.39288" lon="0.05188">
        <ele>72.58</ele>
        <time>2020-06-14T09:44:17Z</time>
      </trkpt>
      <trkpt lat="47.39278" lon="0.05179">
        <ele>71.41</ele>
        <time>2020-06-14T09:44:25Z</time>
      </trkpt>
      <trkpt lat="47.39256" lon="0.05153">
        <ele>72.11</ele>
        <time>2020-06-14T09:44:58Z</time>
      </trkpt>
      <trkpt lat="47.39256" lon="0.05154">
        <ele>68.23</ele>
        <time>2020-06-14T10:35:45Z</time>
      </trkpt>
      <trkpt lat="47.39256" lon="0.05153">
        <ele>65.13</ele>
        <time>2020-06-14T10:35:59Z</time>
      </trkpt>
      <trkpt lat="47.39254" lon="0.05152">
        <ele>58.47</ele>
        <time>2020-06-14T10:38:52Z</time>
      </trkpt>
      <trkpt lat="47.39171" lon="0.05068">
        <ele>64.37</ele>
        <time>2020-06-14T10:39:04Z</time>
      </trkpt>
      <trkpt lat="47.39161" lon="0.05058">
        <ele>64.62</ele>
        <time>2020-06-14T10:39:05Z</time>
      </trkpt>
      <trkpt lat="47.38908" lon="0.0483">
        <ele>68.61</ele>
        <time>2020-06-14T10:39:28Z</time>
      </trkpt>
      <trkpt lat="47.38873" lon="0.04799">
        <ele>72.16</ele>
        <time>2020-06-14T10:39:31Z</time>
      </trkpt>
      <trkpt lat="47.38849" lon="0.04777">
        <ele>67.56</ele>
        <time>2020-06-14T10:39:33Z</time>
      </trkpt>
      <trkpt lat="47.38753" lon="0.04693">
        <ele>77.6</ele>
        <time>2020-06-14T10:39:41Z</time>
      </trkpt>
      <trkpt lat="47.38739" lon="0.04681">
        <ele>77.15</ele>
        <time>2020-06-14T10:39:42Z</time>
      </trkpt>
      <trkpt lat="47.38698" lon="0.04645">
        <ele>80.24</ele>
        <time>2020-06-14T10:39:45Z</time>
      </trkpt>
      <trkpt lat="47.38471" lon="0.04444">
        <ele>83.89</ele>
        <time>2020-06-14T10:39:59Z</time>
      </trkpt>
      <trkpt lat="47.38262" lon="0.04259">
        <ele>83.54</ele>
        <time>2020-06-14T10:40:11Z</time>
      </trkpt>
      <trkpt lat="47.38178" lon="0.04186">
        <ele>91.41</ele>
        <time>2020-06-14T10:40:16Z</time>
      </trkpt>
      <trkpt lat="47.38127" lon="0.04142">
        <ele>96.35</ele>
        <time>2020-06-14T10:40:19Z</time>
      </trkpt>
      <trkpt lat="47.3811" lon="0.04127">
        <ele>96.42</ele>
        <time>2020-06-14T10:40:20Z</time>
      </trkpt>
      <trkpt lat="47.38074" lon="0.04101">
        <ele>99.53</ele>
        <time>2020-06-14T10:40:22Z</time>
      </trkpt>
      <trkpt lat="47.38019" lon="0.04066">
        <ele>102.44</ele>
        <time>2020-06-14T10:40:25Z</time>
      </trkpt>
      <trkpt lat="47.3781" lon="0.03985">
        <ele>104.09</ele>
        <time>2020-06-14T10:40:36Z</time>
      </trkpt>
      <trkpt lat="47.37698" lon="0.03949">
        <ele>98.61</ele>
        <time>2020-06-14T10:40:43Z</time>
      </trkpt>
      <trkpt lat="47.37687" lon="0.03946">
        <ele>98.38</ele>
        <time>2020-06-14T10:40:44Z</time>
      </trkpt>
      <trkpt lat="47.37662" lon="0.03948">
        <ele>96.74</ele>
        <time>2020-06-14T10:40:47Z</time>
      </trkpt>
      <trkpt lat="47.37616" lon="0.04003">
        <ele>98.19</ele>
        <time>2020-06-14T10:40:52Z</time>
      </trkpt>
      <trkpt lat="47.37427" lon="0.04224">
        <ele>102.51</ele>
        <time>2020-06-14T10:41:06Z</time>
      </trkpt>
      <trkpt lat="47.37248" lon="0.04436">
        <ele>104.51</ele>
        <time>2020-06-14T10:41:18Z</time>
      </trkpt>
      <trkpt lat="47.37206" lon="0.04484">
        <ele>104.89</ele>
        <time>2020-06-14T10:41:21Z</time>
      </trkpt>
      <trkpt lat="47.37071" lon="0.04747">
        <ele>103.14</ele>
        <time>2020-06-14T10:41:34Z</time>
      </trkpt>
      <trkpt lat="47.37056" lon="0.04825">
        <ele>98.93</ele>
        <time>2020-06-14T10:41:38Z</time>
      </trkpt>
      <trkpt lat="47.37053" lon="0.04836">
        <ele>98.06</ele>
        <time>2020-06-14T10:41:39Z</time>
      </trkpt>
      <trkpt lat="47.37021" lon="0.0484">
        <ele>99.17</ele>
        <time>2020-06-14T10:41:44Z</time>
      </trkpt>
      <trkpt lat="47.36899" lon="0.04802">
        <ele>100.81</ele>
        <time>2020-06-14T10:41:53Z</time>
      </trkpt>
      <trkpt lat="47.36736" lon="0.04811">
        <ele>103.89</ele>
        <time>2020-06-14T10:42:03Z</time>
      </trkpt>
      <trkpt lat="47.36642" lon="0.04828">
        <ele>102.98</ele>
        <time>2020-06-14T10:42:11Z</time>
      </trkpt>
      <trkpt lat="47.36546" lon="0.04859">
        <ele>103.39</ele>
        <time>2020-06-14T10:42:19Z</time>
      </trkpt>
      <trkpt lat="47.36455" lon="0.04896">
        <ele>99.06</ele>
        <time>2020-06-14T10:42:25Z</time>
      </trkpt>
      <trkpt lat="47.36395" lon="0.04927">
        <ele>94.98</ele>
        <time>2020-06-14T10:42:29Z</time>
      </trkpt>
      <trkpt lat="47.36352" lon="0.04947">
        <ele>90.5</ele>
        <time>2020-06-14T10:42:32Z</time>
      </trkpt>
      <trkpt lat="47.36322" lon="0.04956">
        <ele>87.33</ele>
        <time>2020-06-14T10:42:34Z</time>
      </trkpt>
      <trkpt lat="47.36293" lon="0.0496">
        <ele>82.65</ele>
        <time>2020-06-14T10:42:36Z</time>
      </trkpt>
      <trkpt lat="47.36265" lon="0.04953">
        <ele>81.31</ele>
        <time>2020-06-14T10:42:38Z</time>
      </trkpt>
      <trkpt lat="47.36221" lon="0.04938">
        <ele>78.93</ele>
        <time>2020-06-14T10:42:41Z</time>
      </trkpt>
      <trkpt lat="47.3619" lon="0.04935">
        <ele>78.22</ele>
        <time>2020-06-14T10:42:43Z</time>
      </trkpt>
      <trkpt lat="47.36143" lon="0.04946">
        <ele>77.04</ele>
        <time>2020-06-14T10:42:46Z</time>
      </trkpt>
      <trkpt lat="47.36065" lon="0.04982">
        <ele>73.2</ele>
        <time>2020-06-14T10:42:51Z</time>
      </trkpt>
      <trkpt lat="47.36025" lon="0.05004">
        <ele>71.7</ele>
        <time>2020-06-14T10:42:54Z</time>
      </trkpt>
      <trkpt lat="47.36001" lon="0.05027">
        <ele>70.75</ele>
        <time>2020-06-14T10:42:56Z</time>
      </trkpt>
      <trkpt lat="47.3585" lon="0.0515">
        <ele>75.13</ele>
        <time>2020-06-14T10:43:07Z</time>
      </trkpt>
      <trkpt lat="47.35835" lon="0.05159">
        <ele>75.18</ele>
        <time>2020-06-14T10:43:08Z</time>
      </trkpt>
      <trkpt lat="47.35642" lon="0.0531">
        <ele>73.76</ele>
        <time>2020-06-14T10:43:22Z</time>
      </trkpt>
      <trkpt lat="47.35631" lon="0.05317">
        <ele>73.71</ele>
        <time>2020-06-14T10:43:23Z</time>
      </trkpt>
      <trkpt lat="47.35572" lon="0.05294">
        <ele>72.14</ele>
        <time>2020-06-14T10:43:29Z</time>
      </trkpt>
      <trkpt lat="47.35491" lon="0.05185">
        <ele>68.94</ele>
        <time>2020-06-14T10:43:37Z</time>
      </trkpt>
      <trkpt lat="47.35485" lon="0.05177">
        <ele>68.81</ele>
        <time>2020-06-14T10:43:38Z</time>
      </trkpt>
      <trkpt lat="47.35252" lon="0.04861">
        <ele>66.17</ele>
        <time>2020-06-14T10:44:00Z</time>
      </trkpt>
      <trkpt lat="47.35143" lon="0.04767">
        <ele>69.55</ele>
        <time>2020-06-14T10:44:07Z</time>
      </trkpt>
      <trkpt lat="47.35074" lon="0.04738">
        <ele>67.58</ele>
        <time>2020-06-14T10:44:12Z</time>
      </trkpt>
      <trkpt lat="47.35042" lon="0.04739">
        <ele>68.76</ele>
        <time>2020-06-14T10:44:14Z</time>
      </trkpt>
      <trkpt lat="47.34777" lon="0.04751">
        <ele>67.62</ele>
        <time>2020-06-14T10:44:29Z</time>
      </trkpt>
      <trkpt lat="47.34713" lon="0.04774">
        <ele>66.6</ele>
        <time>2020-06-14T10:44:33Z</time>
      </trkpt>
      <trkpt lat="47.3456" lon="0.0479">
        <ele>63.86</ele>
        <time>2020-06-14T10:44:42Z</time>
      </trkpt>
      <trkpt lat="47.34504" lon="0.04774">
        <ele>60.14</ele>
        <time>2020-06-14T10:44:46Z</time>
      </trkpt>
      <trkpt lat="47.34479" lon="0.04749">
        <ele>59.5</ele>
        <time>2020-06-14T10:44:48Z</time>
      </trkpt>
      <trkpt lat="47.34467" lon="0.04733">
        <ele>59.37</ele>
        <time>2020-06-14T10:44:49Z</time>
      </trkpt>
      <trkpt lat="47.34268" lon="0.04434">
        <ele>62.42</ele>
        <time>2020-06-14T10:45:04Z</time>
      </trkpt>
      <trkpt lat="47.34147" lon="0.04242">
        <ele>62.24</ele>
        <time>2020-06-14T10:45:14Z</time>
      </trkpt>
      <trkpt lat="47.34089" lon="0.04092">
        <ele>58.95</ele>
        <time>2020-06-14T10:45:22Z</time>
      </trkpt>
      <trkpt lat="47.34073" lon="0.04067">
        <ele>57.85</ele>
        <time>2020-06-14T10:45:24Z</time>
      </trkpt>
      <trkpt lat="47.34053" lon="0.04048">
        <ele>56.66</ele>
        <time>2020-06-14T10:45:26Z</time>
      </trkpt>
      <trkpt lat="47.34033" lon="0.0403">
        <ele>55.16</ele>
        <time>2020-06-14T10:45:28Z</time>
      </trkpt>
      <trkpt lat="47.34013" lon="0.04006">
        <ele>54.6</ele>
        <time>2020-06-14T10:45:30Z</time>
      </trkpt>
      <trkpt lat="47.33935" lon="0.03833">
        <ele>50.55</ele>
        <time>2020-06-14T10:45:41Z</time>
      </trkpt>
      <trkpt lat="47.33922" lon="0.03816">
        <ele>48.28</ele>
        <time>2020-06-14T10:45:44Z</time>
      </trkpt>
      <trkpt lat="47.33911" lon="0.03833">
        <ele>49.36</ele>
        <time>2020-06-14T10:45:47Z</time>
      </trkpt>
      <trkpt lat="47.33857" lon="0.03958">
        <ele>54.32</ele>
        <time>2020-06-14T10:45:55Z</time>
      </trkpt>
      <trkpt lat="47.33804" lon="0.0409">
        <ele>58.37</ele>
        <time>2020-06-14T10:46:01Z</time>
      </trkpt>
      <trkpt lat="47.33762" lon="0.04212">
        <ele>61.68</ele>
        <time>2020-06-14T10:46:06Z</time>
      </trkpt>
      <trkpt lat="47.33717" lon="0.04329">
        <ele>62.43</ele>
        <time>2020-06-14T10:46:11Z</time>
      </trkpt>
      <trkpt lat="47.33602" lon="0.0449">
        <ele>64.13</ele>
        <time>2020-06-14T10:46:22Z</time>
      </trkpt>
      <trkpt lat="47.33545" lon="0.04564">
        <ele>66.77</ele>
        <time>2020-06-14T10:46:28Z</time>
      </trkpt>
      <trkpt lat="47.33518" lon="0.04612">
        <ele>70.06</ele>
        <time>2020-06-14T10:46:31Z</time>
      </trkpt>
      <trkpt lat="47.335" lon="0.04645">
        <ele>72.47</ele>
        <time>2020-06-14T10:46:33Z</time>
      </trkpt>
      <trkpt lat="47.3346" lon="0.0473">
        <ele>75.87</ele>
        <time>2020-06-14T10:46:38Z</time>
      </trkpt>
      <trkpt lat="47.33442" lon="0.04783">
        <ele>77.85</ele>
        <time>2020-06-14T10:46:41Z</time>
      </trkpt>
      <trkpt lat="47.33437" lon="0.04799">
        <ele>78.32</ele>
        <time>2020-06-14T10:46:42Z</time>
      </trkpt>
      <trkpt lat="47.33425" lon="0.04829">
        <ele>79.09</ele>
        <time>2020-06-14T10:46:44Z</time>
      </trkpt>
      <trkpt lat="47.33374" lon="0.04866">
        <ele>83.94</ele>
        <time>2020-06-14T10:46:49Z</time>
      </trkpt>
      <trkpt lat="47.33349" lon="0.04873">
        <ele>86.32</ele>
        <time>2020-06-14T10:46:51Z</time>
      </trkpt>
      <trkpt lat="47.33299" lon="0.04905">
        <ele>92.98</ele>
        <time>2020-06-14T10:46:55Z</time>
      </trkpt>
      <trkpt lat="47.33277" lon="0.04923">
        <ele>93.76</ele>
        <time>2020-06-14T10:46:57Z</time>
      </trkpt>
      <trkpt lat="47.33236" lon="0.04968">
        <ele>98.14</ele>
        <time>2020-06-14T10:47:01Z</time>
      </trkpt>
      <trkpt lat="47.33227" lon="0.04984">
        <ele>99.64</ele>
        <time>2020-06-14T10:47:02Z</time>
      </trkpt>
      <trkpt lat="47.33177" lon="0.05066">
        <ele>100.13</ele>
        <time>2020-06-14T10:47:07Z</time>
      </trkpt>
      <trkpt lat="47.3295" lon="0.05254">
        <ele>106.1</ele>
        <time>2020-06-14T10:47:24Z</time>
      </trkpt>
      <trkpt lat="47.32921" lon="0.05275">
        <ele>107.5</ele>
        <time>2020-06-14T10:47:26Z</time>
      </trkpt>
      <trkpt lat="47.32788" lon="0.05432">
        <ele>104.43</ele>
        <time>2020-06-14T10:47:38Z</time>
      </trkpt>
      <trkpt lat="47.32763" lon="0.0549">
        <ele>105.37</ele>
        <time>2020-06-14T10:47:41Z</time>
      </trkpt>
      <trkpt lat="47.32742" lon="0.05522">
        <ele>104.36</ele>
        <time>2020-06-14T10:47:43Z</time>
      </trkpt>
      <trkpt lat="47.32658" lon="0.05646">
        <ele>104.06</ele>
        <time>2020-06-14T10:47:51Z</time>
      </trkpt>
      <trkpt lat="47.32637" lon="0.05708">
        <ele>102.66</ele>
        <time>2020-06-14T10:47:54Z</time>
      </trkpt>
      <trkpt lat="47.32583" lon="0.05995">
        <ele>103.19</ele>
        <time>2020-06-14T10:48:06Z</time>
      </trkpt>
      <trkpt lat="47.32574" lon="0.06037">
        <ele>104.23</ele>
        <time>2020-06-14T10:48:08Z</time>
      </trkpt>
      <trkpt lat="47.32521" lon="0.06104">
        <ele>105.3</ele>
        <time>2020-06-14T10:48:13Z</time>
      </trkpt>
      <trkpt lat="47.32507" lon="0.06114">
        <ele>105.51</ele>
        <time>2020-06-14T10:48:14Z</time>
      </trkpt>
      <trkpt lat="47.32478" lon="0.06137">
        <ele>105.36</ele>
        <time>2020-06-14T10:48:16Z</time>
      </trkpt>
      <trkpt lat="47.32388" lon="0.06237">
        <ele>102.45</ele>
        <time>2020-06-14T10:48:24Z</time>
      </trkpt>
      <trkpt lat="47.32371" lon="0.06248">
        <ele>100.67</ele>
        <time>2020-06-14T10:48:26Z</time>
      </trkpt>
      <trkpt lat="47.32347" lon="0.06249">
        <ele>101.99</ele>
        <time>2020-06-14T10:48:28Z</time>
      </trkpt>
      <trkpt lat="47.32254" lon="0.0623">
        <ele>105.02</ele>
        <time>2020-06-14T10:48:34Z</time>
      </trkpt>
      <trkpt lat="47.31965" lon="0.06101">
        <ele>105.48</ele>
        <time>2020-06-14T10:48:51Z</time>
      </trkpt>
      <trkpt lat="47.31794" lon="0.05992">
        <ele>104.24</ele>
        <time>2020-06-14T10:49:01Z</time>
      </trkpt>
      <trkpt lat="47.31657" lon="0.05891">
        <ele>100.23</ele>
        <time>2020-06-14T10:49:10Z</time>
      </trkpt>
      <trkpt lat="47.31606" lon="0.05895">
        <ele>97.61</ele>
        <time>2020-06-14T10:49:13Z</time>
      </trkpt>
      <trkpt lat="47.31575" lon="0.05903">
        <ele>93.22</ele>
        <time>2020-06-14T10:49:15Z</time>
      </trkpt>
      <trkpt lat="47.31547" lon="0.05915">
        <ele>89.14</ele>
        <time>2020-06-14T10:49:17Z</time>
      </trkpt>
      <trkpt lat="47.31504" lon="0.05951">
        <ele>84.72</ele>
        <time>2020-06-14T10:49:20Z</time>
      </trkpt>
      <trkpt lat="47.31475" lon="0.05978">
        <ele>80.99</ele>
        <time>2020-06-14T10:49:22Z</time>
      </trkpt>
      <trkpt lat="47.31446" lon="0.06004">
        <ele>77.41</ele>
        <time>2020-06-14T10:49:24Z</time>
      </trkpt>
      <trkpt lat="47.31417" lon="0.06028">
        <ele>74.12</ele>
        <time>2020-06-14T10:49:26Z</time>
      </trkpt>
      <trkpt lat="47.31365" lon="0.0607">
        <ele>70.9</ele>
        <time>2020-06-14T10:49:30Z</time>
      </trkpt>
      <trkpt lat="47.31261" lon="0.06103">
        <ele>65.91</ele>
        <time>2020-06-14T10:49:37Z</time>
      </trkpt>
      <trkpt lat="47.31213" lon="0.06109">
        <ele>62.35</ele>
        <time>2020-06-14T10:49:40Z</time>
      </trkpt>
      <trkpt lat="47.31197" lon="0.0611">
        <ele>62.16</ele>
        <time>2020-06-14T10:49:41Z</time>
      </trkpt>
      <trkpt lat="47.31069" lon="0.06097">
        <ele>59.11</ele>
        <time>2020-06-14T10:49:49Z</time>
      </trkpt>
      <trkpt lat="47.30831" lon="0.06038">
        <ele>53.7</ele>
        <time>2020-06-14T10:50:06Z</time>
      </trkpt>
      <trkpt lat="47.30711" lon="0.06026">
        <ele>50.49</ele>
        <time>2020-06-14T10:50:14Z</time>
      </trkpt>
      <trkpt lat="47.3055" lon="0.06009">
        <ele>46.51</ele>
        <time>2020-06-14T10:50:25Z</time>
      </trkpt>
      <trkpt lat="47.30492" lon="0.06012">
        <ele>43.25</ele>
        <time>2020-06-14T10:50:31Z</time>
      </trkpt>
      <trkpt lat="47.30453" lon="0.06012">
        <ele>44.29</ele>
        <time>2020-06-14T10:50:37Z</time>
      </trkpt>
      <trkpt lat="47.30234" lon="0.05883">
        <ele>45.58</ele>
        <time>2020-06-14T10:50:55Z</time>
      </trkpt>
      <trkpt lat="47.29838" lon="0.05588">
        <ele>42.93</ele>
        <time>2020-06-14T10:51:28Z</time>
      </trkpt>
      <trkpt lat="47.29824" lon="0.0556">
        <ele>40.98</ele>
        <time>2020-06-14T10:51:32Z</time>
      </trkpt>
      <trkpt lat="47.29829" lon="0.05537">
        <ele>42.07</ele>
        <time>2020-06-14T10:51:34Z</time>
      </trkpt>
      <trkpt lat="47.29927" lon="0.05145">
        <ele>47.48</ele>
        <time>2020-06-14T10:51:51Z</time>
      </trkpt>
      <trkpt lat="47.29949" lon="0.05053">
        <ele>43.85</ele>
        <time>2020-06-14T10:51:55Z</time>
      </trkpt>
      <trkpt lat="47.29941" lon="0.04953">
        <ele>44.03</ele>
        <time>2020-06-14T10:52:00Z</time>
      </trkpt>
      <trkpt lat="47.29917" lon="0.04878">
        <ele>42.83</ele>
        <time>2020-06-14T10:52:04Z</time>
      </trkpt>
      <trkpt lat="47.29868" lon="0.04826">
        <ele>40.29</ele>
        <time>2020-06-14T10:52:09Z</time>
      </trkpt>
      <trkpt lat="47.2986" lon="0.04821">
        <ele>39.51</ele>
        <time>2020-06-14T10:52:10Z</time>
      </trkpt>
      <trkpt lat="47.29854" lon="0.04805">
        <ele>37.21</ele>
        <time>2020-06-14T10:52:16Z</time>
      </trkpt>
      <trkpt lat="47.29872" lon="0.04762">
        <ele>40.55</ele>
        <time>2020-06-14T10:52:20Z</time>
      </trkpt>
      <trkpt lat="47.29946" lon="0.04519">
        <ele>42.97</ele>
        <time>2020-06-14T10:52:32Z</time>
      </trkpt>
      <trkpt lat="47.29968" lon="0.04448">
        <ele>43.93</ele>
        <time>2020-06-14T10:52:36Z</time>
      </trkpt>
      <trkpt lat="47.30017" lon="0.0417">
        <ele>42.63</ele>
        <time>2020-06-14T10:52:50Z</time>
      </trkpt>
      <trkpt lat="47.3002" lon="0.04155">
        <ele>41.62</ele>
        <time>2020-06-14T10:52:51Z</time>
      </trkpt>
      <trkpt lat="47.30021" lon="0.04129">
        <ele>40.64</ele>
        <time>2020-06-14T10:52:53Z</time>
      </trkpt>
      <trkpt lat="47.29994" lon="0.04092">
        <ele>42.32</ele>
        <time>2020-06-14T10:52:57Z</time>
      </trkpt>
      <trkpt lat="47.29852" lon="0.03979">
        <ele>42.2</ele>
        <time>2020-06-14T10:53:08Z</time>
      </trkpt>
      <trkpt lat="47.29688" lon="0.03929">
        <ele>44.61</ele>
        <time>2020-06-14T10:53:18Z</time>
      </trkpt>
      <trkpt lat="47.29622" lon="0.039">
        <ele>42.73</ele>
        <time>2020-06-14T10:53:22Z</time>
      </trkpt>
      <trkpt lat="47.29547" lon="0.03862">
        <ele>39.26</ele>
        <time>2020-06-14T10:53:28Z</time>
      </trkpt>
      <trkpt lat="47.29528" lon="0.0385">
        <ele>37.88</ele>
        <time>2020-06-14T10:53:34Z</time>
      </trkpt>
      <trkpt lat="47.29494" lon="0.0383">
        <ele>41.65</ele>
        <time>2020-06-14T10:53:38Z</time>
      </trkpt>
      <trkpt lat="47.29373" lon="0.03757">
        <ele>45.79</ele>
        <time>2020-06-14T10:53:46Z</time>
      </trkpt>
      <trkpt lat="47.29356" lon="0.03748">
        <ele>45.43</ele>
        <time>2020-06-14T10:53:47Z</time>
      </trkpt>
      <trkpt lat="47.29323" lon="0.03727">
        <ele>40.9</ele>
        <time>2020-06-14T10:53:49Z</time>
      </trkpt>
      <trkpt lat="47.29307" lon="0.03716">
        <ele>43.65</ele>
        <time>2020-06-14T10:53:50Z</time>
      </trkpt>
      <trkpt lat="47.29221" lon="0.03657">
        <ele>40.33</ele>
        <time>2020-06-14T10:53:56Z</time>
      </trkpt>
      <trkpt lat="47.29209" lon="0.0365">
        <ele>38.7</ele>
        <time>2020-06-14T10:53:57Z</time>
      </trkpt>
      <trkpt lat="47.29168" lon="0.03635">
        <ele>33.67</ele>
        <time>2020-06-14T10:54:00Z</time>
      </trkpt>
      <trkpt lat="47.29135" lon="0.03621">
        <ele>29.7</ele>
        <time>2020-06-14T10:54:03Z</time>
      </trkpt>
      <trkpt lat="47.29112" lon="0.03596">
        <ele>28.3</ele>
        <time>2020-06-14T10:54:06Z</time>
      </trkpt>
      <trkpt lat="47.29102" lon="0.03571">
        <ele>27.79</ele>
        <time>2020-06-14T10:54:08Z</time>
      </trkpt>
      <trkpt lat="47.2908" lon="0.03513">
        <ele>27.17</ele>
        <time>2020-06-14T10:54:13Z</time>
      </trkpt>
      <trkpt lat="47.29046" lon="0.03497">
        <ele>28.24</ele>
        <time>2020-06-14T10:54:17Z</time>
      </trkpt>
      <trkpt lat="47.29044" lon="0.03519">
        <ele>25.45</ele>
        <time>2020-06-14T10:55:08Z</time>
      </trkpt>
      <trkpt lat="47.29046" lon="0.03527">
        <ele>25.63</ele>
        <time>2020-06-14T10:55:09Z</time>
      </trkpt>
      <trkpt lat="47.29007" lon="0.03558">
        <ele>29.14</ele>
        <time>2020-06-14T10:55:16Z</time>
      </trkpt>
      <trkpt lat="47.28968" lon="0.03536">
        <ele>29.37</ele>
        <time>2020-06-14T10:55:19Z</time>
      </trkpt>
      <trkpt lat="47.2893" lon="0.03529">
        <ele>27.07</ele>
        <time>2020-06-14T10:55:22Z</time>
      </trkpt>
      <trkpt lat="47.28886" lon="0.03576">
        <ele>28.4</ele>
        <time>2020-06-14T10:55:26Z</time>
      </trkpt>
      <trkpt lat="47.28865" lon="0.03615">
        <ele>30.6</ele>
        <time>2020-06-14T10:55:28Z</time>
      </trkpt>
      <trkpt lat="47.28745" lon="0.0387">
        <ele>31.74</ele>
        <time>2020-06-14T10:55:40Z</time>
      </trkpt>
      <trkpt lat="47.28575" lon="0.04046">
        <ele>31.67</ele>
        <time>2020-06-14T10:55:52Z</time>
      </trkpt>
      <trkpt lat="47.28501" lon="0.04272">
        <ele>27.39</ele>
        <time>2020-06-14T10:56:04Z</time>
      </trkpt>
      <trkpt lat="47.28495" lon="0.04287">
        <ele>27.1</ele>
        <time>2020-06-14T10:56:05Z</time>
      </trkpt>
      <trkpt lat="47.28465" lon="0.0434">
        <ele>25.82</ele>
        <time>2020-06-14T10:56:10Z</time>
      </trkpt>
      <trkpt lat="47.28435" lon="0.04321">
        <ele>26.88</ele>
        <time>2020-06-14T10:56:16Z</time>
      </trkpt>
      <trkpt lat="47.28404" lon="0.04261">
        <ele>30.63</ele>
        <time>2020-06-14T10:56:20Z</time>
      </trkpt>
      <trkpt lat="47.28396" lon="0.04244">
        <ele>29.88</ele>
        <time>2020-06-14T10:56:21Z</time>
      </trkpt>
      <trkpt lat="47.28293" lon="0.04086">
        <ele>31.18</ele>
        <time>2020-06-14T10:56:30Z</time>
      </trkpt>
      <trkpt lat="47.28123" lon="0.03849">
        <ele>31.29</ele>
        <time>2020-06-14T10:56:43Z</time>
      </trkpt>
      <trkpt lat="47.27955" lon="0.03702">
        <ele>32.62</ele>
        <time>2020-06-14T10:56:53Z</time>
      </trkpt>
      <trkpt lat="47.2792" lon="0.03676">
        <ele>35.99</ele>
        <time>2020-06-14T10:56:55Z</time>
      </trkpt>
      <trkpt lat="47.27712" lon="0.035">
        <ele>35.1</ele>
        <time>2020-06-14T10:57:07Z</time>
      </trkpt>
      <trkpt lat="47.27569" lon="0.03386">
        <ele>31.36</ele>
        <time>2020-06-14T10:57:15Z</time>
      </trkpt>
      <trkpt lat="47.27419" lon="0.03315">
        <ele>31.77</ele>
        <time>2020-06-14T10:57:23Z</time>
      </trkpt>
      <trkpt lat="47.27282" lon="0.0316">
        <ele>28.34</ele>
        <time>2020-06-14T10:57:33Z</time>
      </trkpt>
      <trkpt lat="47.27253" lon="0.03102">
        <ele>24.72</ele>
        <time>2020-06-14T10:57:37Z</time>
      </trkpt>
      <trkpt lat="47.27249" lon="0.03086">
        <ele>23.67</ele>
        <time>2020-06-14T10:57:39Z</time>
      </trkpt>
      <trkpt lat="47.27245" lon="0.03072">
        <ele>24.01</ele>
        <time>2020-06-14T10:57:42Z</time>
      </trkpt>
      <trkpt lat="47.27235" lon="0.03064">
        <ele>24.35</ele>
        <time>2020-06-14T10:57:44Z</time>
      </trkpt>
      <trkpt lat="47.27135" lon="0.02995">
        <ele>24.4</ele>
        <time>2020-06-14T10:57:55Z</time>
      </trkpt>
      <trkpt lat="47.26931" lon="0.02897">
        <ele>24.89</ele>
        <time>2020-06-14T10:58:16Z</time>
      </trkpt>
      <trkpt lat="47.26878" lon="0.02736">
        <ele>25.49</ele>
        <time>2020-06-14T10:58:31Z</time>
      </trkpt>
      <trkpt lat="47.26802" lon="0.02206">
        <ele>26.9</ele>
        <time>2020-06-14T10:58:59Z</time>
      </trkpt>
      <trkpt lat="47.2679" lon="0.02091">
        <ele>28.5</ele>
        <time>2020-06-14T10:59:04Z</time>
      </trkpt>
      <trkpt lat="47.26775" lon="0.01922">
        <ele>25.11</ele>
        <time>2020-06-14T10:59:12Z</time>
      </trkpt>
      <trkpt lat="47.26829" lon="0.01921">
        <ele>25.43</ele>
        <time>2020-06-14T10:59:22Z</time>
      </trkpt>
      <trkpt lat="47.26874" lon="0.0184">
        <ele>24.38</ele>
        <time>2020-06-14T10:59:37Z</time>
      </trkpt>
      <trkpt lat="47.2692" lon="0.0182">
        <ele>26.33</ele>
        <time>2020-06-14T10:59:45Z</time>
      </trkpt>
      <trkpt lat="47.26968" lon="0.01834">
        <ele>23.45</ele>
        <time>2020-06-14T10:59:51Z</time>
      </trkpt>
      <trkpt lat="47.2697" lon="0.01832">
        <ele>23.54</ele>
        <time>2020-06-14T10:59:52Z</time>
      </trkpt>
      <trkpt lat="47.26975" lon="0.01807">
        <ele>25.53</ele>
        <time>2020-06-14T10:59:56Z</time>
      </trkpt>
      <trkpt lat="47.26976" lon="0.01719">
        <ele>27.74</ele>
        <time>2020-06-14T11:00:01Z</time>
      </trkpt>
      <trkpt lat="47.26982" lon="0.01647">
        <ele>30.12</ele>
        <time>2020-06-14T11:00:04Z</time>
      </trkpt>
      <trkpt lat="47.2701" lon="0.01418">
        <ele>33.84</ele>
        <time>2020-06-14T11:00:12Z</time>
      </trkpt>
      <trkpt lat="47.27053" lon="0.0106">
        <ele>33.06</ele>
        <time>2020-06-14T11:00:24Z</time>
      </trkpt>
      <trkpt lat="47.27051" lon="0.01">
        <ele>32.42</ele>
        <time>2020-06-14T11:00:26Z</time>
      </trkpt>
      <trkpt lat="47.27041" lon="0.00887">
        <ele>31.02</ele>
        <time>2020-06-14T11:00:30Z</time>
      </trkpt>
      <trkpt lat="47.27059" lon="0.00509">
        <ele>24.24</ele>
        <time>2020-06-14T11:00:45Z</time>
      </trkpt>
      <trkpt lat="47.2704" lon="0.00476">
        <ele>25.34</ele>
        <time>2020-06-14T11:00:51Z</time>
      </trkpt>
      <trkpt lat="47.26966" lon="0.00436">
        <ele>30.02</ele>
        <time>2020-06-14T11:00:57Z</time>
      </trkpt>
      <trkpt lat="47.26837" lon="0.00385">
        <ele>28.83</ele>
        <time>2020-06-14T11:01:05Z</time>
      </trkpt>
      <trkpt lat="47.26813" lon="0.00378">
        <ele>27.05</ele>
        <time>2020-06-14T11:01:07Z</time>
      </trkpt>
      <trkpt lat="47.26774" lon="0.00371">
        <ele>24.22</ele>
        <time>2020-06-14T11:01:13Z</time>
      </trkpt>
      <trkpt lat="47.2677" lon="0.00372">
        <ele>24.26</ele>
        <time>2020-06-14T11:01:14Z</time>
      </trkpt>
      <trkpt lat="47.26682" lon="0.00427">
        <ele>28.66</ele>
        <time>2020-06-14T11:01:23Z</time>
      </trkpt>
      <trkpt lat="47.26632" lon="0.00499">
        <ele>28.38</ele>
        <time>2020-06-14T11:01:29Z</time>
      </trkpt>
      <trkpt lat="47.26622" lon="0.00539">
        <ele>29.04</ele>
        <time>2020-06-14T11:01:31Z</time>
      </trkpt>
      <trkpt lat="47.26506" lon="0.00973">
        <ele>30.11</ele>
        <time>2020-06-14T11:01:50Z</time>
      </trkpt>
      <trkpt lat="47.26487" lon="0.0109">
        <ele>26.7</ele>
        <time>2020-06-14T11:01:56Z</time>
      </trkpt>
      <trkpt lat="47.26482" lon="0.01121">
        <ele>23.34</ele>
        <time>2020-06-14T11:01:59Z</time>
      </trkpt>
      <trkpt lat="47.26479" lon="0.01126">
        <ele>24.1</ele>
        <time>2020-06-14T11:02:00Z</time>
      </trkpt>
      <trkpt lat="47.26452" lon="0.01119">
        <ele>26.59</ele>
        <time>2020-06-14T11:02:04Z</time>
      </trkpt>
      <trkpt lat="47.26418" lon="0.01097">
        <ele>29.08</ele>
        <time>2020-06-14T11:02:07Z</time>
      </trkpt>
      <trkpt lat="47.26371" lon="0.01047">
        <ele>29.82</ele>
        <time>2020-06-14T11:02:11Z</time>
      </trkpt>
      <trkpt lat="47.26341" lon="0.00975">
        <ele>31.34</ele>
        <time>2020-06-14T11:02:15Z</time>
      </trkpt>
      <trkpt lat="47.2629" lon="0.00848">
        <ele>28.36</ele>
        <time>2020-06-14T11:02:22Z</time>
      </trkpt>
      <trkpt lat="47.26283" lon="0.00819">
        <ele>25.46</ele>
        <time>2020-06-14T11:02:24Z</time>
      </trkpt>
      <trkpt lat="47.26182" lon="0.00948">
        <ele>27.69</ele>
        <time>2020-06-14T11:02:43Z</time>
      </trkpt>
      <trkpt lat="47.26113" lon="0.0108">
        <ele>27.01</ele>
        <time>2020-06-14T11:02:52Z</time>
      </trkpt>
      <trkpt lat="47.261" lon="0.01113">
        <ele>27.63</ele>
        <time>2020-06-14T11:02:54Z</time>
      </trkpt>
      <trkpt lat="47.25987" lon="0.0144">
        <ele>27</ele>
        <time>2020-06-14T11:03:16Z</time>
      </trkpt>
      <trkpt lat="47.25952" lon="0.01508">
        <ele>26.81</ele>
        <time>2020-06-14T11:03:23Z</time>
      </trkpt>
      <trkpt lat="47.25919" lon="0.01501">
        <ele>30</ele>
        <time>2020-06-14T11:03:29Z</time>
      </trkpt>
      <trkpt lat="47.2584" lon="0.01412">
        <ele>30.21</ele>
        <time>2020-06-14T11:03:37Z</time>
      </trkpt>
      <trkpt lat="47.25798" lon="0.0136">
        <ele>26.99</ele>
        <time>2020-06-14T11:03:43Z</time>
      </trkpt>
      <trkpt lat="47.25795" lon="0.01357">
        <ele>26.45</ele>
        <time>2020-06-14T11:03:44Z</time>
      </trkpt>
      <trkpt lat="47.25792" lon="0.01357">
        <ele>26.17</ele>
        <time>2020-06-14T11:03:45Z</time>
      </trkpt>
      <trkpt lat="47.25713" lon="0.01551">
        <ele>26.21</ele>
        <time>2020-06-14T11:04:03Z</time>
      </trkpt>
      <trkpt lat="47.2569" lon="0.01614">
        <ele>26.14</ele>
        <time>2020-06-14T11:04:08Z</time>
      </trkpt>
      <trkpt lat="47.2562" lon="0.02069">
        <ele>25.46</ele>
        <time>2020-06-14T11:04:39Z</time>
      </trkpt>
      <trkpt lat="47.25633" lon="0.02109">
        <ele>26.35</ele>
        <time>2020-06-14T11:04:44Z</time>
      </trkpt>
      <trkpt lat="47.25653" lon="0.02145">
        <ele>26.05</ele>
        <time>2020-06-14T11:04:48Z</time>
      </trkpt>
      <trkpt lat="47.25629" lon="0.02204">
        <ele>27.55</ele>
        <time>2020-06-14T11:04:56Z</time>
      </trkpt>
      <trkpt lat="47.25436" lon="0.02273">
        <ele>26.6</ele>
        <time>2020-06-14T11:05:13Z</time>
      </trkpt>
      <trkpt lat="47.25328" lon="0.0229">
        <ele>25.42</ele>
        <time>2020-06-14T11:05:26Z</time>
      </trkpt>
      <trkpt lat="47.25326" lon="0.02302">
        <ele>25.04</ele>
        <time>2020-06-14T11:05:27Z</time>
      </trkpt>
      <trkpt lat="47.25324" lon="0.02314">
        <ele>25.07</ele>
        <time>2020-06-14T11:05:28Z</time>
      </trkpt>
      <trkpt lat="47.25287" lon="0.02341">
        <ele>27.85</ele>
        <time>2020-06-14T11:05:33Z</time>
      </trkpt>
      <trkpt lat="47.25117" lon="0.02325">
        <ele>26.53</ele>
        <time>2020-06-14T11:05:45Z</time>
      </trkpt>
      <trkpt lat="47.25099" lon="0.02333">
        <ele>25.04</ele>
        <time>2020-06-14T11:05:47Z</time>
      </trkpt>
      <trkpt lat="47.25082" lon="0.02356">
        <ele>28.4</ele>
        <time>2020-06-14T11:05:49Z</time>
      </trkpt>
      <trkpt lat="47.25073" lon="0.02369">
        <ele>28.17</ele>
        <time>2020-06-14T11:05:50Z</time>
      </trkpt>
      <trkpt lat="47.25062" lon="0.02382">
        <ele>28.89</ele>
        <time>2020-06-14T11:05:51Z</time>
      </trkpt>
      <trkpt lat="47.25011" lon="0.02421">
        <ele>27.26</ele>
        <time>2020-06-14T11:05:55Z</time>
      </trkpt>
      <trkpt lat="47.24895" lon="0.02483">
        <ele>26.65</ele>
        <time>2020-06-14T11:06:05Z</time>
      </trkpt>
      <trkpt lat="47.24886" lon="0.02492">
        <ele>26.45</ele>
        <time>2020-06-14T11:06:06Z</time>
      </trkpt>
      <trkpt lat="47.24842" lon="0.02609">
        <ele>29.91</ele>
        <time>2020-06-14T11:06:13Z</time>
      </trkpt>
      <trkpt lat="47.24833" lon="0.02632">
        <ele>29.94</ele>
        <time>2020-06-14T11:06:14Z</time>
      </trkpt>
      <trkpt lat="47.24785" lon="0.02755">
        <ele>28.66</ele>
        <time>2020-06-14T11:06:20Z</time>
      </trkpt>
      <trkpt lat="47.2478" lon="0.02776">
        <ele>28.86</ele>
        <time>2020-06-14T11:06:21Z</time>
      </trkpt>
      <trkpt lat="47.24732" lon="0.03002">
        <ele>28.97</ele>
        <time>2020-06-14T11:06:32Z</time>
      </trkpt>
      <trkpt lat="47.24729" lon="0.03043">
        <ele>26.68</ele>
        <time>2020-06-14T11:06:34Z</time>
      </trkpt>
      <trkpt lat="47.24728" lon="0.03105">
        <ele>28.17</ele>
        <time>2020-06-14T11:06:37Z</time>
      </trkpt>
      <trkpt lat="47.24702" lon="0.03319">
        <ele>26.92</ele>
        <time>2020-06-14T11:06:48Z</time>
      </trkpt>
      <trkpt lat="47.2471" lon="0.03354">
        <ele>27.08</ele>
        <time>2020-06-14T11:06:50Z</time>
      </trkpt>
      <trkpt lat="47.24716" lon="0.0337">
        <ele>26.23</ele>
        <time>2020-06-14T11:06:51Z</time>
      </trkpt>
      <trkpt lat="47.24752" lon="0.03633">
        <ele>26.29</ele>
        <time>2020-06-14T11:07:10Z</time>
      </trkpt>
      <trkpt lat="47.24706" lon="0.03618">
        <ele>30.47</ele>
        <time>2020-06-14T11:07:14Z</time>
      </trkpt>
      <trkpt lat="47.24693" lon="0.03614">
        <ele>30.72</ele>
        <time>2020-06-14T11:07:15Z</time>
      </trkpt>
      <trkpt lat="47.2452" lon="0.03542">
        <ele>30.11</ele>
        <time>2020-06-14T11:07:27Z</time>
      </trkpt>
      <trkpt lat="47.24384" lon="0.03508">
        <ele>26.31</ele>
        <time>2020-06-14T11:07:38Z</time>
      </trkpt>
      <trkpt lat="47.2437" lon="0.03543">
        <ele>26.67</ele>
        <time>2020-06-14T11:07:43Z</time>
      </trkpt>
      <trkpt lat="47.24367" lon="0.03574">
        <ele>27.34</ele>
        <time>2020-06-14T11:07:45Z</time>
      </trkpt>
      <trkpt lat="47.24353" lon="0.03633">
        <ele>25.69</ele>
        <time>2020-06-14T11:07:50Z</time>
      </trkpt>
      <trkpt lat="47.24271" lon="0.03637">
        <ele>28.79</ele>
        <time>2020-06-14T11:07:59Z</time>
      </trkpt>
      <trkpt lat="47.24149" lon="0.03661">
        <ele>30.46</ele>
        <time>2020-06-14T11:08:11Z</time>
      </trkpt>
      <trkpt lat="47.24074" lon="0.03629">
        <ele>28.63</ele>
        <time>2020-06-14T11:08:17Z</time>
      </trkpt>
      <trkpt lat="47.24029" lon="0.03636">
        <ele>28.3</ele>
        <time>2020-06-14T11:08:21Z</time>
      </trkpt>
      <trkpt lat="47.23982" lon="0.03639">
        <ele>28.37</ele>
        <time>2020-06-14T11:08:25Z</time>
      </trkpt>
      <trkpt lat="47.23874" lon="0.03648">
        <ele>30.38</ele>
        <time>2020-06-14T11:08:33Z</time>
      </trkpt>
      <trkpt lat="47.23675" lon="0.03708">
        <ele>26.41</ele>
        <time>2020-06-14T11:08:50Z</time>
      </trkpt>
      <trkpt lat="47.2367" lon="0.03709">
        <ele>26.91</ele>
        <time>2020-06-14T11:08:51Z</time>
      </trkpt>
      <trkpt lat="47.23598" lon="0.03738">
        <ele>29.05</ele>
        <time>2020-06-14T11:09:01Z</time>
      </trkpt>
      <trkpt lat="47.23563" lon="0.03736">
        <ele>29.8</ele>
        <time>2020-06-14T11:09:04Z</time>
      </trkpt>
      <trkpt lat="47.23478" lon="0.03726">
        <ele>29.98</ele>
        <time>2020-06-14T11:09:11Z</time>
      </trkpt>
      <trkpt lat="47.23467" lon="0.03721">
        <ele>29.87</ele>
        <time>2020-06-14T11:09:12Z</time>
      </trkpt>
      <trkpt lat="47.2338" lon="0.03679">
        <ele>28.05</ele>
        <time>2020-06-14T11:09:21Z</time>
      </trkpt>
      <trkpt lat="47.23371" lon="0.0368">
        <ele>28.31</ele>
        <time>2020-06-14T11:09:22Z</time>
      </trkpt>
      <trkpt lat="47.23362" lon="0.03683">
        <ele>28.12</ele>
        <time>2020-06-14T11:09:23Z</time>
      </trkpt>
      <trkpt lat="47.23334" lon="0.03692">
        <ele>27.95</ele>
        <time>2020-06-14T11:09:26Z</time>
      </trkpt>
      <trkpt lat="47.23225" lon="0.0369">
        <ele>28.11</ele>
        <time>2020-06-14T11:09:39Z</time>
      </trkpt>
      <trkpt lat="47.2321" lon="0.03708">
        <ele>29.14</ele>
        <time>2020-06-14T11:09:42Z</time>
      </trkpt>
      <trkpt lat="47.23185" lon="0.03751">
        <ele>32.74</ele>
        <time>2020-06-14T11:09:49Z</time>
      </trkpt>
      <trkpt lat="47.23174" lon="0.03778">
        <ele>33.75</ele>
        <time>2020-06-14T11:09:52Z</time>
      </trkpt>
      <trkpt lat="47.2314" lon="0.03881">
        <ele>36.85</ele>
        <time>2020-06-14T11:09:58Z</time>
      </trkpt>
      <trkpt lat="47.23097" lon="0.03989">
        <ele>35.3</ele>
        <time>2020-06-14T11:10:03Z</time>
      </trkpt>
      <trkpt lat="47.23049" lon="0.04071">
        <ele>39.09</ele>
        <time>2020-06-14T11:10:07Z</time>
      </trkpt>
      <trkpt lat="47.22815" lon="0.04852">
        <ele>38.37</ele>
        <time>2020-06-14T11:10:37Z</time>
      </trkpt>
      <trkpt lat="47.22764" lon="0.05001">
        <ele>34.02</ele>
        <time>2020-06-14T11:10:46Z</time>
      </trkpt>
      <trkpt lat="47.22719" lon="0.04998">
        <ele>37.03</ele>
        <time>2020-06-14T11:10:52Z</time>
      </trkpt>
      <trkpt lat="47.22501" lon="0.04853">
        <ele>40.96</ele>
        <time>2020-06-14T11:11:08Z</time>
      </trkpt>
      <trkpt lat="47.22152" lon="0.04623">
        <ele>36.07</ele>
        <time>2020-06-14T11:11:32Z</time>
      </trkpt>
      <trkpt lat="47.22058" lon="0.04557">
        <ele>32</ele>
        <time>2020-06-14T11:11:39Z</time>
      </trkpt>
      <trkpt lat="47.22051" lon="0.04549">
        <ele>32.09</ele>
        <time>2020-06-14T11:11:40Z</time>
      </trkpt>
      <trkpt lat="47.22047" lon="0.04499">
        <ele>33.74</ele>
        <time>2020-06-14T11:11:44Z</time>
      </trkpt>
      <trkpt lat="47.22051" lon="0.04483">
        <ele>33.62</ele>
        <time>2020-06-14T11:11:45Z</time>
      </trkpt>
      <trkpt lat="47.22112" lon="0.04284">
        <ele>38.54</ele>
        <time>2020-06-14T11:11:54Z</time>
      </trkpt>
      <trkpt lat="47.22168" lon="0.04107">
        <ele>38.76</ele>
        <time>2020-06-14T11:12:01Z</time>
      </trkpt>
      <trkpt lat="47.22297" lon="0.03705">
        <ele>35.38</ele>
        <time>2020-06-14T11:12:17Z</time>
      </trkpt>
      <trkpt lat="47.22303" lon="0.03688">
        <ele>35.34</ele>
        <time>2020-06-14T11:12:18Z</time>
      </trkpt>
      <trkpt lat="47.22312" lon="0.03659">
        <ele>32.08</ele>
        <time>2020-06-14T11:12:20Z</time>
      </trkpt>
      <trkpt lat="47.22324" lon="0.03618">
        <ele>29.81</ele>
        <time>2020-06-14T11:12:26Z</time>
      </trkpt>
      <trkpt lat="47.22324" lon="0.03611">
        <ele>30.65</ele>
        <time>2020-06-14T11:12:27Z</time>
      </trkpt>
      <trkpt lat="47.2226" lon="0.03448">
        <ele>30.82</ele>
        <time>2020-06-14T11:12:41Z</time>
      </trkpt>
      <trkpt lat="47.22264" lon="0.03433">
        <ele>31.94</ele>
        <time>2020-06-14T11:12:42Z</time>
      </trkpt>
      <trkpt lat="47.22269" lon="0.03417">
        <ele>32.21</ele>
        <time>2020-06-14T11:12:43Z</time>
      </trkpt>
      <trkpt lat="47.22386" lon="0.02924">
        <ele>27.98</ele>
        <time>2020-06-14T11:13:12Z</time>
      </trkpt>
      <trkpt lat="47.22387" lon="0.02922">
        <ele>28.29</ele>
        <time>2020-06-14T11:13:14Z</time>
      </trkpt>
      <trkpt lat="47.22377" lon="0.02913">
        <ele>30.48</ele>
        <time>2020-06-14T11:13:17Z</time>
      </trkpt>
      <trkpt lat="47.22371" lon="0.0291">
        <ele>30.49</ele>
        <time>2020-06-14T11:13:18Z</time>
      </trkpt>
      <trkpt lat="47.22276" lon="0.02875">
        <ele>34.8</ele>
        <time>2020-06-14T11:13:28Z</time>
      </trkpt>
      <trkpt lat="47.22233" lon="0.02853">
        <ele>38.01</ele>
        <time>2020-06-14T11:13:32Z</time>
      </trkpt>
      <trkpt lat="47.22201" lon="0.02833">
        <ele>40.1</ele>
        <time>2020-06-14T11:13:35Z</time>
      </trkpt>
      <trkpt lat="47.22153" lon="0.02806">
        <ele>39.44</ele>
        <time>2020-06-14T11:13:40Z</time>
      </trkpt>
      <trkpt lat="47.22128" lon="0.02802">
        <ele>37.64</ele>
        <time>2020-06-14T11:13:44Z</time>
      </trkpt>
      <trkpt lat="47.22122" lon="0.02821">
        <ele>40.49</ele>
        <time>2020-06-14T11:13:47Z</time>
      </trkpt>
      <trkpt lat="47.22115" lon="0.02858">
        <ele>45.35</ele>
        <time>2020-06-14T11:13:51Z</time>
      </trkpt>
      <trkpt lat="47.22112" lon="0.02868">
        <ele>46.35</ele>
        <time>2020-06-14T11:13:52Z</time>
      </trkpt>
      <trkpt lat="47.22102" lon="0.02885">
        <ele>49.68</ele>
        <time>2020-06-14T11:13:54Z</time>
      </trkpt>
      <trkpt lat="47.2209" lon="0.02901">
        <ele>53.45</ele>
        <time>2020-06-14T11:13:56Z</time>
      </trkpt>
      <trkpt lat="47.22065" lon="0.02946">
        <ele>59.05</ele>
        <time>2020-06-14T11:14:01Z</time>
      </trkpt>
      <trkpt lat="47.2206" lon="0.02953">
        <ele>59.06</ele>
        <time>2020-06-14T11:14:02Z</time>
      </trkpt>
      <trkpt lat="47.2205" lon="0.02971">
        <ele>59.17</ele>
        <time>2020-06-14T11:14:05Z</time>
      </trkpt>
      <trkpt lat="47.22037" lon="0.02977">
        <ele>62.8</ele>
        <time>2020-06-14T11:14:08Z</time>
      </trkpt>
      <trkpt lat="47.22032" lon="0.02976">
        <ele>63.01</ele>
        <time>2020-06-14T11:14:09Z</time>
      </trkpt>
      <trkpt lat="47.22027" lon="0.02976">
        <ele>63.36</ele>
        <time>2020-06-14T11:14:10Z</time>
      </trkpt>
      <trkpt lat="47.22008" lon="0.02983">
        <ele>64.87</ele>
        <time>2020-06-14T11:14:14Z</time>
      </trkpt>
      <trkpt lat="47.22002" lon="0.02987">
        <ele>64.44</ele>
        <time>2020-06-14T11:14:15Z</time>
      </trkpt>
      <trkpt lat="47.2198" lon="0.03024">
        <ele>67.49</ele>
        <time>2020-06-14T11:14:19Z</time>
      </trkpt>
      <trkpt lat="47.21974" lon="0.0304">
        <ele>68.53</ele>
        <time>2020-06-14T11:14:20Z</time>
      </trkpt>
      <trkpt lat="47.21844" lon="0.03269">
        <ele>69.17</ele>
        <time>2020-06-14T11:14:39Z</time>
      </trkpt>
      <trkpt lat="47.21823" lon="0.03267">
        <ele>69.21</ele>
        <time>2020-06-14T11:14:41Z</time>
      </trkpt>
      <trkpt lat="47.21787" lon="0.03294">
        <ele>71.46</ele>
        <time>2020-06-14T11:14:45Z</time>
      </trkpt>
      <trkpt lat="47.21769" lon="0.0332">
        <ele>72.35</ele>
        <time>2020-06-14T11:14:47Z</time>
      </trkpt>
      <trkpt lat="47.2173" lon="0.03363">
        <ele>71</ele>
        <time>2020-06-14T11:14:51Z</time>
      </trkpt>
      <trkpt lat="47.21712" lon="0.03409">
        <ele>70.34</ele>
        <time>2020-06-14T11:14:55Z</time>
      </trkpt>
      <trkpt lat="47.2171" lon="0.03418">
        <ele>70.4</ele>
        <time>2020-06-14T11:14:56Z</time>
      </trkpt>
      <trkpt lat="47.21685" lon="0.03429">
        <ele>73.89</ele>
        <time>2020-06-14T11:15:01Z</time>
      </trkpt>
      <trkpt lat="47.216" lon="0.03398">
        <ele>77.83</ele>
        <time>2020-06-14T11:15:08Z</time>
      </trkpt>
      <trkpt lat="47.21586" lon="0.03391">
        <ele>77.74</ele>
        <time>2020-06-14T11:15:09Z</time>
      </trkpt>
      <trkpt lat="47.21499" lon="0.03348">
        <ele>74.21</ele>
        <time>2020-06-14T11:15:15Z</time>
      </trkpt>
      <trkpt lat="47.21487" lon="0.03344">
        <ele>74.15</ele>
        <time>2020-06-14T11:15:16Z</time>
      </trkpt>
      <trkpt lat="47.21465" lon="0.03339">
        <ele>70.85</ele>
        <time>2020-06-14T11:15:18Z</time>
      </trkpt>
      <trkpt lat="47.21446" lon="0.03341">
        <ele>67.42</ele>
        <time>2020-06-14T11:15:21Z</time>
      </trkpt>
      <trkpt lat="47.21441" lon="0.03347">
        <ele>67.71</ele>
        <time>2020-06-14T11:15:22Z</time>
      </trkpt>
      <trkpt lat="47.2142" lon="0.03373">
        <ele>69.46</ele>
        <time>2020-06-14T11:15:25Z</time>
      </trkpt>
      <trkpt lat="47.21388" lon="0.03393">
        <ele>72.93</ele>
        <time>2020-06-14T11:15:28Z</time>
      </trkpt>
      <trkpt lat="47.21376" lon="0.03397">
        <ele>71.9</ele>
        <time>2020-06-14T11:15:29Z</time>
      </trkpt>
      <trkpt lat="47.21316" lon="0.03416">
        <ele>72.89</ele>
        <time>2020-06-14T11:15:34Z</time>
      </trkpt>
      <trkpt lat="47.21253" lon="0.03399">
        <ele>69.87</ele>
        <time>2020-06-14T11:15:41Z</time>
      </trkpt>
      <trkpt lat="47.21257" lon="0.03371">
        <ele>71.31</ele>
        <time>2020-06-14T11:15:44Z</time>
      </trkpt>
      <trkpt lat="47.21268" lon="0.03322">
        <ele>74.09</ele>
        <time>2020-06-14T11:15:47Z</time>
      </trkpt>
      <trkpt lat="47.2128" lon="0.03235">
        <ele>77.21</ele>
        <time>2020-06-14T11:15:51Z</time>
      </trkpt>
      <trkpt lat="47.21286" lon="0.03082">
        <ele>71.78</ele>
        <time>2020-06-14T11:15:58Z</time>
      </trkpt>
      <trkpt lat="47.21284" lon="0.03058">
        <ele>68.97</ele>
        <time>2020-06-14T11:16:01Z</time>
      </trkpt>
      <trkpt lat="47.21274" lon="0.03051">
        <ele>68.66</ele>
        <time>2020-06-14T11:16:12Z</time>
      </trkpt>
      <trkpt lat="47.21264" lon="0.03031">
        <ele>71.76</ele>
        <time>2020-06-14T11:16:15Z</time>
      </trkpt>
      <trkpt lat="47.21235" lon="0.02988">
        <ele>74.48</ele>
        <time>2020-06-14T11:16:20Z</time>
      </trkpt>
      <trkpt lat="47.21207" lon="0.02949">
        <ele>77.49</ele>
        <time>2020-06-14T11:16:23Z</time>
      </trkpt>
      <trkpt lat="47.21164" lon="0.02889">
        <ele>78.98</ele>
        <time>2020-06-14T11:16:27Z</time>
      </trkpt>
      <trkpt lat="47.21014" lon="0.02572">
        <ele>79.89</ele>
        <time>2020-06-14T11:16:44Z</time>
      </trkpt>
      <trkpt lat="47.20958" lon="0.02479">
        <ele>84.65</ele>
        <time>2020-06-14T11:16:50Z</time>
      </trkpt>
      <trkpt lat="47.20931" lon="0.02435">
        <ele>87.77</ele>
        <time>2020-06-14T11:16:53Z</time>
      </trkpt>
      <trkpt lat="47.2089" lon="0.02384">
        <ele>91.84</ele>
        <time>2020-06-14T11:16:57Z</time>
      </trkpt>
      <trkpt lat="47.20845" lon="0.02343">
        <ele>91.3</ele>
        <time>2020-06-14T11:17:01Z</time>
      </trkpt>
      <trkpt lat="47.20816" lon="0.0232">
        <ele>91.36</ele>
        <time>2020-06-14T11:17:04Z</time>
      </trkpt>
      <trkpt lat="47.20535" lon="0.02259">
        <ele>91.3</ele>
        <time>2020-06-14T11:17:27Z</time>
      </trkpt>
      <trkpt lat="47.20442" lon="0.02197">
        <ele>89.98</ele>
        <time>2020-06-14T11:17:39Z</time>
      </trkpt>
      <trkpt lat="47.20433" lon="0.02183">
        <ele>88.71</ele>
        <time>2020-06-14T11:18:30Z</time>
      </trkpt>
      <trkpt lat="47.20423" lon="0.02169">
        <ele>89.2</ele>
        <time>2020-06-14T11:19:26Z</time>
      </trkpt>
      <trkpt lat="47.20306" lon="0.01999">
        <ele>84.73</ele>
        <time>2020-06-14T11:19:44Z</time>
      </trkpt>
      <trkpt lat="47.20304" lon="0.02">
        <ele>84.46</ele>
        <time>2020-06-14T11:19:45Z</time>
      </trkpt>
      <trkpt lat="47.2029" lon="0.02045">
        <ele>88.1</ele>
        <time>2020-06-14T11:19:50Z</time>
      </trkpt>
      <trkpt lat="47.2028" lon="0.02094">
        <ele>91.35</ele>
        <time>2020-06-14T11:19:53Z</time>
      </trkpt>
      <trkpt lat="47.2025" lon="0.02204">
        <ele>90.32</ele>
        <time>2020-06-14T11:20:01Z</time>
      </trkpt>
      <trkpt lat="47.20243" lon="0.02235">
        <ele>90.52</ele>
        <time>2020-06-14T11:20:04Z</time>
      </trkpt>
      <trkpt lat="47.20211" lon="0.02356">
        <ele>88.08</ele>
        <time>2020-06-14T11:20:19Z</time>
      </trkpt>
      <trkpt lat="47.20189" lon="0.0238">
        <ele>88.47</ele>
        <time>2020-06-14T11:20:23Z</time>
      </trkpt>
      <trkpt lat="47.2012" lon="0.02424">
        <ele>82.78</ele>
        <time>2020-06-14T11:20:30Z</time>
      </trkpt>
      <trkpt lat="47.20091" lon="0.02444">
        <ele>79.59</ele>
        <time>2020-06-14T11:20:33Z</time>
      </trkpt>
      <trkpt lat="47.20072" lon="0.02483">
        <ele>77.88</ele>
        <time>2020-06-14T11:20:37Z</time>
      </trkpt>
      <trkpt lat="47.20028" lon="0.0262">
        <ele>74.8</ele>
        <time>2020-06-14T11:20:48Z</time>
      </trkpt>
      <trkpt lat="47.20008" lon="0.02657">
        <ele>72.14</ele>
        <time>2020-06-14T11:20:52Z</time>
      </trkpt>
      <trkpt lat="47.19919" lon="0.02747">
        <ele>71.15</ele>
        <time>2020-06-14T11:21:03Z</time>
      </trkpt>
      <trkpt lat="47.19901" lon="0.02988">
        <ele>68.63</ele>
        <time>2020-06-14T11:21:22Z</time>
      </trkpt>
      <trkpt lat="47.19902" lon="0.03081">
        <ele>68.62</ele>
        <time>2020-06-14T11:21:28Z</time>
      </trkpt>
      <trkpt lat="47.19902" lon="0.03097">
        <ele>68.21</ele>
        <time>2020-06-14T11:21:29Z</time>
      </trkpt>
      <trkpt lat="47.1991" lon="0.03131">
        <ele>66.14</ele>
        <time>2020-06-14T11:21:32Z</time>
      </trkpt>
      <trkpt lat="47.19892" lon="0.0317">
        <ele>69.42</ele>
        <time>2020-06-14T11:21:37Z</time>
      </trkpt>
      <trkpt lat="47.19875" lon="0.03193">
        <ele>73.5</ele>
        <time>2020-06-14T11:21:39Z</time>
      </trkpt>
      <trkpt lat="47.19848" lon="0.0322">
        <ele>76.97</ele>
        <time>2020-06-14T11:21:42Z</time>
      </trkpt>
      <trkpt lat="47.19803" lon="0.03268">
        <ele>80.9</ele>
        <time>2020-06-14T11:21:48Z</time>
      </trkpt>
      <trkpt lat="47.19798" lon="0.03269">
        <ele>81.18</ele>
        <time>2020-06-14T11:21:49Z</time>
      </trkpt>
      <trkpt lat="47.19751" lon="0.03289">
        <ele>82.97</ele>
        <time>2020-06-14T11:21:57Z</time>
      </trkpt>
      <trkpt lat="47.19731" lon="0.03315">
        <ele>79.75</ele>
        <time>2020-06-14T11:22:00Z</time>
      </trkpt>
      <trkpt lat="47.1972" lon="0.0332">
        <ele>78.09</ele>
        <time>2020-06-14T11:22:02Z</time>
      </trkpt>
      <trkpt lat="47.19682" lon="0.03348">
        <ele>76.66</ele>
        <time>2020-06-14T11:22:08Z</time>
      </trkpt>
      <trkpt lat="47.19648" lon="0.03387">
        <ele>71.83</ele>
        <time>2020-06-14T11:22:12Z</time>
      </trkpt>
      <trkpt lat="47.19639" lon="0.03396">
        <ele>70.03</ele>
        <time>2020-06-14T11:22:14Z</time>
      </trkpt>
      <trkpt lat="47.19639" lon="0.03407">
        <ele>68.93</ele>
        <time>2020-06-14T11:22:16Z</time>
      </trkpt>
      <trkpt lat="47.19623" lon="0.03439">
        <ele>69.62</ele>
        <time>2020-06-14T11:22:21Z</time>
      </trkpt>
      <trkpt lat="47.19599" lon="0.0346">
        <ele>67.55</ele>
        <time>2020-06-14T11:22:24Z</time>
      </trkpt>
      <trkpt lat="47.1958" lon="0.03464">
        <ele>65.99</ele>
        <time>2020-06-14T11:22:27Z</time>
      </trkpt>
      <trkpt lat="47.19524" lon="0.03383">
        <ele>62.49</ele>
        <time>2020-06-14T11:22:35Z</time>
      </trkpt>
      <trkpt lat="47.19482" lon="0.03366">
        <ele>59.48</ele>
        <time>2020-06-14T11:22:41Z</time>
      </trkpt>
      <trkpt lat="47.19461" lon="0.03379">
        <ele>60.24</ele>
        <time>2020-06-14T11:22:44Z</time>
      </trkpt>
      <trkpt lat="47.19445" lon="0.03392">
        <ele>61.31</ele>
        <time>2020-06-14T11:22:46Z</time>
      </trkpt>
      <trkpt lat="47.19394" lon="0.03409">
        <ele>64.72</ele>
        <time>2020-06-14T11:22:51Z</time>
      </trkpt>
      <trkpt lat="47.19373" lon="0.03414">
        <ele>65.86</ele>
        <time>2020-06-14T11:22:53Z</time>
      </trkpt>
      <trkpt lat="47.19319" lon="0.03423">
        <ele>68.32</ele>
        <time>2020-06-14T11:22:58Z</time>
      </trkpt>
      <trkpt lat="47.19288" lon="0.0343">
        <ele>69.76</ele>
        <time>2020-06-14T11:23:01Z</time>
      </trkpt>
      <trkpt lat="47.19251" lon="0.03434">
        <ele>73.58</ele>
        <time>2020-06-14T11:23:04Z</time>
      </trkpt>
      <trkpt lat="47.19238" lon="0.03435">
        <ele>73.36</ele>
        <time>2020-06-14T11:23:05Z</time>
      </trkpt>
      <trkpt lat="47.19161" lon="0.03459">
        <ele>76.98</ele>
        <time>2020-06-14T11:23:11Z</time>
      </trkpt>
      <trkpt lat="47.19148" lon="0.03462">
        <ele>77.17</ele>
        <time>2020-06-14T11:23:12Z</time>
      </trkpt>
      <trkpt lat="47.19107" lon="0.03473">
        <ele>78.53</ele>
        <time>2020-06-14T11:23:15Z</time>
      </trkpt>
      <trkpt lat="47.1905" lon="0.03497">
        <ele>81.57</ele>
        <time>2020-06-14T11:23:19Z</time>
      </trkpt>
      <trkpt lat="47.19037" lon="0.03505">
        <ele>81.45</ele>
        <time>2020-06-14T11:23:20Z</time>
      </trkpt>
      <trkpt lat="47.18969" lon="0.03531">
        <ele>85.4</ele>
        <time>2020-06-14T11:23:25Z</time>
      </trkpt>
      <trkpt lat="47.18955" lon="0.03531">
        <ele>85.03</ele>
        <time>2020-06-14T11:23:26Z</time>
      </trkpt>
      <trkpt lat="47.18942" lon="0.0353">
        <ele>84.69</ele>
        <time>2020-06-14T11:23:27Z</time>
      </trkpt>
      <trkpt lat="47.18914" lon="0.03524">
        <ele>79.47</ele>
        <time>2020-06-14T11:23:30Z</time>
      </trkpt>
      <trkpt lat="47.1891" lon="0.03522">
        <ele>79.61</ele>
        <time>2020-06-14T11:23:31Z</time>
      </trkpt>
      <trkpt lat="47.18904" lon="0.03521">
        <ele>78.35</ele>
        <time>2020-06-14T11:23:44Z</time>
      </trkpt>
      <trkpt lat="47.18912" lon="0.03559">
        <ele>79.88</ele>
        <time>2020-06-14T11:23:55Z</time>
      </trkpt>
      <trkpt lat="47.18886" lon="0.03613">
        <ele>76.69</ele>
        <time>2020-06-14T11:24:00Z</time>
      </trkpt>
      <trkpt lat="47.18853" lon="0.03677">
        <ele>73.99</ele>
        <time>2020-06-14T11:24:05Z</time>
      </trkpt>
      <trkpt lat="47.18789" lon="0.03779">
        <ele>70.88</ele>
        <time>2020-06-14T11:24:13Z</time>
      </trkpt>
      <trkpt lat="47.18646" lon="0.03957">
        <ele>65.33</ele>
        <time>2020-06-14T11:24:30Z</time>
      </trkpt>
      <trkpt lat="47.18593" lon="0.03999">
        <ele>64.31</ele>
        <time>2020-06-14T11:24:37Z</time>
      </trkpt>
      <trkpt lat="47.18578" lon="0.03979">
        <ele>67.86</ele>
        <time>2020-06-14T11:24:40Z</time>
      </trkpt>
      <trkpt lat="47.18524" lon="0.03847">
        <ele>73.58</ele>
        <time>2020-06-14T11:24:48Z</time>
      </trkpt>
      <trkpt lat="47.18456" lon="0.03728">
        <ele>71.23</ele>
        <time>2020-06-14T11:24:56Z</time>
      </trkpt>
      <trkpt lat="47.18437" lon="0.03714">
        <ele>70.21</ele>
        <time>2020-06-14T11:25:00Z</time>
      </trkpt>
      <trkpt lat="47.18416" lon="0.03728">
        <ele>73.4</ele>
        <time>2020-06-14T11:25:03Z</time>
      </trkpt>
      <trkpt lat="47.18398" lon="0.03746">
        <ele>74.77</ele>
        <time>2020-06-14T11:25:05Z</time>
      </trkpt>
      <trkpt lat="47.18389" lon="0.03757">
        <ele>75.44</ele>
        <time>2020-06-14T11:25:06Z</time>
      </trkpt>
      <trkpt lat="47.18342" lon="0.03841">
        <ele>77.12</ele>
        <time>2020-06-14T11:25:13Z</time>
      </trkpt>
      <trkpt lat="47.18312" lon="0.03873">
        <ele>77.01</ele>
        <time>2020-06-14T11:25:22Z</time>
      </trkpt>
      <trkpt lat="47.18299" lon="0.03953">
        <ele>81.16</ele>
        <time>2020-06-14T11:25:27Z</time>
      </trkpt>
      <trkpt lat="47.18285" lon="0.04012">
        <ele>84.55</ele>
        <time>2020-06-14T11:25:30Z</time>
      </trkpt>
      <trkpt lat="47.18264" lon="0.04206">
        <ele>82.32</ele>
        <time>2020-06-14T11:25:38Z</time>
      </trkpt>
      <trkpt lat="47.18198" lon="0.04379">
        <ele>85.51</ele>
        <time>2020-06-14T11:25:47Z</time>
      </trkpt>
      <trkpt lat="47.18183" lon="0.04386">
        <ele>87.42</ele>
        <time>2020-06-14T11:25:48Z</time>
      </trkpt>
      <trkpt lat="47.18083" lon="0.04434">
        <ele>88.45</ele>
        <time>2020-06-14T11:25:56Z</time>
      </trkpt>
      <trkpt lat="47.18051" lon="0.04447">
        <ele>86.38</ele>
        <time>2020-06-14T11:25:59Z</time>
      </trkpt>
      <trkpt lat="47.18037" lon="0.04464">
        <ele>86.17</ele>
        <time>2020-06-14T11:26:01Z</time>
      </trkpt>
      <trkpt lat="47.18024" lon="0.04476">
        <ele>85.88</ele>
        <time>2020-06-14T11:26:03Z</time>
      </trkpt>
      <trkpt lat="47.18048" lon="0.04587">
        <ele>84.25</ele>
        <time>2020-06-14T11:26:14Z</time>
      </trkpt>
      <trkpt lat="47.18084" lon="0.04622">
        <ele>82.65</ele>
        <time>2020-06-14T11:26:18Z</time>
      </trkpt>
      <trkpt lat="47.18151" lon="0.04654">
        <ele>78.46</ele>
        <time>2020-06-14T11:26:25Z</time>
      </trkpt>
      <trkpt lat="47.18159" lon="0.04657">
        <ele>77.73</ele>
        <time>2020-06-14T11:26:26Z</time>
      </trkpt>
      <trkpt lat="47.18168" lon="0.04665">
        <ele>77.08</ele>
        <time>2020-06-14T11:26:28Z</time>
      </trkpt>
      <trkpt lat="47.18175" lon="0.04785">
        <ele>77.5</ele>
        <time>2020-06-14T11:26:42Z</time>
      </trkpt>
      <trkpt lat="47.18189" lon="0.04956">
        <ele>76.01</ele>
        <time>2020-06-14T11:26:55Z</time>
      </trkpt>
      <trkpt lat="47.18189" lon="0.05014">
        <ele>72.78</ele>
        <time>2020-06-14T11:27:01Z</time>
      </trkpt>
      <trkpt lat="47.18192" lon="0.0502">
        <ele>72.95</ele>
        <time>2020-06-14T11:27:02Z</time>
      </trkpt>
      <trkpt lat="47.18196" lon="0.05026">
        <ele>72.79</ele>
        <time>2020-06-14T11:27:03Z</time>
      </trkpt>
      <trkpt lat="47.18204" lon="0.05035">
        <ele>72.02</ele>
        <time>2020-06-14T11:27:05Z</time>
      </trkpt>
      <trkpt lat="47.18206" lon="0.05065">
        <ele>72.46</ele>
        <time>2020-06-14T11:27:09Z</time>
      </trkpt>
      <trkpt lat="47.18203" lon="0.05102">
        <ele>71.78</ele>
        <time>2020-06-14T11:27:12Z</time>
      </trkpt>
      <trkpt lat="47.18203" lon="0.05115">
        <ele>70.99</ele>
        <time>2020-06-14T11:27:13Z</time>
      </trkpt>
      <trkpt lat="47.18205" lon="0.05168">
        <ele>67.07</ele>
        <time>2020-06-14T11:27:17Z</time>
      </trkpt>
      <trkpt lat="47.18191" lon="0.05212">
        <ele>63.41</ele>
        <time>2020-06-14T11:27:21Z</time>
      </trkpt>
      <trkpt lat="47.18188" lon="0.05224">
        <ele>62.49</ele>
        <time>2020-06-14T11:27:22Z</time>
      </trkpt>
      <trkpt lat="47.18181" lon="0.05256">
        <ele>59.06</ele>
        <time>2020-06-14T11:27:25Z</time>
      </trkpt>
      <trkpt lat="47.18183" lon="0.05272">
        <ele>58.43</ele>
        <time>2020-06-14T11:27:27Z</time>
      </trkpt>
      <trkpt lat="47.18224" lon="0.05347">
        <ele>57.76</ele>
        <time>2020-06-14T11:27:35Z</time>
      </trkpt>
      <trkpt lat="47.18203" lon="0.05429">
        <ele>59.29</ele>
        <time>2020-06-14T11:27:43Z</time>
      </trkpt>
      <trkpt lat="47.18162" lon="0.05495">
        <ele>59.86</ele>
        <time>2020-06-14T11:27:54Z</time>
      </trkpt>
      <trkpt lat="47.18143" lon="0.05514">
        <ele>63.85</ele>
        <time>2020-06-14T11:27:59Z</time>
      </trkpt>
      <trkpt lat="47.18121" lon="0.05506">
        <ele>67.5</ele>
        <time>2020-06-14T11:28:02Z</time>
      </trkpt>
      <trkpt lat="47.18097" lon="0.05501">
        <ele>71.11</ele>
        <time>2020-06-14T11:28:05Z</time>
      </trkpt>
      <trkpt lat="47.1809" lon="0.05499">
        <ele>71.59</ele>
        <time>2020-06-14T11:28:06Z</time>
      </trkpt>
      <trkpt lat="47.18084" lon="0.05495">
        <ele>71.89</ele>
        <time>2020-06-14T11:28:07Z</time>
      </trkpt>
      <trkpt lat="47.18042" lon="0.05437">
        <ele>74.61</ele>
        <time>2020-06-14T11:28:14Z</time>
      </trkpt>
      <trkpt lat="47.18016" lon="0.05456">
        <ele>75.1</ele>
        <time>2020-06-14T11:28:19Z</time>
      </trkpt>
      <trkpt lat="47.1801" lon="0.05468">
        <ele>75.23</ele>
        <time>2020-06-14T11:28:20Z</time>
      </trkpt>
      <trkpt lat="47.17967" lon="0.05564">
        <ele>76.09</ele>
        <time>2020-06-14T11:28:27Z</time>
      </trkpt>
      <trkpt lat="47.17938" lon="0.05565">
        <ele>76.74</ele>
        <time>2020-06-14T11:28:32Z</time>
      </trkpt>
      <trkpt lat="47.17814" lon="0.05468">
        <ele>72.81</ele>
        <time>2020-06-14T11:28:46Z</time>
      </trkpt>
      <trkpt lat="47.17807" lon="0.05464">
        <ele>72.28</ele>
        <time>2020-06-14T11:28:49Z</time>
      </trkpt>
      <trkpt lat="47.17794" lon="0.05507">
        <ele>76.08</ele>
        <time>2020-06-14T11:28:55Z</time>
      </trkpt>
      <trkpt lat="47.17793" lon="0.05522">
        <ele>77.32</ele>
        <time>2020-06-14T11:28:56Z</time>
      </trkpt>
      <trkpt lat="47.17785" lon="0.05634">
        <ele>81.36</ele>
        <time>2020-06-14T11:29:02Z</time>
      </trkpt>
      <trkpt lat="47.1778" lon="0.05674">
        <ele>82.42</ele>
        <time>2020-06-14T11:29:04Z</time>
      </trkpt>
      <trkpt lat="47.17749" lon="0.05822">
        <ele>85.42</ele>
        <time>2020-06-14T11:29:11Z</time>
      </trkpt>
      <trkpt lat="47.1772" lon="0.05909">
        <ele>87.88</ele>
        <time>2020-06-14T11:29:15Z</time>
      </trkpt>
      <trkpt lat="47.17682" lon="0.06021">
        <ele>84.44</ele>
        <time>2020-06-14T11:29:20Z</time>
      </trkpt>
      <trkpt lat="47.17653" lon="0.0611">
        <ele>81.04</ele>
        <time>2020-06-14T11:29:24Z</time>
      </trkpt>
      <trkpt lat="47.17613" lon="0.06202">
        <ele>78.08</ele>
        <time>2020-06-14T11:29:29Z</time>
      </trkpt>
      <trkpt lat="47.17609" lon="0.06222">
        <ele>78.53</ele>
        <time>2020-06-14T11:29:30Z</time>
      </trkpt>
      <trkpt lat="47.17606" lon="0.063">
        <ele>74.84</ele>
        <time>2020-06-14T11:29:35Z</time>
      </trkpt>
      <trkpt lat="47.17609" lon="0.0631">
        <ele>74.92</ele>
        <time>2020-06-14T11:29:36Z</time>
      </trkpt>
      <trkpt lat="47.17639" lon="0.06334">
        <ele>75.56</ele>
        <time>2020-06-14T11:29:41Z</time>
      </trkpt>
      <trkpt lat="47.17662" lon="0.06337">
        <ele>76.97</ele>
        <time>2020-06-14T11:29:45Z</time>
      </trkpt>
      <trkpt lat="47.17709" lon="0.06313">
        <ele>80.23</ele>
        <time>2020-06-14T11:29:54Z</time>
      </trkpt>
      <trkpt lat="47.17718" lon="0.06309">
        <ele>80.58</ele>
        <time>2020-06-14T11:29:55Z</time>
      </trkpt>
      <trkpt lat="47.17787" lon="0.06297">
        <ele>84.37</ele>
        <time>2020-06-14T11:30:01Z</time>
      </trkpt>
      <trkpt lat="47.17799" lon="0.06298">
        <ele>83.95</ele>
        <time>2020-06-14T11:30:02Z</time>
      </trkpt>
      <trkpt lat="47.17821" lon="0.06299">
        <ele>83.14</ele>
        <time>2020-06-14T11:30:04Z</time>
      </trkpt>
      <trkpt lat="47.17864" lon="0.06288">
        <ele>82.57</ele>
        <time>2020-06-14T11:30:08Z</time>
      </trkpt>
      <trkpt lat="47.17902" lon="0.06274">
        <ele>80.91</ele>
        <time>2020-06-14T11:30:12Z</time>
      </trkpt>
      <trkpt lat="47.17994" lon="0.06333">
        <ele>83.48</ele>
        <time>2020-06-14T11:30:22Z</time>
      </trkpt>
      <trkpt lat="47.18031" lon="0.06372">
        <ele>84.76</ele>
        <time>2020-06-14T11:30:26Z</time>
      </trkpt>
      <trkpt lat="47.18179" lon="0.06456">
        <ele>89.81</ele>
        <time>2020-06-14T11:30:39Z</time>
      </trkpt>
      <trkpt lat="47.18201" lon="0.06469">
        <ele>91.11</ele>
        <time>2020-06-14T11:30:41Z</time>
      </trkpt>
      <trkpt lat="47.18234" lon="0.06497">
        <ele>93.1</ele>
        <time>2020-06-14T11:30:45Z</time>
      </trkpt>
      <trkpt lat="47.18256" lon="0.06536">
        <ele>96.55</ele>
        <time>2020-06-14T11:30:50Z</time>
      </trkpt>
      <trkpt lat="47.18262" lon="0.06541">
        <ele>96.61</ele>
        <time>2020-06-14T11:30:51Z</time>
      </trkpt>
      <trkpt lat="47.18357" lon="0.06552">
        <ele>98.17</ele>
        <time>2020-06-14T11:31:00Z</time>
      </trkpt>
      <trkpt lat="47.184" lon="0.06558">
        <ele>98.18</ele>
        <time>2020-06-14T11:31:04Z</time>
      </trkpt>
      <trkpt lat="47.18579" lon="0.06603">
        <ele>99.64</ele>
        <time>2020-06-14T11:31:19Z</time>
      </trkpt>
      <trkpt lat="47.18642" lon="0.06617">
        <ele>99.83</ele>
        <time>2020-06-14T11:31:25Z</time>
      </trkpt>
      <trkpt lat="47.18788" lon="0.06632">
        <ele>96.49</ele>
        <time>2020-06-14T11:31:36Z</time>
      </trkpt>
      <trkpt lat="47.18943" lon="0.06656">
        <ele>93.61</ele>
        <time>2020-06-14T11:31:48Z</time>
      </trkpt>
      <trkpt lat="47.19181" lon="0.06753">
        <ele>88</ele>
        <time>2020-06-14T11:32:05Z</time>
      </trkpt>
      <trkpt lat="47.19197" lon="0.06763">
        <ele>88.38</ele>
        <time>2020-06-14T11:32:06Z</time>
      </trkpt>
      <trkpt lat="47.19296" lon="0.06818">
        <ele>84.41</ele>
        <time>2020-06-14T11:32:12Z</time>
      </trkpt>
      <trkpt lat="47.19355" lon="0.06848">
        <ele>81.06</ele>
        <time>2020-06-14T11:32:16Z</time>
      </trkpt>
      <trkpt lat="47.19419" lon="0.06879">
        <ele>76.62</ele>
        <time>2020-06-14T11:32:21Z</time>
      </trkpt>
      <trkpt lat="47.19455" lon="0.0692">
        <ele>76.25</ele>
        <time>2020-06-14T11:32:25Z</time>
      </trkpt>
      <trkpt lat="47.19531" lon="0.06981">
        <ele>71.42</ele>
        <time>2020-06-14T11:32:33Z</time>
      </trkpt>
      <trkpt lat="47.19534" lon="0.06986">
        <ele>71.35</ele>
        <time>2020-06-14T11:32:34Z</time>
      </trkpt>
      <trkpt lat="47.19491" lon="0.07147">
        <ele>76.1</ele>
        <time>2020-06-14T11:32:45Z</time>
      </trkpt>
      <trkpt lat="47.19449" lon="0.07256">
        <ele>78.19</ele>
        <time>2020-06-14T11:32:52Z</time>
      </trkpt>
      <trkpt lat="47.19412" lon="0.07372">
        <ele>78.41</ele>
        <time>2020-06-14T11:32:59Z</time>
      </trkpt>
      <trkpt lat="47.19316" lon="0.07491">
        <ele>82.38</ele>
        <time>2020-06-14T11:33:12Z</time>
      </trkpt>
      <trkpt lat="47.19231" lon="0.07563">
        <ele>81.69</ele>
        <time>2020-06-14T11:33:21Z</time>
      </trkpt>
      <trkpt lat="47.19205" lon="0.07549">
        <ele>83.68</ele>
        <time>2020-06-14T11:33:26Z</time>
      </trkpt>
      <trkpt lat="47.19163" lon="0.07487">
        <ele>83.89</ele>
        <time>2020-06-14T11:33:32Z</time>
      </trkpt>
      <trkpt lat="47.1909" lon="0.07523">
        <ele>87.39</ele>
        <time>2020-06-14T11:33:39Z</time>
      </trkpt>
      <trkpt lat="47.18995" lon="0.07581">
        <ele>92.54</ele>
        <time>2020-06-14T11:33:45Z</time>
      </trkpt>
      <trkpt lat="47.18979" lon="0.07591">
        <ele>91.68</ele>
        <time>2020-06-14T11:33:46Z</time>
      </trkpt>
      <trkpt lat="47.18873" lon="0.07656">
        <ele>89.14</ele>
        <time>2020-06-14T11:33:54Z</time>
      </trkpt>
      <trkpt lat="47.18861" lon="0.07678">
        <ele>86.81</ele>
        <time>2020-06-14T11:33:57Z</time>
      </trkpt>
      <trkpt lat="47.18872" lon="0.07713">
        <ele>88.66</ele>
        <time>2020-06-14T11:34:00Z</time>
      </trkpt>
      <trkpt lat="47.18889" lon="0.0776">
        <ele>89.75</ele>
        <time>2020-06-14T11:34:03Z</time>
      </trkpt>
      <trkpt lat="47.18908" lon="0.0785">
        <ele>93.49</ele>
        <time>2020-06-14T11:34:07Z</time>
      </trkpt>
      <trkpt lat="47.18959" lon="0.08113">
        <ele>91.32</ele>
        <time>2020-06-14T11:34:17Z</time>
      </trkpt>
      <trkpt lat="47.18974" lon="0.08188">
        <ele>87.17</ele>
        <time>2020-06-14T11:34:21Z</time>
      </trkpt>
      <trkpt lat="47.1898" lon="0.08217">
        <ele>85.04</ele>
        <time>2020-06-14T11:34:24Z</time>
      </trkpt>
      <trkpt lat="47.1898" lon="0.08224">
        <ele>84.92</ele>
        <time>2020-06-14T11:34:25Z</time>
      </trkpt>
      <trkpt lat="47.18957" lon="0.08226">
        <ele>87.31</ele>
        <time>2020-06-14T11:34:30Z</time>
      </trkpt>
      <trkpt lat="47.18902" lon="0.08202">
        <ele>90.66</ele>
        <time>2020-06-14T11:34:35Z</time>
      </trkpt>
      <trkpt lat="47.18889" lon="0.08198">
        <ele>90.34</ele>
        <time>2020-06-14T11:34:36Z</time>
      </trkpt>
      <trkpt lat="47.1859" lon="0.08113">
        <ele>83.47</ele>
        <time>2020-06-14T11:34:52Z</time>
      </trkpt>
      <trkpt lat="47.18356" lon="0.08044">
        <ele>85.22</ele>
        <time>2020-06-14T11:35:04Z</time>
      </trkpt>
      <trkpt lat="47.18211" lon="0.07974">
        <ele>79.85</ele>
        <time>2020-06-14T11:35:14Z</time>
      </trkpt>
      <trkpt lat="47.18196" lon="0.08011">
        <ele>79.83</ele>
        <time>2020-06-14T11:35:20Z</time>
      </trkpt>
      <trkpt lat="47.18188" lon="0.08229">
        <ele>75.13</ele>
        <time>2020-06-14T11:35:32Z</time>
      </trkpt>
      <trkpt lat="47.18185" lon="0.08241">
        <ele>75.34</ele>
        <time>2020-06-14T11:35:33Z</time>
      </trkpt>
      <trkpt lat="47.18167" lon="0.08281">
        <ele>75.88</ele>
        <time>2020-06-14T11:35:36Z</time>
      </trkpt>
      <trkpt lat="47.18097" lon="0.0842">
        <ele>69.63</ele>
        <time>2020-06-14T11:35:45Z</time>
      </trkpt>
      <trkpt lat="47.18094" lon="0.08443">
        <ele>68.81</ele>
        <time>2020-06-14T11:35:47Z</time>
      </trkpt>
      <trkpt lat="47.18099" lon="0.08474">
        <ele>69.87</ele>
        <time>2020-06-14T11:35:49Z</time>
      </trkpt>
      <trkpt lat="47.1813" lon="0.08555">
        <ele>72.03</ele>
        <time>2020-06-14T11:35:53Z</time>
      </trkpt>
      <trkpt lat="47.1814" lon="0.08573">
        <ele>71.13</ele>
        <time>2020-06-14T11:35:54Z</time>
      </trkpt>
      <trkpt lat="47.18172" lon="0.08648">
        <ele>68.08</ele>
        <time>2020-06-14T11:35:58Z</time>
      </trkpt>
      <trkpt lat="47.18186" lon="0.08752">
        <ele>63.75</ele>
        <time>2020-06-14T11:36:05Z</time>
      </trkpt>
      <trkpt lat="47.18184" lon="0.08761">
        <ele>63.87</ele>
        <time>2020-06-14T11:36:06Z</time>
      </trkpt>
      <trkpt lat="47.18171" lon="0.0879">
        <ele>64.06</ele>
        <time>2020-06-14T11:36:10Z</time>
      </trkpt>
      <trkpt lat="47.18166" lon="0.08795">
        <ele>63.33</ele>
        <time>2020-06-14T11:36:11Z</time>
      </trkpt>
      <trkpt lat="47.18204" lon="0.08845">
        <ele>57.32</ele>
        <time>2020-06-14T11:36:22Z</time>
      </trkpt>
      <trkpt lat="47.18205" lon="0.08849">
        <ele>57.22</ele>
        <time>2020-06-14T11:36:23Z</time>
      </trkpt>
      <trkpt lat="47.18197" lon="0.0889">
        <ele>59.27</ele>
        <time>2020-06-14T11:36:28Z</time>
      </trkpt>
      <trkpt lat="47.18186" lon="0.08931">
        <ele>64.31</ele>
        <time>2020-06-14T11:36:31Z</time>
      </trkpt>
      <trkpt lat="47.18214" lon="0.09003">
        <ele>65.69</ele>
        <time>2020-06-14T11:36:43Z</time>
      </trkpt>
      <trkpt lat="47.18205" lon="0.09197">
        <ele>67.32</ele>
        <time>2020-06-14T11:36:55Z</time>
      </trkpt>
      <trkpt lat="47.18147" lon="0.09278">
        <ele>68.24</ele>
        <time>2020-06-14T11:37:10Z</time>
      </trkpt>
      <trkpt lat="47.18122" lon="0.09391">
        <ele>65.02</ele>
        <time>2020-06-14T11:37:21Z</time>
      </trkpt>
      <trkpt lat="47.18119" lon="0.09391">
        <ele>64.76</ele>
        <time>2020-06-14T11:37:22Z</time>
      </trkpt>
      <trkpt lat="47.1809" lon="0.09371">
        <ele>67.82</ele>
        <time>2020-06-14T11:37:26Z</time>
      </trkpt>
      <trkpt lat="47.18044" lon="0.09338">
        <ele>71.08</ele>
        <time>2020-06-14T11:37:30Z</time>
      </trkpt>
      <trkpt lat="47.18019" lon="0.09316">
        <ele>73.12</ele>
        <time>2020-06-14T11:37:32Z</time>
      </trkpt>
      <trkpt lat="47.17964" lon="0.09268">
        <ele>78.51</ele>
        <time>2020-06-14T11:37:36Z</time>
      </trkpt>
      <trkpt lat="47.17829" lon="0.09157">
        <ele>81.65</ele>
        <time>2020-06-14T11:37:46Z</time>
      </trkpt>
      <trkpt lat="47.17756" lon="0.09098">
        <ele>84.09</ele>
        <time>2020-06-14T11:37:53Z</time>
      </trkpt>
      <trkpt lat="47.17688" lon="0.0902">
        <ele>86.74</ele>
        <time>2020-06-14T11:38:02Z</time>
      </trkpt>
      <trkpt lat="47.17604" lon="0.08912">
        <ele>86.4</ele>
        <time>2020-06-14T11:38:13Z</time>
      </trkpt>
      <trkpt lat="47.17593" lon="0.08919">
        <ele>84.85</ele>
        <time>2020-06-14T11:38:17Z</time>
      </trkpt>
      <trkpt lat="47.17589" lon="0.08926">
        <ele>85.34</ele>
        <time>2020-06-14T11:38:18Z</time>
      </trkpt>
      <trkpt lat="47.17582" lon="0.08955">
        <ele>85.81</ele>
        <time>2020-06-14T11:38:20Z</time>
      </trkpt>
      <trkpt lat="47.1758" lon="0.09039">
        <ele>85.52</ele>
        <time>2020-06-14T11:38:25Z</time>
      </trkpt>
      <trkpt lat="47.17518" lon="0.09289">
        <ele>85.19</ele>
        <time>2020-06-14T11:38:38Z</time>
      </trkpt>
      <trkpt lat="47.17503" lon="0.09355">
        <ele>82.16</ele>
        <time>2020-06-14T11:38:41Z</time>
      </trkpt>
      <trkpt lat="47.17499" lon="0.09377">
        <ele>82.39</ele>
        <time>2020-06-14T11:38:42Z</time>
      </trkpt>
      <trkpt lat="47.17477" lon="0.09496">
        <ele>80.37</ele>
        <time>2020-06-14T11:38:48Z</time>
      </trkpt>
      <trkpt lat="47.17467" lon="0.09535">
        <ele>80.02</ele>
        <time>2020-06-14T11:38:50Z</time>
      </trkpt>
      <trkpt lat="47.17448" lon="0.09591">
        <ele>81.8</ele>
        <time>2020-06-14T11:38:53Z</time>
      </trkpt>
      <trkpt lat="47.1744" lon="0.09682">
        <ele>80.63</ele>
        <time>2020-06-14T11:38:58Z</time>
      </trkpt>
      <trkpt lat="47.17443" lon="0.09725">
        <ele>82.21</ele>
        <time>2020-06-14T11:39:00Z</time>
      </trkpt>
      <trkpt lat="47.17437" lon="0.09908">
        <ele>80.45</ele>
        <time>2020-06-14T11:39:10Z</time>
      </trkpt>
      <trkpt lat="47.17441" lon="0.09933">
        <ele>79.67</ele>
        <time>2020-06-14T11:39:12Z</time>
      </trkpt>
      <trkpt lat="47.17441" lon="0.09959">
        <ele>78.51</ele>
        <time>2020-06-14T11:39:14Z</time>
      </trkpt>
      <trkpt lat="47.17435" lon="0.0999">
        <ele>78.3</ele>
        <time>2020-06-14T11:39:16Z</time>
      </trkpt>
      <trkpt lat="47.17432" lon="0.10006">
        <ele>79.74</ele>
        <time>2020-06-14T11:39:17Z</time>
      </trkpt>
      <trkpt lat="47.17414" lon="0.10066">
        <ele>76.65</ele>
        <time>2020-06-14T11:39:21Z</time>
      </trkpt>
      <trkpt lat="47.17395" lon="0.10104">
        <ele>73.41</ele>
        <time>2020-06-14T11:39:24Z</time>
      </trkpt>
      <trkpt lat="47.17381" lon="0.10141">
        <ele>69.73</ele>
        <time>2020-06-14T11:39:28Z</time>
      </trkpt>
      <trkpt lat="47.17389" lon="0.10172">
        <ele>69.57</ele>
        <time>2020-06-14T11:39:31Z</time>
      </trkpt>
      <trkpt lat="47.17392" lon="0.10184">
        <ele>69.68</ele>
        <time>2020-06-14T11:39:32Z</time>
      </trkpt>
      <trkpt lat="47.17423" lon="0.10286">
        <ele>65.06</ele>
        <time>2020-06-14T11:39:39Z</time>
      </trkpt>
      <trkpt lat="47.17429" lon="0.103">
        <ele>64.33</ele>
        <time>2020-06-14T11:39:40Z</time>
      </trkpt>
      <trkpt lat="47.17445" lon="0.10339">
        <ele>60.98</ele>
        <time>2020-06-14T11:39:43Z</time>
      </trkpt>
      <trkpt lat="47.1745" lon="0.10378">
        <ele>57.61</ele>
        <time>2020-06-14T11:39:46Z</time>
      </trkpt>
      <trkpt lat="47.17439" lon="0.1041">
        <ele>54</ele>
        <time>2020-06-14T11:39:49Z</time>
      </trkpt>
      <trkpt lat="47.17435" lon="0.10417">
        <ele>52.67</ele>
        <time>2020-06-14T11:39:50Z</time>
      </trkpt>
      <trkpt lat="47.17432" lon="0.10425">
        <ele>52.64</ele>
        <time>2020-06-14T11:39:51Z</time>
      </trkpt>
      <trkpt lat="47.17595" lon="0.10587">
        <ele>50.61</ele>
        <time>2020-06-14T11:40:09Z</time>
      </trkpt>
      <trkpt lat="47.17613" lon="0.10599">
        <ele>51.26</ele>
        <time>2020-06-14T11:40:11Z</time>
      </trkpt>
      <trkpt lat="47.17638" lon="0.10609">
        <ele>50.11</ele>
        <time>2020-06-14T11:40:14Z</time>
      </trkpt>
      <trkpt lat="47.17694" lon="0.10626">
        <ele>47.23</ele>
        <time>2020-06-14T11:40:21Z</time>
      </trkpt>
      <trkpt lat="47.17696" lon="0.10694">
        <ele>53.44</ele>
        <time>2020-06-14T11:40:34Z</time>
      </trkpt>
      <trkpt lat="47.17674" lon="0.10688">
        <ele>56.81</ele>
        <time>2020-06-14T11:40:37Z</time>
      </trkpt>
      <trkpt lat="47.17656" lon="0.10694">
        <ele>60.3</ele>
        <time>2020-06-14T11:40:39Z</time>
      </trkpt>
      <trkpt lat="47.17636" lon="0.10702">
        <ele>63.57</ele>
        <time>2020-06-14T11:40:41Z</time>
      </trkpt>
      <trkpt lat="47.17604" lon="0.10712">
        <ele>66.68</ele>
        <time>2020-06-14T11:40:44Z</time>
      </trkpt>
      <trkpt lat="47.17548" lon="0.10703">
        <ele>69.87</ele>
        <time>2020-06-14T11:40:50Z</time>
      </trkpt>
      <trkpt lat="47.17531" lon="0.10694">
        <ele>69.83</ele>
        <time>2020-06-14T11:40:52Z</time>
      </trkpt>
      <trkpt lat="47.1748" lon="0.10743">
        <ele>73.15</ele>
        <time>2020-06-14T11:41:00Z</time>
      </trkpt>
      <trkpt lat="47.17464" lon="0.10795">
        <ele>77.52</ele>
        <time>2020-06-14T11:41:03Z</time>
      </trkpt>
      <trkpt lat="47.17443" lon="0.10849">
        <ele>81.33</ele>
        <time>2020-06-14T11:41:06Z</time>
      </trkpt>
      <trkpt lat="47.17419" lon="0.10902">
        <ele>84.33</ele>
        <time>2020-06-14T11:41:09Z</time>
      </trkpt>
      <trkpt lat="47.17372" lon="0.11077">
        <ele>85.74</ele>
        <time>2020-06-14T11:41:20Z</time>
      </trkpt>
      <trkpt lat="47.17348" lon="0.1111">
        <ele>84.74</ele>
        <time>2020-06-14T11:41:23Z</time>
      </trkpt>
      <trkpt lat="47.17325" lon="0.11132">
        <ele>86.38</ele>
        <time>2020-06-14T11:41:25Z</time>
      </trkpt>
      <trkpt lat="47.1729" lon="0.11168">
        <ele>83.46</ele>
        <time>2020-06-14T11:41:29Z</time>
      </trkpt>
      <trkpt lat="47.17283" lon="0.11181">
        <ele>80.38</ele>
        <time>2020-06-14T11:41:31Z</time>
      </trkpt>
      <trkpt lat="47.17263" lon="0.11177">
        <ele>81.37</ele>
        <time>2020-06-14T11:41:36Z</time>
      </trkpt>
      <trkpt lat="47.17231" lon="0.11143">
        <ele>84.5</ele>
        <time>2020-06-14T11:41:40Z</time>
      </trkpt>
      <trkpt lat="47.17137" lon="0.11091">
        <ele>86.67</ele>
        <time>2020-06-14T11:41:48Z</time>
      </trkpt>
      <trkpt lat="47.17084" lon="0.11059">
        <ele>83.57</ele>
        <time>2020-06-14T11:41:52Z</time>
      </trkpt>
      <trkpt lat="47.17071" lon="0.11052">
        <ele>82.23</ele>
        <time>2020-06-14T11:41:53Z</time>
      </trkpt>
      <trkpt lat="47.17045" lon="0.11043">
        <ele>78.55</ele>
        <time>2020-06-14T11:41:55Z</time>
      </trkpt>
      <trkpt lat="47.16997" lon="0.11034">
        <ele>74</ele>
        <time>2020-06-14T11:41:59Z</time>
      </trkpt>
      <trkpt lat="47.16966" lon="0.11027">
        <ele>70.67</ele>
        <time>2020-06-14T11:42:02Z</time>
      </trkpt>
      <trkpt lat="47.16948" lon="0.11025">
        <ele>67.91</ele>
        <time>2020-06-14T11:42:04Z</time>
      </trkpt>
      <trkpt lat="47.16912" lon="0.11032">
        <ele>62.71</ele>
        <time>2020-06-14T11:42:08Z</time>
      </trkpt>
      <trkpt lat="47.16896" lon="0.11035">
        <ele>61.1</ele>
        <time>2020-06-14T11:42:10Z</time>
      </trkpt>
      <trkpt lat="47.1688" lon="0.11043">
        <ele>59.79</ele>
        <time>2020-06-14T11:42:12Z</time>
      </trkpt>
      <trkpt lat="47.16808" lon="0.11093">
        <ele>59.43</ele>
        <time>2020-06-14T11:42:19Z</time>
      </trkpt>
      <trkpt lat="47.16774" lon="0.111">
        <ele>63.41</ele>
        <time>2020-06-14T11:42:22Z</time>
      </trkpt>
      <trkpt lat="47.16752" lon="0.11102">
        <ele>66.99</ele>
        <time>2020-06-14T11:42:24Z</time>
      </trkpt>
      <trkpt lat="47.16741" lon="0.11105">
        <ele>66.75</ele>
        <time>2020-06-14T11:42:25Z</time>
      </trkpt>
      <trkpt lat="47.16697" lon="0.11158">
        <ele>69</ele>
        <time>2020-06-14T11:42:31Z</time>
      </trkpt>
      <trkpt lat="47.16691" lon="0.11175">
        <ele>69.19</ele>
        <time>2020-06-14T11:42:32Z</time>
      </trkpt>
      <trkpt lat="47.16646" lon="0.11274">
        <ele>65.59</ele>
        <time>2020-06-14T11:42:39Z</time>
      </trkpt>
      <trkpt lat="47.16537" lon="0.11215">
        <ele>61.71</ele>
        <time>2020-06-14T11:42:52Z</time>
      </trkpt>
      <trkpt lat="47.16525" lon="0.11209">
        <ele>58.31</ele>
        <time>2020-06-14T11:42:54Z</time>
      </trkpt>
      <trkpt lat="47.16507" lon="0.112">
        <ele>54.47</ele>
        <time>2020-06-14T11:42:58Z</time>
      </trkpt>
      <trkpt lat="47.16499" lon="0.11196">
        <ele>52.41</ele>
        <time>2020-06-14T11:43:00Z</time>
      </trkpt>
      <trkpt lat="47.16494" lon="0.11195">
        <ele>52.46</ele>
        <time>2020-06-14T11:43:01Z</time>
      </trkpt>
      <trkpt lat="47.16478" lon="0.11192">
        <ele>49.02</ele>
        <time>2020-06-14T11:43:05Z</time>
      </trkpt>
      <trkpt lat="47.16422" lon="0.11177">
        <ele>45.52</ele>
        <time>2020-06-14T11:43:15Z</time>
      </trkpt>
      <trkpt lat="47.16342" lon="0.11144">
        <ele>45.39</ele>
        <time>2020-06-14T11:43:24Z</time>
      </trkpt>
      <trkpt lat="47.16313" lon="0.1116">
        <ele>42.8</ele>
        <time>2020-06-14T11:43:28Z</time>
      </trkpt>
      <trkpt lat="47.16306" lon="0.1117">
        <ele>42.67</ele>
        <time>2020-06-14T11:43:29Z</time>
      </trkpt>
      <trkpt lat="47.16293" lon="0.11191">
        <ele>40.55</ele>
        <time>2020-06-14T11:43:31Z</time>
      </trkpt>
      <trkpt lat="47.16286" lon="0.11213">
        <ele>37.73</ele>
        <time>2020-06-14T11:43:34Z</time>
      </trkpt>
      <trkpt lat="47.16321" lon="0.11246">
        <ele>41</ele>
        <time>2020-06-14T11:43:39Z</time>
      </trkpt>
      <trkpt lat="47.16331" lon="0.11258">
        <ele>41.03</ele>
        <time>2020-06-14T11:43:40Z</time>
      </trkpt>
      <trkpt lat="47.16391" lon="0.11342">
        <ele>44.12</ele>
        <time>2020-06-14T11:43:45Z</time>
      </trkpt>
      <trkpt lat="47.16653" lon="0.11676">
        <ele>41.13</ele>
        <time>2020-06-14T11:44:05Z</time>
      </trkpt>
      <trkpt lat="47.16711" lon="0.11776">
        <ele>42.26</ele>
        <time>2020-06-14T11:44:10Z</time>
      </trkpt>
      <trkpt lat="47.16853" lon="0.11938">
        <ele>39.69</ele>
        <time>2020-06-14T11:44:19Z</time>
      </trkpt>
      <trkpt lat="47.1689" lon="0.11963">
        <ele>41.04</ele>
        <time>2020-06-14T11:44:21Z</time>
      </trkpt>
      <trkpt lat="47.17024" lon="0.12079">
        <ele>38.55</ele>
        <time>2020-06-14T11:44:29Z</time>
      </trkpt>
      <trkpt lat="47.17215" lon="0.12263">
        <ele>33.94</ele>
        <time>2020-06-14T11:44:43Z</time>
      </trkpt>
      <trkpt lat="47.17264" lon="0.12318">
        <ele>33.14</ele>
        <time>2020-06-14T11:44:49Z</time>
      </trkpt>
      <trkpt lat="47.17255" lon="0.12333">
        <ele>33.71</ele>
        <time>2020-06-14T11:44:54Z</time>
      </trkpt>
      <trkpt lat="47.17244" lon="0.12333">
        <ele>33.64</ele>
        <time>2020-06-14T11:44:57Z</time>
      </trkpt>
      <trkpt lat="47.17238" lon="0.12343">
        <ele>34.34</ele>
        <time>2020-06-14T11:45:00Z</time>
      </trkpt>
      <trkpt lat="47.1723" lon="0.12356">
        <ele>34.82</ele>
        <time>2020-06-14T11:45:02Z</time>
      </trkpt>
      <trkpt lat="47.17208" lon="0.12392">
        <ele>38.3</ele>
        <time>2020-06-14T11:45:06Z</time>
      </trkpt>
      <trkpt lat="47.17191" lon="0.12422">
        <ele>41.64</ele>
        <time>2020-06-14T11:45:09Z</time>
      </trkpt>
      <trkpt lat="47.17174" lon="0.1245">
        <ele>45.2</ele>
        <time>2020-06-14T11:45:12Z</time>
      </trkpt>
      <trkpt lat="47.17163" lon="0.1248">
        <ele>50.15</ele>
        <time>2020-06-14T11:45:15Z</time>
      </trkpt>
      <trkpt lat="47.17158" lon="0.12507">
        <ele>53.55</ele>
        <time>2020-06-14T11:45:17Z</time>
      </trkpt>
      <trkpt lat="47.17154" lon="0.12572">
        <ele>57.73</ele>
        <time>2020-06-14T11:45:21Z</time>
      </trkpt>
      <trkpt lat="47.17151" lon="0.12604">
        <ele>60.19</ele>
        <time>2020-06-14T11:45:23Z</time>
      </trkpt>
      <trkpt lat="47.17137" lon="0.12642">
        <ele>65.65</ele>
        <time>2020-06-14T11:45:26Z</time>
      </trkpt>
      <trkpt lat="47.1712" lon="0.12666">
        <ele>69</ele>
        <time>2020-06-14T11:45:28Z</time>
      </trkpt>
      <trkpt lat="47.1711" lon="0.12679">
        <ele>71.59</ele>
        <time>2020-06-14T11:45:29Z</time>
      </trkpt>
      <trkpt lat="47.17098" lon="0.12692">
        <ele>74.83</ele>
        <time>2020-06-14T11:45:30Z</time>
      </trkpt>
      <trkpt lat="47.17064" lon="0.12734">
        <ele>78.08</ele>
        <time>2020-06-14T11:45:33Z</time>
      </trkpt>
      <trkpt lat="47.17053" lon="0.12749">
        <ele>83.08</ele>
        <time>2020-06-14T11:45:34Z</time>
      </trkpt>
      <trkpt lat="47.17041" lon="0.12763">
        <ele>80.26</ele>
        <time>2020-06-14T11:45:35Z</time>
      </trkpt>
      <trkpt lat="47.17018" lon="0.12791">
        <ele>83.4</ele>
        <time>2020-06-14T11:45:37Z</time>
      </trkpt>
      <trkpt lat="47.1688" lon="0.12959">
        <ele>82.78</ele>
        <time>2020-06-14T11:45:48Z</time>
      </trkpt>
      <trkpt lat="47.16869" lon="0.12986">
        <ele>82.17</ele>
        <time>2020-06-14T11:45:50Z</time>
      </trkpt>
      <trkpt lat="47.16864" lon="0.13016">
        <ele>81.3</ele>
        <time>2020-06-14T11:45:52Z</time>
      </trkpt>
      <trkpt lat="47.16845" lon="0.13127">
        <ele>77.37</ele>
        <time>2020-06-14T11:46:00Z</time>
      </trkpt>
      <trkpt lat="47.16816" lon="0.13141">
        <ele>74.02</ele>
        <time>2020-06-14T11:46:04Z</time>
      </trkpt>
      <trkpt lat="47.16805" lon="0.13138">
        <ele>73.24</ele>
        <time>2020-06-14T11:46:05Z</time>
      </trkpt>
      <trkpt lat="47.1676" lon="0.13123">
        <ele>68.91</ele>
        <time>2020-06-14T11:46:09Z</time>
      </trkpt>
      <trkpt lat="47.16736" lon="0.13118">
        <ele>67.07</ele>
        <time>2020-06-14T11:46:12Z</time>
      </trkpt>
      <trkpt lat="47.16731" lon="0.13113">
        <ele>67.94</ele>
        <time>2020-06-14T11:46:13Z</time>
      </trkpt>
      <trkpt lat="47.16725" lon="0.13105">
        <ele>68.38</ele>
        <time>2020-06-14T11:46:14Z</time>
      </trkpt>
      <trkpt lat="47.1668" lon="0.13045">
        <ele>73.06</ele>
        <time>2020-06-14T11:46:19Z</time>
      </trkpt>
      <trkpt lat="47.16651" lon="0.1302">
        <ele>73.9</ele>
        <time>2020-06-14T11:46:21Z</time>
      </trkpt>
      <trkpt lat="47.16595" lon="0.1297">
        <ele>77.95</ele>
        <time>2020-06-14T11:46:25Z</time>
      </trkpt>
      <trkpt lat="47.16582" lon="0.12958">
        <ele>77.95</ele>
        <time>2020-06-14T11:46:26Z</time>
      </trkpt>
      <trkpt lat="47.16528" lon="0.12907">
        <ele>74.45</ele>
        <time>2020-06-14T11:46:32Z</time>
      </trkpt>
      <trkpt lat="47.16522" lon="0.12905">
        <ele>75.33</ele>
        <time>2020-06-14T11:46:33Z</time>
      </trkpt>
      <trkpt lat="47.16471" lon="0.12981">
        <ele>83.45</ele>
        <time>2020-06-14T11:46:40Z</time>
      </trkpt>
      <trkpt lat="47.16426" lon="0.13061">
        <ele>79.33</ele>
        <time>2020-06-14T11:46:47Z</time>
      </trkpt>
      <trkpt lat="47.16441" lon="0.1312">
        <ele>81.67</ele>
        <time>2020-06-14T11:46:52Z</time>
      </trkpt>
      <trkpt lat="47.16478" lon="0.13199">
        <ele>84.63</ele>
        <time>2020-06-14T11:46:56Z</time>
      </trkpt>
      <trkpt lat="47.16549" lon="0.13407">
        <ele>80.35</ele>
        <time>2020-06-14T11:47:05Z</time>
      </trkpt>
      <trkpt lat="47.16564" lon="0.13474">
        <ele>83.72</ele>
        <time>2020-06-14T11:47:08Z</time>
      </trkpt>
      <trkpt lat="47.16589" lon="0.13556">
        <ele>80.01</ele>
        <time>2020-06-14T11:47:12Z</time>
      </trkpt>
      <trkpt lat="47.16603" lon="0.1359">
        <ele>79.25</ele>
        <time>2020-06-14T11:47:14Z</time>
      </trkpt>
      <trkpt lat="47.16611" lon="0.13604">
        <ele>79.47</ele>
        <time>2020-06-14T11:47:15Z</time>
      </trkpt>
      <trkpt lat="47.16642" lon="0.13662">
        <ele>76.15</ele>
        <time>2020-06-14T11:47:20Z</time>
      </trkpt>
      <trkpt lat="47.16645" lon="0.13674">
        <ele>76.55</ele>
        <time>2020-06-14T11:47:21Z</time>
      </trkpt>
      <trkpt lat="47.16646" lon="0.13688">
        <ele>76.11</ele>
        <time>2020-06-14T11:47:22Z</time>
      </trkpt>
      <trkpt lat="47.16654" lon="0.13831">
        <ele>72.87</ele>
        <time>2020-06-14T11:47:30Z</time>
      </trkpt>
      <trkpt lat="47.16664" lon="0.13857">
        <ele>72.08</ele>
        <time>2020-06-14T11:47:32Z</time>
      </trkpt>
      <trkpt lat="47.167" lon="0.13918">
        <ele>66.5</ele>
        <time>2020-06-14T11:47:37Z</time>
      </trkpt>
      <trkpt lat="47.1671" lon="0.13935">
        <ele>64.32</ele>
        <time>2020-06-14T11:47:39Z</time>
      </trkpt>
      <trkpt lat="47.16703" lon="0.1398">
        <ele>61.95</ele>
        <time>2020-06-14T11:47:44Z</time>
      </trkpt>
      <trkpt lat="47.16688" lon="0.14012">
        <ele>58.79</ele>
        <time>2020-06-14T11:47:48Z</time>
      </trkpt>
      <trkpt lat="47.16693" lon="0.14044">
        <ele>55.55</ele>
        <time>2020-06-14T11:47:54Z</time>
      </trkpt>
      <trkpt lat="47.16718" lon="0.14071">
        <ele>51.88</ele>
        <time>2020-06-14T11:47:59Z</time>
      </trkpt>
      <trkpt lat="47.16727" lon="0.14102">
        <ele>47.49</ele>
        <time>2020-06-14T11:48:04Z</time>
      </trkpt>
      <trkpt lat="47.16726" lon="0.14136">
        <ele>46.02</ele>
        <time>2020-06-14T11:48:09Z</time>
      </trkpt>
      <trkpt lat="47.16727" lon="0.14161">
        <ele>43.96</ele>
        <time>2020-06-14T11:48:12Z</time>
      </trkpt>
      <trkpt lat="47.16725" lon="0.14175">
        <ele>43.07</ele>
        <time>2020-06-14T11:48:14Z</time>
      </trkpt>
      <trkpt lat="47.16736" lon="0.14204">
        <ele>41.47</ele>
        <time>2020-06-14T11:48:18Z</time>
      </trkpt>
      <trkpt lat="47.16741" lon="0.14211">
        <ele>40.94</ele>
        <time>2020-06-14T11:48:19Z</time>
      </trkpt>
      <trkpt lat="47.16742" lon="0.1426">
        <ele>37.06</ele>
        <time>2020-06-14T11:48:24Z</time>
      </trkpt>
      <trkpt lat="47.16725" lon="0.14291">
        <ele>34.01</ele>
        <time>2020-06-14T11:48:27Z</time>
      </trkpt>
      <trkpt lat="47.16714" lon="0.14306">
        <ele>30.97</ele>
        <time>2020-06-14T11:48:30Z</time>
      </trkpt>
      <trkpt lat="47.167" lon="0.14301">
        <ele>31.02</ele>
        <time>2020-06-14T11:48:33Z</time>
      </trkpt>
      <trkpt lat="47.16673" lon="0.14272">
        <ele>33.77</ele>
        <time>2020-06-14T11:48:37Z</time>
      </trkpt>
      <trkpt lat="47.16653" lon="0.14253">
        <ele>33.62</ele>
        <time>2020-06-14T11:48:40Z</time>
      </trkpt>
      <trkpt lat="47.16591" lon="0.14258">
        <ele>36.8</ele>
        <time>2020-06-14T11:48:47Z</time>
      </trkpt>
      <trkpt lat="47.16582" lon="0.14253">
        <ele>36.9</ele>
        <time>2020-06-14T11:48:48Z</time>
      </trkpt>
      <trkpt lat="47.16564" lon="0.14238">
        <ele>38.02</ele>
        <time>2020-06-14T11:48:50Z</time>
      </trkpt>
      <trkpt lat="47.16554" lon="0.14228">
        <ele>38.69</ele>
        <time>2020-06-14T11:48:51Z</time>
      </trkpt>
      <trkpt lat="47.16535" lon="0.14208">
        <ele>39.69</ele>
        <time>2020-06-14T11:48:53Z</time>
      </trkpt>
      <trkpt lat="47.16502" lon="0.14185">
        <ele>40.99</ele>
        <time>2020-06-14T11:48:56Z</time>
      </trkpt>
      <trkpt lat="47.16453" lon="0.14161">
        <ele>45.04</ele>
        <time>2020-06-14T11:49:00Z</time>
      </trkpt>
      <trkpt lat="47.16442" lon="0.14152">
        <ele>44.26</ele>
        <time>2020-06-14T11:49:01Z</time>
      </trkpt>
      <trkpt lat="47.16378" lon="0.14077">
        <ele>48.86</ele>
        <time>2020-06-14T11:49:08Z</time>
      </trkpt>
      <trkpt lat="47.16358" lon="0.1405">
        <ele>46.84</ele>
        <time>2020-06-14T11:49:11Z</time>
      </trkpt>
      <trkpt lat="47.16328" lon="0.1407">
        <ele>46.39</ele>
        <time>2020-06-14T11:49:16Z</time>
      </trkpt>
      <trkpt lat="47.16321" lon="0.14084">
        <ele>47.57</ele>
        <time>2020-06-14T11:49:17Z</time>
      </trkpt>
      <trkpt lat="47.1627" lon="0.14209">
        <ele>51.58</ele>
        <time>2020-06-14T11:49:24Z</time>
      </trkpt>
      <trkpt lat="47.16249" lon="0.14269">
        <ele>53.29</ele>
        <time>2020-06-14T11:49:27Z</time>
      </trkpt>
      <trkpt lat="47.16215" lon="0.14389">
        <ele>48.27</ele>
        <time>2020-06-14T11:49:33Z</time>
      </trkpt>
      <trkpt lat="47.16207" lon="0.14431">
        <ele>44.59</ele>
        <time>2020-06-14T11:49:35Z</time>
      </trkpt>
      <trkpt lat="47.16201" lon="0.14471">
        <ele>43.83</ele>
        <time>2020-06-14T11:49:37Z</time>
      </trkpt>
      <trkpt lat="47.16197" lon="0.14574">
        <ele>47.14</ele>
        <time>2020-06-14T11:49:44Z</time>
      </trkpt>
      <trkpt lat="47.16196" lon="0.14584">
        <ele>48</ele>
        <time>2020-06-14T11:49:45Z</time>
      </trkpt>
      <trkpt lat="47.1619" lon="0.14613">
        <ele>51.18</ele>
        <time>2020-06-14T11:49:48Z</time>
      </trkpt>
      <trkpt lat="47.16164" lon="0.14658">
        <ele>56.5</ele>
        <time>2020-06-14T11:49:53Z</time>
      </trkpt>
      <trkpt lat="47.16153" lon="0.14674">
        <ele>57.91</ele>
        <time>2020-06-14T11:49:56Z</time>
      </trkpt>
      <trkpt lat="47.16149" lon="0.14694">
        <ele>61.47</ele>
        <time>2020-06-14T11:49:59Z</time>
      </trkpt>
      <trkpt lat="47.1614" lon="0.14707">
        <ele>63.93</ele>
        <time>2020-06-14T11:50:01Z</time>
      </trkpt>
      <trkpt lat="47.16134" lon="0.14715">
        <ele>64.03</ele>
        <time>2020-06-14T11:50:02Z</time>
      </trkpt>
      <trkpt lat="47.16122" lon="0.14736">
        <ele>67.94</ele>
        <time>2020-06-14T11:50:04Z</time>
      </trkpt>
      <trkpt lat="47.16105" lon="0.14777">
        <ele>73.3</ele>
        <time>2020-06-14T11:50:07Z</time>
      </trkpt>
      <trkpt lat="47.16058" lon="0.14834">
        <ele>79.2</ele>
        <time>2020-06-14T11:50:13Z</time>
      </trkpt>
      <trkpt lat="47.16028" lon="0.14846">
        <ele>83.47</ele>
        <time>2020-06-14T11:50:16Z</time>
      </trkpt>
      <trkpt lat="47.15995" lon="0.14846">
        <ele>85.37</ele>
        <time>2020-06-14T11:50:19Z</time>
      </trkpt>
      <trkpt lat="47.15984" lon="0.14845">
        <ele>85.77</ele>
        <time>2020-06-14T11:50:20Z</time>
      </trkpt>
      <trkpt lat="47.15963" lon="0.14837">
        <ele>86.26</ele>
        <time>2020-06-14T11:50:22Z</time>
      </trkpt>
      <trkpt lat="47.15818" lon="0.14826">
        <ele>90.29</ele>
        <time>2020-06-14T11:50:33Z</time>
      </trkpt>
      <trkpt lat="47.15688" lon="0.14863">
        <ele>88.67</ele>
        <time>2020-06-14T11:50:42Z</time>
      </trkpt>
      <trkpt lat="47.15607" lon="0.14891">
        <ele>84.86</ele>
        <time>2020-06-14T11:50:48Z</time>
      </trkpt>
      <trkpt lat="47.15559" lon="0.14942">
        <ele>84.11</ele>
        <time>2020-06-14T11:50:53Z</time>
      </trkpt>
      <trkpt lat="47.15507" lon="0.15047">
        <ele>87.43</ele>
        <time>2020-06-14T11:50:59Z</time>
      </trkpt>
      <trkpt lat="47.15462" lon="0.15151">
        <ele>83.45</ele>
        <time>2020-06-14T11:51:06Z</time>
      </trkpt>
      <trkpt lat="47.15462" lon="0.15175">
        <ele>82.5</ele>
        <time>2020-06-14T11:51:08Z</time>
      </trkpt>
      <trkpt lat="47.15473" lon="0.1521">
        <ele>80.3</ele>
        <time>2020-06-14T11:51:12Z</time>
      </trkpt>
      <trkpt lat="47.15457" lon="0.15213">
        <ele>81.42</ele>
        <time>2020-06-14T11:51:18Z</time>
      </trkpt>
      <trkpt lat="47.1545" lon="0.15207">
        <ele>82.12</ele>
        <time>2020-06-14T11:51:19Z</time>
      </trkpt>
      <trkpt lat="47.15417" lon="0.15169">
        <ele>83.32</ele>
        <time>2020-06-14T11:51:24Z</time>
      </trkpt>
      <trkpt lat="47.15405" lon="0.15159">
        <ele>82.95</ele>
        <time>2020-06-14T11:51:26Z</time>
      </trkpt>
      <trkpt lat="47.15377" lon="0.15142">
        <ele>83.85</ele>
        <time>2020-06-14T11:51:31Z</time>
      </trkpt>
      <trkpt lat="47.15315" lon="0.15139">
        <ele>82.84</ele>
        <time>2020-06-14T11:51:39Z</time>
      </trkpt>
      <trkpt lat="47.15232" lon="0.15155">
        <ele>82.63</ele>
        <time>2020-06-14T11:51:47Z</time>
      </trkpt>
      <trkpt lat="47.15178" lon="0.15171">
        <ele>83.62</ele>
        <time>2020-06-14T11:51:52Z</time>
      </trkpt>
      <trkpt lat="47.15122" lon="0.152">
        <ele>80.85</ele>
        <time>2020-06-14T11:51:57Z</time>
      </trkpt>
      <trkpt lat="47.15047" lon="0.1523">
        <ele>83.97</ele>
        <time>2020-06-14T11:52:04Z</time>
      </trkpt>
      <trkpt lat="47.15001" lon="0.15254">
        <ele>85.84</ele>
        <time>2020-06-14T11:52:08Z</time>
      </trkpt>
      <trkpt lat="47.14912" lon="0.15313">
        <ele>88.5</ele>
        <time>2020-06-14T11:52:16Z</time>
      </trkpt>
      <trkpt lat="47.14854" lon="0.15385">
        <ele>85.07</ele>
        <time>2020-06-14T11:52:22Z</time>
      </trkpt>
      <trkpt lat="47.14749" lon="0.1552">
        <ele>87.73</ele>
        <time>2020-06-14T11:52:37Z</time>
      </trkpt>
      <trkpt lat="47.14749" lon="0.15566">
        <ele>89.15</ele>
        <time>2020-06-14T11:52:40Z</time>
      </trkpt>
      <trkpt lat="47.1476" lon="0.15647">
        <ele>92.13</ele>
        <time>2020-06-14T11:52:44Z</time>
      </trkpt>
      <trkpt lat="47.14782" lon="0.15737">
        <ele>98.06</ele>
        <time>2020-06-14T11:52:48Z</time>
      </trkpt>
      <trkpt lat="47.14788" lon="0.1576">
        <ele>97.76</ele>
        <time>2020-06-14T11:52:49Z</time>
      </trkpt>
      <trkpt lat="47.14812" lon="0.15858">
        <ele>95.34</ele>
        <time>2020-06-14T11:52:55Z</time>
      </trkpt>
      <trkpt lat="47.148" lon="0.15893">
        <ele>95.48</ele>
        <time>2020-06-14T11:52:59Z</time>
      </trkpt>
      <trkpt lat="47.14792" lon="0.15904">
        <ele>97.19</ele>
        <time>2020-06-14T11:53:00Z</time>
      </trkpt>
      <trkpt lat="47.14755" lon="0.15939">
        <ele>100.86</ele>
        <time>2020-06-14T11:53:03Z</time>
      </trkpt>
      <trkpt lat="47.1474" lon="0.15951">
        <ele>101</ele>
        <time>2020-06-14T11:53:04Z</time>
      </trkpt>
      <trkpt lat="47.14422" lon="0.16242">
        <ele>94.91</ele>
        <time>2020-06-14T11:53:23Z</time>
      </trkpt>
      <trkpt lat="47.14373" lon="0.16286">
        <ele>91.71</ele>
        <time>2020-06-14T11:53:26Z</time>
      </trkpt>
      <trkpt lat="47.14358" lon="0.16299">
        <ele>91.58</ele>
        <time>2020-06-14T11:53:27Z</time>
      </trkpt>
      <trkpt lat="47.14297" lon="0.16355">
        <ele>90.7</ele>
        <time>2020-06-14T11:53:33Z</time>
      </trkpt>
      <trkpt lat="47.14292" lon="0.16406">
        <ele>91.97</ele>
        <time>2020-06-14T11:53:38Z</time>
      </trkpt>
      <trkpt lat="47.14361" lon="0.1685">
        <ele>89.59</ele>
        <time>2020-06-14T11:53:55Z</time>
      </trkpt>
      <trkpt lat="47.14369" lon="0.16904">
        <ele>85.64</ele>
        <time>2020-06-14T11:53:57Z</time>
      </trkpt>
      <trkpt lat="47.14396" lon="0.17118">
        <ele>81.95</ele>
        <time>2020-06-14T11:54:05Z</time>
      </trkpt>
      <trkpt lat="47.14408" lon="0.17246">
        <ele>85.05</ele>
        <time>2020-06-14T11:54:10Z</time>
      </trkpt>
      <trkpt lat="47.14417" lon="0.17349">
        <ele>83.04</ele>
        <time>2020-06-14T11:54:15Z</time>
      </trkpt>
      <trkpt lat="47.14413" lon="0.17501">
        <ele>83.8</ele>
        <time>2020-06-14T11:54:22Z</time>
      </trkpt>
      <trkpt lat="47.14408" lon="0.17583">
        <ele>80.53</ele>
        <time>2020-06-14T11:54:25Z</time>
      </trkpt>
      <trkpt lat="47.14398" lon="0.17745">
        <ele>77.26</ele>
        <time>2020-06-14T11:54:31Z</time>
      </trkpt>
      <trkpt lat="47.14375" lon="0.18092">
        <ele>73.35</ele>
        <time>2020-06-14T11:54:47Z</time>
      </trkpt>
      <trkpt lat="47.14373" lon="0.181">
        <ele>74.2</ele>
        <time>2020-06-14T11:54:48Z</time>
      </trkpt>
      <trkpt lat="47.1437" lon="0.18138">
        <ele>74.65</ele>
        <time>2020-06-14T11:54:52Z</time>
      </trkpt>
      <trkpt lat="47.14408" lon="0.18672">
        <ele>68.25</ele>
        <time>2020-06-14T11:55:17Z</time>
      </trkpt>
      <trkpt lat="47.14415" lon="0.18758">
        <ele>62.74</ele>
        <time>2020-06-14T11:55:21Z</time>
      </trkpt>
      <trkpt lat="47.14419" lon="0.18807">
        <ele>59.11</ele>
        <time>2020-06-14T11:55:24Z</time>
      </trkpt>
      <trkpt lat="47.1442" lon="0.18827">
        <ele>56.06</ele>
        <time>2020-06-14T11:55:26Z</time>
      </trkpt>
      <trkpt lat="47.14392" lon="0.18837">
        <ele>56.65</ele>
        <time>2020-06-14T11:55:32Z</time>
      </trkpt>
      <trkpt lat="47.14333" lon="0.18812">
        <ele>54.9</ele>
        <time>2020-06-14T11:55:39Z</time>
      </trkpt>
      <trkpt lat="47.14331" lon="0.18825">
        <ele>53.66</ele>
        <time>2020-06-14T11:55:42Z</time>
      </trkpt>
      <trkpt lat="47.14383" lon="0.19012">
        <ele>49.36</ele>
        <time>2020-06-14T11:55:52Z</time>
      </trkpt>
      <trkpt lat="47.14398" lon="0.19077">
        <ele>46.49</ele>
        <time>2020-06-14T11:55:55Z</time>
      </trkpt>
      <trkpt lat="47.144" lon="0.191">
        <ele>46.66</ele>
        <time>2020-06-14T11:55:56Z</time>
      </trkpt>
      <trkpt lat="47.1439" lon="0.19218">
        <ele>41.37</ele>
        <time>2020-06-14T11:56:01Z</time>
      </trkpt>
      <trkpt lat="47.14382" lon="0.19279">
        <ele>37.65</ele>
        <time>2020-06-14T11:56:04Z</time>
      </trkpt>
      <trkpt lat="47.1438" lon="0.19295">
        <ele>34.45</ele>
        <time>2020-06-14T11:56:05Z</time>
      </trkpt>
      <trkpt lat="47.14376" lon="0.19327">
        <ele>31.36</ele>
        <time>2020-06-14T11:56:09Z</time>
      </trkpt>
      <trkpt lat="47.14376" lon="0.1933">
        <ele>31.23</ele>
        <time>2020-06-14T11:56:14Z</time>
      </trkpt>
      <trkpt lat="47.14386" lon="0.19354">
        <ele>31.62</ele>
        <time>2020-06-14T11:56:17Z</time>
      </trkpt>
      <trkpt lat="47.14384" lon="0.19405">
        <ele>32.85</ele>
        <time>2020-06-14T11:56:21Z</time>
      </trkpt>
      <trkpt lat="47.14355" lon="0.19512">
        <ele>33.34</ele>
        <time>2020-06-14T11:56:40Z</time>
      </trkpt>
      <trkpt lat="47.14367" lon="0.19532">
        <ele>36</ele>
        <time>2020-06-14T11:56:44Z</time>
      </trkpt>
      <trkpt lat="47.14374" lon="0.19536">
        <ele>36.57</ele>
        <time>2020-06-14T11:56:45Z</time>
      </trkpt>
      <trkpt lat="47.1435" lon="0.19561">
        <ele>36.32</ele>
        <time>2020-06-14T11:56:54Z</time>
      </trkpt>
      <trkpt lat="47.14346" lon="0.1956">
        <ele>36.12</ele>
        <time>2020-06-14T11:56:55Z</time>
      </trkpt>
      <trkpt lat="47.14342" lon="0.1956">
        <ele>36.15</ele>
        <time>2020-06-14T11:56:56Z</time>
      </trkpt>
      <trkpt lat="47.14371" lon="0.19565">
        <ele>37.65</ele>
        <time>2020-06-14T11:57:03Z</time>
      </trkpt>
      <trkpt lat="47.14395" lon="0.19573">
        <ele>38.38</ele>
        <time>2020-06-14T11:57:06Z</time>
      </trkpt>
      <trkpt lat="47.14429" lon="0.19642">
        <ele>43.15</ele>
        <time>2020-06-14T11:57:13Z</time>
      </trkpt>
      <trkpt lat="47.14428" lon="0.19667">
        <ele>44.44</ele>
        <time>2020-06-14T11:57:15Z</time>
      </trkpt>
      <trkpt lat="47.14401" lon="0.19766">
        <ele>48.34</ele>
        <time>2020-06-14T11:57:23Z</time>
      </trkpt>
      <trkpt lat="47.1442" lon="0.1978">
        <ele>51.75</ele>
        <time>2020-06-14T11:57:26Z</time>
      </trkpt>
      <trkpt lat="47.14429" lon="0.19782">
        <ele>53.23</ele>
        <time>2020-06-14T11:57:27Z</time>
      </trkpt>
      <trkpt lat="47.14437" lon="0.19784">
        <ele>53.32</ele>
        <time>2020-06-14T11:57:28Z</time>
      </trkpt>
      <trkpt lat="47.14469" lon="0.1979">
        <ele>56.07</ele>
        <time>2020-06-14T11:57:32Z</time>
      </trkpt>
      <trkpt lat="47.14476" lon="0.19793">
        <ele>56.1</ele>
        <time>2020-06-14T11:57:33Z</time>
      </trkpt>
      <trkpt lat="47.14485" lon="0.19812">
        <ele>59.03</ele>
        <time>2020-06-14T11:57:36Z</time>
      </trkpt>
      <trkpt lat="47.14486" lon="0.19821">
        <ele>60.58</ele>
        <time>2020-06-14T11:57:37Z</time>
      </trkpt>
      <trkpt lat="47.14501" lon="0.19843">
        <ele>65.36</ele>
        <time>2020-06-14T11:57:40Z</time>
      </trkpt>
      <trkpt lat="47.14509" lon="0.19848">
        <ele>66.4</ele>
        <time>2020-06-14T11:57:41Z</time>
      </trkpt>
      <trkpt lat="47.14578" lon="0.19889">
        <ele>71.57</ele>
        <time>2020-06-14T11:57:49Z</time>
      </trkpt>
      <trkpt lat="47.1462" lon="0.19997">
        <ele>76.37</ele>
        <time>2020-06-14T11:58:05Z</time>
      </trkpt>
      <trkpt lat="47.14613" lon="0.20031">
        <ele>80.65</ele>
        <time>2020-06-14T11:58:09Z</time>
      </trkpt>
      <trkpt lat="47.1461" lon="0.20075">
        <ele>87.23</ele>
        <time>2020-06-14T11:58:13Z</time>
      </trkpt>
      <trkpt lat="47.14609" lon="0.20097">
        <ele>91.29</ele>
        <time>2020-06-14T11:58:15Z</time>
      </trkpt>
      <trkpt lat="47.14607" lon="0.2012">
        <ele>94.7</ele>
        <time>2020-06-14T11:58:17Z</time>
      </trkpt>
      <trkpt lat="47.14597" lon="0.20168">
        <ele>98.18</ele>
        <time>2020-06-14T11:58:21Z</time>
      </trkpt>
      <trkpt lat="47.14594" lon="0.20182">
        <ele>98.39</ele>
        <time>2020-06-14T11:58:22Z</time>
      </trkpt>
      <trkpt lat="47.14578" lon="0.20238">
        <ele>100.61</ele>
        <time>2020-06-14T11:58:26Z</time>
      </trkpt>
      <trkpt lat="47.14561" lon="0.20325">
        <ele>103.69</ele>
        <time>2020-06-14T11:58:31Z</time>
      </trkpt>
      <trkpt lat="47.14553" lon="0.20373">
        <ele>100.61</ele>
        <time>2020-06-14T11:58:34Z</time>
      </trkpt>
      <trkpt lat="47.14536" lon="0.20486">
        <ele>99.56</ele>
        <time>2020-06-14T11:58:42Z</time>
      </trkpt>
      <trkpt lat="47.14447" lon="0.20724">
        <ele>97.97</ele>
        <time>2020-06-14T11:58:58Z</time>
      </trkpt>
      <trkpt lat="47.14441" lon="0.20739">
        <ele>96.55</ele>
        <time>2020-06-14T11:58:59Z</time>
      </trkpt>
      <trkpt lat="47.14342" lon="0.20919">
        <ele>95.9</ele>
        <time>2020-06-14T11:59:13Z</time>
      </trkpt>
      <trkpt lat="47.1433" lon="0.20934">
        <ele>94.6</ele>
        <time>2020-06-14T11:59:15Z</time>
      </trkpt>
      <trkpt lat="47.14298" lon="0.2103">
        <ele>97.7</ele>
        <time>2020-06-14T11:59:22Z</time>
      </trkpt>
      <trkpt lat="47.14243" lon="0.21196">
        <ele>102.85</ele>
        <time>2020-06-14T11:59:32Z</time>
      </trkpt>
      <trkpt lat="47.14176" lon="0.21424">
        <ele>104.97</ele>
        <time>2020-06-14T11:59:46Z</time>
      </trkpt>
      <trkpt lat="47.14082" lon="0.21769">
        <ele>102.73</ele>
        <time>2020-06-14T12:00:08Z</time>
      </trkpt>
      <trkpt lat="47.14015" lon="0.21893">
        <ele>104.65</ele>
        <time>2020-06-14T12:00:23Z</time>
      </trkpt>
      <trkpt lat="47.13929" lon="0.2193">
        <ele>101.5</ele>
        <time>2020-06-14T12:00:32Z</time>
      </trkpt>
      <trkpt lat="47.13867" lon="0.2217">
        <ele>102.15</ele>
        <time>2020-06-14T12:00:49Z</time>
      </trkpt>
      <trkpt lat="47.13852" lon="0.22293">
        <ele>103.43</ele>
        <time>2020-06-14T12:00:56Z</time>
      </trkpt>
      <trkpt lat="47.13843" lon="0.22356">
        <ele>101.56</ele>
        <time>2020-06-14T12:01:00Z</time>
      </trkpt>
      <trkpt lat="47.13745" lon="0.22553">
        <ele>99.31</ele>
        <time>2020-06-14T12:01:19Z</time>
      </trkpt>
      <trkpt lat="47.13731" lon="0.22584">
        <ele>102.46</ele>
        <time>2020-06-14T12:01:23Z</time>
      </trkpt>
      <trkpt lat="47.13685" lon="0.22688">
        <ele>104.55</ele>
        <time>2020-06-14T12:01:30Z</time>
      </trkpt>
      <trkpt lat="47.13652" lon="0.22846">
        <ele>104.2</ele>
        <time>2020-06-14T12:01:45Z</time>
      </trkpt>
      <trkpt lat="47.13661" lon="0.2285">
        <ele>104.42</ele>
        <time>2020-06-14T12:01:46Z</time>
      </trkpt>
      <trkpt lat="47.13891" lon="0.22967">
        <ele>97.42</ele>
        <time>2020-06-14T12:02:02Z</time>
      </trkpt>
      <trkpt lat="47.13944" lon="0.22993">
        <ele>93.63</ele>
        <time>2020-06-14T12:02:05Z</time>
      </trkpt>
      <trkpt lat="47.13979" lon="0.2301">
        <ele>90.06</ele>
        <time>2020-06-14T12:02:07Z</time>
      </trkpt>
      <trkpt lat="47.14009" lon="0.23025">
        <ele>85.13</ele>
        <time>2020-06-14T12:02:09Z</time>
      </trkpt>
      <trkpt lat="47.14036" lon="0.23044">
        <ele>81.97</ele>
        <time>2020-06-14T12:02:11Z</time>
      </trkpt>
      <trkpt lat="47.14047" lon="0.23055">
        <ele>80.03</ele>
        <time>2020-06-14T12:02:12Z</time>
      </trkpt>
      <trkpt lat="47.1408" lon="0.23088">
        <ele>75.16</ele>
        <time>2020-06-14T12:02:15Z</time>
      </trkpt>
      <trkpt lat="47.14119" lon="0.23104">
        <ele>71.22</ele>
        <time>2020-06-14T12:02:18Z</time>
      </trkpt>
      <trkpt lat="47.14132" lon="0.23106">
        <ele>69.86</ele>
        <time>2020-06-14T12:02:19Z</time>
      </trkpt>
      <trkpt lat="47.14145" lon="0.23109">
        <ele>68.41</ele>
        <time>2020-06-14T12:02:20Z</time>
      </trkpt>
      <trkpt lat="47.14168" lon="0.2312">
        <ele>65.02</ele>
        <time>2020-06-14T12:02:22Z</time>
      </trkpt>
      <trkpt lat="47.14188" lon="0.23139">
        <ele>62.09</ele>
        <time>2020-06-14T12:02:24Z</time>
      </trkpt>
      <trkpt lat="47.14227" lon="0.23185">
        <ele>57.08</ele>
        <time>2020-06-14T12:02:28Z</time>
      </trkpt>
      <trkpt lat="47.14258" lon="0.23217">
        <ele>53.51</ele>
        <time>2020-06-14T12:02:31Z</time>
      </trkpt>
      <trkpt lat="47.14277" lon="0.2324">
        <ele>49.54</ele>
        <time>2020-06-14T12:02:33Z</time>
      </trkpt>
      <trkpt lat="47.14302" lon="0.23275">
        <ele>45.47</ele>
        <time>2020-06-14T12:02:36Z</time>
      </trkpt>
      <trkpt lat="47.14367" lon="0.23317">
        <ele>43.89</ele>
        <time>2020-06-14T12:02:42Z</time>
      </trkpt>
      <trkpt lat="47.14538" lon="0.23339">
        <ele>38.11</ele>
        <time>2020-06-14T12:02:53Z</time>
      </trkpt>
      <trkpt lat="47.14553" lon="0.23341">
        <ele>35.88</ele>
        <time>2020-06-14T12:02:55Z</time>
      </trkpt>
      <trkpt lat="47.14558" lon="0.23339">
        <ele>35.75</ele>
        <time>2020-06-14T12:02:56Z</time>
      </trkpt>
      <trkpt lat="47.14562" lon="0.2331">
        <ele>37.26</ele>
        <time>2020-06-14T12:03:00Z</time>
      </trkpt>
      <trkpt lat="47.14561" lon="0.23287">
        <ele>37.12</ele>
        <time>2020-06-14T12:03:02Z</time>
      </trkpt>
      <trkpt lat="47.14569" lon="0.23236">
        <ele>38.97</ele>
        <time>2020-06-14T12:03:06Z</time>
      </trkpt>
      <trkpt lat="47.14709" lon="0.22906">
        <ele>34.35</ele>
        <time>2020-06-14T12:03:30Z</time>
      </trkpt>
      <trkpt lat="47.14732" lon="0.22863">
        <ele>33.2</ele>
        <time>2020-06-14T12:03:34Z</time>
      </trkpt>
      <trkpt lat="47.14766" lon="0.22862">
        <ele>33.54</ele>
        <time>2020-06-14T12:03:38Z</time>
      </trkpt>
      <trkpt lat="47.14877" lon="0.22906">
        <ele>35.91</ele>
        <time>2020-06-14T12:03:46Z</time>
      </trkpt>
      <trkpt lat="47.14981" lon="0.22939">
        <ele>32.91</ele>
        <time>2020-06-14T12:03:56Z</time>
      </trkpt>
      <trkpt lat="47.14987" lon="0.22969">
        <ele>32.24</ele>
        <time>2020-06-14T12:03:59Z</time>
      </trkpt>
      <trkpt lat="47.14989" lon="0.22983">
        <ele>33.62</ele>
        <time>2020-06-14T12:04:00Z</time>
      </trkpt>
      <trkpt lat="47.14984" lon="0.23165">
        <ele>36.61</ele>
        <time>2020-06-14T12:04:09Z</time>
      </trkpt>
      <trkpt lat="47.14983" lon="0.23446">
        <ele>34.57</ele>
        <time>2020-06-14T12:04:22Z</time>
      </trkpt>
      <trkpt lat="47.14988" lon="0.2348">
        <ele>33.65</ele>
        <time>2020-06-14T12:04:24Z</time>
      </trkpt>
      <trkpt lat="47.14996" lon="0.23534">
        <ele>32.63</ele>
        <time>2020-06-14T12:04:28Z</time>
      </trkpt>
      <trkpt lat="47.14996" lon="0.23571">
        <ele>32.82</ele>
        <time>2020-06-14T12:04:34Z</time>
      </trkpt>
      <trkpt lat="47.15017" lon="0.23579">
        <ele>33.54</ele>
        <time>2020-06-14T12:04:38Z</time>
      </trkpt>
      <trkpt lat="47.15025" lon="0.23576">
        <ele>34.02</ele>
        <time>2020-06-14T12:04:39Z</time>
      </trkpt>
      <trkpt lat="47.15325" lon="0.23609">
        <ele>36.22</ele>
        <time>2020-06-14T12:05:01Z</time>
      </trkpt>
      <trkpt lat="47.16049" lon="0.23745">
        <ele>33.98</ele>
        <time>2020-06-14T12:05:52Z</time>
      </trkpt>
      <trkpt lat="47.16061" lon="0.23759">
        <ele>33.2</ele>
        <time>2020-06-14T12:05:54Z</time>
      </trkpt>
      <trkpt lat="47.1614" lon="0.23883">
        <ele>31.07</ele>
        <time>2020-06-14T12:06:05Z</time>
      </trkpt>
      <trkpt lat="47.16157" lon="0.23895">
        <ele>31.85</ele>
        <time>2020-06-14T12:06:07Z</time>
      </trkpt>
      <trkpt lat="47.16207" lon="0.23923">
        <ele>31.54</ele>
        <time>2020-06-14T12:06:12Z</time>
      </trkpt>
      <trkpt lat="47.16331" lon="0.2391">
        <ele>31.51</ele>
        <time>2020-06-14T12:06:24Z</time>
      </trkpt>
      <trkpt lat="47.16372" lon="0.2389">
        <ele>33.39</ele>
        <time>2020-06-14T12:06:29Z</time>
      </trkpt>
      <trkpt lat="47.16426" lon="0.23833">
        <ele>34.39</ele>
        <time>2020-06-14T12:06:39Z</time>
      </trkpt>
      <trkpt lat="47.16435" lon="0.23831">
        <ele>34.53</ele>
        <time>2020-06-14T12:06:40Z</time>
      </trkpt>
      <trkpt lat="47.16575" lon="0.23812">
        <ele>34.71</ele>
        <time>2020-06-14T12:06:53Z</time>
      </trkpt>
      <trkpt lat="47.16618" lon="0.23803">
        <ele>32.27</ele>
        <time>2020-06-14T12:07:01Z</time>
      </trkpt>
      <trkpt lat="47.16638" lon="0.23686">
        <ele>35.56</ele>
        <time>2020-06-14T12:07:09Z</time>
      </trkpt>
      <trkpt lat="47.16695" lon="0.23438">
        <ele>34.95</ele>
        <time>2020-06-14T12:07:23Z</time>
      </trkpt>
      <trkpt lat="47.16713" lon="0.23386">
        <ele>34.08</ele>
        <time>2020-06-14T12:07:27Z</time>
      </trkpt>
      <trkpt lat="47.1673" lon="0.2337">
        <ele>34.53</ele>
        <time>2020-06-14T12:07:29Z</time>
      </trkpt>
      <trkpt lat="47.16739" lon="0.23363">
        <ele>34.93</ele>
        <time>2020-06-14T12:07:30Z</time>
      </trkpt>
      <trkpt lat="47.16805" lon="0.23298">
        <ele>36.7</ele>
        <time>2020-06-14T12:07:38Z</time>
      </trkpt>
      <trkpt lat="47.1684" lon="0.23303">
        <ele>40.49</ele>
        <time>2020-06-14T12:07:42Z</time>
      </trkpt>
      <trkpt lat="47.16884" lon="0.23328">
        <ele>44.24</ele>
        <time>2020-06-14T12:07:46Z</time>
      </trkpt>
      <trkpt lat="47.16917" lon="0.23352">
        <ele>47.4</ele>
        <time>2020-06-14T12:07:49Z</time>
      </trkpt>
      <trkpt lat="47.16926" lon="0.23362">
        <ele>47.62</ele>
        <time>2020-06-14T12:07:50Z</time>
      </trkpt>
      <trkpt lat="47.16941" lon="0.234">
        <ele>49.15</ele>
        <time>2020-06-14T12:07:53Z</time>
      </trkpt>
      <trkpt lat="47.16942" lon="0.23451">
        <ele>52.78</ele>
        <time>2020-06-14T12:07:56Z</time>
      </trkpt>
      <trkpt lat="47.16928" lon="0.23505">
        <ele>57.05</ele>
        <time>2020-06-14T12:07:59Z</time>
      </trkpt>
      <trkpt lat="47.16902" lon="0.23554">
        <ele>59.03</ele>
        <time>2020-06-14T12:08:02Z</time>
      </trkpt>
      <trkpt lat="47.16875" lon="0.23618">
        <ele>62.6</ele>
        <time>2020-06-14T12:08:06Z</time>
      </trkpt>
      <trkpt lat="47.16865" lon="0.23697">
        <ele>67.36</ele>
        <time>2020-06-14T12:08:10Z</time>
      </trkpt>
      <trkpt lat="47.16875" lon="0.23777">
        <ele>71.39</ele>
        <time>2020-06-14T12:08:14Z</time>
      </trkpt>
      <trkpt lat="47.16909" lon="0.23893">
        <ele>73.92</ele>
        <time>2020-06-14T12:08:23Z</time>
      </trkpt>
      <trkpt lat="47.16898" lon="0.2394">
        <ele>74.65</ele>
        <time>2020-06-14T12:08:29Z</time>
      </trkpt>
      <trkpt lat="47.16892" lon="0.23961">
        <ele>73.09</ele>
        <time>2020-06-14T12:08:31Z</time>
      </trkpt>
      <trkpt lat="47.16874" lon="0.23983">
        <ele>71.53</ele>
        <time>2020-06-14T12:08:34Z</time>
      </trkpt>
      <trkpt lat="47.16859" lon="0.23993">
        <ele>70.24</ele>
        <time>2020-06-14T12:08:36Z</time>
      </trkpt>
      <trkpt lat="47.16845" lon="0.23998">
        <ele>67.44</ele>
        <time>2020-06-14T12:08:39Z</time>
      </trkpt>
      <trkpt lat="47.16822" lon="0.24007">
        <ele>64.53</ele>
        <time>2020-06-14T12:08:45Z</time>
      </trkpt>
      <trkpt lat="47.16821" lon="0.24009">
        <ele>64.67</ele>
        <time>2020-06-14T12:08:46Z</time>
      </trkpt>
      <trkpt lat="47.16831" lon="0.24075">
        <ele>66.51</ele>
        <time>2020-06-14T12:08:56Z</time>
      </trkpt>
      <trkpt lat="47.16836" lon="0.24092">
        <ele>68.48</ele>
        <time>2020-06-14T12:08:58Z</time>
      </trkpt>
      <trkpt lat="47.16836" lon="0.24101">
        <ele>69.26</ele>
        <time>2020-06-14T12:08:59Z</time>
      </trkpt>
      <trkpt lat="47.16838" lon="0.24172">
        <ele>69.75</ele>
        <time>2020-06-14T12:09:07Z</time>
      </trkpt>
      <trkpt lat="47.1684" lon="0.2422">
        <ele>70.42</ele>
        <time>2020-06-14T12:09:13Z</time>
      </trkpt>
      <trkpt lat="47.16838" lon="0.24296">
        <ele>69.43</ele>
        <time>2020-06-14T12:09:22Z</time>
      </trkpt>
      <trkpt lat="47.16833" lon="0.24335">
        <ele>66.12</ele>
        <time>2020-06-14T12:09:27Z</time>
      </trkpt>
      <trkpt lat="47.16825" lon="0.2438">
        <ele>62.77</ele>
        <time>2020-06-14T12:09:35Z</time>
      </trkpt>
      <trkpt lat="47.16823" lon="0.244">
        <ele>60.19</ele>
        <time>2020-06-14T12:09:38Z</time>
      </trkpt>
      <trkpt lat="47.16818" lon="0.24426">
        <ele>56.21</ele>
        <time>2020-06-14T12:09:44Z</time>
      </trkpt>
      <trkpt lat="47.16817" lon="0.24442">
        <ele>52.47</ele>
        <time>2020-06-14T12:09:48Z</time>
      </trkpt>
      <trkpt lat="47.16818" lon="0.24445">
        <ele>52.73</ele>
        <time>2020-06-14T12:09:49Z</time>
      </trkpt>
      <trkpt lat="47.16831" lon="0.24476">
        <ele>56.33</ele>
        <time>2020-06-14T12:09:55Z</time>
      </trkpt>
      <trkpt lat="47.16851" lon="0.2449">
        <ele>59.78</ele>
        <time>2020-06-14T12:09:58Z</time>
      </trkpt>
      <trkpt lat="47.16889" lon="0.24499">
        <ele>67.19</ele>
        <time>2020-06-14T12:10:03Z</time>
      </trkpt>
      <trkpt lat="47.1691" lon="0.24498">
        <ele>70.24</ele>
        <time>2020-06-14T12:10:06Z</time>
      </trkpt>
      <trkpt lat="47.16922" lon="0.24488">
        <ele>72.51</ele>
        <time>2020-06-14T12:10:08Z</time>
      </trkpt>
      <trkpt lat="47.16927" lon="0.24483">
        <ele>73.61</ele>
        <time>2020-06-14T12:10:09Z</time>
      </trkpt>
      <trkpt lat="47.16939" lon="0.24477">
        <ele>74.82</ele>
        <time>2020-06-14T12:10:11Z</time>
      </trkpt>
      <trkpt lat="47.16957" lon="0.24491">
        <ele>78.13</ele>
        <time>2020-06-14T12:10:14Z</time>
      </trkpt>
      <trkpt lat="47.16965" lon="0.24499">
        <ele>79.23</ele>
        <time>2020-06-14T12:10:15Z</time>
      </trkpt>
      <trkpt lat="47.1698" lon="0.24513">
        <ele>82.54</ele>
        <time>2020-06-14T12:10:17Z</time>
      </trkpt>
      <trkpt lat="47.1703" lon="0.24546">
        <ele>87.91</ele>
        <time>2020-06-14T12:10:22Z</time>
      </trkpt>
      <trkpt lat="47.17054" lon="0.24568">
        <ele>90.97</ele>
        <time>2020-06-14T12:10:25Z</time>
      </trkpt>
      <trkpt lat="47.17059" lon="0.24573">
        <ele>91.07</ele>
        <time>2020-06-14T12:10:26Z</time>
      </trkpt>
      <trkpt lat="47.17059" lon="0.24597">
        <ele>93.6</ele>
        <time>2020-06-14T12:10:31Z</time>
      </trkpt>
      <trkpt lat="47.17055" lon="0.24605">
        <ele>94.53</ele>
        <time>2020-06-14T12:10:32Z</time>
      </trkpt>
      <trkpt lat="47.1704" lon="0.2466">
        <ele>97.07</ele>
        <time>2020-06-14T12:10:36Z</time>
      </trkpt>
      <trkpt lat="47.17023" lon="0.24734">
        <ele>100.24</ele>
        <time>2020-06-14T12:10:40Z</time>
      </trkpt>
      <trkpt lat="47.17005" lon="0.24841">
        <ele>97.2</ele>
        <time>2020-06-14T12:10:46Z</time>
      </trkpt>
      <trkpt lat="47.17034" lon="0.25185">
        <ele>93.63</ele>
        <time>2020-06-14T12:11:05Z</time>
      </trkpt>
      <trkpt lat="47.17043" lon="0.25244">
        <ele>93.59</ele>
        <time>2020-06-14T12:11:08Z</time>
      </trkpt>
      <trkpt lat="47.17067" lon="0.2549">
        <ele>90.06</ele>
        <time>2020-06-14T12:11:22Z</time>
      </trkpt>
      <trkpt lat="47.1708" lon="0.25604">
        <ele>86.86</ele>
        <time>2020-06-14T12:11:28Z</time>
      </trkpt>
      <trkpt lat="47.17101" lon="0.2573">
        <ele>90.01</ele>
        <time>2020-06-14T12:11:34Z</time>
      </trkpt>
      <trkpt lat="47.17113" lon="0.25835">
        <ele>92.54</ele>
        <time>2020-06-14T12:11:39Z</time>
      </trkpt>
      <trkpt lat="47.17116" lon="0.25853">
        <ele>92.21</ele>
        <time>2020-06-14T12:11:40Z</time>
      </trkpt>
      <trkpt lat="47.17137" lon="0.25897">
        <ele>92.91</ele>
        <time>2020-06-14T12:11:43Z</time>
      </trkpt>
      <trkpt lat="47.17155" lon="0.25925">
        <ele>93.63</ele>
        <time>2020-06-14T12:11:45Z</time>
      </trkpt>
      <trkpt lat="47.17317" lon="0.26541">
        <ele>98.23</ele>
        <time>2020-06-14T12:12:16Z</time>
      </trkpt>
      <trkpt lat="47.17335" lon="0.26827">
        <ele>102.51</ele>
        <time>2020-06-14T12:12:28Z</time>
      </trkpt>
      <trkpt lat="47.17331" lon="0.26851">
        <ele>101.82</ele>
        <time>2020-06-14T12:12:29Z</time>
      </trkpt>
      <trkpt lat="47.17305" lon="0.27057">
        <ele>101.71</ele>
        <time>2020-06-14T12:12:37Z</time>
      </trkpt>
      <trkpt lat="47.17285" lon="0.27451">
        <ele>97.7</ele>
        <time>2020-06-14T12:12:53Z</time>
      </trkpt>
      <trkpt lat="47.17262" lon="0.27473">
        <ele>95.51</ele>
        <time>2020-06-14T12:12:57Z</time>
      </trkpt>
      <trkpt lat="47.17248" lon="0.27462">
        <ele>95.15</ele>
        <time>2020-06-14T12:12:59Z</time>
      </trkpt>
      <trkpt lat="47.17225" lon="0.27438">
        <ele>90.51</ele>
        <time>2020-06-14T12:13:04Z</time>
      </trkpt>
      <trkpt lat="47.17224" lon="0.27435">
        <ele>90.31</ele>
        <time>2020-06-14T12:13:05Z</time>
      </trkpt>
      <trkpt lat="47.17221" lon="0.27429">
        <ele>90.06</ele>
        <time>2020-06-14T12:13:07Z</time>
      </trkpt>
      <trkpt lat="47.1724" lon="0.27448">
        <ele>93.47</ele>
        <time>2020-06-14T12:13:17Z</time>
      </trkpt>
      <trkpt lat="47.17266" lon="0.27469">
        <ele>94.92</ele>
        <time>2020-06-14T12:13:21Z</time>
      </trkpt>
      <trkpt lat="47.17268" lon="0.27475">
        <ele>94.77</ele>
        <time>2020-06-14T12:13:22Z</time>
      </trkpt>
      <trkpt lat="47.1721" lon="0.27572">
        <ele>97.21</ele>
        <time>2020-06-14T12:13:32Z</time>
      </trkpt>
      <trkpt lat="47.17191" lon="0.27569">
        <ele>99.4</ele>
        <time>2020-06-14T12:13:34Z</time>
      </trkpt>
      <trkpt lat="47.16986" lon="0.27501">
        <ele>97.23</ele>
        <time>2020-06-14T12:13:50Z</time>
      </trkpt>
      <trkpt lat="47.1698" lon="0.27501">
        <ele>97</ele>
        <time>2020-06-14T12:13:51Z</time>
      </trkpt>
      <trkpt lat="47.16967" lon="0.2753">
        <ele>98.64</ele>
        <time>2020-06-14T12:13:55Z</time>
      </trkpt>
      <trkpt lat="47.16965" lon="0.27562">
        <ele>99.63</ele>
        <time>2020-06-14T12:13:57Z</time>
      </trkpt>
      <trkpt lat="47.1696" lon="0.27705">
        <ele>96.96</ele>
        <time>2020-06-14T12:14:06Z</time>
      </trkpt>
      <trkpt lat="47.16939" lon="0.27715">
        <ele>95.57</ele>
        <time>2020-06-14T12:14:11Z</time>
      </trkpt>
      <trkpt lat="47.16895" lon="0.27709">
        <ele>94.66</ele>
        <time>2020-06-14T12:14:16Z</time>
      </trkpt>
      <trkpt lat="47.16878" lon="0.27748">
        <ele>91.51</ele>
        <time>2020-06-14T12:14:21Z</time>
      </trkpt>
      <trkpt lat="47.16872" lon="0.27802">
        <ele>85.97</ele>
        <time>2020-06-14T12:14:25Z</time>
      </trkpt>
      <trkpt lat="47.1687" lon="0.27817">
        <ele>85.05</ele>
        <time>2020-06-14T12:14:26Z</time>
      </trkpt>
      <trkpt lat="47.16867" lon="0.27832">
        <ele>83.61</ele>
        <time>2020-06-14T12:14:27Z</time>
      </trkpt>
      <trkpt lat="47.16852" lon="0.27897">
        <ele>79.32</ele>
        <time>2020-06-14T12:14:31Z</time>
      </trkpt>
      <trkpt lat="47.16841" lon="0.27943">
        <ele>75.31</ele>
        <time>2020-06-14T12:14:34Z</time>
      </trkpt>
      <trkpt lat="47.16829" lon="0.27988">
        <ele>71.66</ele>
        <time>2020-06-14T12:14:37Z</time>
      </trkpt>
      <trkpt lat="47.16812" lon="0.28033">
        <ele>68.21</ele>
        <time>2020-06-14T12:14:41Z</time>
      </trkpt>
      <trkpt lat="47.16808" lon="0.28045">
        <ele>67.43</ele>
        <time>2020-06-14T12:14:43Z</time>
      </trkpt>
      <trkpt lat="47.16808" lon="0.2805">
        <ele>67.31</ele>
        <time>2020-06-14T12:14:44Z</time>
      </trkpt>
      <trkpt lat="47.16954" lon="0.2828">
        <ele>68.81</ele>
        <time>2020-06-14T12:15:06Z</time>
      </trkpt>
      <trkpt lat="47.17039" lon="0.28353">
        <ele>68.09</ele>
        <time>2020-06-14T12:15:14Z</time>
      </trkpt>
      <trkpt lat="47.17076" lon="0.28381">
        <ele>64.46</ele>
        <time>2020-06-14T12:15:19Z</time>
      </trkpt>
      <trkpt lat="47.17079" lon="0.28384">
        <ele>64.18</ele>
        <time>2020-06-14T12:15:20Z</time>
      </trkpt>
      <trkpt lat="47.17106" lon="0.28396">
        <ele>66.9</ele>
        <time>2020-06-14T12:15:24Z</time>
      </trkpt>
      <trkpt lat="47.17169" lon="0.28447">
        <ele>71.32</ele>
        <time>2020-06-14T12:15:30Z</time>
      </trkpt>
      <trkpt lat="47.1719" lon="0.28469">
        <ele>71.99</ele>
        <time>2020-06-14T12:15:32Z</time>
      </trkpt>
      <trkpt lat="47.17268" lon="0.28546">
        <ele>68.41</ele>
        <time>2020-06-14T12:15:39Z</time>
      </trkpt>
      <trkpt lat="47.17291" lon="0.28567">
        <ele>68.49</ele>
        <time>2020-06-14T12:15:41Z</time>
      </trkpt>
      <trkpt lat="47.17324" lon="0.28627">
        <ele>67.85</ele>
        <time>2020-06-14T12:15:45Z</time>
      </trkpt>
      <trkpt lat="47.1737" lon="0.28764">
        <ele>69.21</ele>
        <time>2020-06-14T12:15:53Z</time>
      </trkpt>
      <trkpt lat="47.17374" lon="0.28783">
        <ele>68.97</ele>
        <time>2020-06-14T12:15:54Z</time>
      </trkpt>
      <trkpt lat="47.17412" lon="0.29092">
        <ele>64.76</ele>
        <time>2020-06-14T12:16:09Z</time>
      </trkpt>
      <trkpt lat="47.17415" lon="0.29342">
        <ele>67.86</ele>
        <time>2020-06-14T12:16:22Z</time>
      </trkpt>
      <trkpt lat="47.17419" lon="0.29367">
        <ele>64.49</ele>
        <time>2020-06-14T12:16:24Z</time>
      </trkpt>
      <trkpt lat="47.17442" lon="0.29472">
        <ele>63.33</ele>
        <time>2020-06-14T12:16:31Z</time>
      </trkpt>
      <trkpt lat="47.17455" lon="0.29538">
        <ele>60.19</ele>
        <time>2020-06-14T12:16:35Z</time>
      </trkpt>
      <trkpt lat="47.1749" lon="0.2965">
        <ele>59.52</ele>
        <time>2020-06-14T12:16:43Z</time>
      </trkpt>
      <trkpt lat="47.17524" lon="0.29713">
        <ele>58.47</ele>
        <time>2020-06-14T12:16:48Z</time>
      </trkpt>
      <trkpt lat="47.17511" lon="0.29903">
        <ele>58.77</ele>
        <time>2020-06-14T12:17:00Z</time>
      </trkpt>
      <trkpt lat="47.17507" lon="0.29912">
        <ele>58.53</ele>
        <time>2020-06-14T12:17:01Z</time>
      </trkpt>
      <trkpt lat="47.17483" lon="0.29924">
        <ele>59.04</ele>
        <time>2020-06-14T12:17:04Z</time>
      </trkpt>
      <trkpt lat="47.17459" lon="0.29927">
        <ele>61.21</ele>
        <time>2020-06-14T12:17:06Z</time>
      </trkpt>
      <trkpt lat="47.17401" lon="0.29934">
        <ele>64.7</ele>
        <time>2020-06-14T12:17:10Z</time>
      </trkpt>
      <trkpt lat="47.1735" lon="0.29952">
        <ele>67.52</ele>
        <time>2020-06-14T12:17:14Z</time>
      </trkpt>
      <trkpt lat="47.17272" lon="0.30004">
        <ele>69.24</ele>
        <time>2020-06-14T12:17:20Z</time>
      </trkpt>
      <trkpt lat="47.17229" lon="0.30057">
        <ele>74.5</ele>
        <time>2020-06-14T12:17:24Z</time>
      </trkpt>
      <trkpt lat="47.17203" lon="0.30085">
        <ele>78.78</ele>
        <time>2020-06-14T12:17:26Z</time>
      </trkpt>
      <trkpt lat="47.17166" lon="0.30129">
        <ele>83.64</ele>
        <time>2020-06-14T12:17:29Z</time>
      </trkpt>
      <trkpt lat="47.17142" lon="0.30157">
        <ele>87.55</ele>
        <time>2020-06-14T12:17:31Z</time>
      </trkpt>
      <trkpt lat="47.17121" lon="0.3018">
        <ele>90.84</ele>
        <time>2020-06-14T12:17:33Z</time>
      </trkpt>
      <trkpt lat="47.17095" lon="0.30218">
        <ele>95.16</ele>
        <time>2020-06-14T12:17:36Z</time>
      </trkpt>
      <trkpt lat="47.17076" lon="0.30248">
        <ele>98.24</ele>
        <time>2020-06-14T12:17:38Z</time>
      </trkpt>
      <trkpt lat="47.17046" lon="0.30294">
        <ele>102.39</ele>
        <time>2020-06-14T12:17:41Z</time>
      </trkpt>
      <trkpt lat="47.17003" lon="0.30367">
        <ele>102.61</ele>
        <time>2020-06-14T12:17:47Z</time>
      </trkpt>
      <trkpt lat="47.17004" lon="0.30421">
        <ele>102.79</ele>
        <time>2020-06-14T12:17:53Z</time>
      </trkpt>
      <trkpt lat="47.16992" lon="0.3049">
        <ele>106.61</ele>
        <time>2020-06-14T12:17:57Z</time>
      </trkpt>
      <trkpt lat="47.16967" lon="0.30658">
        <ele>103.44</ele>
        <time>2020-06-14T12:18:04Z</time>
      </trkpt>
      <trkpt lat="47.1695" lon="0.30781">
        <ele>101.66</ele>
        <time>2020-06-14T12:18:09Z</time>
      </trkpt>
      <trkpt lat="47.16912" lon="0.3096">
        <ele>102.64</ele>
        <time>2020-06-14T12:18:18Z</time>
      </trkpt>
      <trkpt lat="47.16909" lon="0.30975">
        <ele>102.54</ele>
        <time>2020-06-14T12:18:19Z</time>
      </trkpt>
      <trkpt lat="47.16962" lon="0.31156">
        <ele>100.45</ele>
        <time>2020-06-14T12:18:32Z</time>
      </trkpt>
      <trkpt lat="47.16974" lon="0.31222">
        <ele>101.47</ele>
        <time>2020-06-14T12:18:36Z</time>
      </trkpt>
      <trkpt lat="47.16978" lon="0.313">
        <ele>104.69</ele>
        <time>2020-06-14T12:18:40Z</time>
      </trkpt>
      <trkpt lat="47.16978" lon="0.31318">
        <ele>104.79</ele>
        <time>2020-06-14T12:18:41Z</time>
      </trkpt>
      <trkpt lat="47.16977" lon="0.31356">
        <ele>102.7</ele>
        <time>2020-06-14T12:18:44Z</time>
      </trkpt>
      <trkpt lat="47.16974" lon="0.31362">
        <ele>102.97</ele>
        <time>2020-06-14T12:18:45Z</time>
      </trkpt>
      <trkpt lat="47.16938" lon="0.31381">
        <ele>102.87</ele>
        <time>2020-06-14T12:18:50Z</time>
      </trkpt>
      <trkpt lat="47.169" lon="0.31383">
        <ele>98.41</ele>
        <time>2020-06-14T12:18:54Z</time>
      </trkpt>
      <trkpt lat="47.16891" lon="0.31384">
        <ele>97.46</ele>
        <time>2020-06-14T12:18:56Z</time>
      </trkpt>
      <trkpt lat="47.16886" lon="0.3139">
        <ele>97.69</ele>
        <time>2020-06-14T12:18:58Z</time>
      </trkpt>
      <trkpt lat="47.16873" lon="0.31414">
        <ele>100.14</ele>
        <time>2020-06-14T12:19:01Z</time>
      </trkpt>
      <trkpt lat="47.16855" lon="0.31442">
        <ele>101.34</ele>
        <time>2020-06-14T12:19:04Z</time>
      </trkpt>
      <trkpt lat="47.16857" lon="0.31527">
        <ele>106.3</ele>
        <time>2020-06-14T12:19:10Z</time>
      </trkpt>
      <trkpt lat="47.16859" lon="0.31565">
        <ele>107.8</ele>
        <time>2020-06-14T12:19:12Z</time>
      </trkpt>
      <trkpt lat="47.16855" lon="0.31629">
        <ele>110.89</ele>
        <time>2020-06-14T12:19:15Z</time>
      </trkpt>
      <trkpt lat="47.16768" lon="0.32067">
        <ele>106.93</ele>
        <time>2020-06-14T12:19:36Z</time>
      </trkpt>
      <trkpt lat="47.16758" lon="0.32099">
        <ele>103.71</ele>
        <time>2020-06-14T12:19:46Z</time>
      </trkpt>
      <trkpt lat="47.16757" lon="0.32096">
        <ele>104.73</ele>
        <time>2020-06-14T12:21:57Z</time>
      </trkpt>
      <trkpt lat="47.16754" lon="0.32107">
        <ele>104.8</ele>
        <time>2020-06-14T12:23:14Z</time>
      </trkpt>
      <trkpt lat="47.16743" lon="0.32129">
        <ele>105.53</ele>
        <time>2020-06-14T12:23:19Z</time>
      </trkpt>
      <trkpt lat="47.16733" lon="0.32153">
        <ele>105.14</ele>
        <time>2020-06-14T12:23:22Z</time>
      </trkpt>
      <trkpt lat="47.1668" lon="0.32254">
        <ele>108.21</ele>
        <time>2020-06-14T12:23:31Z</time>
      </trkpt>
      <trkpt lat="47.1666" lon="0.32294">
        <ele>108.66</ele>
        <time>2020-06-14T12:23:34Z</time>
      </trkpt>
      <trkpt lat="47.16621" lon="0.3244">
        <ele>109.86</ele>
        <time>2020-06-14T12:23:44Z</time>
      </trkpt>
      <trkpt lat="47.16589" lon="0.32513">
        <ele>108.97</ele>
        <time>2020-06-14T12:23:49Z</time>
      </trkpt>
      <trkpt lat="47.16555" lon="0.32594">
        <ele>105.27</ele>
        <time>2020-06-14T12:23:55Z</time>
      </trkpt>
      <trkpt lat="47.16552" lon="0.32608">
        <ele>104.19</ele>
        <time>2020-06-14T12:23:57Z</time>
      </trkpt>
      <trkpt lat="47.16564" lon="0.32617">
        <ele>105.31</ele>
        <time>2020-06-14T12:24:01Z</time>
      </trkpt>
      <trkpt lat="47.1657" lon="0.32617">
        <ele>105.71</ele>
        <time>2020-06-14T12:24:02Z</time>
      </trkpt>
      <trkpt lat="47.16601" lon="0.32645">
        <ele>108.26</ele>
        <time>2020-06-14T12:24:06Z</time>
      </trkpt>
      <trkpt lat="47.16658" lon="0.32723">
        <ele>108.06</ele>
        <time>2020-06-14T12:24:13Z</time>
      </trkpt>
      <trkpt lat="47.16667" lon="0.32735">
        <ele>106.8</ele>
        <time>2020-06-14T12:24:15Z</time>
      </trkpt>
      <trkpt lat="47.1667" lon="0.32741">
        <ele>106.75</ele>
        <time>2020-06-14T12:24:16Z</time>
      </trkpt>
      <trkpt lat="47.16676" lon="0.32799">
        <ele>110.5</ele>
        <time>2020-06-14T12:24:21Z</time>
      </trkpt>
      <trkpt lat="47.16684" lon="0.32977">
        <ele>109.29</ele>
        <time>2020-06-14T12:24:30Z</time>
      </trkpt>
      <trkpt lat="47.16709" lon="0.33573">
        <ele>109.48</ele>
        <time>2020-06-14T12:25:01Z</time>
      </trkpt>
      <trkpt lat="47.16718" lon="0.33806">
        <ele>104.6</ele>
        <time>2020-06-14T12:25:13Z</time>
      </trkpt>
      <trkpt lat="47.16723" lon="0.33892">
        <ele>101.25</ele>
        <time>2020-06-14T12:25:17Z</time>
      </trkpt>
      <trkpt lat="47.16725" lon="0.33949">
        <ele>97.96</ele>
        <time>2020-06-14T12:25:20Z</time>
      </trkpt>
      <trkpt lat="47.16726" lon="0.33968">
        <ele>98.34</ele>
        <time>2020-06-14T12:25:21Z</time>
      </trkpt>
      <trkpt lat="47.16741" lon="0.34327">
        <ele>96.66</ele>
        <time>2020-06-14T12:25:39Z</time>
      </trkpt>
      <trkpt lat="47.16746" lon="0.344">
        <ele>93.09</ele>
        <time>2020-06-14T12:25:45Z</time>
      </trkpt>
      <trkpt lat="47.16747" lon="0.34417">
        <ele>91.68</ele>
        <time>2020-06-14T12:25:47Z</time>
      </trkpt>
      <trkpt lat="47.16746" lon="0.34423">
        <ele>91.54</ele>
        <time>2020-06-14T12:25:48Z</time>
      </trkpt>
      <trkpt lat="47.16701" lon="0.34437">
        <ele>91.15</ele>
        <time>2020-06-14T12:25:55Z</time>
      </trkpt>
      <trkpt lat="47.16686" lon="0.3444">
        <ele>90.48</ele>
        <time>2020-06-14T12:25:57Z</time>
      </trkpt>
      <trkpt lat="47.16673" lon="0.34445">
        <ele>86.99</ele>
        <time>2020-06-14T12:25:59Z</time>
      </trkpt>
      <trkpt lat="47.16663" lon="0.34459">
        <ele>84.52</ele>
        <time>2020-06-14T12:26:02Z</time>
      </trkpt>
      <trkpt lat="47.16663" lon="0.34468">
        <ele>84.02</ele>
        <time>2020-06-14T12:26:03Z</time>
      </trkpt>
      <trkpt lat="47.16661" lon="0.34492">
        <ele>83.05</ele>
        <time>2020-06-14T12:26:05Z</time>
      </trkpt>
      <trkpt lat="47.16658" lon="0.3454">
        <ele>78.9</ele>
        <time>2020-06-14T12:26:08Z</time>
      </trkpt>
      <trkpt lat="47.16655" lon="0.34572">
        <ele>75.32</ele>
        <time>2020-06-14T12:26:10Z</time>
      </trkpt>
      <trkpt lat="47.16652" lon="0.34603">
        <ele>72.07</ele>
        <time>2020-06-14T12:26:12Z</time>
      </trkpt>
      <trkpt lat="47.16649" lon="0.34632">
        <ele>68.12</ele>
        <time>2020-06-14T12:26:14Z</time>
      </trkpt>
      <trkpt lat="47.16645" lon="0.34673">
        <ele>64.99</ele>
        <time>2020-06-14T12:26:17Z</time>
      </trkpt>
      <trkpt lat="47.16643" lon="0.34698">
        <ele>61.18</ele>
        <time>2020-06-14T12:26:19Z</time>
      </trkpt>
      <trkpt lat="47.16641" lon="0.34723">
        <ele>57.94</ele>
        <time>2020-06-14T12:26:22Z</time>
      </trkpt>
      <trkpt lat="47.16641" lon="0.3473">
        <ele>58.56</ele>
        <time>2020-06-14T12:26:24Z</time>
      </trkpt>
      <trkpt lat="47.16658" lon="0.34743">
        <ele>56.54</ele>
        <time>2020-06-14T12:26:31Z</time>
      </trkpt>
      <trkpt lat="47.16661" lon="0.34775">
        <ele>53.2</ele>
        <time>2020-06-14T12:26:35Z</time>
      </trkpt>
      <trkpt lat="47.16658" lon="0.34818">
        <ele>50.05</ele>
        <time>2020-06-14T12:26:40Z</time>
      </trkpt>
      <trkpt lat="47.16657" lon="0.34825">
        <ele>49.71</ele>
        <time>2020-06-14T12:26:41Z</time>
      </trkpt>
      <trkpt lat="47.1666" lon="0.3485">
        <ele>46.28</ele>
        <time>2020-06-14T12:26:44Z</time>
      </trkpt>
      <trkpt lat="47.16662" lon="0.3486">
        <ele>45.86</ele>
        <time>2020-06-14T12:26:45Z</time>
      </trkpt>
      <trkpt lat="47.16633" lon="0.34924">
        <ele>45.56</ele>
        <time>2020-06-14T12:26:53Z</time>
      </trkpt>
      <trkpt lat="47.16625" lon="0.34937">
        <ele>44.11</ele>
        <time>2020-06-14T12:26:56Z</time>
      </trkpt>
      <trkpt lat="47.1663" lon="0.34965">
        <ele>46.15</ele>
        <time>2020-06-14T12:27:00Z</time>
      </trkpt>
      <trkpt lat="47.16612" lon="0.34996">
        <ele>49.48</ele>
        <time>2020-06-14T12:27:06Z</time>
      </trkpt>
      <trkpt lat="47.16591" lon="0.35039">
        <ele>54.12</ele>
        <time>2020-06-14T12:27:11Z</time>
      </trkpt>
      <trkpt lat="47.16579" lon="0.35069">
        <ele>56.05</ele>
        <time>2020-06-14T12:27:16Z</time>
      </trkpt>
      <trkpt lat="47.16588" lon="0.35101">
        <ele>60.18</ele>
        <time>2020-06-14T12:27:20Z</time>
      </trkpt>
      <trkpt lat="47.16591" lon="0.3511">
        <ele>61.19</ele>
        <time>2020-06-14T12:27:21Z</time>
      </trkpt>
      <trkpt lat="47.16597" lon="0.35138">
        <ele>64.93</ele>
        <time>2020-06-14T12:27:24Z</time>
      </trkpt>
      <trkpt lat="47.16596" lon="0.35169">
        <ele>67.58</ele>
        <time>2020-06-14T12:27:27Z</time>
      </trkpt>
      <trkpt lat="47.16602" lon="0.35198">
        <ele>70.94</ele>
        <time>2020-06-14T12:27:30Z</time>
      </trkpt>
      <trkpt lat="47.16629" lon="0.35225">
        <ele>74.57</ele>
        <time>2020-06-14T12:27:34Z</time>
      </trkpt>
      <trkpt lat="47.16636" lon="0.35229">
        <ele>74.97</ele>
        <time>2020-06-14T12:27:35Z</time>
      </trkpt>
      <trkpt lat="47.16656" lon="0.35235">
        <ele>74.34</ele>
        <time>2020-06-14T12:27:38Z</time>
      </trkpt>
      <trkpt lat="47.16677" lon="0.35256">
        <ele>77.95</ele>
        <time>2020-06-14T12:27:42Z</time>
      </trkpt>
      <trkpt lat="47.16685" lon="0.35275">
        <ele>79.29</ele>
        <time>2020-06-14T12:27:44Z</time>
      </trkpt>
      <trkpt lat="47.16698" lon="0.35314">
        <ele>81.54</ele>
        <time>2020-06-14T12:27:47Z</time>
      </trkpt>
      <trkpt lat="47.16716" lon="0.35342">
        <ele>83.44</ele>
        <time>2020-06-14T12:27:50Z</time>
      </trkpt>
      <trkpt lat="47.16734" lon="0.35365">
        <ele>83.37</ele>
        <time>2020-06-14T12:27:53Z</time>
      </trkpt>
      <trkpt lat="47.16751" lon="0.35411">
        <ele>86.8</ele>
        <time>2020-06-14T12:27:57Z</time>
      </trkpt>
      <trkpt lat="47.16766" lon="0.35469">
        <ele>92.8</ele>
        <time>2020-06-14T12:28:01Z</time>
      </trkpt>
      <trkpt lat="47.16787" lon="0.35552">
        <ele>98.84</ele>
        <time>2020-06-14T12:28:07Z</time>
      </trkpt>
      <trkpt lat="47.16813" lon="0.35643">
        <ele>100.91</ele>
        <time>2020-06-14T12:28:14Z</time>
      </trkpt>
      <trkpt lat="47.16805" lon="0.35662">
        <ele>102.5</ele>
        <time>2020-06-14T12:28:17Z</time>
      </trkpt>
      <trkpt lat="47.16784" lon="0.35686">
        <ele>104.48</ele>
        <time>2020-06-14T12:28:20Z</time>
      </trkpt>
      <trkpt lat="47.16703" lon="0.35814">
        <ele>96.85</ele>
        <time>2020-06-14T12:28:30Z</time>
      </trkpt>
      <trkpt lat="47.16706" lon="0.35846">
        <ele>95.6</ele>
        <time>2020-06-14T12:28:36Z</time>
      </trkpt>
      <trkpt lat="47.16712" lon="0.3585">
        <ele>96.62</ele>
        <time>2020-06-14T12:28:37Z</time>
      </trkpt>
      <trkpt lat="47.16725" lon="0.35865">
        <ele>97.83</ele>
        <time>2020-06-14T12:28:39Z</time>
      </trkpt>
      <trkpt lat="47.16768" lon="0.35919">
        <ele>104.12</ele>
        <time>2020-06-14T12:28:44Z</time>
      </trkpt>
      <trkpt lat="47.16803" lon="0.35969">
        <ele>106.21</ele>
        <time>2020-06-14T12:28:48Z</time>
      </trkpt>
      <trkpt lat="47.1681" lon="0.35983">
        <ele>106.5</ele>
        <time>2020-06-14T12:28:49Z</time>
      </trkpt>
      <trkpt lat="47.16826" lon="0.36031">
        <ele>107.88</ele>
        <time>2020-06-14T12:28:52Z</time>
      </trkpt>
      <trkpt lat="47.16837" lon="0.36079">
        <ele>109.94</ele>
        <time>2020-06-14T12:28:55Z</time>
      </trkpt>
      <trkpt lat="47.1684" lon="0.36108">
        <ele>110.2</ele>
        <time>2020-06-14T12:28:57Z</time>
      </trkpt>
      <trkpt lat="47.16843" lon="0.36195">
        <ele>109.96</ele>
        <time>2020-06-14T12:29:04Z</time>
      </trkpt>
      <trkpt lat="47.16877" lon="0.36317">
        <ele>113.3</ele>
        <time>2020-06-14T12:29:13Z</time>
      </trkpt>
      <trkpt lat="47.16925" lon="0.3646">
        <ele>111.9</ele>
        <time>2020-06-14T12:29:21Z</time>
      </trkpt>
      <trkpt lat="47.16954" lon="0.36513">
        <ele>111.48</ele>
        <time>2020-06-14T12:29:25Z</time>
      </trkpt>
      <trkpt lat="47.1704" lon="0.36613">
        <ele>108.21</ele>
        <time>2020-06-14T12:29:33Z</time>
      </trkpt>
      <trkpt lat="47.17085" lon="0.36738">
        <ele>103.7</ele>
        <time>2020-06-14T12:29:41Z</time>
      </trkpt>
      <trkpt lat="47.17092" lon="0.36772">
        <ele>102.06</ele>
        <time>2020-06-14T12:29:45Z</time>
      </trkpt>
      <trkpt lat="47.17071" lon="0.36793">
        <ele>104.92</ele>
        <time>2020-06-14T12:29:49Z</time>
      </trkpt>
      <trkpt lat="47.16896" lon="0.36888">
        <ele>108.87</ele>
        <time>2020-06-14T12:30:02Z</time>
      </trkpt>
      <trkpt lat="47.16833" lon="0.36923">
        <ele>107.36</ele>
        <time>2020-06-14T12:30:07Z</time>
      </trkpt>
      <trkpt lat="47.16809" lon="0.36951">
        <ele>105.87</ele>
        <time>2020-06-14T12:30:10Z</time>
      </trkpt>
      <trkpt lat="47.16763" lon="0.37053">
        <ele>102.07</ele>
        <time>2020-06-14T12:30:18Z</time>
      </trkpt>
      <trkpt lat="47.16725" lon="0.37078">
        <ele>100.33</ele>
        <time>2020-06-14T12:30:22Z</time>
      </trkpt>
      <trkpt lat="47.1669" lon="0.37093">
        <ele>98.7</ele>
        <time>2020-06-14T12:30:26Z</time>
      </trkpt>
      <trkpt lat="47.16682" lon="0.37099">
        <ele>98.85</ele>
        <time>2020-06-14T12:30:27Z</time>
      </trkpt>
      <trkpt lat="47.16633" lon="0.37146">
        <ele>99.09</ele>
        <time>2020-06-14T12:30:33Z</time>
      </trkpt>
      <trkpt lat="47.16593" lon="0.37156">
        <ele>100.61</ele>
        <time>2020-06-14T12:30:37Z</time>
      </trkpt>
      <trkpt lat="47.16564" lon="0.37152">
        <ele>102.04</ele>
        <time>2020-06-14T12:30:40Z</time>
      </trkpt>
      <trkpt lat="47.16534" lon="0.37138">
        <ele>103.09</ele>
        <time>2020-06-14T12:30:43Z</time>
      </trkpt>
      <trkpt lat="47.16511" lon="0.37133">
        <ele>104.09</ele>
        <time>2020-06-14T12:30:45Z</time>
      </trkpt>
      <trkpt lat="47.16478" lon="0.37127">
        <ele>103.14</ele>
        <time>2020-06-14T12:30:48Z</time>
      </trkpt>
      <trkpt lat="47.16436" lon="0.37139">
        <ele>102.36</ele>
        <time>2020-06-14T12:30:52Z</time>
      </trkpt>
      <trkpt lat="47.16364" lon="0.37181">
        <ele>101.75</ele>
        <time>2020-06-14T12:30:59Z</time>
      </trkpt>
      <trkpt lat="47.16353" lon="0.37185">
        <ele>101.74</ele>
        <time>2020-06-14T12:31:00Z</time>
      </trkpt>
      <trkpt lat="47.16311" lon="0.37188">
        <ele>103.34</ele>
        <time>2020-06-14T12:31:04Z</time>
      </trkpt>
      <trkpt lat="47.16239" lon="0.37178">
        <ele>106.96</ele>
        <time>2020-06-14T12:31:10Z</time>
      </trkpt>
      <trkpt lat="47.16162" lon="0.37171">
        <ele>103.07</ele>
        <time>2020-06-14T12:31:17Z</time>
      </trkpt>
      <trkpt lat="47.16149" lon="0.37175">
        <ele>101.65</ele>
        <time>2020-06-14T12:31:20Z</time>
      </trkpt>
      <trkpt lat="47.16147" lon="0.37187">
        <ele>102.29</ele>
        <time>2020-06-14T12:31:22Z</time>
      </trkpt>
      <trkpt lat="47.1614" lon="0.37229">
        <ele>105.34</ele>
        <time>2020-06-14T12:31:25Z</time>
      </trkpt>
      <trkpt lat="47.16137" lon="0.37247">
        <ele>104.38</ele>
        <time>2020-06-14T12:31:26Z</time>
      </trkpt>
      <trkpt lat="47.16122" lon="0.37338">
        <ele>109.08</ele>
        <time>2020-06-14T12:31:30Z</time>
      </trkpt>
      <trkpt lat="47.16118" lon="0.37361">
        <ele>107.99</ele>
        <time>2020-06-14T12:31:31Z</time>
      </trkpt>
      <trkpt lat="47.16085" lon="0.37628">
        <ele>105.1</ele>
        <time>2020-06-14T12:31:44Z</time>
      </trkpt>
      <trkpt lat="47.16052" lon="0.37697">
        <ele>105.28</ele>
        <time>2020-06-14T12:31:48Z</time>
      </trkpt>
      <trkpt lat="47.15874" lon="0.38027">
        <ele>104.27</ele>
        <time>2020-06-14T12:32:06Z</time>
      </trkpt>
      <trkpt lat="47.15899" lon="0.38234">
        <ele>105.64</ele>
        <time>2020-06-14T12:32:18Z</time>
      </trkpt>
      <trkpt lat="47.15913" lon="0.3842">
        <ele>105.09</ele>
        <time>2020-06-14T12:32:31Z</time>
      </trkpt>
      <trkpt lat="47.15908" lon="0.38432">
        <ele>105.3</ele>
        <time>2020-06-14T12:32:32Z</time>
      </trkpt>
      <trkpt lat="47.15749" lon="0.3878">
        <ele>100.29</ele>
        <time>2020-06-14T12:32:55Z</time>
      </trkpt>
      <trkpt lat="47.15744" lon="0.38797">
        <ele>99.84</ele>
        <time>2020-06-14T12:32:56Z</time>
      </trkpt>
      <trkpt lat="47.15724" lon="0.38866">
        <ele>100.22</ele>
        <time>2020-06-14T12:33:00Z</time>
      </trkpt>
      <trkpt lat="47.15699" lon="0.38909">
        <ele>98.93</ele>
        <time>2020-06-14T12:33:03Z</time>
      </trkpt>
      <trkpt lat="47.15611" lon="0.39012">
        <ele>95.33</ele>
        <time>2020-06-14T12:33:11Z</time>
      </trkpt>
      <trkpt lat="47.15596" lon="0.39031">
        <ele>93.88</ele>
        <time>2020-06-14T12:33:13Z</time>
      </trkpt>
      <trkpt lat="47.15583" lon="0.39053">
        <ele>93.84</ele>
        <time>2020-06-14T12:33:15Z</time>
      </trkpt>
      <trkpt lat="47.15513" lon="0.39248">
        <ele>97.33</ele>
        <time>2020-06-14T12:33:26Z</time>
      </trkpt>
      <trkpt lat="47.15463" lon="0.39408">
        <ele>93.57</ele>
        <time>2020-06-14T12:33:35Z</time>
      </trkpt>
      <trkpt lat="47.15454" lon="0.39436">
        <ele>92.59</ele>
        <time>2020-06-14T12:33:37Z</time>
      </trkpt>
      <trkpt lat="47.15425" lon="0.39484">
        <ele>89.41</ele>
        <time>2020-06-14T12:33:41Z</time>
      </trkpt>
      <trkpt lat="47.15376" lon="0.39553">
        <ele>83.6</ele>
        <time>2020-06-14T12:33:47Z</time>
      </trkpt>
      <trkpt lat="47.15358" lon="0.39583">
        <ele>79.88</ele>
        <time>2020-06-14T12:33:50Z</time>
      </trkpt>
      <trkpt lat="47.15347" lon="0.39594">
        <ele>77.96</ele>
        <time>2020-06-14T12:33:52Z</time>
      </trkpt>
      <trkpt lat="47.15327" lon="0.39616">
        <ele>75.83</ele>
        <time>2020-06-14T12:33:57Z</time>
      </trkpt>
      <trkpt lat="47.15323" lon="0.39621">
        <ele>75.8</ele>
        <time>2020-06-14T12:33:58Z</time>
      </trkpt>
      <trkpt lat="47.15319" lon="0.39627">
        <ele>75.57</ele>
        <time>2020-06-14T12:33:59Z</time>
      </trkpt>
      <trkpt lat="47.15297" lon="0.39652">
        <ele>71.97</ele>
        <time>2020-06-14T12:34:04Z</time>
      </trkpt>
      <trkpt lat="47.15291" lon="0.39658">
        <ele>74</ele>
        <time>2020-06-14T12:34:05Z</time>
      </trkpt>
      <trkpt lat="47.15247" lon="0.3968">
        <ele>70.1</ele>
        <time>2020-06-14T12:34:11Z</time>
      </trkpt>
      <trkpt lat="47.15238" lon="0.39679">
        <ele>69.07</ele>
        <time>2020-06-14T12:34:12Z</time>
      </trkpt>
      <trkpt lat="47.15211" lon="0.39678">
        <ele>65</ele>
        <time>2020-06-14T12:34:15Z</time>
      </trkpt>
      <trkpt lat="47.15192" lon="0.39678">
        <ele>61.98</ele>
        <time>2020-06-14T12:34:17Z</time>
      </trkpt>
      <trkpt lat="47.15182" lon="0.39679">
        <ele>60.16</ele>
        <time>2020-06-14T12:34:19Z</time>
      </trkpt>
      <trkpt lat="47.1518" lon="0.39689">
        <ele>58.1</ele>
        <time>2020-06-14T12:34:22Z</time>
      </trkpt>
      <trkpt lat="47.15183" lon="0.39694">
        <ele>58.07</ele>
        <time>2020-06-14T12:34:23Z</time>
      </trkpt>
      <trkpt lat="47.15228" lon="0.39762">
        <ele>53.97</ele>
        <time>2020-06-14T12:34:30Z</time>
      </trkpt>
      <trkpt lat="47.15214" lon="0.39792">
        <ele>52.96</ele>
        <time>2020-06-14T12:34:36Z</time>
      </trkpt>
      <trkpt lat="47.15205" lon="0.39792">
        <ele>53.13</ele>
        <time>2020-06-14T12:34:37Z</time>
      </trkpt>
      <trkpt lat="47.15075" lon="0.39789">
        <ele>48.03</ele>
        <time>2020-06-14T12:34:47Z</time>
      </trkpt>
      <trkpt lat="47.15055" lon="0.3979">
        <ele>45.67</ele>
        <time>2020-06-14T12:34:49Z</time>
      </trkpt>
      <trkpt lat="47.15037" lon="0.39818">
        <ele>42.4</ele>
        <time>2020-06-14T12:34:52Z</time>
      </trkpt>
      <trkpt lat="47.15034" lon="0.39833">
        <ele>42</ele>
        <time>2020-06-14T12:34:53Z</time>
      </trkpt>
      <trkpt lat="47.15031" lon="0.39852">
        <ele>43.3</ele>
        <time>2020-06-14T12:34:54Z</time>
      </trkpt>
      <trkpt lat="47.14997" lon="0.39936">
        <ele>41.9</ele>
        <time>2020-06-14T12:34:59Z</time>
      </trkpt>
      <trkpt lat="47.14964" lon="0.39977">
        <ele>38.36</ele>
        <time>2020-06-14T12:35:03Z</time>
      </trkpt>
      <trkpt lat="47.14961" lon="0.39992">
        <ele>37.42</ele>
        <time>2020-06-14T12:35:05Z</time>
      </trkpt>
      <trkpt lat="47.14968" lon="0.40007">
        <ele>37.58</ele>
        <time>2020-06-14T12:35:07Z</time>
      </trkpt>
      <trkpt lat="47.15011" lon="0.40098">
        <ele>39.82</ele>
        <time>2020-06-14T12:35:15Z</time>
      </trkpt>
      <trkpt lat="47.15013" lon="0.40136">
        <ele>43.92</ele>
        <time>2020-06-14T12:35:18Z</time>
      </trkpt>
      <trkpt lat="47.15011" lon="0.4015">
        <ele>45.41</ele>
        <time>2020-06-14T12:35:19Z</time>
      </trkpt>
      <trkpt lat="47.1501" lon="0.40181">
        <ele>49.03</ele>
        <time>2020-06-14T12:35:21Z</time>
      </trkpt>
      <trkpt lat="47.15008" lon="0.40228">
        <ele>53.59</ele>
        <time>2020-06-14T12:35:24Z</time>
      </trkpt>
      <trkpt lat="47.14995" lon="0.40313">
        <ele>57.16</ele>
        <time>2020-06-14T12:35:30Z</time>
      </trkpt>
      <trkpt lat="47.14984" lon="0.40391">
        <ele>53.78</ele>
        <time>2020-06-14T12:35:36Z</time>
      </trkpt>
      <trkpt lat="47.14979" lon="0.40408">
        <ele>51.92</ele>
        <time>2020-06-14T12:35:39Z</time>
      </trkpt>
      <trkpt lat="47.14955" lon="0.40512">
        <ele>55.76</ele>
        <time>2020-06-14T12:35:48Z</time>
      </trkpt>
      <trkpt lat="47.14941" lon="0.40574">
        <ele>58.81</ele>
        <time>2020-06-14T12:35:51Z</time>
      </trkpt>
      <trkpt lat="47.14926" lon="0.4064">
        <ele>55.4</ele>
        <time>2020-06-14T12:35:54Z</time>
      </trkpt>
      <trkpt lat="47.14915" lon="0.40687">
        <ele>52.84</ele>
        <time>2020-06-14T12:35:57Z</time>
      </trkpt>
      <trkpt lat="47.1491" lon="0.40697">
        <ele>52.55</ele>
        <time>2020-06-14T12:35:58Z</time>
      </trkpt>
      <trkpt lat="47.14817" lon="0.40703">
        <ele>51.79</ele>
        <time>2020-06-14T12:36:07Z</time>
      </trkpt>
      <trkpt lat="47.14786" lon="0.40688">
        <ele>49.24</ele>
        <time>2020-06-14T12:36:11Z</time>
      </trkpt>
      <trkpt lat="47.14778" lon="0.40786">
        <ele>52.12</ele>
        <time>2020-06-14T12:36:22Z</time>
      </trkpt>
      <trkpt lat="47.14779" lon="0.40809">
        <ele>52.21</ele>
        <time>2020-06-14T12:36:23Z</time>
      </trkpt>
      <trkpt lat="47.14764" lon="0.40933">
        <ele>53.45</ele>
        <time>2020-06-14T12:36:28Z</time>
      </trkpt>
      <trkpt lat="47.1474" lon="0.41004">
        <ele>50.15</ele>
        <time>2020-06-14T12:36:31Z</time>
      </trkpt>
      <trkpt lat="47.14732" lon="0.41025">
        <ele>50.39</ele>
        <time>2020-06-14T12:36:32Z</time>
      </trkpt>
      <trkpt lat="47.14716" lon="0.41062">
        <ele>46.81</ele>
        <time>2020-06-14T12:36:34Z</time>
      </trkpt>
      <trkpt lat="47.14689" lon="0.41108">
        <ele>42</ele>
        <time>2020-06-14T12:36:38Z</time>
      </trkpt>
      <trkpt lat="47.1469" lon="0.41116">
        <ele>42.41</ele>
        <time>2020-06-14T12:36:39Z</time>
      </trkpt>
      <trkpt lat="47.147" lon="0.41133">
        <ele>42.48</ele>
        <time>2020-06-14T12:36:41Z</time>
      </trkpt>
      <trkpt lat="47.14733" lon="0.41178">
        <ele>46.67</ele>
        <time>2020-06-14T12:36:45Z</time>
      </trkpt>
      <trkpt lat="47.14762" lon="0.41218">
        <ele>50.59</ele>
        <time>2020-06-14T12:36:48Z</time>
      </trkpt>
      <trkpt lat="47.14796" lon="0.41277">
        <ele>54.67</ele>
        <time>2020-06-14T12:36:52Z</time>
      </trkpt>
      <trkpt lat="47.14815" lon="0.41326">
        <ele>58.27</ele>
        <time>2020-06-14T12:36:55Z</time>
      </trkpt>
      <trkpt lat="47.14847" lon="0.41446">
        <ele>61.46</ele>
        <time>2020-06-14T12:37:02Z</time>
      </trkpt>
      <trkpt lat="47.14901" lon="0.41752">
        <ele>61.71</ele>
        <time>2020-06-14T12:37:24Z</time>
      </trkpt>
      <trkpt lat="47.1493" lon="0.41759">
        <ele>65.07</ele>
        <time>2020-06-14T12:37:27Z</time>
      </trkpt>
      <trkpt lat="47.14951" lon="0.41754">
        <ele>68.22</ele>
        <time>2020-06-14T12:37:29Z</time>
      </trkpt>
      <trkpt lat="47.14981" lon="0.41741">
        <ele>71.9</ele>
        <time>2020-06-14T12:37:32Z</time>
      </trkpt>
      <trkpt lat="47.15" lon="0.41731">
        <ele>75.17</ele>
        <time>2020-06-14T12:37:34Z</time>
      </trkpt>
      <trkpt lat="47.15028" lon="0.41723">
        <ele>78.45</ele>
        <time>2020-06-14T12:37:37Z</time>
      </trkpt>
      <trkpt lat="47.15037" lon="0.41722">
        <ele>78.68</ele>
        <time>2020-06-14T12:37:38Z</time>
      </trkpt>
      <trkpt lat="47.15104" lon="0.4171">
        <ele>82.72</ele>
        <time>2020-06-14T12:37:48Z</time>
      </trkpt>
      <trkpt lat="47.15119" lon="0.41706">
        <ele>82.8</ele>
        <time>2020-06-14T12:37:51Z</time>
      </trkpt>
      <trkpt lat="47.15158" lon="0.41699">
        <ele>87.97</ele>
        <time>2020-06-14T12:37:59Z</time>
      </trkpt>
      <trkpt lat="47.15183" lon="0.41699">
        <ele>91.36</ele>
        <time>2020-06-14T12:38:03Z</time>
      </trkpt>
      <trkpt lat="47.15205" lon="0.41706">
        <ele>92.87</ele>
        <time>2020-06-14T12:38:06Z</time>
      </trkpt>
      <trkpt lat="47.15276" lon="0.41718">
        <ele>97.63</ele>
        <time>2020-06-14T12:38:14Z</time>
      </trkpt>
      <trkpt lat="47.15341" lon="0.41746">
        <ele>98.5</ele>
        <time>2020-06-14T12:38:22Z</time>
      </trkpt>
      <trkpt lat="47.15347" lon="0.41757">
        <ele>98.67</ele>
        <time>2020-06-14T12:38:23Z</time>
      </trkpt>
      <trkpt lat="47.1539" lon="0.41835">
        <ele>98.47</ele>
        <time>2020-06-14T12:38:30Z</time>
      </trkpt>
      <trkpt lat="47.15427" lon="0.41857">
        <ele>99.27</ele>
        <time>2020-06-14T12:38:36Z</time>
      </trkpt>
      <trkpt lat="47.15433" lon="0.41856">
        <ele>99.93</ele>
        <time>2020-06-14T12:38:37Z</time>
      </trkpt>
      <trkpt lat="47.1544" lon="0.41856">
        <ele>100.09</ele>
        <time>2020-06-14T12:38:38Z</time>
      </trkpt>
      <trkpt lat="47.15497" lon="0.41849">
        <ele>101.43</ele>
        <time>2020-06-14T12:38:54Z</time>
      </trkpt>
      <trkpt lat="47.15669" lon="0.41806">
        <ele>105.87</ele>
        <time>2020-06-14T12:39:09Z</time>
      </trkpt>
      <trkpt lat="47.15778" lon="0.41827">
        <ele>111.4</ele>
        <time>2020-06-14T12:39:17Z</time>
      </trkpt>
      <trkpt lat="47.15793" lon="0.41832">
        <ele>111.59</ele>
        <time>2020-06-14T12:39:18Z</time>
      </trkpt>
      <trkpt lat="47.15837" lon="0.4185">
        <ele>110.3</ele>
        <time>2020-06-14T12:39:21Z</time>
      </trkpt>
      <trkpt lat="47.1594" lon="0.41893">
        <ele>107.05</ele>
        <time>2020-06-14T12:39:28Z</time>
      </trkpt>
      <trkpt lat="47.16028" lon="0.41952">
        <ele>107</ele>
        <time>2020-06-14T12:39:35Z</time>
      </trkpt>
      <trkpt lat="47.16131" lon="0.42022">
        <ele>106.56</ele>
        <time>2020-06-14T12:39:43Z</time>
      </trkpt>
      <trkpt lat="47.16145" lon="0.42029">
        <ele>106.57</ele>
        <time>2020-06-14T12:39:44Z</time>
      </trkpt>
      <trkpt lat="47.16319" lon="0.42111">
        <ele>105.4</ele>
        <time>2020-06-14T12:39:58Z</time>
      </trkpt>
      <trkpt lat="47.16367" lon="0.42141">
        <ele>105.31</ele>
        <time>2020-06-14T12:40:04Z</time>
      </trkpt>
      <trkpt lat="47.16457" lon="0.42213">
        <ele>109.83</ele>
        <time>2020-06-14T12:40:18Z</time>
      </trkpt>
      <trkpt lat="47.16554" lon="0.42272">
        <ele>109.96</ele>
        <time>2020-06-14T12:40:27Z</time>
      </trkpt>
      <trkpt lat="47.16574" lon="0.42284">
        <ele>107.86</ele>
        <time>2020-06-14T12:40:30Z</time>
      </trkpt>
      <trkpt lat="47.16594" lon="0.42434">
        <ele>112.61</ele>
        <time>2020-06-14T12:40:43Z</time>
      </trkpt>
      <trkpt lat="47.16588" lon="0.42543">
        <ele>111.34</ele>
        <time>2020-06-14T12:40:49Z</time>
      </trkpt>
      <trkpt lat="47.1658" lon="0.42776">
        <ele>107.53</ele>
        <time>2020-06-14T12:41:06Z</time>
      </trkpt>
      <trkpt lat="47.1654" lon="0.42918">
        <ele>104.83</ele>
        <time>2020-06-14T12:41:15Z</time>
      </trkpt>
      <trkpt lat="47.16489" lon="0.43127">
        <ele>104.23</ele>
        <time>2020-06-14T12:41:27Z</time>
      </trkpt>
      <trkpt lat="47.16466" lon="0.43258">
        <ele>105.84</ele>
        <time>2020-06-14T12:41:33Z</time>
      </trkpt>
      <trkpt lat="47.16447" lon="0.43384">
        <ele>110.39</ele>
        <time>2020-06-14T12:41:40Z</time>
      </trkpt>
      <trkpt lat="47.16444" lon="0.43402">
        <ele>109.95</ele>
        <time>2020-06-14T12:41:41Z</time>
      </trkpt>
      <trkpt lat="47.16442" lon="0.43418">
        <ele>106.37</ele>
        <time>2020-06-14T12:41:42Z</time>
      </trkpt>
      <trkpt lat="47.1644" lon="0.43432">
        <ele>106.07</ele>
        <time>2020-06-14T12:41:43Z</time>
      </trkpt>
      <trkpt lat="47.16437" lon="0.43466">
        <ele>106.49</ele>
        <time>2020-06-14T12:41:46Z</time>
      </trkpt>
      <trkpt lat="47.16411" lon="0.43481">
        <ele>113.33</ele>
        <time>2020-06-14T12:41:51Z</time>
      </trkpt>
      <trkpt lat="47.16399" lon="0.43478">
        <ele>113.73</ele>
        <time>2020-06-14T12:41:52Z</time>
      </trkpt>
      <trkpt lat="47.1629" lon="0.43476">
        <ele>114.35</ele>
        <time>2020-06-14T12:41:58Z</time>
      </trkpt>
      <trkpt lat="47.16197" lon="0.43471">
        <ele>117.53</ele>
        <time>2020-06-14T12:42:02Z</time>
      </trkpt>
      <trkpt lat="47.16089" lon="0.43434">
        <ele>111.98</ele>
        <time>2020-06-14T12:42:07Z</time>
      </trkpt>
      <trkpt lat="47.1603" lon="0.43421">
        <ele>108.65</ele>
        <time>2020-06-14T12:42:10Z</time>
      </trkpt>
      <trkpt lat="47.1601" lon="0.43422">
        <ele>101.67</ele>
        <time>2020-06-14T12:42:11Z</time>
      </trkpt>
      <trkpt lat="47.15989" lon="0.43426">
        <ele>101.67</ele>
        <time>2020-06-14T12:42:12Z</time>
      </trkpt>
      <trkpt lat="47.15903" lon="0.43446">
        <ele>108.24</ele>
        <time>2020-06-14T12:42:16Z</time>
      </trkpt>
      <trkpt lat="47.15881" lon="0.43452">
        <ele>107.95</ele>
        <time>2020-06-14T12:42:17Z</time>
      </trkpt>
      <trkpt lat="47.15814" lon="0.43468">
        <ele>103.42</ele>
        <time>2020-06-14T12:42:20Z</time>
      </trkpt>
      <trkpt lat="47.15703" lon="0.43497">
        <ele>99.27</ele>
        <time>2020-06-14T12:42:25Z</time>
      </trkpt>
      <trkpt lat="47.15592" lon="0.43526">
        <ele>92.96</ele>
        <time>2020-06-14T12:42:30Z</time>
      </trkpt>
      <trkpt lat="47.15571" lon="0.43531">
        <ele>89.65</ele>
        <time>2020-06-14T12:42:31Z</time>
      </trkpt>
      <trkpt lat="47.15512" lon="0.43546">
        <ele>85.82</ele>
        <time>2020-06-14T12:42:34Z</time>
      </trkpt>
      <trkpt lat="47.15476" lon="0.43551">
        <ele>84.51</ele>
        <time>2020-06-14T12:42:36Z</time>
      </trkpt>
      <trkpt lat="47.15384" lon="0.43512">
        <ele>81.79</ele>
        <time>2020-06-14T12:42:41Z</time>
      </trkpt>
      <trkpt lat="47.15312" lon="0.43452">
        <ele>77.15</ele>
        <time>2020-06-14T12:42:45Z</time>
      </trkpt>
      <trkpt lat="47.15259" lon="0.43407">
        <ele>73.99</ele>
        <time>2020-06-14T12:42:48Z</time>
      </trkpt>
      <trkpt lat="47.15204" lon="0.43366">
        <ele>70.37</ele>
        <time>2020-06-14T12:42:51Z</time>
      </trkpt>
      <trkpt lat="47.15184" lon="0.43356">
        <ele>70.22</ele>
        <time>2020-06-14T12:42:52Z</time>
      </trkpt>
      <trkpt lat="47.15055" lon="0.43317">
        <ele>67.84</ele>
        <time>2020-06-14T12:42:58Z</time>
      </trkpt>
      <trkpt lat="47.14926" lon="0.43285">
        <ele>64.92</ele>
        <time>2020-06-14T12:43:04Z</time>
      </trkpt>
      <trkpt lat="47.14745" lon="0.43288">
        <ele>57.16</ele>
        <time>2020-06-14T12:43:13Z</time>
      </trkpt>
      <trkpt lat="47.14726" lon="0.4329">
        <ele>57.23</ele>
        <time>2020-06-14T12:43:14Z</time>
      </trkpt>
      <trkpt lat="47.14615" lon="0.43301">
        <ele>58.65</ele>
        <time>2020-06-14T12:43:21Z</time>
      </trkpt>
      <trkpt lat="47.14591" lon="0.43301">
        <ele>56.56</ele>
        <time>2020-06-14T12:43:23Z</time>
      </trkpt>
      <trkpt lat="47.14572" lon="0.43295">
        <ele>54.82</ele>
        <time>2020-06-14T12:43:25Z</time>
      </trkpt>
      <trkpt lat="47.14559" lon="0.43286">
        <ele>53.45</ele>
        <time>2020-06-14T12:43:27Z</time>
      </trkpt>
      <trkpt lat="47.14549" lon="0.43289">
        <ele>52.42</ele>
        <time>2020-06-14T12:43:29Z</time>
      </trkpt>
      <trkpt lat="47.14574" lon="0.43375">
        <ele>54.52</ele>
        <time>2020-06-14T12:43:36Z</time>
      </trkpt>
      <trkpt lat="47.14595" lon="0.43409">
        <ele>58.43</ele>
        <time>2020-06-14T12:43:38Z</time>
      </trkpt>
      <trkpt lat="47.14605" lon="0.43431">
        <ele>58.56</ele>
        <time>2020-06-14T12:43:39Z</time>
      </trkpt>
      <trkpt lat="47.14629" lon="0.4351">
        <ele>61.67</ele>
        <time>2020-06-14T12:43:42Z</time>
      </trkpt>
      <trkpt lat="47.14635" lon="0.43539">
        <ele>60.92</ele>
        <time>2020-06-14T12:43:43Z</time>
      </trkpt>
      <trkpt lat="47.14663" lon="0.43802">
        <ele>57.69</ele>
        <time>2020-06-14T12:43:51Z</time>
      </trkpt>
      <trkpt lat="47.14695" lon="0.44098">
        <ele>57.41</ele>
        <time>2020-06-14T12:44:00Z</time>
      </trkpt>
      <trkpt lat="47.14699" lon="0.443">
        <ele>54.34</ele>
        <time>2020-06-14T12:44:07Z</time>
      </trkpt>
      <trkpt lat="47.14711" lon="0.44378">
        <ele>55.08</ele>
        <time>2020-06-14T12:44:10Z</time>
      </trkpt>
      <trkpt lat="47.14718" lon="0.44404">
        <ele>55.11</ele>
        <time>2020-06-14T12:44:11Z</time>
      </trkpt>
      <trkpt lat="47.14839" lon="0.44796">
        <ele>55.09</ele>
        <time>2020-06-14T12:44:25Z</time>
      </trkpt>
      <trkpt lat="47.14843" lon="0.44826">
        <ele>55.41</ele>
        <time>2020-06-14T12:44:26Z</time>
      </trkpt>
      <trkpt lat="47.14866" lon="0.44909">
        <ele>58.78</ele>
        <time>2020-06-14T12:44:29Z</time>
      </trkpt>
      <trkpt lat="47.14883" lon="0.44965">
        <ele>61.93</ele>
        <time>2020-06-14T12:44:31Z</time>
      </trkpt>
      <trkpt lat="47.14891" lon="0.44993">
        <ele>61.91</ele>
        <time>2020-06-14T12:44:32Z</time>
      </trkpt>
      <trkpt lat="47.14926" lon="0.45109">
        <ele>63.68</ele>
        <time>2020-06-14T12:44:36Z</time>
      </trkpt>
      <trkpt lat="47.14932" lon="0.45138">
        <ele>60.36</ele>
        <time>2020-06-14T12:44:37Z</time>
      </trkpt>
      <trkpt lat="47.14938" lon="0.452">
        <ele>61.63</ele>
        <time>2020-06-14T12:44:39Z</time>
      </trkpt>
      <trkpt lat="47.14942" lon="0.45614">
        <ele>61.75</ele>
        <time>2020-06-14T12:44:52Z</time>
      </trkpt>
      <trkpt lat="47.1491" lon="0.45722">
        <ele>61.21</ele>
        <time>2020-06-14T12:44:56Z</time>
      </trkpt>
      <trkpt lat="47.14813" lon="0.4595">
        <ele>54.09</ele>
        <time>2020-06-14T12:45:04Z</time>
      </trkpt>
      <trkpt lat="47.14792" lon="0.46002">
        <ele>50.74</ele>
        <time>2020-06-14T12:45:06Z</time>
      </trkpt>
      <trkpt lat="47.14773" lon="0.46078">
        <ele>49.05</ele>
        <time>2020-06-14T12:45:09Z</time>
      </trkpt>
      <trkpt lat="47.14771" lon="0.46164">
        <ele>51.23</ele>
        <time>2020-06-14T12:45:12Z</time>
      </trkpt>
      <trkpt lat="47.14775" lon="0.46289">
        <ele>55.82</ele>
        <time>2020-06-14T12:45:16Z</time>
      </trkpt>
      <trkpt lat="47.14779" lon="0.46376">
        <ele>51.24</ele>
        <time>2020-06-14T12:45:19Z</time>
      </trkpt>
      <trkpt lat="47.14781" lon="0.46403">
        <ele>48.1</ele>
        <time>2020-06-14T12:45:20Z</time>
      </trkpt>
      <trkpt lat="47.14784" lon="0.46428">
        <ele>48.19</ele>
        <time>2020-06-14T12:45:21Z</time>
      </trkpt>
      <trkpt lat="47.14805" lon="0.46544">
        <ele>42.66</ele>
        <time>2020-06-14T12:45:27Z</time>
      </trkpt>
      <trkpt lat="47.14807" lon="0.46563">
        <ele>43.17</ele>
        <time>2020-06-14T12:45:29Z</time>
      </trkpt>
      <trkpt lat="47.14804" lon="0.46579">
        <ele>42.19</ele>
        <time>2020-06-14T12:45:31Z</time>
      </trkpt>
      <trkpt lat="47.14706" lon="0.47003">
        <ele>42.39</ele>
        <time>2020-06-14T12:46:11Z</time>
      </trkpt>
      <trkpt lat="47.14685" lon="0.47113">
        <ele>42.25</ele>
        <time>2020-06-14T12:46:23Z</time>
      </trkpt>
      <trkpt lat="47.14689" lon="0.47292">
        <ele>45.38</ele>
        <time>2020-06-14T12:46:36Z</time>
      </trkpt>
      <trkpt lat="47.1467" lon="0.4739">
        <ele>42.75</ele>
        <time>2020-06-14T12:46:49Z</time>
      </trkpt>
      <trkpt lat="47.14674" lon="0.47577">
        <ele>45.68</ele>
        <time>2020-06-14T12:47:05Z</time>
      </trkpt>
      <trkpt lat="47.14691" lon="0.47649">
        <ele>48.81</ele>
        <time>2020-06-14T12:47:09Z</time>
      </trkpt>
      <trkpt lat="47.14712" lon="0.47726">
        <ele>52.63</ele>
        <time>2020-06-14T12:47:13Z</time>
      </trkpt>
      <trkpt lat="47.14717" lon="0.47747">
        <ele>52.86</ele>
        <time>2020-06-14T12:47:14Z</time>
      </trkpt>
      <trkpt lat="47.14731" lon="0.47786">
        <ele>56.82</ele>
        <time>2020-06-14T12:47:16Z</time>
      </trkpt>
      <trkpt lat="47.14771" lon="0.47862">
        <ele>60.71</ele>
        <time>2020-06-14T12:47:20Z</time>
      </trkpt>
      <trkpt lat="47.14801" lon="0.47922">
        <ele>64.54</ele>
        <time>2020-06-14T12:47:23Z</time>
      </trkpt>
      <trkpt lat="47.14837" lon="0.48007">
        <ele>68.71</ele>
        <time>2020-06-14T12:47:27Z</time>
      </trkpt>
      <trkpt lat="47.14846" lon="0.48028">
        <ele>68.77</ele>
        <time>2020-06-14T12:47:28Z</time>
      </trkpt>
      <trkpt lat="47.14881" lon="0.48118">
        <ele>66.4</ele>
        <time>2020-06-14T12:47:48Z</time>
      </trkpt>
      <trkpt lat="47.14889" lon="0.48156">
        <ele>68.49</ele>
        <time>2020-06-14T12:47:58Z</time>
      </trkpt>
      <trkpt lat="47.14897" lon="0.48222">
        <ele>70.94</ele>
        <time>2020-06-14T12:48:02Z</time>
      </trkpt>
      <trkpt lat="47.14897" lon="0.48356">
        <ele>71.36</ele>
        <time>2020-06-14T12:48:11Z</time>
      </trkpt>
      <trkpt lat="47.14897" lon="0.48431">
        <ele>69.1</ele>
        <time>2020-06-14T12:48:18Z</time>
      </trkpt>
      <trkpt lat="47.14898" lon="0.48438">
        <ele>69.11</ele>
        <time>2020-06-14T12:48:19Z</time>
      </trkpt>
      <trkpt lat="47.14921" lon="0.48495">
        <ele>70.43</ele>
        <time>2020-06-14T12:48:25Z</time>
      </trkpt>
      <trkpt lat="47.14928" lon="0.48504">
        <ele>70.84</ele>
        <time>2020-06-14T12:48:26Z</time>
      </trkpt>
      <trkpt lat="47.14943" lon="0.48522">
        <ele>71.57</ele>
        <time>2020-06-14T12:48:28Z</time>
      </trkpt>
      <trkpt lat="47.14958" lon="0.48533">
        <ele>72.52</ele>
        <time>2020-06-14T12:48:30Z</time>
      </trkpt>
      <trkpt lat="47.14974" lon="0.48538">
        <ele>71.79</ele>
        <time>2020-06-14T12:48:34Z</time>
      </trkpt>
      <trkpt lat="47.14984" lon="0.48524">
        <ele>72.19</ele>
        <time>2020-06-14T12:48:37Z</time>
      </trkpt>
      <trkpt lat="47.15015" lon="0.48486">
        <ele>74.33</ele>
        <time>2020-06-14T12:48:42Z</time>
      </trkpt>
      <trkpt lat="47.15044" lon="0.4845">
        <ele>78.58</ele>
        <time>2020-06-14T12:48:46Z</time>
      </trkpt>
      <trkpt lat="47.15059" lon="0.4843">
        <ele>79.91</ele>
        <time>2020-06-14T12:48:48Z</time>
      </trkpt>
      <trkpt lat="47.15143" lon="0.48393">
        <ele>84.73</ele>
        <time>2020-06-14T12:48:55Z</time>
      </trkpt>
      <trkpt lat="47.15188" lon="0.48381">
        <ele>87.74</ele>
        <time>2020-06-14T12:48:58Z</time>
      </trkpt>
      <trkpt lat="47.15219" lon="0.48376">
        <ele>89.46</ele>
        <time>2020-06-14T12:49:00Z</time>
      </trkpt>
      <trkpt lat="47.15301" lon="0.48375">
        <ele>93.42</ele>
        <time>2020-06-14T12:49:05Z</time>
      </trkpt>
      <trkpt lat="47.15371" lon="0.48376">
        <ele>96.48</ele>
        <time>2020-06-14T12:49:10Z</time>
      </trkpt>
      <trkpt lat="47.15442" lon="0.48406">
        <ele>100.62</ele>
        <time>2020-06-14T12:49:15Z</time>
      </trkpt>
      <trkpt lat="47.1558" lon="0.48503">
        <ele>105.46</ele>
        <time>2020-06-14T12:49:24Z</time>
      </trkpt>
      <trkpt lat="47.1567" lon="0.48543">
        <ele>108.22</ele>
        <time>2020-06-14T12:49:29Z</time>
      </trkpt>
      <trkpt lat="47.15733" lon="0.48566">
        <ele>104.18</ele>
        <time>2020-06-14T12:49:34Z</time>
      </trkpt>
      <trkpt lat="47.15788" lon="0.4866">
        <ele>106.4</ele>
        <time>2020-06-14T12:49:43Z</time>
      </trkpt>
      <trkpt lat="47.15786" lon="0.4868">
        <ele>106.15</ele>
        <time>2020-06-14T12:49:44Z</time>
      </trkpt>
      <trkpt lat="47.15773" lon="0.48802">
        <ele>109.96</ele>
        <time>2020-06-14T12:49:49Z</time>
      </trkpt>
      <trkpt lat="47.15805" lon="0.49229">
        <ele>108.3</ele>
        <time>2020-06-14T12:50:04Z</time>
      </trkpt>
      <trkpt lat="47.15865" lon="0.49368">
        <ele>105.83</ele>
        <time>2020-06-14T12:50:10Z</time>
      </trkpt>
      <trkpt lat="47.15881" lon="0.49402">
        <ele>102.35</ele>
        <time>2020-06-14T12:50:12Z</time>
      </trkpt>
      <trkpt lat="47.15891" lon="0.49427">
        <ele>100.8</ele>
        <time>2020-06-14T12:50:14Z</time>
      </trkpt>
      <trkpt lat="47.15894" lon="0.4944">
        <ele>101.36</ele>
        <time>2020-06-14T12:50:15Z</time>
      </trkpt>
      <trkpt lat="47.15893" lon="0.49492">
        <ele>102.57</ele>
        <time>2020-06-14T12:50:18Z</time>
      </trkpt>
      <trkpt lat="47.15884" lon="0.49654">
        <ele>95.48</ele>
        <time>2020-06-14T12:50:25Z</time>
      </trkpt>
      <trkpt lat="47.15882" lon="0.49686">
        <ele>91.64</ele>
        <time>2020-06-14T12:50:27Z</time>
      </trkpt>
      <trkpt lat="47.1588" lon="0.49712">
        <ele>89.35</ele>
        <time>2020-06-14T12:50:30Z</time>
      </trkpt>
      <trkpt lat="47.15895" lon="0.49731">
        <ele>90.14</ele>
        <time>2020-06-14T12:50:34Z</time>
      </trkpt>
      <trkpt lat="47.15916" lon="0.49743">
        <ele>93.37</ele>
        <time>2020-06-14T12:50:36Z</time>
      </trkpt>
      <trkpt lat="47.15957" lon="0.49771">
        <ele>96.79</ele>
        <time>2020-06-14T12:50:39Z</time>
      </trkpt>
      <trkpt lat="47.15997" lon="0.49795">
        <ele>98.14</ele>
        <time>2020-06-14T12:50:42Z</time>
      </trkpt>
      <trkpt lat="47.16025" lon="0.49803">
        <ele>99.3</ele>
        <time>2020-06-14T12:50:44Z</time>
      </trkpt>
      <trkpt lat="47.16058" lon="0.49809">
        <ele>102.61</ele>
        <time>2020-06-14T12:50:46Z</time>
      </trkpt>
      <trkpt lat="47.16318" lon="0.49848">
        <ele>103.45</ele>
        <time>2020-06-14T12:50:59Z</time>
      </trkpt>
      <trkpt lat="47.16358" lon="0.49857">
        <ele>106.57</ele>
        <time>2020-06-14T12:51:01Z</time>
      </trkpt>
      <trkpt lat="47.16378" lon="0.49862">
        <ele>106.85</ele>
        <time>2020-06-14T12:51:02Z</time>
      </trkpt>
      <trkpt lat="47.16513" lon="0.49881">
        <ele>102.86</ele>
        <time>2020-06-14T12:51:09Z</time>
      </trkpt>
      <trkpt lat="47.1653" lon="0.49884">
        <ele>103.17</ele>
        <time>2020-06-14T12:51:10Z</time>
      </trkpt>
      <trkpt lat="47.16559" lon="0.49893">
        <ele>100.11</ele>
        <time>2020-06-14T12:51:12Z</time>
      </trkpt>
      <trkpt lat="47.16571" lon="0.49898">
        <ele>100.16</ele>
        <time>2020-06-14T12:51:13Z</time>
      </trkpt>
      <trkpt lat="47.16612" lon="0.49909">
        <ele>103.3</ele>
        <time>2020-06-14T12:51:16Z</time>
      </trkpt>
      <trkpt lat="47.16709" lon="0.49927">
        <ele>107.22</ele>
        <time>2020-06-14T12:51:21Z</time>
      </trkpt>
      <trkpt lat="47.16857" lon="0.49958">
        <ele>104.91</ele>
        <time>2020-06-14T12:51:29Z</time>
      </trkpt>
      <trkpt lat="47.16923" lon="0.49972">
        <ele>108.73</ele>
        <time>2020-06-14T12:51:33Z</time>
      </trkpt>
      <trkpt lat="47.1694" lon="0.49972">
        <ele>108.07</ele>
        <time>2020-06-14T12:51:34Z</time>
      </trkpt>
      <trkpt lat="47.16973" lon="0.49972">
        <ele>102.29</ele>
        <time>2020-06-14T12:51:36Z</time>
      </trkpt>
      <trkpt lat="47.17015" lon="0.49977">
        <ele>98.69</ele>
        <time>2020-06-14T12:51:39Z</time>
      </trkpt>
      <trkpt lat="47.17074" lon="0.50019">
        <ele>95.07</ele>
        <time>2020-06-14T12:51:44Z</time>
      </trkpt>
      <trkpt lat="47.17105" lon="0.5006">
        <ele>91.29</ele>
        <time>2020-06-14T12:51:47Z</time>
      </trkpt>
      <trkpt lat="47.17113" lon="0.50076">
        <ele>91.13</ele>
        <time>2020-06-14T12:51:48Z</time>
      </trkpt>
      <trkpt lat="47.17125" lon="0.5012">
        <ele>86.96</ele>
        <time>2020-06-14T12:51:51Z</time>
      </trkpt>
      <trkpt lat="47.17123" lon="0.50146">
        <ele>85.91</ele>
        <time>2020-06-14T12:51:53Z</time>
      </trkpt>
      <trkpt lat="47.17121" lon="0.50159">
        <ele>85.81</ele>
        <time>2020-06-14T12:51:54Z</time>
      </trkpt>
      <trkpt lat="47.17129" lon="0.50209">
        <ele>83.38</ele>
        <time>2020-06-14T12:51:58Z</time>
      </trkpt>
      <trkpt lat="47.17137" lon="0.50234">
        <ele>82.54</ele>
        <time>2020-06-14T12:52:00Z</time>
      </trkpt>
      <trkpt lat="47.17151" lon="0.50267">
        <ele>82.3</ele>
        <time>2020-06-14T12:52:03Z</time>
      </trkpt>
      <trkpt lat="47.17162" lon="0.50281">
        <ele>83.04</ele>
        <time>2020-06-14T12:52:05Z</time>
      </trkpt>
      <trkpt lat="47.17171" lon="0.50291">
        <ele>83.61</ele>
        <time>2020-06-14T12:52:07Z</time>
      </trkpt>
      <trkpt lat="47.17175" lon="0.50329">
        <ele>87.33</ele>
        <time>2020-06-14T12:52:11Z</time>
      </trkpt>
      <trkpt lat="47.17183" lon="0.50365">
        <ele>87.4</ele>
        <time>2020-06-14T12:52:15Z</time>
      </trkpt>
      <trkpt lat="47.17184" lon="0.5037">
        <ele>87.12</ele>
        <time>2020-06-14T12:52:16Z</time>
      </trkpt>
      <trkpt lat="47.17173" lon="0.50415">
        <ele>87.82</ele>
        <time>2020-06-14T12:52:21Z</time>
      </trkpt>
      <trkpt lat="47.17171" lon="0.50428">
        <ele>87.73</ele>
        <time>2020-06-14T12:52:22Z</time>
      </trkpt>
      <trkpt lat="47.17162" lon="0.50485">
        <ele>84.95</ele>
        <time>2020-06-14T12:52:26Z</time>
      </trkpt>
      <trkpt lat="47.17157" lon="0.50499">
        <ele>84.12</ele>
        <time>2020-06-14T12:52:27Z</time>
      </trkpt>
      <trkpt lat="47.17139" lon="0.50556">
        <ele>81.05</ele>
        <time>2020-06-14T12:52:31Z</time>
      </trkpt>
      <trkpt lat="47.17143" lon="0.50634">
        <ele>78.4</ele>
        <time>2020-06-14T12:52:36Z</time>
      </trkpt>
      <trkpt lat="47.17162" lon="0.50706">
        <ele>79.27</ele>
        <time>2020-06-14T12:52:41Z</time>
      </trkpt>
      <trkpt lat="47.17175" lon="0.50763">
        <ele>79.58</ele>
        <time>2020-06-14T12:52:45Z</time>
      </trkpt>
      <trkpt lat="47.1719" lon="0.50803">
        <ele>80.97</ele>
        <time>2020-06-14T12:52:48Z</time>
      </trkpt>
      <trkpt lat="47.17194" lon="0.50819">
        <ele>80.9</ele>
        <time>2020-06-14T12:52:49Z</time>
      </trkpt>
      <trkpt lat="47.172" lon="0.50975">
        <ele>77.74</ele>
        <time>2020-06-14T12:52:58Z</time>
      </trkpt>
      <trkpt lat="47.17148" lon="0.51133">
        <ele>76.28</ele>
        <time>2020-06-14T12:53:13Z</time>
      </trkpt>
      <trkpt lat="47.17144" lon="0.51141">
        <ele>76.29</ele>
        <time>2020-06-14T12:53:14Z</time>
      </trkpt>
      <trkpt lat="47.17128" lon="0.51172">
        <ele>75.27</ele>
        <time>2020-06-14T12:53:18Z</time>
      </trkpt>
      <trkpt lat="47.17127" lon="0.51345">
        <ele>73.43</ele>
        <time>2020-06-14T12:53:31Z</time>
      </trkpt>
      <trkpt lat="47.17137" lon="0.51445">
        <ele>71.61</ele>
        <time>2020-06-14T12:53:40Z</time>
      </trkpt>
      <trkpt lat="47.17117" lon="0.51532">
        <ele>74.87</ele>
        <time>2020-06-14T12:53:48Z</time>
      </trkpt>
      <trkpt lat="47.17111" lon="0.51624">
        <ele>78.72</ele>
        <time>2020-06-14T12:53:53Z</time>
      </trkpt>
      <trkpt lat="47.17109" lon="0.51643">
        <ele>78.74</ele>
        <time>2020-06-14T12:53:54Z</time>
      </trkpt>
      <trkpt lat="47.17109" lon="0.51801">
        <ele>82.34</ele>
        <time>2020-06-14T12:54:02Z</time>
      </trkpt>
      <trkpt lat="47.17113" lon="0.51864">
        <ele>85.55</ele>
        <time>2020-06-14T12:54:05Z</time>
      </trkpt>
      <trkpt lat="47.17115" lon="0.51886">
        <ele>85.79</ele>
        <time>2020-06-14T12:54:06Z</time>
      </trkpt>
      <trkpt lat="47.17127" lon="0.5195">
        <ele>90.89</ele>
        <time>2020-06-14T12:54:09Z</time>
      </trkpt>
      <trkpt lat="47.17132" lon="0.51972">
        <ele>90.9</ele>
        <time>2020-06-14T12:54:10Z</time>
      </trkpt>
      <trkpt lat="47.17144" lon="0.52016">
        <ele>95.27</ele>
        <time>2020-06-14T12:54:12Z</time>
      </trkpt>
      <trkpt lat="47.1715" lon="0.52038">
        <ele>93.85</ele>
        <time>2020-06-14T12:54:13Z</time>
      </trkpt>
      <trkpt lat="47.1718" lon="0.52153">
        <ele>102.78</ele>
        <time>2020-06-14T12:54:18Z</time>
      </trkpt>
      <trkpt lat="47.17199" lon="0.52223">
        <ele>106.55</ele>
        <time>2020-06-14T12:54:21Z</time>
      </trkpt>
      <trkpt lat="47.17217" lon="0.52293">
        <ele>109.72</ele>
        <time>2020-06-14T12:54:24Z</time>
      </trkpt>
      <trkpt lat="47.17243" lon="0.52387">
        <ele>112.87</ele>
        <time>2020-06-14T12:54:28Z</time>
      </trkpt>
      <trkpt lat="47.17249" lon="0.5241">
        <ele>113.13</ele>
        <time>2020-06-14T12:54:29Z</time>
      </trkpt>
      <trkpt lat="47.1741" lon="0.52954">
        <ele>107.88</ele>
        <time>2020-06-14T12:54:51Z</time>
      </trkpt>
      <trkpt lat="47.17442" lon="0.53022">
        <ele>109.83</ele>
        <time>2020-06-14T12:54:54Z</time>
      </trkpt>
      <trkpt lat="47.17471" lon="0.53086">
        <ele>109.25</ele>
        <time>2020-06-14T12:54:57Z</time>
      </trkpt>
      <trkpt lat="47.17482" lon="0.53134">
        <ele>110.54</ele>
        <time>2020-06-14T12:54:59Z</time>
      </trkpt>
      <trkpt lat="47.17497" lon="0.53242">
        <ele>114.45</ele>
        <time>2020-06-14T12:55:03Z</time>
      </trkpt>
      <trkpt lat="47.1751" lon="0.53325">
        <ele>112.74</ele>
        <time>2020-06-14T12:55:06Z</time>
      </trkpt>
      <trkpt lat="47.17529" lon="0.53554">
        <ele>114.59</ele>
        <time>2020-06-14T12:55:14Z</time>
      </trkpt>
      <trkpt lat="47.17545" lon="0.53825">
        <ele>111.44</ele>
        <time>2020-06-14T12:55:24Z</time>
      </trkpt>
      <trkpt lat="47.17549" lon="0.53846">
        <ele>111.42</ele>
        <time>2020-06-14T12:55:25Z</time>
      </trkpt>
      <trkpt lat="47.17574" lon="0.53954">
        <ele>107.46</ele>
        <time>2020-06-14T12:55:32Z</time>
      </trkpt>
      <trkpt lat="47.17573" lon="0.53967">
        <ele>106.35</ele>
        <time>2020-06-14T12:55:34Z</time>
      </trkpt>
      <trkpt lat="47.17552" lon="0.53975">
        <ele>108.44</ele>
        <time>2020-06-14T12:55:38Z</time>
      </trkpt>
      <trkpt lat="47.17545" lon="0.53974">
        <ele>109.32</ele>
        <time>2020-06-14T12:55:39Z</time>
      </trkpt>
      <trkpt lat="47.17321" lon="0.53948">
        <ele>104.94</ele>
        <time>2020-06-14T12:55:55Z</time>
      </trkpt>
      <trkpt lat="47.17187" lon="0.53967">
        <ele>102.67</ele>
        <time>2020-06-14T12:56:04Z</time>
      </trkpt>
      <trkpt lat="47.1716" lon="0.53972">
        <ele>101.94</ele>
        <time>2020-06-14T12:56:06Z</time>
      </trkpt>
      <trkpt lat="47.17087" lon="0.54011">
        <ele>97.2</ele>
        <time>2020-06-14T12:56:12Z</time>
      </trkpt>
      <trkpt lat="47.1706" lon="0.54034">
        <ele>95.76</ele>
        <time>2020-06-14T12:56:15Z</time>
      </trkpt>
      <trkpt lat="47.17048" lon="0.54045">
        <ele>91.56</ele>
        <time>2020-06-14T12:56:17Z</time>
      </trkpt>
      <trkpt lat="47.17011" lon="0.54083">
        <ele>87.98</ele>
        <time>2020-06-14T12:56:25Z</time>
      </trkpt>
      <trkpt lat="47.1694" lon="0.54101">
        <ele>86.52</ele>
        <time>2020-06-14T12:56:34Z</time>
      </trkpt>
      <trkpt lat="47.16929" lon="0.54187">
        <ele>90.09</ele>
        <time>2020-06-14T12:56:49Z</time>
      </trkpt>
      <trkpt lat="47.16983" lon="0.54338">
        <ele>91.27</ele>
        <time>2020-06-14T12:56:59Z</time>
      </trkpt>
      <trkpt lat="47.16989" lon="0.54359">
        <ele>91.11</ele>
        <time>2020-06-14T12:57:01Z</time>
      </trkpt>
      <trkpt lat="47.1694" lon="0.54498">
        <ele>93.58</ele>
        <time>2020-06-14T12:57:15Z</time>
      </trkpt>
      <trkpt lat="47.16885" lon="0.54605">
        <ele>89.33</ele>
        <time>2020-06-14T12:57:26Z</time>
      </trkpt>
      <trkpt lat="47.16811" lon="0.54763">
        <ele>90.36</ele>
        <time>2020-06-14T12:57:39Z</time>
      </trkpt>
      <trkpt lat="47.1679" lon="0.54776">
        <ele>92.63</ele>
        <time>2020-06-14T12:57:45Z</time>
      </trkpt>
      <trkpt lat="47.16753" lon="0.54744">
        <ele>96.45</ele>
        <time>2020-06-14T12:57:49Z</time>
      </trkpt>
      <trkpt lat="47.16711" lon="0.54709">
        <ele>100.53</ele>
        <time>2020-06-14T12:57:52Z</time>
      </trkpt>
      <trkpt lat="47.16628" lon="0.54641">
        <ele>105.01</ele>
        <time>2020-06-14T12:57:57Z</time>
      </trkpt>
      <trkpt lat="47.16558" lon="0.54583">
        <ele>108.29</ele>
        <time>2020-06-14T12:58:01Z</time>
      </trkpt>
      <trkpt lat="47.16539" lon="0.54568">
        <ele>107.19</ele>
        <time>2020-06-14T12:58:02Z</time>
      </trkpt>
      <trkpt lat="47.16446" lon="0.54499">
        <ele>110.51</ele>
        <time>2020-06-14T12:58:07Z</time>
      </trkpt>
      <trkpt lat="47.16258" lon="0.54342">
        <ele>116.4</ele>
        <time>2020-06-14T12:58:17Z</time>
      </trkpt>
      <trkpt lat="47.1624" lon="0.54326">
        <ele>116.14</ele>
        <time>2020-06-14T12:58:18Z</time>
      </trkpt>
      <trkpt lat="47.16163" lon="0.54266">
        <ele>119.26</ele>
        <time>2020-06-14T12:58:22Z</time>
      </trkpt>
      <trkpt lat="47.16002" lon="0.54169">
        <ele>113.08</ele>
        <time>2020-06-14T12:58:30Z</time>
      </trkpt>
      <trkpt lat="47.15981" lon="0.54158">
        <ele>109.81</ele>
        <time>2020-06-14T12:58:31Z</time>
      </trkpt>
      <trkpt lat="47.15961" lon="0.54147">
        <ele>109.8</ele>
        <time>2020-06-14T12:58:32Z</time>
      </trkpt>
      <trkpt lat="47.1588" lon="0.54105">
        <ele>122.29</ele>
        <time>2020-06-14T12:58:36Z</time>
      </trkpt>
      <trkpt lat="47.15861" lon="0.54095">
        <ele>121.79</ele>
        <time>2020-06-14T12:58:37Z</time>
      </trkpt>
      <trkpt lat="47.15803" lon="0.54065">
        <ele>117.77</ele>
        <time>2020-06-14T12:58:40Z</time>
      </trkpt>
      <trkpt lat="47.15747" lon="0.5404">
        <ele>113.55</ele>
        <time>2020-06-14T12:58:43Z</time>
      </trkpt>
      <trkpt lat="47.15666" lon="0.54022">
        <ele>109.59</ele>
        <time>2020-06-14T12:58:47Z</time>
      </trkpt>
      <trkpt lat="47.15624" lon="0.54018">
        <ele>105.93</ele>
        <time>2020-06-14T12:58:49Z</time>
      </trkpt>
      <trkpt lat="47.15582" lon="0.54018">
        <ele>102.75</ele>
        <time>2020-06-14T12:58:51Z</time>
      </trkpt>
      <trkpt lat="47.15523" lon="0.54021">
        <ele>100.99</ele>
        <time>2020-06-14T12:58:54Z</time>
      </trkpt>
      <trkpt lat="47.15503" lon="0.54019">
        <ele>101.47</ele>
        <time>2020-06-14T12:58:55Z</time>
      </trkpt>
      <trkpt lat="47.15466" lon="0.54004">
        <ele>102.55</ele>
        <time>2020-06-14T12:58:57Z</time>
      </trkpt>
      <trkpt lat="47.15285" lon="0.53937">
        <ele>100.58</ele>
        <time>2020-06-14T12:59:06Z</time>
      </trkpt>
      <trkpt lat="47.1525" lon="0.53922">
        <ele>95.26</ele>
        <time>2020-06-14T12:59:08Z</time>
      </trkpt>
      <trkpt lat="47.15203" lon="0.53905">
        <ele>92.07</ele>
        <time>2020-06-14T12:59:11Z</time>
      </trkpt>
      <trkpt lat="47.15145" lon="0.53889">
        <ele>89</ele>
        <time>2020-06-14T12:59:15Z</time>
      </trkpt>
      <trkpt lat="47.15091" lon="0.5387">
        <ele>84.62</ele>
        <time>2020-06-14T12:59:19Z</time>
      </trkpt>
      <trkpt lat="47.15011" lon="0.5384">
        <ele>79.33</ele>
        <time>2020-06-14T12:59:25Z</time>
      </trkpt>
      <trkpt lat="47.14976" lon="0.5383">
        <ele>75.75</ele>
        <time>2020-06-14T12:59:28Z</time>
      </trkpt>
      <trkpt lat="47.14943" lon="0.53819">
        <ele>72.71</ele>
        <time>2020-06-14T12:59:31Z</time>
      </trkpt>
      <trkpt lat="47.14932" lon="0.53816">
        <ele>72.57</ele>
        <time>2020-06-14T12:59:32Z</time>
      </trkpt>
      <trkpt lat="47.14888" lon="0.53804">
        <ele>69.28</ele>
        <time>2020-06-14T12:59:36Z</time>
      </trkpt>
      <trkpt lat="47.14829" lon="0.5378">
        <ele>63.15</ele>
        <time>2020-06-14T12:59:42Z</time>
      </trkpt>
      <trkpt lat="47.1482" lon="0.53778">
        <ele>63.39</ele>
        <time>2020-06-14T12:59:43Z</time>
      </trkpt>
      <trkpt lat="47.14689" lon="0.53751">
        <ele>61.77</ele>
        <time>2020-06-14T12:59:56Z</time>
      </trkpt>
      <trkpt lat="47.14619" lon="0.53726">
        <ele>58.42</ele>
        <time>2020-06-14T13:00:03Z</time>
      </trkpt>
      <trkpt lat="47.1448" lon="0.53687">
        <ele>57</ele>
        <time>2020-06-14T13:00:22Z</time>
      </trkpt>
      <trkpt lat="47.14372" lon="0.53661">
        <ele>54.22</ele>
        <time>2020-06-14T13:00:37Z</time>
      </trkpt>
      <trkpt lat="47.14361" lon="0.53691">
        <ele>55.37</ele>
        <time>2020-06-14T13:00:42Z</time>
      </trkpt>
      <trkpt lat="47.14353" lon="0.53727">
        <ele>56.87</ele>
        <time>2020-06-14T13:00:45Z</time>
      </trkpt>
      <trkpt lat="47.14304" lon="0.53986">
        <ele>54.97</ele>
        <time>2020-06-14T13:01:04Z</time>
      </trkpt>
      <trkpt lat="47.14288" lon="0.54039">
        <ele>55.03</ele>
        <time>2020-06-14T13:01:08Z</time>
      </trkpt>
      <trkpt lat="47.14257" lon="0.54105">
        <ele>58.98</ele>
        <time>2020-06-14T13:01:13Z</time>
      </trkpt>
      <trkpt lat="47.14214" lon="0.54196">
        <ele>62.72</ele>
        <time>2020-06-14T13:01:19Z</time>
      </trkpt>
      <trkpt lat="47.14207" lon="0.54211">
        <ele>63.01</ele>
        <time>2020-06-14T13:01:20Z</time>
      </trkpt>
      <trkpt lat="47.1419" lon="0.54238">
        <ele>63.96</ele>
        <time>2020-06-14T13:01:22Z</time>
      </trkpt>
      <trkpt lat="47.1417" lon="0.54262">
        <ele>67.17</ele>
        <time>2020-06-14T13:01:24Z</time>
      </trkpt>
      <trkpt lat="47.14157" lon="0.54272">
        <ele>66.79</ele>
        <time>2020-06-14T13:01:25Z</time>
      </trkpt>
      <trkpt lat="47.1412" lon="0.54299">
        <ele>63.45</ele>
        <time>2020-06-14T13:01:28Z</time>
      </trkpt>
      <trkpt lat="47.14109" lon="0.54308">
        <ele>62.05</ele>
        <time>2020-06-14T13:01:29Z</time>
      </trkpt>
      <trkpt lat="47.14099" lon="0.5432">
        <ele>61.75</ele>
        <time>2020-06-14T13:01:30Z</time>
      </trkpt>
      <trkpt lat="47.1407" lon="0.5437">
        <ele>63.82</ele>
        <time>2020-06-14T13:01:33Z</time>
      </trkpt>
      <trkpt lat="47.13879" lon="0.54738">
        <ele>65.72</ele>
        <time>2020-06-14T13:01:51Z</time>
      </trkpt>
      <trkpt lat="47.13753" lon="0.55002">
        <ele>64</ele>
        <time>2020-06-14T13:02:04Z</time>
      </trkpt>
      <trkpt lat="47.13695" lon="0.55063">
        <ele>63.95</ele>
        <time>2020-06-14T13:02:08Z</time>
      </trkpt>
      <trkpt lat="47.13644" lon="0.55087">
        <ele>68.15</ele>
        <time>2020-06-14T13:02:11Z</time>
      </trkpt>
      <trkpt lat="47.13625" lon="0.55091">
        <ele>68.43</ele>
        <time>2020-06-14T13:02:12Z</time>
      </trkpt>
      <trkpt lat="47.13466" lon="0.55132">
        <ele>67.72</ele>
        <time>2020-06-14T13:02:22Z</time>
      </trkpt>
      <trkpt lat="47.13443" lon="0.55149">
        <ele>66.93</ele>
        <time>2020-06-14T13:02:24Z</time>
      </trkpt>
      <trkpt lat="47.13396" lon="0.55257">
        <ele>66.35</ele>
        <time>2020-06-14T13:02:30Z</time>
      </trkpt>
      <trkpt lat="47.13377" lon="0.55344">
        <ele>63.2</ele>
        <time>2020-06-14T13:02:34Z</time>
      </trkpt>
      <trkpt lat="47.1336" lon="0.55386">
        <ele>59.83</ele>
        <time>2020-06-14T13:02:37Z</time>
      </trkpt>
      <trkpt lat="47.13363" lon="0.55503">
        <ele>64.66</ele>
        <time>2020-06-14T13:02:44Z</time>
      </trkpt>
      <trkpt lat="47.13372" lon="0.55563">
        <ele>68.14</ele>
        <time>2020-06-14T13:02:47Z</time>
      </trkpt>
      <trkpt lat="47.13378" lon="0.55618">
        <ele>71.75</ele>
        <time>2020-06-14T13:02:50Z</time>
      </trkpt>
      <trkpt lat="47.13379" lon="0.55633">
        <ele>71.9</ele>
        <time>2020-06-14T13:02:51Z</time>
      </trkpt>
      <trkpt lat="47.13365" lon="0.55676">
        <ele>75.2</ele>
        <time>2020-06-14T13:02:55Z</time>
      </trkpt>
      <trkpt lat="47.13356" lon="0.55683">
        <ele>76.32</ele>
        <time>2020-06-14T13:02:56Z</time>
      </trkpt>
      <trkpt lat="47.13329" lon="0.55706">
        <ele>78.1</ele>
        <time>2020-06-14T13:02:59Z</time>
      </trkpt>
      <trkpt lat="47.13308" lon="0.55735">
        <ele>81.65</ele>
        <time>2020-06-14T13:03:02Z</time>
      </trkpt>
      <trkpt lat="47.13298" lon="0.55773">
        <ele>84.58</ele>
        <time>2020-06-14T13:03:05Z</time>
      </trkpt>
      <trkpt lat="47.13295" lon="0.55787">
        <ele>84.53</ele>
        <time>2020-06-14T13:03:06Z</time>
      </trkpt>
      <trkpt lat="47.13287" lon="0.55845">
        <ele>85.35</ele>
        <time>2020-06-14T13:03:11Z</time>
      </trkpt>
      <trkpt lat="47.13302" lon="0.55912">
        <ele>85.62</ele>
        <time>2020-06-14T13:03:19Z</time>
      </trkpt>
      <trkpt lat="47.13311" lon="0.55935">
        <ele>87.02</ele>
        <time>2020-06-14T13:03:22Z</time>
      </trkpt>
      <trkpt lat="47.13313" lon="0.55983">
        <ele>90.47</ele>
        <time>2020-06-14T13:03:27Z</time>
      </trkpt>
      <trkpt lat="47.13314" lon="0.55997">
        <ele>90.5</ele>
        <time>2020-06-14T13:03:28Z</time>
      </trkpt>
      <trkpt lat="47.13314" lon="0.56094">
        <ele>93.56</ele>
        <time>2020-06-14T13:03:34Z</time>
      </trkpt>
      <trkpt lat="47.13316" lon="0.56337">
        <ele>97.77</ele>
        <time>2020-06-14T13:03:48Z</time>
      </trkpt>
      <trkpt lat="47.13327" lon="0.56509">
        <ele>101.38</ele>
        <time>2020-06-14T13:03:58Z</time>
      </trkpt>
      <trkpt lat="47.13344" lon="0.56679">
        <ele>101.43</ele>
        <time>2020-06-14T13:04:07Z</time>
      </trkpt>
      <trkpt lat="47.13356" lon="0.56717">
        <ele>102.44</ele>
        <time>2020-06-14T13:04:10Z</time>
      </trkpt>
      <trkpt lat="47.13515" lon="0.5708">
        <ele>104.48</ele>
        <time>2020-06-14T13:04:31Z</time>
      </trkpt>
      <trkpt lat="47.13645" lon="0.57227">
        <ele>102.19</ele>
        <time>2020-06-14T13:04:44Z</time>
      </trkpt>
      <trkpt lat="47.13706" lon="0.57285">
        <ele>98.35</ele>
        <time>2020-06-14T13:04:50Z</time>
      </trkpt>
      <trkpt lat="47.13714" lon="0.57296">
        <ele>98.11</ele>
        <time>2020-06-14T13:04:51Z</time>
      </trkpt>
      <trkpt lat="47.13753" lon="0.57345">
        <ele>95.85</ele>
        <time>2020-06-14T13:04:56Z</time>
      </trkpt>
      <trkpt lat="47.13759" lon="0.57356">
        <ele>96.71</ele>
        <time>2020-06-14T13:04:57Z</time>
      </trkpt>
      <trkpt lat="47.13772" lon="0.57383">
        <ele>98.36</ele>
        <time>2020-06-14T13:04:59Z</time>
      </trkpt>
      <trkpt lat="47.13795" lon="0.57434">
        <ele>101.4</ele>
        <time>2020-06-14T13:05:02Z</time>
      </trkpt>
      <trkpt lat="47.13803" lon="0.57452">
        <ele>100.85</ele>
        <time>2020-06-14T13:05:03Z</time>
      </trkpt>
      <trkpt lat="47.13826" lon="0.57498">
        <ele>99.39</ele>
        <time>2020-06-14T13:05:06Z</time>
      </trkpt>
      <trkpt lat="47.13989" lon="0.57661">
        <ele>105.09</ele>
        <time>2020-06-14T13:05:22Z</time>
      </trkpt>
      <trkpt lat="47.14032" lon="0.57733">
        <ele>107.03</ele>
        <time>2020-06-14T13:05:26Z</time>
      </trkpt>
      <trkpt lat="47.14151" lon="0.57931">
        <ele>110.97</ele>
        <time>2020-06-14T13:05:36Z</time>
      </trkpt>
      <trkpt lat="47.14176" lon="0.57972">
        <ele>107.7</ele>
        <time>2020-06-14T13:05:39Z</time>
      </trkpt>
      <trkpt lat="47.14182" lon="0.57983">
        <ele>108</ele>
        <time>2020-06-14T13:05:40Z</time>
      </trkpt>
      <trkpt lat="47.14199" lon="0.58111">
        <ele>112.92</ele>
        <time>2020-06-14T13:05:47Z</time>
      </trkpt>
      <trkpt lat="47.14214" lon="0.5826">
        <ele>109.6</ele>
        <time>2020-06-14T13:05:53Z</time>
      </trkpt>
      <trkpt lat="47.14246" lon="0.5856">
        <ele>108.21</ele>
        <time>2020-06-14T13:06:06Z</time>
      </trkpt>
      <trkpt lat="47.14269" lon="0.5864">
        <ele>110.8</ele>
        <time>2020-06-14T13:06:10Z</time>
      </trkpt>
      <trkpt lat="47.14276" lon="0.58663">
        <ele>110.37</ele>
        <time>2020-06-14T13:06:11Z</time>
      </trkpt>
      <trkpt lat="47.1433" lon="0.58829">
        <ele>109.48</ele>
        <time>2020-06-14T13:06:19Z</time>
      </trkpt>
      <trkpt lat="47.14368" lon="0.58886">
        <ele>110.75</ele>
        <time>2020-06-14T13:06:23Z</time>
      </trkpt>
      <trkpt lat="47.14491" lon="0.59048">
        <ele>110.72</ele>
        <time>2020-06-14T13:06:34Z</time>
      </trkpt>
      <trkpt lat="47.14524" lon="0.59089">
        <ele>114.01</ele>
        <time>2020-06-14T13:06:37Z</time>
      </trkpt>
      <trkpt lat="47.1462" lon="0.59199">
        <ele>112.34</ele>
        <time>2020-06-14T13:06:45Z</time>
      </trkpt>
      <trkpt lat="47.14753" lon="0.59348">
        <ele>110.38</ele>
        <time>2020-06-14T13:06:57Z</time>
      </trkpt>
      <trkpt lat="47.14773" lon="0.59399">
        <ele>111.13</ele>
        <time>2020-06-14T13:07:06Z</time>
      </trkpt>
      <trkpt lat="47.14746" lon="0.59445">
        <ele>113.16</ele>
        <time>2020-06-14T13:07:10Z</time>
      </trkpt>
      <trkpt lat="47.14703" lon="0.59499">
        <ele>116.78</ele>
        <time>2020-06-14T13:07:14Z</time>
      </trkpt>
      <trkpt lat="47.1469" lon="0.59514">
        <ele>116.18</ele>
        <time>2020-06-14T13:07:15Z</time>
      </trkpt>
      <trkpt lat="47.14536" lon="0.59694">
        <ele>119.4</ele>
        <time>2020-06-14T13:07:26Z</time>
      </trkpt>
      <trkpt lat="47.14474" lon="0.59753">
        <ele>115.45</ele>
        <time>2020-06-14T13:07:30Z</time>
      </trkpt>
      <trkpt lat="47.14418" lon="0.59792">
        <ele>114.18</ele>
        <time>2020-06-14T13:07:34Z</time>
      </trkpt>
      <trkpt lat="47.14382" lon="0.5981">
        <ele>112.65</ele>
        <time>2020-06-14T13:07:37Z</time>
      </trkpt>
      <trkpt lat="47.14363" lon="0.59828">
        <ele>113.34</ele>
        <time>2020-06-14T13:07:39Z</time>
      </trkpt>
      <trkpt lat="47.14301" lon="0.59896">
        <ele>114.22</ele>
        <time>2020-06-14T13:07:45Z</time>
      </trkpt>
      <trkpt lat="47.14249" lon="0.59926">
        <ele>118.25</ele>
        <time>2020-06-14T13:07:48Z</time>
      </trkpt>
      <trkpt lat="47.1423" lon="0.59938">
        <ele>118.38</ele>
        <time>2020-06-14T13:07:49Z</time>
      </trkpt>
      <trkpt lat="47.14182" lon="0.5998">
        <ele>116.38</ele>
        <time>2020-06-14T13:07:52Z</time>
      </trkpt>
      <trkpt lat="47.14146" lon="0.60016">
        <ele>112.62</ele>
        <time>2020-06-14T13:07:55Z</time>
      </trkpt>
      <trkpt lat="47.14127" lon="0.60037">
        <ele>110.06</ele>
        <time>2020-06-14T13:07:58Z</time>
      </trkpt>
      <trkpt lat="47.14125" lon="0.60051">
        <ele>109.39</ele>
        <time>2020-06-14T13:08:00Z</time>
      </trkpt>
      <trkpt lat="47.14136" lon="0.60068">
        <ele>110.31</ele>
        <time>2020-06-14T13:08:02Z</time>
      </trkpt>
      <trkpt lat="47.14178" lon="0.60124">
        <ele>113.97</ele>
        <time>2020-06-14T13:08:06Z</time>
      </trkpt>
      <trkpt lat="47.14221" lon="0.60182">
        <ele>117.13</ele>
        <time>2020-06-14T13:08:09Z</time>
      </trkpt>
      <trkpt lat="47.14276" lon="0.60266">
        <ele>118.23</ele>
        <time>2020-06-14T13:08:13Z</time>
      </trkpt>
      <trkpt lat="47.14299" lon="0.60319">
        <ele>122.64</ele>
        <time>2020-06-14T13:08:15Z</time>
      </trkpt>
      <trkpt lat="47.14312" lon="0.60347">
        <ele>122.62</ele>
        <time>2020-06-14T13:08:16Z</time>
      </trkpt>
      <trkpt lat="47.14634" lon="0.61093">
        <ele>117.68</ele>
        <time>2020-06-14T13:08:42Z</time>
      </trkpt>
      <trkpt lat="47.14674" lon="0.61186">
        <ele>114.23</ele>
        <time>2020-06-14T13:08:46Z</time>
      </trkpt>
      <trkpt lat="47.14763" lon="0.61353">
        <ele>115.4</ele>
        <time>2020-06-14T13:08:54Z</time>
      </trkpt>
      <trkpt lat="47.14907" lon="0.61558">
        <ele>115.52</ele>
        <time>2020-06-14T13:09:04Z</time>
      </trkpt>
      <trkpt lat="47.14944" lon="0.61616">
        <ele>115.78</ele>
        <time>2020-06-14T13:09:07Z</time>
      </trkpt>
      <trkpt lat="47.14964" lon="0.61663">
        <ele>116.85</ele>
        <time>2020-06-14T13:09:09Z</time>
      </trkpt>
      <trkpt lat="47.15137" lon="0.62175">
        <ele>120.81</ele>
        <time>2020-06-14T13:09:28Z</time>
      </trkpt>
      <trkpt lat="47.15177" lon="0.62341">
        <ele>120.89</ele>
        <time>2020-06-14T13:09:35Z</time>
      </trkpt>
      <trkpt lat="47.15224" lon="0.62571">
        <ele>115.84</ele>
        <time>2020-06-14T13:09:44Z</time>
      </trkpt>
      <trkpt lat="47.1525" lon="0.62731">
        <ele>114.39</ele>
        <time>2020-06-14T13:09:50Z</time>
      </trkpt>
      <trkpt lat="47.1525" lon="0.62759">
        <ele>114.84</ele>
        <time>2020-06-14T13:09:51Z</time>
      </trkpt>
      <trkpt lat="47.15249" lon="0.62786">
        <ele>114.45</ele>
        <time>2020-06-14T13:09:52Z</time>
      </trkpt>
      <trkpt lat="47.15227" lon="0.63037">
        <ele>110.73</ele>
        <time>2020-06-14T13:10:03Z</time>
      </trkpt>
      <trkpt lat="47.15227" lon="0.6305">
        <ele>110.55</ele>
        <time>2020-06-14T13:10:04Z</time>
      </trkpt>
      <trkpt lat="47.15291" lon="0.63125">
        <ele>116.66</ele>
        <time>2020-06-14T13:10:12Z</time>
      </trkpt>
      <trkpt lat="47.15306" lon="0.63134">
        <ele>116.63</ele>
        <time>2020-06-14T13:10:13Z</time>
      </trkpt>
      <trkpt lat="47.15366" lon="0.63171">
        <ele>115.56</ele>
        <time>2020-06-14T13:10:17Z</time>
      </trkpt>
      <trkpt lat="47.15411" lon="0.63213">
        <ele>113.52</ele>
        <time>2020-06-14T13:10:21Z</time>
      </trkpt>
      <trkpt lat="47.15426" lon="0.63251">
        <ele>114.44</ele>
        <time>2020-06-14T13:10:23Z</time>
      </trkpt>
      <trkpt lat="47.15433" lon="0.63275">
        <ele>114.8</ele>
        <time>2020-06-14T13:10:24Z</time>
      </trkpt>
      <trkpt lat="47.15481" lon="0.63434">
        <ele>117.17</ele>
        <time>2020-06-14T13:10:30Z</time>
      </trkpt>
      <trkpt lat="47.1554" lon="0.63573">
        <ele>113.26</ele>
        <time>2020-06-14T13:10:36Z</time>
      </trkpt>
      <trkpt lat="47.15581" lon="0.63612">
        <ele>112.26</ele>
        <time>2020-06-14T13:10:39Z</time>
      </trkpt>
      <trkpt lat="47.15683" lon="0.63681">
        <ele>111.98</ele>
        <time>2020-06-14T13:10:47Z</time>
      </trkpt>
      <trkpt lat="47.15744" lon="0.63773">
        <ele>110.69</ele>
        <time>2020-06-14T13:10:55Z</time>
      </trkpt>
      <trkpt lat="47.15779" lon="0.63879">
        <ele>110.26</ele>
        <time>2020-06-14T13:11:03Z</time>
      </trkpt>
      <trkpt lat="47.15782" lon="0.63892">
        <ele>110.24</ele>
        <time>2020-06-14T13:11:04Z</time>
      </trkpt>
      <trkpt lat="47.15931" lon="0.6464">
        <ele>110.37</ele>
        <time>2020-06-14T13:11:43Z</time>
      </trkpt>
      <trkpt lat="47.15936" lon="0.64668">
        <ele>109.76</ele>
        <time>2020-06-14T13:11:45Z</time>
      </trkpt>
      <trkpt lat="47.15936" lon="0.64692">
        <ele>109.05</ele>
        <time>2020-06-14T13:11:47Z</time>
      </trkpt>
      <trkpt lat="47.15926" lon="0.64728">
        <ele>111.01</ele>
        <time>2020-06-14T13:11:50Z</time>
      </trkpt>
      <trkpt lat="47.15924" lon="0.64744">
        <ele>111.3</ele>
        <time>2020-06-14T13:11:51Z</time>
      </trkpt>
      <trkpt lat="47.15928" lon="0.64792">
        <ele>108.86</ele>
        <time>2020-06-14T13:11:54Z</time>
      </trkpt>
      <trkpt lat="47.1593" lon="0.64807">
        <ele>108.61</ele>
        <time>2020-06-14T13:11:55Z</time>
      </trkpt>
      <trkpt lat="47.15872" lon="0.65083">
        <ele>110.34</ele>
        <time>2020-06-14T13:12:13Z</time>
      </trkpt>
      <trkpt lat="47.15866" lon="0.65097">
        <ele>110.61</ele>
        <time>2020-06-14T13:12:14Z</time>
      </trkpt>
      <trkpt lat="47.15813" lon="0.65201">
        <ele>114.02</ele>
        <time>2020-06-14T13:12:22Z</time>
      </trkpt>
      <trkpt lat="47.15756" lon="0.65362">
        <ele>112.81</ele>
        <time>2020-06-14T13:12:34Z</time>
      </trkpt>
      <trkpt lat="47.15731" lon="0.65436">
        <ele>113.89</ele>
        <time>2020-06-14T13:12:40Z</time>
      </trkpt>
      <trkpt lat="47.15714" lon="0.65466">
        <ele>113.3</ele>
        <time>2020-06-14T13:12:43Z</time>
      </trkpt>
      <trkpt lat="47.1565" lon="0.65562">
        <ele>108.9</ele>
        <time>2020-06-14T13:12:54Z</time>
      </trkpt>
      <trkpt lat="47.15647" lon="0.65568">
        <ele>108.87</ele>
        <time>2020-06-14T13:12:55Z</time>
      </trkpt>
      <trkpt lat="47.15657" lon="0.65592">
        <ele>109.31</ele>
        <time>2020-06-14T13:12:58Z</time>
      </trkpt>
      <trkpt lat="47.15672" lon="0.65614">
        <ele>110.39</ele>
        <time>2020-06-14T13:13:00Z</time>
      </trkpt>
      <trkpt lat="47.15723" lon="0.657">
        <ele>112.19</ele>
        <time>2020-06-14T13:13:07Z</time>
      </trkpt>
      <trkpt lat="47.15728" lon="0.65714">
        <ele>112.18</ele>
        <time>2020-06-14T13:13:08Z</time>
      </trkpt>
      <trkpt lat="47.15719" lon="0.65808">
        <ele>115.13</ele>
        <time>2020-06-14T13:13:14Z</time>
      </trkpt>
      <trkpt lat="47.15705" lon="0.65838">
        <ele>115.9</ele>
        <time>2020-06-14T13:13:16Z</time>
      </trkpt>
      <trkpt lat="47.15698" lon="0.65854">
        <ele>114.41</ele>
        <time>2020-06-14T13:13:17Z</time>
      </trkpt>
      <trkpt lat="47.15692" lon="0.65925">
        <ele>113.79</ele>
        <time>2020-06-14T13:13:21Z</time>
      </trkpt>
      <trkpt lat="47.1571" lon="0.6624">
        <ele>112.44</ele>
        <time>2020-06-14T13:13:38Z</time>
      </trkpt>
      <trkpt lat="47.1572" lon="0.66316">
        <ele>115.68</ele>
        <time>2020-06-14T13:13:41Z</time>
      </trkpt>
      <trkpt lat="47.1575" lon="0.66492">
        <ele>119.85</ele>
        <time>2020-06-14T13:13:47Z</time>
      </trkpt>
      <trkpt lat="47.15756" lon="0.66744">
        <ele>116.72</ele>
        <time>2020-06-14T13:13:55Z</time>
      </trkpt>
      <trkpt lat="47.15787" lon="0.6697">
        <ele>110.95</ele>
        <time>2020-06-14T13:14:03Z</time>
      </trkpt>
      <trkpt lat="47.15792" lon="0.66997">
        <ele>110.94</ele>
        <time>2020-06-14T13:14:04Z</time>
      </trkpt>
      <trkpt lat="47.15874" lon="0.67281">
        <ele>108.34</ele>
        <time>2020-06-14T13:14:18Z</time>
      </trkpt>
      <trkpt lat="47.15879" lon="0.67296">
        <ele>108.29</ele>
        <time>2020-06-14T13:14:19Z</time>
      </trkpt>
      <trkpt lat="47.15893" lon="0.67346">
        <ele>106.59</ele>
        <time>2020-06-14T13:14:23Z</time>
      </trkpt>
      <trkpt lat="47.15897" lon="0.67352">
        <ele>106.66</ele>
        <time>2020-06-14T13:14:24Z</time>
      </trkpt>
      <trkpt lat="47.15965" lon="0.67279">
        <ele>114.27</ele>
        <time>2020-06-14T13:14:33Z</time>
      </trkpt>
      <trkpt lat="47.16029" lon="0.67239">
        <ele>113.42</ele>
        <time>2020-06-14T13:14:38Z</time>
      </trkpt>
      <trkpt lat="47.16078" lon="0.67242">
        <ele>113.43</ele>
        <time>2020-06-14T13:14:42Z</time>
      </trkpt>
      <trkpt lat="47.16156" lon="0.67273">
        <ele>113.78</ele>
        <time>2020-06-14T13:14:49Z</time>
      </trkpt>
      <trkpt lat="47.16447" lon="0.6725">
        <ele>111.1</ele>
        <time>2020-06-14T13:15:10Z</time>
      </trkpt>
      <trkpt lat="47.16448" lon="0.67249">
        <ele>111.31</ele>
        <time>2020-06-14T13:15:11Z</time>
      </trkpt>
      <trkpt lat="47.16447" lon="0.67248">
        <ele>111.32</ele>
        <time>2020-06-14T13:15:17Z</time>
      </trkpt>
      <trkpt lat="47.16445" lon="0.6729">
        <ele>112.43</ele>
        <time>2020-06-14T13:15:26Z</time>
      </trkpt>
      <trkpt lat="47.16547" lon="0.67424">
        <ele>113.7</ele>
        <time>2020-06-14T13:15:36Z</time>
      </trkpt>
      <trkpt lat="47.16613" lon="0.67511">
        <ele>111.42</ele>
        <time>2020-06-14T13:15:44Z</time>
      </trkpt>
      <trkpt lat="47.1662" lon="0.67517">
        <ele>111.62</ele>
        <time>2020-06-14T13:15:45Z</time>
      </trkpt>
      <trkpt lat="47.16627" lon="0.67522">
        <ele>110.99</ele>
        <time>2020-06-14T13:15:46Z</time>
      </trkpt>
      <trkpt lat="47.16894" lon="0.67692">
        <ele>116.01</ele>
        <time>2020-06-14T13:16:07Z</time>
      </trkpt>
      <trkpt lat="47.17016" lon="0.6777">
        <ele>114.72</ele>
        <time>2020-06-14T13:16:16Z</time>
      </trkpt>
      <trkpt lat="47.17432" lon="0.68026">
        <ele>117.79</ele>
        <time>2020-06-14T13:16:49Z</time>
      </trkpt>
      <trkpt lat="47.17695" lon="0.68139">
        <ele>117.29</ele>
        <time>2020-06-14T13:17:14Z</time>
      </trkpt>
      <trkpt lat="47.17754" lon="0.67997">
        <ele>118.08</ele>
        <time>2020-06-14T13:17:29Z</time>
      </trkpt>
      <trkpt lat="47.17827" lon="0.68072">
        <ele>120.48</ele>
        <time>2020-06-14T13:17:42Z</time>
      </trkpt>
      <trkpt lat="47.18186" lon="0.68632">
        <ele>119.89</ele>
        <time>2020-06-14T13:18:27Z</time>
      </trkpt>
      <trkpt lat="47.18333" lon="0.68856">
        <ele>115.97</ele>
        <time>2020-06-14T13:18:46Z</time>
      </trkpt>
      <trkpt lat="47.18347" lon="0.68875">
        <ele>116.92</ele>
        <time>2020-06-14T13:18:50Z</time>
      </trkpt>
      <trkpt lat="47.18545" lon="0.69182">
        <ele>117.09</ele>
        <time>2020-06-14T13:19:19Z</time>
      </trkpt>
      <trkpt lat="47.18871" lon="0.69667">
        <ele>112.28</ele>
        <time>2020-06-14T13:20:06Z</time>
      </trkpt>
      <trkpt lat="47.1887" lon="0.69668">
        <ele>112.29</ele>
        <time>2020-06-14T13:20:09Z</time>
      </trkpt>
      <trkpt lat="47.18867" lon="0.69677">
        <ele>114.4</ele>
        <time>2020-06-14T13:20:11Z</time>
      </trkpt>
      <trkpt lat="47.18863" lon="0.69683">
        <ele>114.66</ele>
        <time>2020-06-14T13:20:12Z</time>
      </trkpt>
      <trkpt lat="47.18816" lon="0.69751">
        <ele>114.62</ele>
        <time>2020-06-14T13:20:20Z</time>
      </trkpt>
      <trkpt lat="47.18844" lon="0.69797">
        <ele>115.41</ele>
        <time>2020-06-14T13:20:28Z</time>
      </trkpt>
      <trkpt lat="47.19003" lon="0.69934">
        <ele>116.55</ele>
        <time>2020-06-14T13:20:40Z</time>
      </trkpt>
      <trkpt lat="47.19143" lon="0.70053">
        <ele>113.99</ele>
        <time>2020-06-14T13:20:54Z</time>
      </trkpt>
      <trkpt lat="47.19218" lon="0.70158">
        <ele>115.11</ele>
        <time>2020-06-14T13:21:02Z</time>
      </trkpt>
      <trkpt lat="47.19499" lon="0.70555">
        <ele>114.78</ele>
        <time>2020-06-14T13:21:25Z</time>
      </trkpt>
      <trkpt lat="47.19703" lon="0.7077">
        <ele>113.61</ele>
        <time>2020-06-14T13:21:40Z</time>
      </trkpt>
      <trkpt lat="47.19801" lon="0.7088">
        <ele>110.49</ele>
        <time>2020-06-14T13:21:49Z</time>
      </trkpt>
      <trkpt lat="47.19845" lon="0.7093">
        <ele>109.09</ele>
        <time>2020-06-14T13:21:59Z</time>
      </trkpt>
      <trkpt lat="47.19848" lon="0.70929">
        <ele>109.74</ele>
        <time>2020-06-14T13:22:00Z</time>
      </trkpt>
      <trkpt lat="47.19864" lon="0.70895">
        <ele>111.52</ele>
        <time>2020-06-14T13:22:04Z</time>
      </trkpt>
      <trkpt lat="47.19893" lon="0.70834">
        <ele>114.83</ele>
        <time>2020-06-14T13:22:08Z</time>
      </trkpt>
      <trkpt lat="47.19952" lon="0.70713">
        <ele>119.3</ele>
        <time>2020-06-14T13:22:14Z</time>
      </trkpt>
      <trkpt lat="47.19963" lon="0.70691">
        <ele>119.13</ele>
        <time>2020-06-14T13:22:15Z</time>
      </trkpt>
      <trkpt lat="47.19984" lon="0.70647">
        <ele>115.82</ele>
        <time>2020-06-14T13:22:17Z</time>
      </trkpt>
      <trkpt lat="47.20082" lon="0.70437">
        <ele>114.07</ele>
        <time>2020-06-14T13:22:28Z</time>
      </trkpt>
      <trkpt lat="47.20102" lon="0.70369">
        <ele>115.12</ele>
        <time>2020-06-14T13:22:32Z</time>
      </trkpt>
      <trkpt lat="47.20118" lon="0.70274">
        <ele>111.21</ele>
        <time>2020-06-14T13:22:38Z</time>
      </trkpt>
      <trkpt lat="47.2012" lon="0.7027">
        <ele>110.59</ele>
        <time>2020-06-14T13:22:39Z</time>
      </trkpt>
      <trkpt lat="47.20203" lon="0.70346">
        <ele>111.16</ele>
        <time>2020-06-14T13:22:55Z</time>
      </trkpt>
      <trkpt lat="47.20465" lon="0.70488">
        <ele>108.68</ele>
        <time>2020-06-14T13:23:19Z</time>
      </trkpt>
      <trkpt lat="47.20875" lon="0.70791">
        <ele>111.2</ele>
        <time>2020-06-14T13:24:01Z</time>
      </trkpt>
      <trkpt lat="47.20969" lon="0.70841">
        <ele>109.24</ele>
        <time>2020-06-14T13:24:12Z</time>
      </trkpt>
      <trkpt lat="47.21208" lon="0.70953">
        <ele>104.64</ele>
        <time>2020-06-14T13:24:36Z</time>
      </trkpt>
      <trkpt lat="47.21211" lon="0.71028">
        <ele>107.43</ele>
        <time>2020-06-14T13:24:43Z</time>
      </trkpt>
      <trkpt lat="47.21214" lon="0.71141">
        <ele>110.47</ele>
        <time>2020-06-14T13:24:48Z</time>
      </trkpt>
      <trkpt lat="47.21215" lon="0.7119">
        <ele>108.12</ele>
        <time>2020-06-14T13:24:50Z</time>
      </trkpt>
      <trkpt lat="47.2122" lon="0.71346">
        <ele>104.35</ele>
        <time>2020-06-14T13:24:58Z</time>
      </trkpt>
      <trkpt lat="47.2122" lon="0.71357">
        <ele>103.94</ele>
        <time>2020-06-14T13:24:59Z</time>
      </trkpt>
      <trkpt lat="47.21238" lon="0.71375">
        <ele>103.04</ele>
        <time>2020-06-14T13:25:04Z</time>
      </trkpt>
      <trkpt lat="47.21451" lon="0.71229">
        <ele>104.61</ele>
        <time>2020-06-14T13:25:21Z</time>
      </trkpt>
      <trkpt lat="47.21488" lon="0.71208">
        <ele>101.96</ele>
        <time>2020-06-14T13:25:25Z</time>
      </trkpt>
      <trkpt lat="47.21584" lon="0.71308">
        <ele>100.79</ele>
        <time>2020-06-14T13:25:36Z</time>
      </trkpt>
      <trkpt lat="47.21607" lon="0.71335">
        <ele>99.76</ele>
        <time>2020-06-14T13:25:39Z</time>
      </trkpt>
      <trkpt lat="47.21628" lon="0.71416">
        <ele>98.87</ele>
        <time>2020-06-14T13:25:47Z</time>
      </trkpt>
      <trkpt lat="47.21631" lon="0.71443">
        <ele>98.69</ele>
        <time>2020-06-14T13:26:10Z</time>
      </trkpt>
      <trkpt lat="47.21705" lon="0.7141">
        <ele>100.64</ele>
        <time>2020-06-14T13:26:26Z</time>
      </trkpt>
      <trkpt lat="47.21797" lon="0.71434">
        <ele>100.3</ele>
        <time>2020-06-14T13:26:32Z</time>
      </trkpt>
      <trkpt lat="47.21945" lon="0.71469">
        <ele>96.75</ele>
        <time>2020-06-14T13:26:42Z</time>
      </trkpt>
      <trkpt lat="47.22067" lon="0.71466">
        <ele>95.97</ele>
        <time>2020-06-14T13:26:51Z</time>
      </trkpt>
      <trkpt lat="47.22268" lon="0.71454">
        <ele>94.07</ele>
        <time>2020-06-14T13:27:13Z</time>
      </trkpt>
      <trkpt lat="47.22443" lon="0.71465">
        <ele>91.56</ele>
        <time>2020-06-14T13:27:41Z</time>
      </trkpt>
      <trkpt lat="47.22561" lon="0.71396">
        <ele>94.3</ele>
        <time>2020-06-14T13:28:02Z</time>
      </trkpt>
      <trkpt lat="47.22642" lon="0.71338">
        <ele>96.24</ele>
        <time>2020-06-14T13:28:15Z</time>
      </trkpt>
      <trkpt lat="47.2265" lon="0.71329">
        <ele>95.76</ele>
        <time>2020-06-14T13:28:16Z</time>
      </trkpt>
      <trkpt lat="47.22743" lon="0.71233">
        <ele>95.93</ele>
        <time>2020-06-14T13:28:29Z</time>
      </trkpt>
      <trkpt lat="47.22777" lon="0.71229">
        <ele>97.27</ele>
        <time>2020-06-14T13:28:32Z</time>
      </trkpt>
      <trkpt lat="47.22916" lon="0.71193">
        <ele>97.89</ele>
        <time>2020-06-14T13:28:43Z</time>
      </trkpt>
      <trkpt lat="47.2298" lon="0.71104">
        <ele>98.63</ele>
        <time>2020-06-14T13:28:49Z</time>
      </trkpt>
      <trkpt lat="47.23053" lon="0.71061">
        <ele>96.83</ele>
        <time>2020-06-14T13:28:55Z</time>
      </trkpt>
      <trkpt lat="47.23093" lon="0.71078">
        <ele>97.56</ele>
        <time>2020-06-14T13:28:58Z</time>
      </trkpt>
      <trkpt lat="47.23327" lon="0.71223">
        <ele>98.94</ele>
        <time>2020-06-14T13:29:12Z</time>
      </trkpt>
      <trkpt lat="47.23402" lon="0.71269">
        <ele>95.86</ele>
        <time>2020-06-14T13:29:18Z</time>
      </trkpt>
      <trkpt lat="47.23419" lon="0.71278">
        <ele>96.46</ele>
        <time>2020-06-14T13:29:20Z</time>
      </trkpt>
      <trkpt lat="47.23472" lon="0.71268">
        <ele>98.54</ele>
        <time>2020-06-14T13:29:25Z</time>
      </trkpt>
      <trkpt lat="47.23617" lon="0.71177">
        <ele>93.72</ele>
        <time>2020-06-14T13:29:35Z</time>
      </trkpt>
      <trkpt lat="47.23633" lon="0.71163">
        <ele>93.51</ele>
        <time>2020-06-14T13:29:36Z</time>
      </trkpt>
      <trkpt lat="47.2369" lon="0.71095">
        <ele>95.62</ele>
        <time>2020-06-14T13:29:40Z</time>
      </trkpt>
      <trkpt lat="47.23734" lon="0.71041">
        <ele>98.92</ele>
        <time>2020-06-14T13:29:43Z</time>
      </trkpt>
      <trkpt lat="47.23748" lon="0.71024">
        <ele>98.41</ele>
        <time>2020-06-14T13:29:44Z</time>
      </trkpt>
      <trkpt lat="47.23856" lon="0.70895">
        <ele>96.95</ele>
        <time>2020-06-14T13:29:52Z</time>
      </trkpt>
      <trkpt lat="47.23893" lon="0.70814">
        <ele>99.71</ele>
        <time>2020-06-14T13:29:56Z</time>
      </trkpt>
      <trkpt lat="47.23927" lon="0.70713">
        <ele>96.34</ele>
        <time>2020-06-14T13:30:02Z</time>
      </trkpt>
      <trkpt lat="47.23941" lon="0.70694">
        <ele>93.08</ele>
        <time>2020-06-14T13:30:04Z</time>
      </trkpt>
      <trkpt lat="47.23948" lon="0.70689">
        <ele>93.19</ele>
        <time>2020-06-14T13:30:05Z</time>
      </trkpt>
      <trkpt lat="47.23966" lon="0.70657">
        <ele>94.5</ele>
        <time>2020-06-14T13:30:12Z</time>
      </trkpt>
      <trkpt lat="47.23972" lon="0.70571">
        <ele>97.18</ele>
        <time>2020-06-14T13:30:17Z</time>
      </trkpt>
      <trkpt lat="47.24069" lon="0.7032">
        <ele>95.21</ele>
        <time>2020-06-14T13:30:30Z</time>
      </trkpt>
      <trkpt lat="47.24125" lon="0.70192">
        <ele>94.1</ele>
        <time>2020-06-14T13:30:39Z</time>
      </trkpt>
      <trkpt lat="47.24181" lon="0.70014">
        <ele>93.31</ele>
        <time>2020-06-14T13:30:50Z</time>
      </trkpt>
      <trkpt lat="47.24199" lon="0.69986">
        <ele>91.37</ele>
        <time>2020-06-14T13:30:52Z</time>
      </trkpt>
      <trkpt lat="47.24228" lon="0.69948">
        <ele>90.03</ele>
        <time>2020-06-14T13:30:55Z</time>
      </trkpt>
      <trkpt lat="47.24276" lon="0.69871">
        <ele>89.35</ele>
        <time>2020-06-14T13:31:02Z</time>
      </trkpt>
      <trkpt lat="47.24303" lon="0.69882">
        <ele>90.5</ele>
        <time>2020-06-14T13:31:06Z</time>
      </trkpt>
      <trkpt lat="47.2445" lon="0.70006">
        <ele>91.81</ele>
        <time>2020-06-14T13:31:20Z</time>
      </trkpt>
      <trkpt lat="47.24525" lon="0.70097">
        <ele>91.95</ele>
        <time>2020-06-14T13:31:27Z</time>
      </trkpt>
      <trkpt lat="47.24543" lon="0.70189">
        <ele>91.1</ele>
        <time>2020-06-14T13:31:32Z</time>
      </trkpt>
      <trkpt lat="47.24534" lon="0.70452">
        <ele>92.34</ele>
        <time>2020-06-14T13:31:46Z</time>
      </trkpt>
      <trkpt lat="47.24545" lon="0.7047">
        <ele>92.05</ele>
        <time>2020-06-14T13:31:52Z</time>
      </trkpt>
      <trkpt lat="47.24553" lon="0.70464">
        <ele>92.46</ele>
        <time>2020-06-14T13:31:53Z</time>
      </trkpt>
      <trkpt lat="47.24793" lon="0.70375">
        <ele>94.44</ele>
        <time>2020-06-14T13:32:11Z</time>
      </trkpt>
      <trkpt lat="47.2482" lon="0.70379">
        <ele>91.25</ele>
        <time>2020-06-14T13:32:13Z</time>
      </trkpt>
      <trkpt lat="47.24888" lon="0.70443">
        <ele>93.32</ele>
        <time>2020-06-14T13:32:19Z</time>
      </trkpt>
      <trkpt lat="47.24897" lon="0.70461">
        <ele>93.36</ele>
        <time>2020-06-14T13:32:20Z</time>
      </trkpt>
      <trkpt lat="47.24944" lon="0.70534">
        <ele>92.07</ele>
        <time>2020-06-14T13:32:24Z</time>
      </trkpt>
      <trkpt lat="47.25011" lon="0.70582">
        <ele>95.42</ele>
        <time>2020-06-14T13:32:28Z</time>
      </trkpt>
      <trkpt lat="47.25233" lon="0.70682">
        <ele>97.13</ele>
        <time>2020-06-14T13:32:39Z</time>
      </trkpt>
      <trkpt lat="47.25313" lon="0.70731">
        <ele>96.63</ele>
        <time>2020-06-14T13:32:43Z</time>
      </trkpt>
      <trkpt lat="47.25723" lon="0.70959">
        <ele>92.38</ele>
        <time>2020-06-14T13:33:03Z</time>
      </trkpt>
      <trkpt lat="47.25854" lon="0.7109">
        <ele>89.63</ele>
        <time>2020-06-14T13:33:13Z</time>
      </trkpt>
      <trkpt lat="47.25916" lon="0.71164">
        <ele>85.6</ele>
        <time>2020-06-14T13:33:20Z</time>
      </trkpt>
      <trkpt lat="47.25926" lon="0.7118">
        <ele>84.86</ele>
        <time>2020-06-14T13:33:23Z</time>
      </trkpt>
      <trkpt lat="47.25881" lon="0.71212">
        <ele>90.37</ele>
        <time>2020-06-14T13:33:30Z</time>
      </trkpt>
      <trkpt lat="47.25825" lon="0.71288">
        <ele>90.51</ele>
        <time>2020-06-14T13:33:37Z</time>
      </trkpt>
      <trkpt lat="47.25764" lon="0.71445">
        <ele>93.7</ele>
        <time>2020-06-14T13:33:47Z</time>
      </trkpt>
      <trkpt lat="47.25671" lon="0.71594">
        <ele>95.55</ele>
        <time>2020-06-14T13:33:57Z</time>
      </trkpt>
      <trkpt lat="47.2558" lon="0.71726">
        <ele>97.49</ele>
        <time>2020-06-14T13:34:05Z</time>
      </trkpt>
      <trkpt lat="47.2557" lon="0.71748">
        <ele>96.95</ele>
        <time>2020-06-14T13:34:06Z</time>
      </trkpt>
      <trkpt lat="47.25506" lon="0.71897">
        <ele>92.92</ele>
        <time>2020-06-14T13:34:14Z</time>
      </trkpt>
      <trkpt lat="47.25498" lon="0.71916">
        <ele>90.94</ele>
        <time>2020-06-14T13:34:26Z</time>
      </trkpt>
      <trkpt lat="47.25487" lon="0.71954">
        <ele>91.54</ele>
        <time>2020-06-14T13:34:30Z</time>
      </trkpt>
      <trkpt lat="47.25483" lon="0.72057">
        <ele>91.5</ele>
        <time>2020-06-14T13:34:37Z</time>
      </trkpt>
      <trkpt lat="47.25491" lon="0.72139">
        <ele>91.33</ele>
        <time>2020-06-14T13:34:43Z</time>
      </trkpt>
      <trkpt lat="47.25485" lon="0.72153">
        <ele>90.26</ele>
        <time>2020-06-14T13:34:45Z</time>
      </trkpt>
      <trkpt lat="47.2547" lon="0.7216">
        <ele>91.4</ele>
        <time>2020-06-14T13:34:47Z</time>
      </trkpt>
      <trkpt lat="47.25398" lon="0.72188">
        <ele>96.12</ele>
        <time>2020-06-14T13:34:53Z</time>
      </trkpt>
      <trkpt lat="47.25367" lon="0.72201">
        <ele>96.79</ele>
        <time>2020-06-14T13:34:55Z</time>
      </trkpt>
      <trkpt lat="47.25134" lon="0.72393">
        <ele>93.28</ele>
        <time>2020-06-14T13:35:09Z</time>
      </trkpt>
      <trkpt lat="47.25119" lon="0.72403">
        <ele>94.08</ele>
        <time>2020-06-14T13:35:10Z</time>
      </trkpt>
      <trkpt lat="47.25075" lon="0.72431">
        <ele>91.15</ele>
        <time>2020-06-14T13:35:13Z</time>
      </trkpt>
      <trkpt lat="47.25035" lon="0.72443">
        <ele>84.98</ele>
        <time>2020-06-14T13:35:16Z</time>
      </trkpt>
      <trkpt lat="47.25014" lon="0.72445">
        <ele>81.95</ele>
        <time>2020-06-14T13:35:18Z</time>
      </trkpt>
      <trkpt lat="47.25" lon="0.72447">
        <ele>80.62</ele>
        <time>2020-06-14T13:35:20Z</time>
      </trkpt>
      <trkpt lat="47.25003" lon="0.72472">
        <ele>79.83</ele>
        <time>2020-06-14T13:35:26Z</time>
      </trkpt>
      <trkpt lat="47.25128" lon="0.7256">
        <ele>83.12</ele>
        <time>2020-06-14T13:35:39Z</time>
      </trkpt>
      <trkpt lat="47.25218" lon="0.72617">
        <ele>82.78</ele>
        <time>2020-06-14T13:35:48Z</time>
      </trkpt>
      <trkpt lat="47.25439" lon="0.72768">
        <ele>81.91</ele>
        <time>2020-06-14T13:36:15Z</time>
      </trkpt>
      <trkpt lat="47.25465" lon="0.72795">
        <ele>81.61</ele>
        <time>2020-06-14T13:36:20Z</time>
      </trkpt>
      <trkpt lat="47.25526" lon="0.7285">
        <ele>81.86</ele>
        <time>2020-06-14T13:36:30Z</time>
      </trkpt>
      <trkpt lat="47.25532" lon="0.72856">
        <ele>82.84</ele>
        <time>2020-06-14T13:36:32Z</time>
      </trkpt>
      <trkpt lat="47.25526" lon="0.72886">
        <ele>81.36</ele>
        <time>2020-06-14T13:36:37Z</time>
      </trkpt>
      <trkpt lat="47.2552" lon="0.72904">
        <ele>80.06</ele>
        <time>2020-06-14T13:36:39Z</time>
      </trkpt>
      <trkpt lat="47.25513" lon="0.72918">
        <ele>79.23</ele>
        <time>2020-06-14T13:36:41Z</time>
      </trkpt>
      <trkpt lat="47.25504" lon="0.72922">
        <ele>78.06</ele>
        <time>2020-06-14T13:36:43Z</time>
      </trkpt>
      <trkpt lat="47.25499" lon="0.72923">
        <ele>77.78</ele>
        <time>2020-06-14T13:36:44Z</time>
      </trkpt>
      <trkpt lat="47.25459" lon="0.72948">
        <ele>75.7</ele>
        <time>2020-06-14T13:36:55Z</time>
      </trkpt>
      <trkpt lat="47.25457" lon="0.72954">
        <ele>76.15</ele>
        <time>2020-06-14T13:36:56Z</time>
      </trkpt>
      <trkpt lat="47.25465" lon="0.73022">
        <ele>77.45</ele>
        <time>2020-06-14T13:37:06Z</time>
      </trkpt>
      <trkpt lat="47.25449" lon="0.73053">
        <ele>82.15</ele>
        <time>2020-06-14T13:37:10Z</time>
      </trkpt>
      <trkpt lat="47.25445" lon="0.73066">
        <ele>81.79</ele>
        <time>2020-06-14T13:37:12Z</time>
      </trkpt>
      <trkpt lat="47.25449" lon="0.73087">
        <ele>83.51</ele>
        <time>2020-06-14T13:37:15Z</time>
      </trkpt>
      <trkpt lat="47.25481" lon="0.73174">
        <ele>84.78</ele>
        <time>2020-06-14T13:37:24Z</time>
      </trkpt>
      <trkpt lat="47.25561" lon="0.73249">
        <ele>83.33</ele>
        <time>2020-06-14T13:37:35Z</time>
      </trkpt>
      <trkpt lat="47.25595" lon="0.73297">
        <ele>80.22</ele>
        <time>2020-06-14T13:37:42Z</time>
      </trkpt>
      <trkpt lat="47.25598" lon="0.73323">
        <ele>79.82</ele>
        <time>2020-06-14T13:37:45Z</time>
      </trkpt>
      <trkpt lat="47.25597" lon="0.73371">
        <ele>77.24</ele>
        <time>2020-06-14T13:37:50Z</time>
      </trkpt>
      <trkpt lat="47.25598" lon="0.73379">
        <ele>77.44</ele>
        <time>2020-06-14T13:37:51Z</time>
      </trkpt>
      <trkpt lat="47.25605" lon="0.73443">
        <ele>76.81</ele>
        <time>2020-06-14T13:38:01Z</time>
      </trkpt>
      <trkpt lat="47.25593" lon="0.73453">
        <ele>78.26</ele>
        <time>2020-06-14T13:38:05Z</time>
      </trkpt>
      <trkpt lat="47.25585" lon="0.73473">
        <ele>79.58</ele>
        <time>2020-06-14T13:38:09Z</time>
      </trkpt>
      <trkpt lat="47.25585" lon="0.7349">
        <ele>80.33</ele>
        <time>2020-06-14T13:38:11Z</time>
      </trkpt>
      <trkpt lat="47.25584" lon="0.73546">
        <ele>83.73</ele>
        <time>2020-06-14T13:38:16Z</time>
      </trkpt>
      <trkpt lat="47.25583" lon="0.73576">
        <ele>84.98</ele>
        <time>2020-06-14T13:38:18Z</time>
      </trkpt>
      <trkpt lat="47.25584" lon="0.73666">
        <ele>84.83</ele>
        <time>2020-06-14T13:38:23Z</time>
      </trkpt>
      <trkpt lat="47.25591" lon="0.73844">
        <ele>86.93</ele>
        <time>2020-06-14T13:38:33Z</time>
      </trkpt>
      <trkpt lat="47.25587" lon="0.73877">
        <ele>85.16</ele>
        <time>2020-06-14T13:38:52Z</time>
      </trkpt>
      <trkpt lat="47.25511" lon="0.73882">
        <ele>87.96</ele>
        <time>2020-06-14T13:39:07Z</time>
      </trkpt>
      <trkpt lat="47.25432" lon="0.73898">
        <ele>88.06</ele>
        <time>2020-06-14T13:39:14Z</time>
      </trkpt>
      <trkpt lat="47.25398" lon="0.73905">
        <ele>91.14</ele>
        <time>2020-06-14T13:39:17Z</time>
      </trkpt>
      <trkpt lat="47.25366" lon="0.73914">
        <ele>89.2</ele>
        <time>2020-06-14T13:39:20Z</time>
      </trkpt>
      <trkpt lat="47.25021" lon="0.73979">
        <ele>90.93</ele>
        <time>2020-06-14T13:39:51Z</time>
      </trkpt>
      <trkpt lat="47.24925" lon="0.74033">
        <ele>90.82</ele>
        <time>2020-06-14T13:39:59Z</time>
      </trkpt>
      <trkpt lat="47.24841" lon="0.74083">
        <ele>87.56</ele>
        <time>2020-06-14T13:40:07Z</time>
      </trkpt>
      <trkpt lat="47.24818" lon="0.74094">
        <ele>86.64</ele>
        <time>2020-06-14T13:40:11Z</time>
      </trkpt>
      <trkpt lat="47.24813" lon="0.74093">
        <ele>86.85</ele>
        <time>2020-06-14T13:40:12Z</time>
      </trkpt>
      <trkpt lat="47.24794" lon="0.74073">
        <ele>90.68</ele>
        <time>2020-06-14T13:40:15Z</time>
      </trkpt>
      <trkpt lat="47.24786" lon="0.74064">
        <ele>90.68</ele>
        <time>2020-06-14T13:40:16Z</time>
      </trkpt>
      <trkpt lat="47.24758" lon="0.74037">
        <ele>89.41</ele>
        <time>2020-06-14T13:40:19Z</time>
      </trkpt>
      <trkpt lat="47.24666" lon="0.73929">
        <ele>88.7</ele>
        <time>2020-06-14T13:40:29Z</time>
      </trkpt>
      <trkpt lat="47.24635" lon="0.7389">
        <ele>90.28</ele>
        <time>2020-06-14T13:40:33Z</time>
      </trkpt>
      <trkpt lat="47.24591" lon="0.73872">
        <ele>87.04</ele>
        <time>2020-06-14T13:40:38Z</time>
      </trkpt>
      <trkpt lat="47.24582" lon="0.73873">
        <ele>88.31</ele>
        <time>2020-06-14T13:40:39Z</time>
      </trkpt>
      <trkpt lat="47.24562" lon="0.73877">
        <ele>90.46</ele>
        <time>2020-06-14T13:40:41Z</time>
      </trkpt>
      <trkpt lat="47.24441" lon="0.73899">
        <ele>86.55</ele>
        <time>2020-06-14T13:40:55Z</time>
      </trkpt>
      <trkpt lat="47.24424" lon="0.73901">
        <ele>86.8</ele>
        <time>2020-06-14T13:41:00Z</time>
      </trkpt>
      <trkpt lat="47.2439" lon="0.7389">
        <ele>90.46</ele>
        <time>2020-06-14T13:41:04Z</time>
      </trkpt>
      <trkpt lat="47.24306" lon="0.73859">
        <ele>87.59</ele>
        <time>2020-06-14T13:41:13Z</time>
      </trkpt>
      <trkpt lat="47.24302" lon="0.73861">
        <ele>87.37</ele>
        <time>2020-06-14T13:41:14Z</time>
      </trkpt>
      <trkpt lat="47.24262" lon="0.74003">
        <ele>87.12</ele>
        <time>2020-06-14T13:41:27Z</time>
      </trkpt>
      <trkpt lat="47.2418" lon="0.74268">
        <ele>87.58</ele>
        <time>2020-06-14T13:41:50Z</time>
      </trkpt>
      <trkpt lat="47.24116" lon="0.74371">
        <ele>86.56</ele>
        <time>2020-06-14T13:41:58Z</time>
      </trkpt>
      <trkpt lat="47.23994" lon="0.74589">
        <ele>91.71</ele>
        <time>2020-06-14T13:42:10Z</time>
      </trkpt>
      <trkpt lat="47.23986" lon="0.74609">
        <ele>91.04</ele>
        <time>2020-06-14T13:42:11Z</time>
      </trkpt>
      <trkpt lat="47.23937" lon="0.74743">
        <ele>86.61</ele>
        <time>2020-06-14T13:42:19Z</time>
      </trkpt>
      <trkpt lat="47.23919" lon="0.74788">
        <ele>85.32</ele>
        <time>2020-06-14T13:42:25Z</time>
      </trkpt>
      <trkpt lat="47.23909" lon="0.74783">
        <ele>87.22</ele>
        <time>2020-06-14T13:42:27Z</time>
      </trkpt>
      <trkpt lat="47.23883" lon="0.74761">
        <ele>90.35</ele>
        <time>2020-06-14T13:42:30Z</time>
      </trkpt>
      <trkpt lat="47.23871" lon="0.74755">
        <ele>90.13</ele>
        <time>2020-06-14T13:42:31Z</time>
      </trkpt>
      <trkpt lat="47.23776" lon="0.74762">
        <ele>93.14</ele>
        <time>2020-06-14T13:42:37Z</time>
      </trkpt>
      <trkpt lat="47.23639" lon="0.7484">
        <ele>89.46</ele>
        <time>2020-06-14T13:42:45Z</time>
      </trkpt>
      <trkpt lat="47.23624" lon="0.74852">
        <ele>89.52</ele>
        <time>2020-06-14T13:42:46Z</time>
      </trkpt>
      <trkpt lat="47.23472" lon="0.74881">
        <ele>91.09</ele>
        <time>2020-06-14T13:42:55Z</time>
      </trkpt>
      <trkpt lat="47.2343" lon="0.74865">
        <ele>84.65</ele>
        <time>2020-06-14T13:42:58Z</time>
      </trkpt>
      <trkpt lat="47.23421" lon="0.74863">
        <ele>81.5</ele>
        <time>2020-06-14T13:43:00Z</time>
      </trkpt>
      <trkpt lat="47.23421" lon="0.74864">
        <ele>81.36</ele>
        <time>2020-06-14T13:43:01Z</time>
      </trkpt>
      <trkpt lat="47.23423" lon="0.74888">
        <ele>79.75</ele>
        <time>2020-06-14T13:43:06Z</time>
      </trkpt>
      <trkpt lat="47.23422" lon="0.74937">
        <ele>78.61</ele>
        <time>2020-06-14T13:43:11Z</time>
      </trkpt>
      <trkpt lat="47.23422" lon="0.7497">
        <ele>78.4</ele>
        <time>2020-06-14T13:43:14Z</time>
      </trkpt>
      <trkpt lat="47.23418" lon="0.75002">
        <ele>78.59</ele>
        <time>2020-06-14T13:43:17Z</time>
      </trkpt>
      <trkpt lat="47.23415" lon="0.75022">
        <ele>79.61</ele>
        <time>2020-06-14T13:43:19Z</time>
      </trkpt>
      <trkpt lat="47.23432" lon="0.75081">
        <ele>84.32</ele>
        <time>2020-06-14T13:43:24Z</time>
      </trkpt>
      <trkpt lat="47.23444" lon="0.75097">
        <ele>86.44</ele>
        <time>2020-06-14T13:43:26Z</time>
      </trkpt>
      <trkpt lat="47.23466" lon="0.75125">
        <ele>88.47</ele>
        <time>2020-06-14T13:43:30Z</time>
      </trkpt>
      <trkpt lat="47.23495" lon="0.75148">
        <ele>86.83</ele>
        <time>2020-06-14T13:43:35Z</time>
      </trkpt>
      <trkpt lat="47.23498" lon="0.75178">
        <ele>87.62</ele>
        <time>2020-06-14T13:43:39Z</time>
      </trkpt>
      <trkpt lat="47.23473" lon="0.75307">
        <ele>87.87</ele>
        <time>2020-06-14T13:43:48Z</time>
      </trkpt>
      <trkpt lat="47.23475" lon="0.75369">
        <ele>88.78</ele>
        <time>2020-06-14T13:43:52Z</time>
      </trkpt>
      <trkpt lat="47.23479" lon="0.7543">
        <ele>90.42</ele>
        <time>2020-06-14T13:43:55Z</time>
      </trkpt>
      <trkpt lat="47.2356" lon="0.7594">
        <ele>92.61</ele>
        <time>2020-06-14T13:44:17Z</time>
      </trkpt>
      <trkpt lat="47.23573" lon="0.7602">
        <ele>89.39</ele>
        <time>2020-06-14T13:44:22Z</time>
      </trkpt>
      <trkpt lat="47.23575" lon="0.7603">
        <ele>88.96</ele>
        <time>2020-06-14T13:44:23Z</time>
      </trkpt>
      <trkpt lat="47.23561" lon="0.76054">
        <ele>89.95</ele>
        <time>2020-06-14T13:44:27Z</time>
      </trkpt>
      <trkpt lat="47.23552" lon="0.76058">
        <ele>91.26</ele>
        <time>2020-06-14T13:44:28Z</time>
      </trkpt>
      <trkpt lat="47.23504" lon="0.76093">
        <ele>94.36</ele>
        <time>2020-06-14T13:44:32Z</time>
      </trkpt>
      <trkpt lat="47.23339" lon="0.76281">
        <ele>98.68</ele>
        <time>2020-06-14T13:44:44Z</time>
      </trkpt>
      <trkpt lat="47.2328" lon="0.76345">
        <ele>94.92</ele>
        <time>2020-06-14T13:44:48Z</time>
      </trkpt>
      <trkpt lat="47.2323" lon="0.76408">
        <ele>92.15</ele>
        <time>2020-06-14T13:44:52Z</time>
      </trkpt>
      <trkpt lat="47.23214" lon="0.76438">
        <ele>89.14</ele>
        <time>2020-06-14T13:44:56Z</time>
      </trkpt>
      <trkpt lat="47.23226" lon="0.76456">
        <ele>89.81</ele>
        <time>2020-06-14T13:44:59Z</time>
      </trkpt>
      <trkpt lat="47.23277" lon="0.76516">
        <ele>92.9</ele>
        <time>2020-06-14T13:45:04Z</time>
      </trkpt>
      <trkpt lat="47.23381" lon="0.76644">
        <ele>91.75</ele>
        <time>2020-06-14T13:45:13Z</time>
      </trkpt>
      <trkpt lat="47.23434" lon="0.76713">
        <ele>89.94</ele>
        <time>2020-06-14T13:45:19Z</time>
      </trkpt>
      <trkpt lat="47.23485" lon="0.7673">
        <ele>90.36</ele>
        <time>2020-06-14T13:45:24Z</time>
      </trkpt>
      <trkpt lat="47.23523" lon="0.76732">
        <ele>88.97</ele>
        <time>2020-06-14T13:45:28Z</time>
      </trkpt>
      <trkpt lat="47.23532" lon="0.76735">
        <ele>88.72</ele>
        <time>2020-06-14T13:45:29Z</time>
      </trkpt>
      <trkpt lat="47.23581" lon="0.76806">
        <ele>88.82</ele>
        <time>2020-06-14T13:45:36Z</time>
      </trkpt>
      <trkpt lat="47.23702" lon="0.77162">
        <ele>90.48</ele>
        <time>2020-06-14T13:45:55Z</time>
      </trkpt>
      <trkpt lat="47.23724" lon="0.77225">
        <ele>89.5</ele>
        <time>2020-06-14T13:46:01Z</time>
      </trkpt>
      <trkpt lat="47.23657" lon="0.77248">
        <ele>93.85</ele>
        <time>2020-06-14T13:46:09Z</time>
      </trkpt>
      <trkpt lat="47.23459" lon="0.77309">
        <ele>91.37</ele>
        <time>2020-06-14T13:46:22Z</time>
      </trkpt>
      <trkpt lat="47.23439" lon="0.77325">
        <ele>89.34</ele>
        <time>2020-06-14T13:46:26Z</time>
      </trkpt>
      <trkpt lat="47.23441" lon="0.77334">
        <ele>87.87</ele>
        <time>2020-06-14T13:46:28Z</time>
      </trkpt>
      <trkpt lat="47.23452" lon="0.77342">
        <ele>88.41</ele>
        <time>2020-06-14T13:46:30Z</time>
      </trkpt>
      <trkpt lat="47.23723" lon="0.77536">
        <ele>88.3</ele>
        <time>2020-06-14T13:46:58Z</time>
      </trkpt>
      <trkpt lat="47.23987" lon="0.77726">
        <ele>88.31</ele>
        <time>2020-06-14T13:47:34Z</time>
      </trkpt>
      <trkpt lat="47.24485" lon="0.78087">
        <ele>86.25</ele>
        <time>2020-06-14T13:48:06Z</time>
      </trkpt>
      <trkpt lat="47.24924" lon="0.78404">
        <ele>80.56</ele>
        <time>2020-06-14T13:48:34Z</time>
      </trkpt>
      <trkpt lat="47.24931" lon="0.78409">
        <ele>80.47</ele>
        <time>2020-06-14T13:48:35Z</time>
      </trkpt>
      <trkpt lat="47.24954" lon="0.78427">
        <ele>79.43</ele>
        <time>2020-06-14T13:48:40Z</time>
      </trkpt>
      <trkpt lat="47.24928" lon="0.78561">
        <ele>79.03</ele>
        <time>2020-06-14T13:48:53Z</time>
      </trkpt>
      <trkpt lat="47.24923" lon="0.78572">
        <ele>78.91</ele>
        <time>2020-06-14T13:48:54Z</time>
      </trkpt>
      <trkpt lat="47.24912" lon="0.78592">
        <ele>78.84</ele>
        <time>2020-06-14T13:48:56Z</time>
      </trkpt>
      <trkpt lat="47.2489" lon="0.78693">
        <ele>76.38</ele>
        <time>2020-06-14T13:49:05Z</time>
      </trkpt>
      <trkpt lat="47.2486" lon="0.78875">
        <ele>72.39</ele>
        <time>2020-06-14T13:49:19Z</time>
      </trkpt>
      <trkpt lat="47.2488" lon="0.78888">
        <ele>75.97</ele>
        <time>2020-06-14T13:49:23Z</time>
      </trkpt>
      <trkpt lat="47.24889" lon="0.78888">
        <ele>76.02</ele>
        <time>2020-06-14T13:49:24Z</time>
      </trkpt>
      <trkpt lat="47.24923" lon="0.78904">
        <ele>79.93</ele>
        <time>2020-06-14T13:49:28Z</time>
      </trkpt>
      <trkpt lat="47.2493" lon="0.78912">
        <ele>79.6</ele>
        <time>2020-06-14T13:49:29Z</time>
      </trkpt>
      <trkpt lat="47.24942" lon="0.78949">
        <ele>78.98</ele>
        <time>2020-06-14T13:49:35Z</time>
      </trkpt>
      <trkpt lat="47.24817" lon="0.7926">
        <ele>80.31</ele>
        <time>2020-06-14T13:50:12Z</time>
      </trkpt>
      <trkpt lat="47.24748" lon="0.79438">
        <ele>82.19</ele>
        <time>2020-06-14T13:50:31Z</time>
      </trkpt>
      <trkpt lat="47.24604" lon="0.79658">
        <ele>81.56</ele>
        <time>2020-06-14T13:50:48Z</time>
      </trkpt>
      <trkpt lat="47.24587" lon="0.7968">
        <ele>80.76</ele>
        <time>2020-06-14T13:50:52Z</time>
      </trkpt>
      <trkpt lat="47.24582" lon="0.79676">
        <ele>80.41</ele>
        <time>2020-06-14T13:51:05Z</time>
      </trkpt>
      <trkpt lat="47.24579" lon="0.79696">
        <ele>80.14</ele>
        <time>2020-06-14T13:51:14Z</time>
      </trkpt>
      <trkpt lat="47.2456" lon="0.79718">
        <ele>80.91</ele>
        <time>2020-06-14T13:51:26Z</time>
      </trkpt>
      <trkpt lat="47.24546" lon="0.79716">
        <ele>81.67</ele>
        <time>2020-06-14T13:51:29Z</time>
      </trkpt>
      <trkpt lat="47.24495" lon="0.79711">
        <ele>80.88</ele>
        <time>2020-06-14T13:51:40Z</time>
      </trkpt>
      <trkpt lat="47.24485" lon="0.79715">
        <ele>81.83</ele>
        <time>2020-06-14T13:51:42Z</time>
      </trkpt>
      <trkpt lat="47.24437" lon="0.7974">
        <ele>81.85</ele>
        <time>2020-06-14T13:51:48Z</time>
      </trkpt>
      <trkpt lat="47.244" lon="0.79749">
        <ele>80.83</ele>
        <time>2020-06-14T13:51:52Z</time>
      </trkpt>
      <trkpt lat="47.24375" lon="0.7977">
        <ele>82.51</ele>
        <time>2020-06-14T13:51:55Z</time>
      </trkpt>
      <trkpt lat="47.24313" lon="0.79769">
        <ele>85.04</ele>
        <time>2020-06-14T13:52:01Z</time>
      </trkpt>
      <trkpt lat="47.24301" lon="0.79762">
        <ele>84.65</ele>
        <time>2020-06-14T13:52:02Z</time>
      </trkpt>
      <trkpt lat="47.24237" lon="0.7972">
        <ele>83.49</ele>
        <time>2020-06-14T13:52:08Z</time>
      </trkpt>
      <trkpt lat="47.24226" lon="0.79716">
        <ele>83.22</ele>
        <time>2020-06-14T13:52:09Z</time>
      </trkpt>
      <trkpt lat="47.24189" lon="0.79718">
        <ele>80.19</ele>
        <time>2020-06-14T13:52:12Z</time>
      </trkpt>
      <trkpt lat="47.24175" lon="0.79723">
        <ele>80.88</ele>
        <time>2020-06-14T13:52:13Z</time>
      </trkpt>
      <trkpt lat="47.24146" lon="0.79741">
        <ele>79.72</ele>
        <time>2020-06-14T13:52:15Z</time>
      </trkpt>
      <trkpt lat="47.24116" lon="0.7976">
        <ele>82.76</ele>
        <time>2020-06-14T13:52:17Z</time>
      </trkpt>
      <trkpt lat="47.24102" lon="0.7977">
        <ele>82.02</ele>
        <time>2020-06-14T13:52:18Z</time>
      </trkpt>
      <trkpt lat="47.24037" lon="0.79807">
        <ele>81.94</ele>
        <time>2020-06-14T13:52:23Z</time>
      </trkpt>
      <trkpt lat="47.23999" lon="0.79814">
        <ele>80.8</ele>
        <time>2020-06-14T13:52:26Z</time>
      </trkpt>
      <trkpt lat="47.23988" lon="0.7982">
        <ele>80.54</ele>
        <time>2020-06-14T13:52:27Z</time>
      </trkpt>
      <trkpt lat="47.23965" lon="0.79845">
        <ele>80.18</ele>
        <time>2020-06-14T13:52:30Z</time>
      </trkpt>
      <trkpt lat="47.23944" lon="0.79873">
        <ele>79.72</ele>
        <time>2020-06-14T13:52:44Z</time>
      </trkpt>
      <trkpt lat="47.23928" lon="0.79892">
        <ele>81.72</ele>
        <time>2020-06-14T13:52:46Z</time>
      </trkpt>
      <trkpt lat="47.23904" lon="0.79911">
        <ele>86.03</ele>
        <time>2020-06-14T13:52:48Z</time>
      </trkpt>
      <trkpt lat="47.2389" lon="0.79917">
        <ele>85.3</ele>
        <time>2020-06-14T13:52:49Z</time>
      </trkpt>
      <trkpt lat="47.23874" lon="0.79922">
        <ele>86.53</ele>
        <time>2020-06-14T13:52:50Z</time>
      </trkpt>
      <trkpt lat="47.23825" lon="0.79937">
        <ele>88.62</ele>
        <time>2020-06-14T13:52:53Z</time>
      </trkpt>
      <trkpt lat="47.23707" lon="0.80016">
        <ele>89.12</ele>
        <time>2020-06-14T13:53:01Z</time>
      </trkpt>
      <trkpt lat="47.23679" lon="0.80039">
        <ele>87.48</ele>
        <time>2020-06-14T13:53:04Z</time>
      </trkpt>
      <trkpt lat="47.23657" lon="0.8005">
        <ele>85.86</ele>
        <time>2020-06-14T13:53:08Z</time>
      </trkpt>
      <trkpt lat="47.2366" lon="0.80086">
        <ele>85.52</ele>
        <time>2020-06-14T13:53:14Z</time>
      </trkpt>
      <trkpt lat="47.23766" lon="0.80438">
        <ele>84.91</ele>
        <time>2020-06-14T13:53:39Z</time>
      </trkpt>
      <trkpt lat="47.23802" lon="0.8056">
        <ele>85.84</ele>
        <time>2020-06-14T13:53:47Z</time>
      </trkpt>
      <trkpt lat="47.23832" lon="0.80601">
        <ele>86.88</ele>
        <time>2020-06-14T13:53:51Z</time>
      </trkpt>
      <trkpt lat="47.23866" lon="0.80638">
        <ele>86.77</ele>
        <time>2020-06-14T13:53:57Z</time>
      </trkpt>
      <trkpt lat="47.23862" lon="0.80644">
        <ele>86.89</ele>
        <time>2020-06-14T13:54:13Z</time>
      </trkpt>
      <trkpt lat="47.23862" lon="0.80642">
        <ele>87.59</ele>
        <time>2020-06-14T14:02:14Z</time>
      </trkpt>
      <trkpt lat="47.23804" lon="0.80747">
        <ele>89.78</ele>
        <time>2020-06-14T14:25:49Z</time>
      </trkpt>
      <trkpt lat="47.23772" lon="0.80804">
        <ele>91.74</ele>
        <time>2020-06-14T14:25:53Z</time>
      </trkpt>
      <trkpt lat="47.23726" lon="0.80852">
        <ele>92.82</ele>
        <time>2020-06-14T14:25:57Z</time>
      </trkpt>
      <trkpt lat="47.23622" lon="0.80921">
        <ele>89.29</ele>
        <time>2020-06-14T14:26:06Z</time>
      </trkpt>
      <trkpt lat="47.23614" lon="0.80926">
        <ele>89.62</ele>
        <time>2020-06-14T14:26:07Z</time>
      </trkpt>
      <trkpt lat="47.23595" lon="0.8094">
        <ele>87.29</ele>
        <time>2020-06-14T14:26:11Z</time>
      </trkpt>
      <trkpt lat="47.23594" lon="0.80944">
        <ele>87.06</ele>
        <time>2020-06-14T14:26:12Z</time>
      </trkpt>
      <trkpt lat="47.23691" lon="0.8112">
        <ele>89.6</ele>
        <time>2020-06-14T14:26:31Z</time>
      </trkpt>
      <trkpt lat="47.23715" lon="0.81166">
        <ele>88.32</ele>
        <time>2020-06-14T14:26:34Z</time>
      </trkpt>
      <trkpt lat="47.23922" lon="0.81568">
        <ele>83.57</ele>
        <time>2020-06-14T14:26:58Z</time>
      </trkpt>
      <trkpt lat="47.23952" lon="0.81627">
        <ele>81.83</ele>
        <time>2020-06-14T14:27:05Z</time>
      </trkpt>
      <trkpt lat="47.23952" lon="0.8163">
        <ele>82.04</ele>
        <time>2020-06-14T14:27:06Z</time>
      </trkpt>
      <trkpt lat="47.23909" lon="0.81693">
        <ele>86.05</ele>
        <time>2020-06-14T14:27:14Z</time>
      </trkpt>
      <trkpt lat="47.2389" lon="0.81722">
        <ele>90.19</ele>
        <time>2020-06-14T14:27:16Z</time>
      </trkpt>
      <trkpt lat="47.23879" lon="0.81738">
        <ele>90.38</ele>
        <time>2020-06-14T14:27:17Z</time>
      </trkpt>
      <trkpt lat="47.23592" lon="0.82207">
        <ele>94.2</ele>
        <time>2020-06-14T14:27:40Z</time>
      </trkpt>
      <trkpt lat="47.23484" lon="0.82368">
        <ele>89.96</ele>
        <time>2020-06-14T14:27:48Z</time>
      </trkpt>
      <trkpt lat="47.23379" lon="0.82503">
        <ele>90.8</ele>
        <time>2020-06-14T14:27:55Z</time>
      </trkpt>
      <trkpt lat="47.23309" lon="0.82576">
        <ele>94.5</ele>
        <time>2020-06-14T14:27:59Z</time>
      </trkpt>
      <trkpt lat="47.2329" lon="0.82591">
        <ele>97.67</ele>
        <time>2020-06-14T14:28:00Z</time>
      </trkpt>
      <trkpt lat="47.23211" lon="0.82653">
        <ele>93.96</ele>
        <time>2020-06-14T14:28:04Z</time>
      </trkpt>
      <trkpt lat="47.2308" lon="0.82752">
        <ele>91.04</ele>
        <time>2020-06-14T14:28:11Z</time>
      </trkpt>
      <trkpt lat="47.22946" lon="0.82798">
        <ele>87.95</ele>
        <time>2020-06-14T14:28:18Z</time>
      </trkpt>
      <trkpt lat="47.22874" lon="0.82815">
        <ele>83.12</ele>
        <time>2020-06-14T14:28:22Z</time>
      </trkpt>
      <trkpt lat="47.22858" lon="0.82819">
        <ele>83.2</ele>
        <time>2020-06-14T14:28:23Z</time>
      </trkpt>
      <trkpt lat="47.22663" lon="0.82647">
        <ele>79.34</ele>
        <time>2020-06-14T14:28:36Z</time>
      </trkpt>
      <trkpt lat="47.22645" lon="0.82633">
        <ele>79.34</ele>
        <time>2020-06-14T14:28:37Z</time>
      </trkpt>
      <trkpt lat="47.22491" lon="0.82598">
        <ele>76.27</ele>
        <time>2020-06-14T14:28:45Z</time>
      </trkpt>
      <trkpt lat="47.22366" lon="0.82725">
        <ele>74.05</ele>
        <time>2020-06-14T14:28:53Z</time>
      </trkpt>
      <trkpt lat="47.22275" lon="0.82914">
        <ele>69.85</ele>
        <time>2020-06-14T14:29:01Z</time>
      </trkpt>
      <trkpt lat="47.22266" lon="0.82933">
        <ele>69.61</ele>
        <time>2020-06-14T14:29:02Z</time>
      </trkpt>
      <trkpt lat="47.22241" lon="0.82989">
        <ele>65.33</ele>
        <time>2020-06-14T14:29:06Z</time>
      </trkpt>
      <trkpt lat="47.22242" lon="0.83003">
        <ele>63.64</ele>
        <time>2020-06-14T14:29:08Z</time>
      </trkpt>
      <trkpt lat="47.22255" lon="0.83012">
        <ele>63.65</ele>
        <time>2020-06-14T14:29:10Z</time>
      </trkpt>
      <trkpt lat="47.22264" lon="0.83016">
        <ele>64.03</ele>
        <time>2020-06-14T14:29:11Z</time>
      </trkpt>
      <trkpt lat="47.22352" lon="0.83086">
        <ele>67.59</ele>
        <time>2020-06-14T14:29:20Z</time>
      </trkpt>
      <trkpt lat="47.22358" lon="0.83097">
        <ele>69.51</ele>
        <time>2020-06-14T14:29:21Z</time>
      </trkpt>
      <trkpt lat="47.22381" lon="0.83132">
        <ele>73.11</ele>
        <time>2020-06-14T14:29:24Z</time>
      </trkpt>
      <trkpt lat="47.224" lon="0.83157">
        <ele>76.45</ele>
        <time>2020-06-14T14:29:26Z</time>
      </trkpt>
      <trkpt lat="47.22431" lon="0.83199">
        <ele>79.52</ele>
        <time>2020-06-14T14:29:30Z</time>
      </trkpt>
      <trkpt lat="47.22451" lon="0.8318">
        <ele>84.12</ele>
        <time>2020-06-14T14:29:35Z</time>
      </trkpt>
      <trkpt lat="47.22454" lon="0.83168">
        <ele>84.33</ele>
        <time>2020-06-14T14:29:36Z</time>
      </trkpt>
      <trkpt lat="47.22461" lon="0.83143">
        <ele>83.9</ele>
        <time>2020-06-14T14:29:38Z</time>
      </trkpt>
      <trkpt lat="47.22496" lon="0.83107">
        <ele>84.96</ele>
        <time>2020-06-14T14:29:43Z</time>
      </trkpt>
      <trkpt lat="47.22575" lon="0.83082">
        <ele>81.24</ele>
        <time>2020-06-14T14:29:51Z</time>
      </trkpt>
      <trkpt lat="47.22603" lon="0.83075">
        <ele>78.38</ele>
        <time>2020-06-14T14:29:54Z</time>
      </trkpt>
      <trkpt lat="47.22613" lon="0.83074">
        <ele>78.24</ele>
        <time>2020-06-14T14:29:55Z</time>
      </trkpt>
      <trkpt lat="47.22655" lon="0.83084">
        <ele>75.68</ele>
        <time>2020-06-14T14:29:59Z</time>
      </trkpt>
      <trkpt lat="47.22695" lon="0.83105">
        <ele>72.33</ele>
        <time>2020-06-14T14:30:03Z</time>
      </trkpt>
      <trkpt lat="47.22755" lon="0.83146">
        <ele>68.68</ele>
        <time>2020-06-14T14:30:09Z</time>
      </trkpt>
      <trkpt lat="47.22787" lon="0.83169">
        <ele>65.66</ele>
        <time>2020-06-14T14:30:13Z</time>
      </trkpt>
      <trkpt lat="47.228" lon="0.83177">
        <ele>64.32</ele>
        <time>2020-06-14T14:30:15Z</time>
      </trkpt>
      <trkpt lat="47.22809" lon="0.83186">
        <ele>63.36</ele>
        <time>2020-06-14T14:30:17Z</time>
      </trkpt>
      <trkpt lat="47.22816" lon="0.83194">
        <ele>63.91</ele>
        <time>2020-06-14T14:30:19Z</time>
      </trkpt>
      <trkpt lat="47.22823" lon="0.83204">
        <ele>63.1</ele>
        <time>2020-06-14T14:30:21Z</time>
      </trkpt>
      <trkpt lat="47.22854" lon="0.83231">
        <ele>63.7</ele>
        <time>2020-06-14T14:30:28Z</time>
      </trkpt>
      <trkpt lat="47.22918" lon="0.83276">
        <ele>66.05</ele>
        <time>2020-06-14T14:30:42Z</time>
      </trkpt>
      <trkpt lat="47.22943" lon="0.83285">
        <ele>65.31</ele>
        <time>2020-06-14T14:30:45Z</time>
      </trkpt>
      <trkpt lat="47.22959" lon="0.83284">
        <ele>64.84</ele>
        <time>2020-06-14T14:30:47Z</time>
      </trkpt>
      <trkpt lat="47.22992" lon="0.83279">
        <ele>63.67</ele>
        <time>2020-06-14T14:30:51Z</time>
      </trkpt>
      <trkpt lat="47.23001" lon="0.8328">
        <ele>63.81</ele>
        <time>2020-06-14T14:30:52Z</time>
      </trkpt>
      <trkpt lat="47.23055" lon="0.8329">
        <ele>64.48</ele>
        <time>2020-06-14T14:30:58Z</time>
      </trkpt>
      <trkpt lat="47.23073" lon="0.83283">
        <ele>64.9</ele>
        <time>2020-06-14T14:31:00Z</time>
      </trkpt>
      <trkpt lat="47.23111" lon="0.83263">
        <ele>64.42</ele>
        <time>2020-06-14T14:31:04Z</time>
      </trkpt>
      <trkpt lat="47.23122" lon="0.83261">
        <ele>64.83</ele>
        <time>2020-06-14T14:31:05Z</time>
      </trkpt>
      <trkpt lat="47.23187" lon="0.83253">
        <ele>63.82</ele>
        <time>2020-06-14T14:31:11Z</time>
      </trkpt>
      <trkpt lat="47.23209" lon="0.83236">
        <ele>65.15</ele>
        <time>2020-06-14T14:31:14Z</time>
      </trkpt>
      <trkpt lat="47.23482" lon="0.83067">
        <ele>63.11</ele>
        <time>2020-06-14T14:31:40Z</time>
      </trkpt>
      <trkpt lat="47.23532" lon="0.83061">
        <ele>61.68</ele>
        <time>2020-06-14T14:31:45Z</time>
      </trkpt>
      <trkpt lat="47.2355" lon="0.83066">
        <ele>62.1</ele>
        <time>2020-06-14T14:31:47Z</time>
      </trkpt>
      <trkpt lat="47.23646" lon="0.83114">
        <ele>61.97</ele>
        <time>2020-06-14T14:31:57Z</time>
      </trkpt>
      <trkpt lat="47.23678" lon="0.83156">
        <ele>63.17</ele>
        <time>2020-06-14T14:32:02Z</time>
      </trkpt>
      <trkpt lat="47.23707" lon="0.83181">
        <ele>64.46</ele>
        <time>2020-06-14T14:32:05Z</time>
      </trkpt>
      <trkpt lat="47.23857" lon="0.83178">
        <ele>62.31</ele>
        <time>2020-06-14T14:32:20Z</time>
      </trkpt>
      <trkpt lat="47.23866" lon="0.83168">
        <ele>62.35</ele>
        <time>2020-06-14T14:32:21Z</time>
      </trkpt>
      <trkpt lat="47.23923" lon="0.8311">
        <ele>63.89</ele>
        <time>2020-06-14T14:32:27Z</time>
      </trkpt>
      <trkpt lat="47.23934" lon="0.83095">
        <ele>63.8</ele>
        <time>2020-06-14T14:32:28Z</time>
      </trkpt>
      <trkpt lat="47.23972" lon="0.83011">
        <ele>64.88</ele>
        <time>2020-06-14T14:32:33Z</time>
      </trkpt>
      <trkpt lat="47.23976" lon="0.82995">
        <ele>64.17</ele>
        <time>2020-06-14T14:32:34Z</time>
      </trkpt>
      <trkpt lat="47.24001" lon="0.82953">
        <ele>67.4</ele>
        <time>2020-06-14T14:32:37Z</time>
      </trkpt>
      <trkpt lat="47.2404" lon="0.82893">
        <ele>73.53</ele>
        <time>2020-06-14T14:32:41Z</time>
      </trkpt>
      <trkpt lat="47.24049" lon="0.82878">
        <ele>72.69</ele>
        <time>2020-06-14T14:32:42Z</time>
      </trkpt>
      <trkpt lat="47.24066" lon="0.82852">
        <ele>73.21</ele>
        <time>2020-06-14T14:32:44Z</time>
      </trkpt>
      <trkpt lat="47.24108" lon="0.82812">
        <ele>78.28</ele>
        <time>2020-06-14T14:32:48Z</time>
      </trkpt>
      <trkpt lat="47.24133" lon="0.82798">
        <ele>79.71</ele>
        <time>2020-06-14T14:32:51Z</time>
      </trkpt>
      <trkpt lat="47.24164" lon="0.82812">
        <ele>83.65</ele>
        <time>2020-06-14T14:32:55Z</time>
      </trkpt>
      <trkpt lat="47.24184" lon="0.82824">
        <ele>84.47</ele>
        <time>2020-06-14T14:32:58Z</time>
      </trkpt>
      <trkpt lat="47.24187" lon="0.82829">
        <ele>84.29</ele>
        <time>2020-06-14T14:32:59Z</time>
      </trkpt>
      <trkpt lat="47.24182" lon="0.82849">
        <ele>85.95</ele>
        <time>2020-06-14T14:33:02Z</time>
      </trkpt>
      <trkpt lat="47.24177" lon="0.82859">
        <ele>86.14</ele>
        <time>2020-06-14T14:33:03Z</time>
      </trkpt>
      <trkpt lat="47.24157" lon="0.82898">
        <ele>88.78</ele>
        <time>2020-06-14T14:33:06Z</time>
      </trkpt>
      <trkpt lat="47.24137" lon="0.82922">
        <ele>90.24</ele>
        <time>2020-06-14T14:33:08Z</time>
      </trkpt>
      <trkpt lat="47.24042" lon="0.83075">
        <ele>88.87</ele>
        <time>2020-06-14T14:33:19Z</time>
      </trkpt>
      <trkpt lat="47.23979" lon="0.83205">
        <ele>89.31</ele>
        <time>2020-06-14T14:33:30Z</time>
      </trkpt>
      <trkpt lat="47.23951" lon="0.83319">
        <ele>90.39</ele>
        <time>2020-06-14T14:33:38Z</time>
      </trkpt>
      <trkpt lat="47.23956" lon="0.8334">
        <ele>91.49</ele>
        <time>2020-06-14T14:33:39Z</time>
      </trkpt>
      <trkpt lat="47.23997" lon="0.83461">
        <ele>97.04</ele>
        <time>2020-06-14T14:33:44Z</time>
      </trkpt>
      <trkpt lat="47.24024" lon="0.8354">
        <ele>95.37</ele>
        <time>2020-06-14T14:33:47Z</time>
      </trkpt>
      <trkpt lat="47.24035" lon="0.83608">
        <ele>94.13</ele>
        <time>2020-06-14T14:33:50Z</time>
      </trkpt>
      <trkpt lat="47.24019" lon="0.83781">
        <ele>98.87</ele>
        <time>2020-06-14T14:33:56Z</time>
      </trkpt>
      <trkpt lat="47.24013" lon="0.83864">
        <ele>93.27</ele>
        <time>2020-06-14T14:33:59Z</time>
      </trkpt>
      <trkpt lat="47.24012" lon="0.83889">
        <ele>93.25</ele>
        <time>2020-06-14T14:34:00Z</time>
      </trkpt>
      <trkpt lat="47.2402" lon="0.83954">
        <ele>91.93</ele>
        <time>2020-06-14T14:34:03Z</time>
      </trkpt>
      <trkpt lat="47.24032" lon="0.84">
        <ele>88.54</ele>
        <time>2020-06-14T14:34:06Z</time>
      </trkpt>
      <trkpt lat="47.24033" lon="0.84014">
        <ele>88.54</ele>
        <time>2020-06-14T14:34:07Z</time>
      </trkpt>
      <trkpt lat="47.24024" lon="0.84064">
        <ele>90.98</ele>
        <time>2020-06-14T14:34:10Z</time>
      </trkpt>
      <trkpt lat="47.24" lon="0.84159">
        <ele>86.88</ele>
        <time>2020-06-14T14:34:16Z</time>
      </trkpt>
      <trkpt lat="47.23997" lon="0.84169">
        <ele>87.36</ele>
        <time>2020-06-14T14:34:17Z</time>
      </trkpt>
      <trkpt lat="47.23992" lon="0.84184">
        <ele>86.98</ele>
        <time>2020-06-14T14:34:19Z</time>
      </trkpt>
      <trkpt lat="47.23964" lon="0.84217">
        <ele>88.32</ele>
        <time>2020-06-14T14:34:24Z</time>
      </trkpt>
      <trkpt lat="47.23954" lon="0.84224">
        <ele>93.05</ele>
        <time>2020-06-14T14:34:25Z</time>
      </trkpt>
      <trkpt lat="47.23942" lon="0.84232">
        <ele>91.36</ele>
        <time>2020-06-14T14:34:26Z</time>
      </trkpt>
      <trkpt lat="47.2382" lon="0.84316">
        <ele>98.09</ele>
        <time>2020-06-14T14:34:34Z</time>
      </trkpt>
      <trkpt lat="47.23771" lon="0.8435">
        <ele>94.87</ele>
        <time>2020-06-14T14:34:37Z</time>
      </trkpt>
      <trkpt lat="47.23755" lon="0.84361">
        <ele>98.15</ele>
        <time>2020-06-14T14:34:38Z</time>
      </trkpt>
      <trkpt lat="47.23306" lon="0.8468">
        <ele>95.6</ele>
        <time>2020-06-14T14:35:03Z</time>
      </trkpt>
      <trkpt lat="47.23152" lon="0.84789">
        <ele>90.4</ele>
        <time>2020-06-14T14:35:13Z</time>
      </trkpt>
      <trkpt lat="47.23117" lon="0.84826">
        <ele>94.52</ele>
        <time>2020-06-14T14:35:16Z</time>
      </trkpt>
      <trkpt lat="47.22984" lon="0.84993">
        <ele>94.48</ele>
        <time>2020-06-14T14:35:25Z</time>
      </trkpt>
      <trkpt lat="47.22868" lon="0.85135">
        <ele>89.93</ele>
        <time>2020-06-14T14:35:34Z</time>
      </trkpt>
      <trkpt lat="47.22859" lon="0.85146">
        <ele>89.82</ele>
        <time>2020-06-14T14:35:35Z</time>
      </trkpt>
      <trkpt lat="47.22845" lon="0.85166">
        <ele>88.88</ele>
        <time>2020-06-14T14:35:37Z</time>
      </trkpt>
      <trkpt lat="47.22827" lon="0.85312">
        <ele>92.02</ele>
        <time>2020-06-14T14:35:45Z</time>
      </trkpt>
      <trkpt lat="47.22788" lon="0.85852">
        <ele>87.53</ele>
        <time>2020-06-14T14:36:06Z</time>
      </trkpt>
      <trkpt lat="47.22787" lon="0.85878">
        <ele>86.59</ele>
        <time>2020-06-14T14:36:08Z</time>
      </trkpt>
      <trkpt lat="47.22814" lon="0.85897">
        <ele>86.46</ele>
        <time>2020-06-14T14:36:14Z</time>
      </trkpt>
      <trkpt lat="47.22975" lon="0.86006">
        <ele>88.22</ele>
        <time>2020-06-14T14:36:28Z</time>
      </trkpt>
      <trkpt lat="47.23187" lon="0.86214">
        <ele>86.83</ele>
        <time>2020-06-14T14:36:46Z</time>
      </trkpt>
      <trkpt lat="47.23233" lon="0.86254">
        <ele>90.85</ele>
        <time>2020-06-14T14:36:49Z</time>
      </trkpt>
      <trkpt lat="47.2325" lon="0.86269">
        <ele>90.31</ele>
        <time>2020-06-14T14:36:50Z</time>
      </trkpt>
      <trkpt lat="47.23667" lon="0.86642">
        <ele>86.93</ele>
        <time>2020-06-14T14:37:13Z</time>
      </trkpt>
      <trkpt lat="47.23689" lon="0.86665">
        <ele>84.79</ele>
        <time>2020-06-14T14:37:15Z</time>
      </trkpt>
      <trkpt lat="47.23697" lon="0.86676">
        <ele>84.59</ele>
        <time>2020-06-14T14:37:16Z</time>
      </trkpt>
      <trkpt lat="47.2371" lon="0.86708">
        <ele>83.57</ele>
        <time>2020-06-14T14:37:19Z</time>
      </trkpt>
      <trkpt lat="47.23712" lon="0.86715">
        <ele>83.53</ele>
        <time>2020-06-14T14:37:20Z</time>
      </trkpt>
      <trkpt lat="47.23735" lon="0.8674">
        <ele>83.61</ele>
        <time>2020-06-14T14:37:31Z</time>
      </trkpt>
      <trkpt lat="47.23801" lon="0.86793">
        <ele>82.92</ele>
        <time>2020-06-14T14:37:50Z</time>
      </trkpt>
      <trkpt lat="47.23806" lon="0.86797">
        <ele>82.22</ele>
        <time>2020-06-14T14:38:02Z</time>
      </trkpt>
      <trkpt lat="47.2383" lon="0.86827">
        <ele>82.77</ele>
        <time>2020-06-14T14:38:09Z</time>
      </trkpt>
      <trkpt lat="47.23787" lon="0.86771">
        <ele>83.32</ele>
        <time>2020-06-14T14:38:24Z</time>
      </trkpt>
      <trkpt lat="47.23788" lon="0.86775">
        <ele>82.95</ele>
        <time>2020-06-14T14:38:40Z</time>
      </trkpt>
      <trkpt lat="47.23842" lon="0.86709">
        <ele>83.78</ele>
        <time>2020-06-14T14:38:58Z</time>
      </trkpt>
      <trkpt lat="47.23805" lon="0.86781">
        <ele>84.27</ele>
        <time>2020-06-14T14:39:10Z</time>
      </trkpt>
      <trkpt lat="47.23849" lon="0.86833">
        <ele>82.52</ele>
        <time>2020-06-14T14:39:20Z</time>
      </trkpt>
      <trkpt lat="47.23869" lon="0.86844">
        <ele>83.71</ele>
        <time>2020-06-14T14:39:22Z</time>
      </trkpt>
      <trkpt lat="47.2389" lon="0.86864">
        <ele>85.53</ele>
        <time>2020-06-14T14:39:24Z</time>
      </trkpt>
      <trkpt lat="47.2395" lon="0.86937">
        <ele>84.54</ele>
        <time>2020-06-14T14:39:30Z</time>
      </trkpt>
      <trkpt lat="47.23973" lon="0.86953">
        <ele>84.56</ele>
        <time>2020-06-14T14:39:32Z</time>
      </trkpt>
      <trkpt lat="47.24021" lon="0.8698">
        <ele>83.37</ele>
        <time>2020-06-14T14:39:38Z</time>
      </trkpt>
      <trkpt lat="47.24035" lon="0.86968">
        <ele>83.51</ele>
        <time>2020-06-14T14:39:41Z</time>
      </trkpt>
      <trkpt lat="47.24056" lon="0.86957">
        <ele>85.03</ele>
        <time>2020-06-14T14:39:44Z</time>
      </trkpt>
      <trkpt lat="47.24089" lon="0.86927">
        <ele>85.8</ele>
        <time>2020-06-14T14:39:49Z</time>
      </trkpt>
      <trkpt lat="47.24143" lon="0.86845">
        <ele>83.85</ele>
        <time>2020-06-14T14:39:59Z</time>
      </trkpt>
      <trkpt lat="47.24226" lon="0.86732">
        <ele>85.77</ele>
        <time>2020-06-14T14:40:15Z</time>
      </trkpt>
      <trkpt lat="47.24215" lon="0.86602">
        <ele>85.14</ele>
        <time>2020-06-14T14:40:22Z</time>
      </trkpt>
      <trkpt lat="47.24219" lon="0.86574">
        <ele>84.1</ele>
        <time>2020-06-14T14:40:24Z</time>
      </trkpt>
      <trkpt lat="47.24259" lon="0.86499">
        <ele>81.4</ele>
        <time>2020-06-14T14:40:32Z</time>
      </trkpt>
      <trkpt lat="47.2427" lon="0.86511">
        <ele>81.41</ele>
        <time>2020-06-14T14:40:35Z</time>
      </trkpt>
      <trkpt lat="47.24314" lon="0.86575">
        <ele>84.48</ele>
        <time>2020-06-14T14:40:41Z</time>
      </trkpt>
      <trkpt lat="47.24507" lon="0.86848">
        <ele>86.5</ele>
        <time>2020-06-14T14:41:01Z</time>
      </trkpt>
      <trkpt lat="47.24569" lon="0.86935">
        <ele>89.59</ele>
        <time>2020-06-14T14:41:07Z</time>
      </trkpt>
      <trkpt lat="47.24726" lon="0.87154">
        <ele>85.64</ele>
        <time>2020-06-14T14:41:20Z</time>
      </trkpt>
      <trkpt lat="47.24763" lon="0.87208">
        <ele>85.57</ele>
        <time>2020-06-14T14:41:25Z</time>
      </trkpt>
      <trkpt lat="47.24768" lon="0.87229">
        <ele>84.22</ele>
        <time>2020-06-14T14:41:27Z</time>
      </trkpt>
      <trkpt lat="47.24756" lon="0.87312">
        <ele>87.32</ele>
        <time>2020-06-14T14:41:32Z</time>
      </trkpt>
      <trkpt lat="47.24732" lon="0.87388">
        <ele>89.3</ele>
        <time>2020-06-14T14:41:36Z</time>
      </trkpt>
      <trkpt lat="47.24699" lon="0.87469">
        <ele>86.27</ele>
        <time>2020-06-14T14:41:41Z</time>
      </trkpt>
      <trkpt lat="47.24668" lon="0.87538">
        <ele>83.17</ele>
        <time>2020-06-14T14:41:47Z</time>
      </trkpt>
      <trkpt lat="47.24664" lon="0.87547">
        <ele>83.14</ele>
        <time>2020-06-14T14:41:48Z</time>
      </trkpt>
      <trkpt lat="47.24658" lon="0.87565">
        <ele>82.27</ele>
        <time>2020-06-14T14:41:50Z</time>
      </trkpt>
      <trkpt lat="47.24658" lon="0.87629">
        <ele>81.41</ele>
        <time>2020-06-14T14:41:57Z</time>
      </trkpt>
      <trkpt lat="47.24639" lon="0.87744">
        <ele>80.73</ele>
        <time>2020-06-14T14:42:05Z</time>
      </trkpt>
      <trkpt lat="47.24634" lon="0.87786">
        <ele>79.51</ele>
        <time>2020-06-14T14:42:10Z</time>
      </trkpt>
      <trkpt lat="47.24637" lon="0.87799">
        <ele>80.55</ele>
        <time>2020-06-14T14:42:11Z</time>
      </trkpt>
      <trkpt lat="47.24635" lon="0.87854">
        <ele>82.42</ele>
        <time>2020-06-14T14:42:14Z</time>
      </trkpt>
      <trkpt lat="47.24629" lon="0.8791">
        <ele>79</ele>
        <time>2020-06-14T14:42:17Z</time>
      </trkpt>
      <trkpt lat="47.24636" lon="0.8794">
        <ele>78.21</ele>
        <time>2020-06-14T14:42:19Z</time>
      </trkpt>
      <trkpt lat="47.24655" lon="0.87969">
        <ele>78.71</ele>
        <time>2020-06-14T14:42:21Z</time>
      </trkpt>
      <trkpt lat="47.24698" lon="0.8802">
        <ele>75.21</ele>
        <time>2020-06-14T14:42:25Z</time>
      </trkpt>
      <trkpt lat="47.24706" lon="0.88028">
        <ele>73.62</ele>
        <time>2020-06-14T14:42:26Z</time>
      </trkpt>
      <trkpt lat="47.24733" lon="0.87995">
        <ele>71.94</ele>
        <time>2020-06-14T14:42:31Z</time>
      </trkpt>
      <trkpt lat="47.2476" lon="0.87807">
        <ele>70.28</ele>
        <time>2020-06-14T14:42:39Z</time>
      </trkpt>
      <trkpt lat="47.24779" lon="0.87742">
        <ele>66.27</ele>
        <time>2020-06-14T14:42:42Z</time>
      </trkpt>
      <trkpt lat="47.2479" lon="0.8764">
        <ele>61.46</ele>
        <time>2020-06-14T14:42:47Z</time>
      </trkpt>
      <trkpt lat="47.24792" lon="0.87614">
        <ele>57.72</ele>
        <time>2020-06-14T14:42:49Z</time>
      </trkpt>
      <trkpt lat="47.24798" lon="0.87601">
        <ele>56.03</ele>
        <time>2020-06-14T14:42:52Z</time>
      </trkpt>
      <trkpt lat="47.24803" lon="0.87601">
        <ele>56.51</ele>
        <time>2020-06-14T14:43:05Z</time>
      </trkpt>
      <trkpt lat="47.24883" lon="0.87599">
        <ele>60.39</ele>
        <time>2020-06-14T14:43:13Z</time>
      </trkpt>
      <trkpt lat="47.24978" lon="0.87614">
        <ele>56.89</ele>
        <time>2020-06-14T14:43:21Z</time>
      </trkpt>
      <trkpt lat="47.24988" lon="0.87618">
        <ele>56.66</ele>
        <time>2020-06-14T14:43:22Z</time>
      </trkpt>
      <trkpt lat="47.24997" lon="0.87621">
        <ele>56.15</ele>
        <time>2020-06-14T14:43:23Z</time>
      </trkpt>
      <trkpt lat="47.25021" lon="0.87587">
        <ele>57.16</ele>
        <time>2020-06-14T14:43:28Z</time>
      </trkpt>
      <trkpt lat="47.25027" lon="0.87557">
        <ele>60.7</ele>
        <time>2020-06-14T14:43:30Z</time>
      </trkpt>
      <trkpt lat="47.2504" lon="0.87492">
        <ele>59.87</ele>
        <time>2020-06-14T14:43:34Z</time>
      </trkpt>
      <trkpt lat="47.25094" lon="0.87424">
        <ele>63.77</ele>
        <time>2020-06-14T14:43:40Z</time>
      </trkpt>
      <trkpt lat="47.25132" lon="0.87384">
        <ele>67.68</ele>
        <time>2020-06-14T14:43:44Z</time>
      </trkpt>
      <trkpt lat="47.25141" lon="0.87375">
        <ele>66.88</ele>
        <time>2020-06-14T14:43:45Z</time>
      </trkpt>
      <trkpt lat="47.25165" lon="0.87349">
        <ele>67.03</ele>
        <time>2020-06-14T14:43:48Z</time>
      </trkpt>
      <trkpt lat="47.25179" lon="0.87354">
        <ele>68.35</ele>
        <time>2020-06-14T14:43:51Z</time>
      </trkpt>
      <trkpt lat="47.25172" lon="0.87388">
        <ele>71.89</ele>
        <time>2020-06-14T14:43:54Z</time>
      </trkpt>
      <trkpt lat="47.25166" lon="0.87401">
        <ele>71.82</ele>
        <time>2020-06-14T14:43:55Z</time>
      </trkpt>
      <trkpt lat="47.2514" lon="0.87461">
        <ele>74.97</ele>
        <time>2020-06-14T14:43:59Z</time>
      </trkpt>
      <trkpt lat="47.25126" lon="0.87495">
        <ele>76.41</ele>
        <time>2020-06-14T14:44:01Z</time>
      </trkpt>
      <trkpt lat="47.25113" lon="0.87551">
        <ele>77.84</ele>
        <time>2020-06-14T14:44:04Z</time>
      </trkpt>
      <trkpt lat="47.25095" lon="0.87672">
        <ele>77.95</ele>
        <time>2020-06-14T14:44:12Z</time>
      </trkpt>
      <trkpt lat="47.25129" lon="0.87696">
        <ele>80.23</ele>
        <time>2020-06-14T14:44:18Z</time>
      </trkpt>
      <trkpt lat="47.25185" lon="0.87705">
        <ele>83.38</ele>
        <time>2020-06-14T14:44:23Z</time>
      </trkpt>
      <trkpt lat="47.25198" lon="0.87706">
        <ele>83.65</ele>
        <time>2020-06-14T14:44:24Z</time>
      </trkpt>
      <trkpt lat="47.25311" lon="0.87745">
        <ele>86.85</ele>
        <time>2020-06-14T14:44:32Z</time>
      </trkpt>
      <trkpt lat="47.25455" lon="0.87913">
        <ele>85.11</ele>
        <time>2020-06-14T14:44:43Z</time>
      </trkpt>
      <trkpt lat="47.25473" lon="0.87935">
        <ele>81.32</ele>
        <time>2020-06-14T14:44:45Z</time>
      </trkpt>
      <trkpt lat="47.25483" lon="0.87956">
        <ele>80.44</ele>
        <time>2020-06-14T14:44:48Z</time>
      </trkpt>
      <trkpt lat="47.25424" lon="0.88107">
        <ele>87.59</ele>
        <time>2020-06-14T14:44:57Z</time>
      </trkpt>
      <trkpt lat="47.25293" lon="0.88439">
        <ele>90.78</ele>
        <time>2020-06-14T14:45:10Z</time>
      </trkpt>
      <trkpt lat="47.25222" lon="0.88621">
        <ele>86.87</ele>
        <time>2020-06-14T14:45:17Z</time>
      </trkpt>
      <trkpt lat="47.2518" lon="0.88731">
        <ele>87.54</ele>
        <time>2020-06-14T14:45:22Z</time>
      </trkpt>
      <trkpt lat="47.25082" lon="0.88981">
        <ele>81.55</ele>
        <time>2020-06-14T14:45:37Z</time>
      </trkpt>
      <trkpt lat="47.25091" lon="0.89028">
        <ele>81.31</ele>
        <time>2020-06-14T14:45:41Z</time>
      </trkpt>
      <trkpt lat="47.25108" lon="0.8911">
        <ele>85.47</ele>
        <time>2020-06-14T14:45:45Z</time>
      </trkpt>
      <trkpt lat="47.25115" lon="0.89161">
        <ele>86.59</ele>
        <time>2020-06-14T14:45:47Z</time>
      </trkpt>
      <trkpt lat="47.25136" lon="0.8935">
        <ele>82.01</ele>
        <time>2020-06-14T14:45:55Z</time>
      </trkpt>
      <trkpt lat="47.25137" lon="0.89363">
        <ele>81.93</ele>
        <time>2020-06-14T14:45:56Z</time>
      </trkpt>
      <trkpt lat="47.25112" lon="0.8942">
        <ele>86.36</ele>
        <time>2020-06-14T14:46:01Z</time>
      </trkpt>
      <trkpt lat="47.25068" lon="0.89502">
        <ele>88.69</ele>
        <time>2020-06-14T14:46:05Z</time>
      </trkpt>
      <trkpt lat="47.24878" lon="0.89861">
        <ele>83.18</ele>
        <time>2020-06-14T14:46:20Z</time>
      </trkpt>
      <trkpt lat="47.24861" lon="0.89892">
        <ele>80.16</ele>
        <time>2020-06-14T14:46:22Z</time>
      </trkpt>
      <trkpt lat="47.2485" lon="0.8991">
        <ele>79.16</ele>
        <time>2020-06-14T14:46:24Z</time>
      </trkpt>
      <trkpt lat="47.24785" lon="0.89806">
        <ele>84.39</ele>
        <time>2020-06-14T14:46:34Z</time>
      </trkpt>
      <trkpt lat="47.24755" lon="0.89757">
        <ele>82.96</ele>
        <time>2020-06-14T14:46:37Z</time>
      </trkpt>
      <trkpt lat="47.24649" lon="0.89666">
        <ele>79.34</ele>
        <time>2020-06-14T14:46:45Z</time>
      </trkpt>
      <trkpt lat="47.24637" lon="0.89657">
        <ele>79.19</ele>
        <time>2020-06-14T14:46:46Z</time>
      </trkpt>
      <trkpt lat="47.24569" lon="0.89603">
        <ele>83.78</ele>
        <time>2020-06-14T14:46:52Z</time>
      </trkpt>
      <trkpt lat="47.245" lon="0.8954">
        <ele>84.33</ele>
        <time>2020-06-14T14:46:57Z</time>
      </trkpt>
      <trkpt lat="47.24457" lon="0.89499">
        <ele>81.18</ele>
        <time>2020-06-14T14:47:01Z</time>
      </trkpt>
      <trkpt lat="47.2444" lon="0.89485">
        <ele>79.01</ele>
        <time>2020-06-14T14:47:04Z</time>
      </trkpt>
      <trkpt lat="47.24413" lon="0.89597">
        <ele>79.66</ele>
        <time>2020-06-14T14:47:14Z</time>
      </trkpt>
      <trkpt lat="47.24427" lon="0.89732">
        <ele>74.7</ele>
        <time>2020-06-14T14:47:20Z</time>
      </trkpt>
      <trkpt lat="47.24402" lon="0.89785">
        <ele>76.53</ele>
        <time>2020-06-14T14:47:23Z</time>
      </trkpt>
      <trkpt lat="47.2436" lon="0.89833">
        <ele>80.33</ele>
        <time>2020-06-14T14:47:26Z</time>
      </trkpt>
      <trkpt lat="47.24308" lon="0.8988">
        <ele>84.62</ele>
        <time>2020-06-14T14:47:29Z</time>
      </trkpt>
      <trkpt lat="47.24195" lon="0.90012">
        <ele>88.03</ele>
        <time>2020-06-14T14:47:36Z</time>
      </trkpt>
      <trkpt lat="47.24026" lon="0.90282">
        <ele>91.34</ele>
        <time>2020-06-14T14:47:48Z</time>
      </trkpt>
      <trkpt lat="47.23968" lon="0.90383">
        <ele>86.19</ele>
        <time>2020-06-14T14:47:53Z</time>
      </trkpt>
      <trkpt lat="47.23935" lon="0.90446">
        <ele>82.9</ele>
        <time>2020-06-14T14:47:57Z</time>
      </trkpt>
      <trkpt lat="47.23906" lon="0.90505">
        <ele>82.16</ele>
        <time>2020-06-14T14:48:02Z</time>
      </trkpt>
      <trkpt lat="47.23871" lon="0.90496">
        <ele>85.33</ele>
        <time>2020-06-14T14:48:09Z</time>
      </trkpt>
      <trkpt lat="47.23853" lon="0.90474">
        <ele>86.12</ele>
        <time>2020-06-14T14:48:11Z</time>
      </trkpt>
      <trkpt lat="47.23828" lon="0.90439">
        <ele>84.27</ele>
        <time>2020-06-14T14:48:14Z</time>
      </trkpt>
      <trkpt lat="47.23827" lon="0.90381">
        <ele>86.04</ele>
        <time>2020-06-14T14:48:18Z</time>
      </trkpt>
      <trkpt lat="47.23829" lon="0.90365">
        <ele>85.82</ele>
        <time>2020-06-14T14:48:19Z</time>
      </trkpt>
      <trkpt lat="47.23832" lon="0.90341">
        <ele>82.14</ele>
        <time>2020-06-14T14:48:21Z</time>
      </trkpt>
      <trkpt lat="47.23831" lon="0.90333">
        <ele>82.51</ele>
        <time>2020-06-14T14:48:22Z</time>
      </trkpt>
      <trkpt lat="47.23812" lon="0.90319">
        <ele>84.8</ele>
        <time>2020-06-14T14:48:25Z</time>
      </trkpt>
      <trkpt lat="47.23725" lon="0.90276">
        <ele>87.1</ele>
        <time>2020-06-14T14:48:32Z</time>
      </trkpt>
      <trkpt lat="47.23696" lon="0.90262">
        <ele>82.68</ele>
        <time>2020-06-14T14:48:34Z</time>
      </trkpt>
      <trkpt lat="47.23652" lon="0.9024">
        <ele>79.25</ele>
        <time>2020-06-14T14:48:37Z</time>
      </trkpt>
      <trkpt lat="47.23611" lon="0.90219">
        <ele>75.36</ele>
        <time>2020-06-14T14:48:40Z</time>
      </trkpt>
      <trkpt lat="47.23572" lon="0.90198">
        <ele>70.53</ele>
        <time>2020-06-14T14:48:43Z</time>
      </trkpt>
      <trkpt lat="47.23546" lon="0.90185">
        <ele>67.05</ele>
        <time>2020-06-14T14:48:45Z</time>
      </trkpt>
      <trkpt lat="47.2352" lon="0.90171">
        <ele>62.85</ele>
        <time>2020-06-14T14:48:47Z</time>
      </trkpt>
      <trkpt lat="47.23495" lon="0.90157">
        <ele>59.14</ele>
        <time>2020-06-14T14:48:49Z</time>
      </trkpt>
      <trkpt lat="47.23464" lon="0.90132">
        <ele>54.77</ele>
        <time>2020-06-14T14:48:52Z</time>
      </trkpt>
      <trkpt lat="47.23445" lon="0.9012">
        <ele>55.04</ele>
        <time>2020-06-14T14:48:54Z</time>
      </trkpt>
      <trkpt lat="47.23386" lon="0.9009">
        <ele>51.72</ele>
        <time>2020-06-14T14:49:00Z</time>
      </trkpt>
      <trkpt lat="47.23376" lon="0.90093">
        <ele>50.95</ele>
        <time>2020-06-14T14:49:02Z</time>
      </trkpt>
      <trkpt lat="47.23369" lon="0.90107">
        <ele>51.74</ele>
        <time>2020-06-14T14:49:04Z</time>
      </trkpt>
      <trkpt lat="47.23322" lon="0.90235">
        <ele>56.85</ele>
        <time>2020-06-14T14:49:11Z</time>
      </trkpt>
      <trkpt lat="47.23158" lon="0.90843">
        <ele>55.48</ele>
        <time>2020-06-14T14:49:42Z</time>
      </trkpt>
      <trkpt lat="47.23125" lon="0.91001">
        <ele>57.38</ele>
        <time>2020-06-14T14:49:50Z</time>
      </trkpt>
      <trkpt lat="47.23085" lon="0.91107">
        <ele>54.45</ele>
        <time>2020-06-14T14:49:57Z</time>
      </trkpt>
      <trkpt lat="47.23037" lon="0.91204">
        <ele>53.7</ele>
        <time>2020-06-14T14:50:11Z</time>
      </trkpt>
      <trkpt lat="47.2293" lon="0.91457">
        <ele>54.99</ele>
        <time>2020-06-14T14:50:29Z</time>
      </trkpt>
      <trkpt lat="47.22926" lon="0.91516">
        <ele>54.9</ele>
        <time>2020-06-14T14:50:33Z</time>
      </trkpt>
      <trkpt lat="47.22925" lon="0.91528">
        <ele>54.9</ele>
        <time>2020-06-14T14:50:34Z</time>
      </trkpt>
      <trkpt lat="47.22918" lon="0.91587">
        <ele>54.17</ele>
        <time>2020-06-14T14:50:42Z</time>
      </trkpt>
      <trkpt lat="47.22941" lon="0.91598">
        <ele>55.48</ele>
        <time>2020-06-14T14:50:46Z</time>
      </trkpt>
      <trkpt lat="47.22951" lon="0.91601">
        <ele>55.67</ele>
        <time>2020-06-14T14:50:47Z</time>
      </trkpt>
      <trkpt lat="47.23004" lon="0.91613">
        <ele>59.1</ele>
        <time>2020-06-14T14:50:51Z</time>
      </trkpt>
      <trkpt lat="47.2315" lon="0.91645">
        <ele>55.93</ele>
        <time>2020-06-14T14:51:02Z</time>
      </trkpt>
      <trkpt lat="47.23158" lon="0.91653">
        <ele>54.3</ele>
        <time>2020-06-14T14:51:04Z</time>
      </trkpt>
      <trkpt lat="47.23179" lon="0.9165">
        <ele>55.86</ele>
        <time>2020-06-14T14:51:12Z</time>
      </trkpt>
      <trkpt lat="47.23215" lon="0.91658">
        <ele>57.85</ele>
        <time>2020-06-14T14:51:16Z</time>
      </trkpt>
      <trkpt lat="47.23242" lon="0.91798">
        <ele>61.25</ele>
        <time>2020-06-14T14:51:26Z</time>
      </trkpt>
      <trkpt lat="47.23239" lon="0.91815">
        <ele>61.32</ele>
        <time>2020-06-14T14:51:27Z</time>
      </trkpt>
      <trkpt lat="47.2317" lon="0.92033">
        <ele>61.8</ele>
        <time>2020-06-14T14:51:37Z</time>
      </trkpt>
      <trkpt lat="47.22944" lon="0.92718">
        <ele>62.57</ele>
        <time>2020-06-14T14:52:01Z</time>
      </trkpt>
      <trkpt lat="47.22934" lon="0.92748">
        <ele>66.33</ele>
        <time>2020-06-14T14:52:02Z</time>
      </trkpt>
      <trkpt lat="47.22924" lon="0.92778">
        <ele>66.07</ele>
        <time>2020-06-14T14:52:03Z</time>
      </trkpt>
      <trkpt lat="47.22795" lon="0.93174">
        <ele>65.82</ele>
        <time>2020-06-14T14:52:17Z</time>
      </trkpt>
      <trkpt lat="47.22761" lon="0.93238">
        <ele>62.8</ele>
        <time>2020-06-14T14:52:20Z</time>
      </trkpt>
      <trkpt lat="47.22684" lon="0.93309">
        <ele>62.43</ele>
        <time>2020-06-14T14:52:25Z</time>
      </trkpt>
      <trkpt lat="47.22569" lon="0.9338">
        <ele>64.84</ele>
        <time>2020-06-14T14:52:31Z</time>
      </trkpt>
      <trkpt lat="47.22552" lon="0.93396">
        <ele>64.37</ele>
        <time>2020-06-14T14:52:32Z</time>
      </trkpt>
      <trkpt lat="47.225" lon="0.93464">
        <ele>58.11</ele>
        <time>2020-06-14T14:52:37Z</time>
      </trkpt>
      <trkpt lat="47.22297" lon="0.93787">
        <ele>60.22</ele>
        <time>2020-06-14T14:53:00Z</time>
      </trkpt>
      <trkpt lat="47.2228" lon="0.94027">
        <ele>60.22</ele>
        <time>2020-06-14T14:53:12Z</time>
      </trkpt>
      <trkpt lat="47.22308" lon="0.94112">
        <ele>59.02</ele>
        <time>2020-06-14T14:53:17Z</time>
      </trkpt>
      <trkpt lat="47.22283" lon="0.94141">
        <ele>57.95</ele>
        <time>2020-06-14T14:53:24Z</time>
      </trkpt>
      <trkpt lat="47.22262" lon="0.94134">
        <ele>59.62</ele>
        <time>2020-06-14T14:53:26Z</time>
      </trkpt>
      <trkpt lat="47.22161" lon="0.9407">
        <ele>59.42</ele>
        <time>2020-06-14T14:53:35Z</time>
      </trkpt>
      <trkpt lat="47.22111" lon="0.94067">
        <ele>56.12</ele>
        <time>2020-06-14T14:53:40Z</time>
      </trkpt>
      <trkpt lat="47.22091" lon="0.94077">
        <ele>57.93</ele>
        <time>2020-06-14T14:53:42Z</time>
      </trkpt>
      <trkpt lat="47.22058" lon="0.94099">
        <ele>57.38</ele>
        <time>2020-06-14T14:53:45Z</time>
      </trkpt>
      <trkpt lat="47.21947" lon="0.94227">
        <ele>58.52</ele>
        <time>2020-06-14T14:53:56Z</time>
      </trkpt>
      <trkpt lat="47.21856" lon="0.94327">
        <ele>56.95</ele>
        <time>2020-06-14T14:54:04Z</time>
      </trkpt>
      <trkpt lat="47.21575" lon="0.94652">
        <ele>54.75</ele>
        <time>2020-06-14T14:54:31Z</time>
      </trkpt>
      <trkpt lat="47.2157" lon="0.94657">
        <ele>55.18</ele>
        <time>2020-06-14T14:54:32Z</time>
      </trkpt>
      <trkpt lat="47.21493" lon="0.94742">
        <ele>57.08</ele>
        <time>2020-06-14T14:54:51Z</time>
      </trkpt>
      <trkpt lat="47.21414" lon="0.94852">
        <ele>56.8</ele>
        <time>2020-06-14T14:55:00Z</time>
      </trkpt>
      <trkpt lat="47.2125" lon="0.95061">
        <ele>54.66</ele>
        <time>2020-06-14T14:55:24Z</time>
      </trkpt>
      <trkpt lat="47.21248" lon="0.95065">
        <ele>54.6</ele>
        <time>2020-06-14T14:55:25Z</time>
      </trkpt>
      <trkpt lat="47.21251" lon="0.95094">
        <ele>57.35</ele>
        <time>2020-06-14T14:55:28Z</time>
      </trkpt>
      <trkpt lat="47.21262" lon="0.95162">
        <ele>61.65</ele>
        <time>2020-06-14T14:55:32Z</time>
      </trkpt>
      <trkpt lat="47.21273" lon="0.95202">
        <ele>64.87</ele>
        <time>2020-06-14T14:55:34Z</time>
      </trkpt>
      <trkpt lat="47.21289" lon="0.9524">
        <ele>68.01</ele>
        <time>2020-06-14T14:55:36Z</time>
      </trkpt>
      <trkpt lat="47.21335" lon="0.95311">
        <ele>75.01</ele>
        <time>2020-06-14T14:55:40Z</time>
      </trkpt>
      <trkpt lat="47.21379" lon="0.95372">
        <ele>73.92</ele>
        <time>2020-06-14T14:55:45Z</time>
      </trkpt>
      <trkpt lat="47.21386" lon="0.95419">
        <ele>76.25</ele>
        <time>2020-06-14T14:55:51Z</time>
      </trkpt>
      <trkpt lat="47.21306" lon="0.95418">
        <ele>76.07</ele>
        <time>2020-06-14T14:56:01Z</time>
      </trkpt>
      <trkpt lat="47.2123" lon="0.95424">
        <ele>72.99</ele>
        <time>2020-06-14T14:56:11Z</time>
      </trkpt>
      <trkpt lat="47.21216" lon="0.95459">
        <ele>73.88</ele>
        <time>2020-06-14T14:56:14Z</time>
      </trkpt>
      <trkpt lat="47.2117" lon="0.95636">
        <ele>69.91</ele>
        <time>2020-06-14T14:56:24Z</time>
      </trkpt>
      <trkpt lat="47.21156" lon="0.95691">
        <ele>66.37</ele>
        <time>2020-06-14T14:56:27Z</time>
      </trkpt>
      <trkpt lat="47.21147" lon="0.95724">
        <ele>63.21</ele>
        <time>2020-06-14T14:56:29Z</time>
      </trkpt>
      <trkpt lat="47.21137" lon="0.95766">
        <ele>59.98</ele>
        <time>2020-06-14T14:56:32Z</time>
      </trkpt>
      <trkpt lat="47.21134" lon="0.95779">
        <ele>59.73</ele>
        <time>2020-06-14T14:56:33Z</time>
      </trkpt>
      <trkpt lat="47.21152" lon="0.96018">
        <ele>59.67</ele>
        <time>2020-06-14T14:56:48Z</time>
      </trkpt>
      <trkpt lat="47.21117" lon="0.96208">
        <ele>58.92</ele>
        <time>2020-06-14T14:57:00Z</time>
      </trkpt>
      <trkpt lat="47.2107" lon="0.96436">
        <ele>62.82</ele>
        <time>2020-06-14T14:57:12Z</time>
      </trkpt>
      <trkpt lat="47.21061" lon="0.96696">
        <ele>63.95</ele>
        <time>2020-06-14T14:57:24Z</time>
      </trkpt>
      <trkpt lat="47.21055" lon="0.96809">
        <ele>62.98</ele>
        <time>2020-06-14T14:57:31Z</time>
      </trkpt>
      <trkpt lat="47.21051" lon="0.96825">
        <ele>62.84</ele>
        <time>2020-06-14T14:57:32Z</time>
      </trkpt>
      <trkpt lat="47.21028" lon="0.9692">
        <ele>58.05</ele>
        <time>2020-06-14T14:57:39Z</time>
      </trkpt>
      <trkpt lat="47.21024" lon="0.96923">
        <ele>58.15</ele>
        <time>2020-06-14T14:57:40Z</time>
      </trkpt>
      <trkpt lat="47.20913" lon="0.9686">
        <ele>61.95</ele>
        <time>2020-06-14T14:57:51Z</time>
      </trkpt>
      <trkpt lat="47.20765" lon="0.96793">
        <ele>58.76</ele>
        <time>2020-06-14T14:58:04Z</time>
      </trkpt>
      <trkpt lat="47.20757" lon="0.96782">
        <ele>58.86</ele>
        <time>2020-06-14T14:58:05Z</time>
      </trkpt>
      <trkpt lat="47.20712" lon="0.96716">
        <ele>59.31</ele>
        <time>2020-06-14T14:58:11Z</time>
      </trkpt>
      <trkpt lat="47.20653" lon="0.96717">
        <ele>58.67</ele>
        <time>2020-06-14T14:58:24Z</time>
      </trkpt>
      <trkpt lat="47.20626" lon="0.96779">
        <ele>59.24</ele>
        <time>2020-06-14T14:58:30Z</time>
      </trkpt>
      <trkpt lat="47.20599" lon="0.96824">
        <ele>62.32</ele>
        <time>2020-06-14T14:58:34Z</time>
      </trkpt>
      <trkpt lat="47.20545" lon="0.96951">
        <ele>62.96</ele>
        <time>2020-06-14T14:58:48Z</time>
      </trkpt>
      <trkpt lat="47.20507" lon="0.96951">
        <ele>66.3</ele>
        <time>2020-06-14T14:58:52Z</time>
      </trkpt>
      <trkpt lat="47.20444" lon="0.9694">
        <ele>69.38</ele>
        <time>2020-06-14T14:58:58Z</time>
      </trkpt>
      <trkpt lat="47.20411" lon="0.96947">
        <ele>72.96</ele>
        <time>2020-06-14T14:59:01Z</time>
      </trkpt>
      <trkpt lat="47.204" lon="0.96952">
        <ele>74</ele>
        <time>2020-06-14T14:59:02Z</time>
      </trkpt>
      <trkpt lat="47.20362" lon="0.9697">
        <ele>77.14</ele>
        <time>2020-06-14T14:59:06Z</time>
      </trkpt>
      <trkpt lat="47.20353" lon="0.96974">
        <ele>77.16</ele>
        <time>2020-06-14T14:59:07Z</time>
      </trkpt>
      <trkpt lat="47.20311" lon="0.96989">
        <ele>80.32</ele>
        <time>2020-06-14T14:59:12Z</time>
      </trkpt>
      <trkpt lat="47.20303" lon="0.96992">
        <ele>80.59</ele>
        <time>2020-06-14T14:59:13Z</time>
      </trkpt>
      <trkpt lat="47.20241" lon="0.97017">
        <ele>83.76</ele>
        <time>2020-06-14T14:59:21Z</time>
      </trkpt>
      <trkpt lat="47.20046" lon="0.97183">
        <ele>84.87</ele>
        <time>2020-06-14T14:59:44Z</time>
      </trkpt>
      <trkpt lat="47.19971" lon="0.97259">
        <ele>85.39</ele>
        <time>2020-06-14T14:59:53Z</time>
      </trkpt>
      <trkpt lat="47.19899" lon="0.97401">
        <ele>90.06</ele>
        <time>2020-06-14T15:00:04Z</time>
      </trkpt>
      <trkpt lat="47.19808" lon="0.97601">
        <ele>94.72</ele>
        <time>2020-06-14T15:00:17Z</time>
      </trkpt>
      <trkpt lat="47.19743" lon="0.97809">
        <ele>93.24</ele>
        <time>2020-06-14T15:00:28Z</time>
      </trkpt>
      <trkpt lat="47.1973" lon="0.97851">
        <ele>93.88</ele>
        <time>2020-06-14T15:00:31Z</time>
      </trkpt>
      <trkpt lat="47.19632" lon="0.98022">
        <ele>95.49</ele>
        <time>2020-06-14T15:00:43Z</time>
      </trkpt>
      <trkpt lat="47.19591" lon="0.98059">
        <ele>98.76</ele>
        <time>2020-06-14T15:00:46Z</time>
      </trkpt>
      <trkpt lat="47.19549" lon="0.98105">
        <ele>96.53</ele>
        <time>2020-06-14T15:00:50Z</time>
      </trkpt>
      <trkpt lat="47.19457" lon="0.98371">
        <ele>94.03</ele>
        <time>2020-06-14T15:01:04Z</time>
      </trkpt>
      <trkpt lat="47.19419" lon="0.98428">
        <ele>92.62</ele>
        <time>2020-06-14T15:01:09Z</time>
      </trkpt>
      <trkpt lat="47.1939" lon="0.98479">
        <ele>90.61</ele>
        <time>2020-06-14T15:01:13Z</time>
      </trkpt>
      <trkpt lat="47.19338" lon="0.98578">
        <ele>88.46</ele>
        <time>2020-06-14T15:01:21Z</time>
      </trkpt>
      <trkpt lat="47.19331" lon="0.98586">
        <ele>88.29</ele>
        <time>2020-06-14T15:01:22Z</time>
      </trkpt>
      <trkpt lat="47.19246" lon="0.98628">
        <ele>91.49</ele>
        <time>2020-06-14T15:01:30Z</time>
      </trkpt>
      <trkpt lat="47.19137" lon="0.98687">
        <ele>95.58</ele>
        <time>2020-06-14T15:01:39Z</time>
      </trkpt>
      <trkpt lat="47.19126" lon="0.98694">
        <ele>95.69</ele>
        <time>2020-06-14T15:01:40Z</time>
      </trkpt>
      <trkpt lat="47.19089" lon="0.98714">
        <ele>99.09</ele>
        <time>2020-06-14T15:01:43Z</time>
      </trkpt>
      <trkpt lat="47.19058" lon="0.98735">
        <ele>97.01</ele>
        <time>2020-06-14T15:01:46Z</time>
      </trkpt>
      <trkpt lat="47.19035" lon="0.98746">
        <ele>96.6</ele>
        <time>2020-06-14T15:01:55Z</time>
      </trkpt>
      <trkpt lat="47.191" lon="0.9877">
        <ele>102.47</ele>
        <time>2020-06-14T15:02:04Z</time>
      </trkpt>
      <trkpt lat="47.19216" lon="0.98784">
        <ele>102.58</ele>
        <time>2020-06-14T15:02:11Z</time>
      </trkpt>
      <trkpt lat="47.19261" lon="0.98789">
        <ele>98.88</ele>
        <time>2020-06-14T15:02:14Z</time>
      </trkpt>
      <trkpt lat="47.19283" lon="0.98792">
        <ele>95.73</ele>
        <time>2020-06-14T15:02:16Z</time>
      </trkpt>
      <trkpt lat="47.19307" lon="0.9881">
        <ele>94.2</ele>
        <time>2020-06-14T15:02:19Z</time>
      </trkpt>
      <trkpt lat="47.19312" lon="0.98841">
        <ele>96.12</ele>
        <time>2020-06-14T15:02:21Z</time>
      </trkpt>
      <trkpt lat="47.19318" lon="0.98885">
        <ele>99.6</ele>
        <time>2020-06-14T15:02:23Z</time>
      </trkpt>
      <trkpt lat="47.19322" lon="0.98909">
        <ele>99.88</ele>
        <time>2020-06-14T15:02:24Z</time>
      </trkpt>
      <trkpt lat="47.19333" lon="0.9899">
        <ele>103.5</ele>
        <time>2020-06-14T15:02:27Z</time>
      </trkpt>
      <trkpt lat="47.19378" lon="0.99292">
        <ele>101.1</ele>
        <time>2020-06-14T15:02:37Z</time>
      </trkpt>
      <trkpt lat="47.1944" lon="0.99437">
        <ele>97.38</ele>
        <time>2020-06-14T15:02:43Z</time>
      </trkpt>
      <trkpt lat="47.19489" lon="0.99497">
        <ele>93.81</ele>
        <time>2020-06-14T15:02:46Z</time>
      </trkpt>
      <trkpt lat="47.19507" lon="0.99517">
        <ele>93.69</ele>
        <time>2020-06-14T15:02:47Z</time>
      </trkpt>
      <trkpt lat="47.1956" lon="0.99577">
        <ele>89.27</ele>
        <time>2020-06-14T15:02:50Z</time>
      </trkpt>
      <trkpt lat="47.19597" lon="0.99618">
        <ele>85.44</ele>
        <time>2020-06-14T15:02:52Z</time>
      </trkpt>
      <trkpt lat="47.1967" lon="0.99698">
        <ele>82.2</ele>
        <time>2020-06-14T15:02:56Z</time>
      </trkpt>
      <trkpt lat="47.19773" lon="0.99813">
        <ele>77.83</ele>
        <time>2020-06-14T15:03:02Z</time>
      </trkpt>
      <trkpt lat="47.19816" lon="0.99865">
        <ele>74.4</ele>
        <time>2020-06-14T15:03:05Z</time>
      </trkpt>
      <trkpt lat="47.19828" lon="0.99885">
        <ele>74.58</ele>
        <time>2020-06-14T15:03:06Z</time>
      </trkpt>
      <trkpt lat="47.1986" lon="0.9998">
        <ele>71.23</ele>
        <time>2020-06-14T15:03:10Z</time>
      </trkpt>
      <trkpt lat="47.19856" lon="1.00082">
        <ele>67.81</ele>
        <time>2020-06-14T15:03:14Z</time>
      </trkpt>
      <trkpt lat="47.1985" lon="1.00107">
        <ele>68.44</ele>
        <time>2020-06-14T15:03:15Z</time>
      </trkpt>
      <trkpt lat="47.19819" lon="1.00182">
        <ele>69.6</ele>
        <time>2020-06-14T15:03:18Z</time>
      </trkpt>
      <trkpt lat="47.19673" lon="1.00455">
        <ele>65.88</ele>
        <time>2020-06-14T15:03:29Z</time>
      </trkpt>
      <trkpt lat="47.19662" lon="1.00476">
        <ele>65.67</ele>
        <time>2020-06-14T15:03:30Z</time>
      </trkpt>
      <trkpt lat="47.19643" lon="1.0052">
        <ele>65.37</ele>
        <time>2020-06-14T15:03:32Z</time>
      </trkpt>
      <trkpt lat="47.19625" lon="1.00703">
        <ele>64.23</ele>
        <time>2020-06-14T15:03:39Z</time>
      </trkpt>
      <trkpt lat="47.19627" lon="1.00726">
        <ele>64.14</ele>
        <time>2020-06-14T15:03:40Z</time>
      </trkpt>
      <trkpt lat="47.19666" lon="1.01075">
        <ele>67.82</ele>
        <time>2020-06-14T15:03:55Z</time>
      </trkpt>
      <trkpt lat="47.19695" lon="1.01346">
        <ele>70.58</ele>
        <time>2020-06-14T15:04:03Z</time>
      </trkpt>
      <trkpt lat="47.19788" lon="1.01701">
        <ele>71.97</ele>
        <time>2020-06-14T15:04:14Z</time>
      </trkpt>
      <trkpt lat="47.19801" lon="1.0173">
        <ele>72.16</ele>
        <time>2020-06-14T15:04:15Z</time>
      </trkpt>
      <trkpt lat="47.19865" lon="1.01876">
        <ele>68.18</ele>
        <time>2020-06-14T15:04:20Z</time>
      </trkpt>
      <trkpt lat="47.19946" lon="1.02111">
        <ele>67.93</ele>
        <time>2020-06-14T15:04:28Z</time>
      </trkpt>
      <trkpt lat="47.19963" lon="1.02241">
        <ele>62.62</ele>
        <time>2020-06-14T15:04:33Z</time>
      </trkpt>
      <trkpt lat="47.19968" lon="1.02293">
        <ele>61.32</ele>
        <time>2020-06-14T15:04:40Z</time>
      </trkpt>
      <trkpt lat="47.19971" lon="1.02301">
        <ele>61.8</ele>
        <time>2020-06-14T15:04:46Z</time>
      </trkpt>
      <trkpt lat="47.19996" lon="1.02296">
        <ele>63.33</ele>
        <time>2020-06-14T15:04:50Z</time>
      </trkpt>
      <trkpt lat="47.20006" lon="1.0229">
        <ele>64.71</ele>
        <time>2020-06-14T15:04:51Z</time>
      </trkpt>
      <trkpt lat="47.20087" lon="1.02258">
        <ele>68.47</ele>
        <time>2020-06-14T15:04:57Z</time>
      </trkpt>
      <trkpt lat="47.20102" lon="1.02254">
        <ele>68.57</ele>
        <time>2020-06-14T15:04:58Z</time>
      </trkpt>
      <trkpt lat="47.20254" lon="1.02268">
        <ele>72.64</ele>
        <time>2020-06-14T15:05:07Z</time>
      </trkpt>
      <trkpt lat="47.20305" lon="1.0235">
        <ele>76.67</ele>
        <time>2020-06-14T15:05:12Z</time>
      </trkpt>
      <trkpt lat="47.20311" lon="1.02371">
        <ele>78.31</ele>
        <time>2020-06-14T15:05:13Z</time>
      </trkpt>
      <trkpt lat="47.20333" lon="1.02465">
        <ele>83.95</ele>
        <time>2020-06-14T15:05:17Z</time>
      </trkpt>
      <trkpt lat="47.20339" lon="1.02488">
        <ele>83.79</ele>
        <time>2020-06-14T15:05:18Z</time>
      </trkpt>
      <trkpt lat="47.2035" lon="1.02528">
        <ele>84.57</ele>
        <time>2020-06-14T15:05:20Z</time>
      </trkpt>
      <trkpt lat="47.20379" lon="1.0257">
        <ele>87.75</ele>
        <time>2020-06-14T15:05:23Z</time>
      </trkpt>
      <trkpt lat="47.20391" lon="1.0258">
        <ele>89.65</ele>
        <time>2020-06-14T15:05:24Z</time>
      </trkpt>
      <trkpt lat="47.20429" lon="1.02612">
        <ele>93.43</ele>
        <time>2020-06-14T15:05:27Z</time>
      </trkpt>
      <trkpt lat="47.2044" lon="1.02623">
        <ele>93.18</ele>
        <time>2020-06-14T15:05:28Z</time>
      </trkpt>
      <trkpt lat="47.20468" lon="1.02704">
        <ele>94.26</ele>
        <time>2020-06-14T15:05:36Z</time>
      </trkpt>
      <trkpt lat="47.20461" lon="1.02714">
        <ele>95.74</ele>
        <time>2020-06-14T15:05:37Z</time>
      </trkpt>
      <trkpt lat="47.20447" lon="1.02761">
        <ele>99.08</ele>
        <time>2020-06-14T15:05:40Z</time>
      </trkpt>
      <trkpt lat="47.20445" lon="1.02782">
        <ele>100.85</ele>
        <time>2020-06-14T15:05:41Z</time>
      </trkpt>
      <trkpt lat="47.20429" lon="1.02968">
        <ele>100.27</ele>
        <time>2020-06-14T15:05:49Z</time>
      </trkpt>
      <trkpt lat="47.20426" lon="1.0302">
        <ele>99.11</ele>
        <time>2020-06-14T15:05:52Z</time>
      </trkpt>
      <trkpt lat="47.20423" lon="1.03066">
        <ele>97.92</ele>
        <time>2020-06-14T15:05:55Z</time>
      </trkpt>
      <trkpt lat="47.20386" lon="1.03155">
        <ele>93.79</ele>
        <time>2020-06-14T15:06:00Z</time>
      </trkpt>
      <trkpt lat="47.20371" lon="1.0319">
        <ele>88.29</ele>
        <time>2020-06-14T15:06:02Z</time>
      </trkpt>
      <trkpt lat="47.20351" lon="1.03231">
        <ele>84.37</ele>
        <time>2020-06-14T15:06:05Z</time>
      </trkpt>
      <trkpt lat="47.20338" lon="1.03254">
        <ele>82.63</ele>
        <time>2020-06-14T15:06:07Z</time>
      </trkpt>
      <trkpt lat="47.20313" lon="1.03278">
        <ele>79.43</ele>
        <time>2020-06-14T15:06:10Z</time>
      </trkpt>
      <trkpt lat="47.20302" lon="1.03283">
        <ele>78.6</ele>
        <time>2020-06-14T15:06:11Z</time>
      </trkpt>
      <trkpt lat="47.20259" lon="1.03305">
        <ele>75.27</ele>
        <time>2020-06-14T15:06:15Z</time>
      </trkpt>
      <trkpt lat="47.20238" lon="1.03325">
        <ele>74.46</ele>
        <time>2020-06-14T15:06:17Z</time>
      </trkpt>
      <trkpt lat="47.20193" lon="1.03386">
        <ele>72.39</ele>
        <time>2020-06-14T15:06:22Z</time>
      </trkpt>
      <trkpt lat="47.20126" lon="1.03485">
        <ele>67.17</ele>
        <time>2020-06-14T15:06:31Z</time>
      </trkpt>
      <trkpt lat="47.20116" lon="1.035">
        <ele>66.73</ele>
        <time>2020-06-14T15:06:33Z</time>
      </trkpt>
      <trkpt lat="47.2007" lon="1.03456">
        <ele>61.59</ele>
        <time>2020-06-14T15:06:42Z</time>
      </trkpt>
      <trkpt lat="47.19958" lon="1.0356">
        <ele>62.2</ele>
        <time>2020-06-14T15:07:00Z</time>
      </trkpt>
      <trkpt lat="47.19871" lon="1.03646">
        <ele>62.71</ele>
        <time>2020-06-14T15:07:10Z</time>
      </trkpt>
      <trkpt lat="47.19714" lon="1.03792">
        <ele>62.97</ele>
        <time>2020-06-14T15:07:32Z</time>
      </trkpt>
      <trkpt lat="47.19569" lon="1.03993">
        <ele>61.38</ele>
        <time>2020-06-14T15:07:53Z</time>
      </trkpt>
      <trkpt lat="47.19491" lon="1.04128">
        <ele>65.01</ele>
        <time>2020-06-14T15:08:04Z</time>
      </trkpt>
      <trkpt lat="47.19466" lon="1.04176">
        <ele>62.68</ele>
        <time>2020-06-14T15:08:08Z</time>
      </trkpt>
      <trkpt lat="47.19445" lon="1.04241">
        <ele>64.29</ele>
        <time>2020-06-14T15:08:13Z</time>
      </trkpt>
      <trkpt lat="47.19395" lon="1.04384">
        <ele>62.27</ele>
        <time>2020-06-14T15:08:24Z</time>
      </trkpt>
      <trkpt lat="47.19422" lon="1.0443">
        <ele>65.69</ele>
        <time>2020-06-14T15:08:31Z</time>
      </trkpt>
      <trkpt lat="47.19441" lon="1.0445">
        <ele>68.97</ele>
        <time>2020-06-14T15:08:33Z</time>
      </trkpt>
      <trkpt lat="47.19527" lon="1.04538">
        <ele>72.49</ele>
        <time>2020-06-14T15:08:40Z</time>
      </trkpt>
      <trkpt lat="47.19578" lon="1.04591">
        <ele>76.6</ele>
        <time>2020-06-14T15:08:44Z</time>
      </trkpt>
      <trkpt lat="47.19656" lon="1.04674">
        <ele>79.47</ele>
        <time>2020-06-14T15:08:53Z</time>
      </trkpt>
      <trkpt lat="47.19645" lon="1.04705">
        <ele>80.68</ele>
        <time>2020-06-14T15:08:57Z</time>
      </trkpt>
      <trkpt lat="47.19636" lon="1.04715">
        <ele>81.97</ele>
        <time>2020-06-14T15:08:58Z</time>
      </trkpt>
      <trkpt lat="47.19542" lon="1.04812">
        <ele>78.23</ele>
        <time>2020-06-14T15:09:05Z</time>
      </trkpt>
      <trkpt lat="47.19504" lon="1.04857">
        <ele>74.85</ele>
        <time>2020-06-14T15:09:08Z</time>
      </trkpt>
      <trkpt lat="47.19493" lon="1.04873">
        <ele>73.7</ele>
        <time>2020-06-14T15:09:09Z</time>
      </trkpt>
      <trkpt lat="47.19445" lon="1.04953">
        <ele>70.36</ele>
        <time>2020-06-14T15:09:14Z</time>
      </trkpt>
      <trkpt lat="47.19407" lon="1.05008">
        <ele>67.81</ele>
        <time>2020-06-14T15:09:18Z</time>
      </trkpt>
      <trkpt lat="47.19383" lon="1.05061">
        <ele>64.55</ele>
        <time>2020-06-14T15:09:22Z</time>
      </trkpt>
      <trkpt lat="47.19377" lon="1.0507">
        <ele>64.77</ele>
        <time>2020-06-14T15:09:23Z</time>
      </trkpt>
      <trkpt lat="47.19351" lon="1.05077">
        <ele>64.55</ele>
        <time>2020-06-14T15:09:26Z</time>
      </trkpt>
      <trkpt lat="47.1934" lon="1.05076">
        <ele>65.19</ele>
        <time>2020-06-14T15:09:27Z</time>
      </trkpt>
      <trkpt lat="47.19292" lon="1.05099">
        <ele>67.26</ele>
        <time>2020-06-14T15:09:31Z</time>
      </trkpt>
      <trkpt lat="47.19224" lon="1.05147">
        <ele>63.99</ele>
        <time>2020-06-14T15:09:37Z</time>
      </trkpt>
      <trkpt lat="47.19215" lon="1.05153">
        <ele>63.77</ele>
        <time>2020-06-14T15:09:38Z</time>
      </trkpt>
      <trkpt lat="47.19193" lon="1.0526">
        <ele>66.81</ele>
        <time>2020-06-14T15:09:49Z</time>
      </trkpt>
      <trkpt lat="47.19201" lon="1.0527">
        <ele>67.84</ele>
        <time>2020-06-14T15:09:50Z</time>
      </trkpt>
      <trkpt lat="47.19234" lon="1.05327">
        <ele>70.66</ele>
        <time>2020-06-14T15:09:55Z</time>
      </trkpt>
      <trkpt lat="47.19242" lon="1.05372">
        <ele>74.57</ele>
        <time>2020-06-14T15:09:58Z</time>
      </trkpt>
      <trkpt lat="47.19234" lon="1.05421">
        <ele>78.29</ele>
        <time>2020-06-14T15:10:01Z</time>
      </trkpt>
      <trkpt lat="47.19216" lon="1.05495">
        <ele>77.83</ele>
        <time>2020-06-14T15:10:07Z</time>
      </trkpt>
      <trkpt lat="47.19237" lon="1.05504">
        <ele>80.14</ele>
        <time>2020-06-14T15:10:11Z</time>
      </trkpt>
      <trkpt lat="47.19246" lon="1.05504">
        <ele>80.29</ele>
        <time>2020-06-14T15:10:12Z</time>
      </trkpt>
      <trkpt lat="47.19317" lon="1.05519">
        <ele>77.15</ele>
        <time>2020-06-14T15:10:20Z</time>
      </trkpt>
      <trkpt lat="47.19408" lon="1.05556">
        <ele>76.63</ele>
        <time>2020-06-14T15:10:30Z</time>
      </trkpt>
      <trkpt lat="47.19479" lon="1.05581">
        <ele>73.61</ele>
        <time>2020-06-14T15:10:36Z</time>
      </trkpt>
      <trkpt lat="47.19526" lon="1.05597">
        <ele>70.45</ele>
        <time>2020-06-14T15:10:40Z</time>
      </trkpt>
      <trkpt lat="47.19538" lon="1.05602">
        <ele>70.82</ele>
        <time>2020-06-14T15:10:41Z</time>
      </trkpt>
      <trkpt lat="47.19637" lon="1.0566">
        <ele>77.04</ele>
        <time>2020-06-14T15:10:49Z</time>
      </trkpt>
      <trkpt lat="47.19713" lon="1.05705">
        <ele>76.02</ele>
        <time>2020-06-14T15:10:56Z</time>
      </trkpt>
      <trkpt lat="47.19706" lon="1.05765">
        <ele>77.91</ele>
        <time>2020-06-14T15:11:04Z</time>
      </trkpt>
      <trkpt lat="47.19695" lon="1.05794">
        <ele>78.65</ele>
        <time>2020-06-14T15:11:06Z</time>
      </trkpt>
      <trkpt lat="47.19547" lon="1.06035">
        <ele>83.82</ele>
        <time>2020-06-14T15:11:26Z</time>
      </trkpt>
      <trkpt lat="47.19352" lon="1.06186">
        <ele>89.44</ele>
        <time>2020-06-14T15:11:39Z</time>
      </trkpt>
      <trkpt lat="47.19338" lon="1.06204">
        <ele>88.59</ele>
        <time>2020-06-14T15:11:40Z</time>
      </trkpt>
      <trkpt lat="47.19303" lon="1.06253">
        <ele>86.85</ele>
        <time>2020-06-14T15:11:43Z</time>
      </trkpt>
      <trkpt lat="47.19271" lon="1.06332">
        <ele>82.58</ele>
        <time>2020-06-14T15:11:48Z</time>
      </trkpt>
      <trkpt lat="47.19265" lon="1.06359">
        <ele>80.83</ele>
        <time>2020-06-14T15:11:51Z</time>
      </trkpt>
      <trkpt lat="47.19279" lon="1.06381">
        <ele>80</ele>
        <time>2020-06-14T15:11:54Z</time>
      </trkpt>
      <trkpt lat="47.19307" lon="1.06409">
        <ele>75.52</ele>
        <time>2020-06-14T15:11:58Z</time>
      </trkpt>
      <trkpt lat="47.19338" lon="1.06401">
        <ele>71.45</ele>
        <time>2020-06-14T15:12:02Z</time>
      </trkpt>
      <trkpt lat="47.19346" lon="1.06396">
        <ele>71.32</ele>
        <time>2020-06-14T15:12:03Z</time>
      </trkpt>
      <trkpt lat="47.19386" lon="1.06364">
        <ele>67.86</ele>
        <time>2020-06-14T15:12:08Z</time>
      </trkpt>
      <trkpt lat="47.19392" lon="1.06359">
        <ele>67.93</ele>
        <time>2020-06-14T15:12:09Z</time>
      </trkpt>
      <trkpt lat="47.19416" lon="1.06368">
        <ele>67.1</ele>
        <time>2020-06-14T15:12:13Z</time>
      </trkpt>
      <trkpt lat="47.19437" lon="1.06391">
        <ele>66.36</ele>
        <time>2020-06-14T15:12:16Z</time>
      </trkpt>
      <trkpt lat="47.19505" lon="1.06445">
        <ele>69.56</ele>
        <time>2020-06-14T15:12:22Z</time>
      </trkpt>
      <trkpt lat="47.19577" lon="1.06497">
        <ele>70.87</ele>
        <time>2020-06-14T15:12:27Z</time>
      </trkpt>
      <trkpt lat="47.19682" lon="1.06514">
        <ele>69.96</ele>
        <time>2020-06-14T15:12:40Z</time>
      </trkpt>
      <trkpt lat="47.1971" lon="1.06547">
        <ele>75.61</ele>
        <time>2020-06-14T15:12:44Z</time>
      </trkpt>
      <trkpt lat="47.1973" lon="1.06573">
        <ele>79.46</ele>
        <time>2020-06-14T15:12:46Z</time>
      </trkpt>
      <trkpt lat="47.19752" lon="1.06602">
        <ele>84.36</ele>
        <time>2020-06-14T15:12:48Z</time>
      </trkpt>
      <trkpt lat="47.19764" lon="1.06618">
        <ele>89.44</ele>
        <time>2020-06-14T15:12:49Z</time>
      </trkpt>
      <trkpt lat="47.1979" lon="1.0665">
        <ele>92.44</ele>
        <time>2020-06-14T15:12:51Z</time>
      </trkpt>
      <trkpt lat="47.19817" lon="1.06684">
        <ele>96.35</ele>
        <time>2020-06-14T15:12:53Z</time>
      </trkpt>
      <trkpt lat="47.19887" lon="1.06766">
        <ele>102.39</ele>
        <time>2020-06-14T15:12:58Z</time>
      </trkpt>
      <trkpt lat="47.20066" lon="1.06847">
        <ele>103.95</ele>
        <time>2020-06-14T15:13:09Z</time>
      </trkpt>
      <trkpt lat="47.20341" lon="1.07073">
        <ele>106.49</ele>
        <time>2020-06-14T15:13:31Z</time>
      </trkpt>
      <trkpt lat="47.20458" lon="1.07207">
        <ele>109.76</ele>
        <time>2020-06-14T15:13:40Z</time>
      </trkpt>
      <trkpt lat="47.20618" lon="1.07402">
        <ele>109.48</ele>
        <time>2020-06-14T15:13:53Z</time>
      </trkpt>
      <trkpt lat="47.2066" lon="1.07468">
        <ele>107.32</ele>
        <time>2020-06-14T15:13:57Z</time>
      </trkpt>
      <trkpt lat="47.20722" lon="1.07573">
        <ele>110.69</ele>
        <time>2020-06-14T15:14:03Z</time>
      </trkpt>
      <trkpt lat="47.20854" lon="1.07792">
        <ele>110.74</ele>
        <time>2020-06-14T15:14:17Z</time>
      </trkpt>
      <trkpt lat="47.2095" lon="1.07902">
        <ele>109.1</ele>
        <time>2020-06-14T15:14:29Z</time>
      </trkpt>
      <trkpt lat="47.21027" lon="1.07992">
        <ele>112.55</ele>
        <time>2020-06-14T15:14:36Z</time>
      </trkpt>
      <trkpt lat="47.21105" lon="1.08099">
        <ele>115.96</ele>
        <time>2020-06-14T15:14:43Z</time>
      </trkpt>
      <trkpt lat="47.21204" lon="1.08265">
        <ele>115.28</ele>
        <time>2020-06-14T15:14:53Z</time>
      </trkpt>
      <trkpt lat="47.21223" lon="1.08298">
        <ele>111.77</ele>
        <time>2020-06-14T15:14:56Z</time>
      </trkpt>
      <trkpt lat="47.21306" lon="1.08425">
        <ele>116.27</ele>
        <time>2020-06-14T15:15:10Z</time>
      </trkpt>
      <trkpt lat="47.21337" lon="1.08481">
        <ele>115.2</ele>
        <time>2020-06-14T15:15:13Z</time>
      </trkpt>
      <trkpt lat="47.21356" lon="1.08571">
        <ele>116.5</ele>
        <time>2020-06-14T15:15:17Z</time>
      </trkpt>
      <trkpt lat="47.21358" lon="1.08597">
        <ele>116.68</ele>
        <time>2020-06-14T15:15:18Z</time>
      </trkpt>
      <trkpt lat="47.21384" lon="1.08934">
        <ele>113.14</ele>
        <time>2020-06-14T15:15:33Z</time>
      </trkpt>
      <trkpt lat="47.21383" lon="1.08944">
        <ele>113.84</ele>
        <time>2020-06-14T15:15:34Z</time>
      </trkpt>
      <trkpt lat="47.21382" lon="1.08964">
        <ele>113.74</ele>
        <time>2020-06-14T15:15:36Z</time>
      </trkpt>
      <trkpt lat="47.21383" lon="1.08974">
        <ele>113.42</ele>
        <time>2020-06-14T15:15:37Z</time>
      </trkpt>
      <trkpt lat="47.21403" lon="1.09166">
        <ele>118.51</ele>
        <time>2020-06-14T15:15:54Z</time>
      </trkpt>
      <trkpt lat="47.21407" lon="1.09246">
        <ele>115.47</ele>
        <time>2020-06-14T15:15:58Z</time>
      </trkpt>
      <trkpt lat="47.21412" lon="1.09329">
        <ele>112.72</ele>
        <time>2020-06-14T15:16:03Z</time>
      </trkpt>
      <trkpt lat="47.21431" lon="1.09435">
        <ele>110.96</ele>
        <time>2020-06-14T15:16:17Z</time>
      </trkpt>
      <trkpt lat="47.21457" lon="1.096">
        <ele>117.05</ele>
        <time>2020-06-14T15:16:26Z</time>
      </trkpt>
      <trkpt lat="47.2148" lon="1.09748">
        <ele>115.61</ele>
        <time>2020-06-14T15:16:33Z</time>
      </trkpt>
      <trkpt lat="47.21616" lon="1.10154">
        <ele>118.85</ele>
        <time>2020-06-14T15:16:54Z</time>
      </trkpt>
      <trkpt lat="47.21716" lon="1.10304">
        <ele>119.18</ele>
        <time>2020-06-14T15:17:05Z</time>
      </trkpt>
      <trkpt lat="47.21874" lon="1.10572">
        <ele>116.88</ele>
        <time>2020-06-14T15:17:32Z</time>
      </trkpt>
      <trkpt lat="47.21902" lon="1.10651">
        <ele>116.56</ele>
        <time>2020-06-14T15:17:44Z</time>
      </trkpt>
      <trkpt lat="47.21924" lon="1.1071">
        <ele>117.42</ele>
        <time>2020-06-14T15:17:51Z</time>
      </trkpt>
      <trkpt lat="47.21943" lon="1.108">
        <ele>117.26</ele>
        <time>2020-06-14T15:17:57Z</time>
      </trkpt>
      <trkpt lat="47.21989" lon="1.11241">
        <ele>117.76</ele>
        <time>2020-06-14T15:18:30Z</time>
      </trkpt>
      <trkpt lat="47.22008" lon="1.11376">
        <ele>118.09</ele>
        <time>2020-06-14T15:18:40Z</time>
      </trkpt>
      <trkpt lat="47.2204" lon="1.11364">
        <ele>119.52</ele>
        <time>2020-06-14T15:18:47Z</time>
      </trkpt>
      <trkpt lat="47.22072" lon="1.11334">
        <ele>123.22</ele>
        <time>2020-06-14T15:18:50Z</time>
      </trkpt>
      <trkpt lat="47.2212" lon="1.11313">
        <ele>125.68</ele>
        <time>2020-06-14T15:18:53Z</time>
      </trkpt>
      <trkpt lat="47.22207" lon="1.11281">
        <ele>128.09</ele>
        <time>2020-06-14T15:18:58Z</time>
      </trkpt>
      <trkpt lat="47.22223" lon="1.11269">
        <ele>128.32</ele>
        <time>2020-06-14T15:18:59Z</time>
      </trkpt>
      <trkpt lat="47.22298" lon="1.11176">
        <ele>128.13</ele>
        <time>2020-06-14T15:19:04Z</time>
      </trkpt>
      <trkpt lat="47.22324" lon="1.1113">
        <ele>127.29</ele>
        <time>2020-06-14T15:19:06Z</time>
      </trkpt>
      <trkpt lat="47.22471" lon="1.10922">
        <ele>123.54</ele>
        <time>2020-06-14T15:19:16Z</time>
      </trkpt>
      <trkpt lat="47.22528" lon="1.10838">
        <ele>122.61</ele>
        <time>2020-06-14T15:19:20Z</time>
      </trkpt>
      <trkpt lat="47.22591" lon="1.10725">
        <ele>119.55</ele>
        <time>2020-06-14T15:19:25Z</time>
      </trkpt>
      <trkpt lat="47.22645" lon="1.10657">
        <ele>116.41</ele>
        <time>2020-06-14T15:19:29Z</time>
      </trkpt>
      <trkpt lat="47.2269" lon="1.10622">
        <ele>115.06</ele>
        <time>2020-06-14T15:19:32Z</time>
      </trkpt>
      <trkpt lat="47.22764" lon="1.10572">
        <ele>111.86</ele>
        <time>2020-06-14T15:19:38Z</time>
      </trkpt>
      <trkpt lat="47.22777" lon="1.10528">
        <ele>112.77</ele>
        <time>2020-06-14T15:19:42Z</time>
      </trkpt>
      <trkpt lat="47.2278" lon="1.1049">
        <ele>112.68</ele>
        <time>2020-06-14T15:19:45Z</time>
      </trkpt>
      <trkpt lat="47.22771" lon="1.10345">
        <ele>111.08</ele>
        <time>2020-06-14T15:19:56Z</time>
      </trkpt>
      <trkpt lat="47.22787" lon="1.10315">
        <ele>111.97</ele>
        <time>2020-06-14T15:19:59Z</time>
      </trkpt>
      <trkpt lat="47.22806" lon="1.10289">
        <ele>111.24</ele>
        <time>2020-06-14T15:20:02Z</time>
      </trkpt>
      <trkpt lat="47.22851" lon="1.10297">
        <ele>111.15</ele>
        <time>2020-06-14T15:20:07Z</time>
      </trkpt>
      <trkpt lat="47.22972" lon="1.10374">
        <ele>110.63</ele>
        <time>2020-06-14T15:20:19Z</time>
      </trkpt>
      <trkpt lat="47.23166" lon="1.10546">
        <ele>113.33</ele>
        <time>2020-06-14T15:20:39Z</time>
      </trkpt>
      <trkpt lat="47.23251" lon="1.10675">
        <ele>113.32</ele>
        <time>2020-06-14T15:20:50Z</time>
      </trkpt>
      <trkpt lat="47.23352" lon="1.10719">
        <ele>118.82</ele>
        <time>2020-06-14T15:21:01Z</time>
      </trkpt>
      <trkpt lat="47.23698" lon="1.10789">
        <ele>122.56</ele>
        <time>2020-06-14T15:21:18Z</time>
      </trkpt>
      <trkpt lat="47.23967" lon="1.109">
        <ele>116.92</ele>
        <time>2020-06-14T15:21:31Z</time>
      </trkpt>
      <trkpt lat="47.24112" lon="1.10965">
        <ele>113.16</ele>
        <time>2020-06-14T15:21:38Z</time>
      </trkpt>
      <trkpt lat="47.2426" lon="1.11033">
        <ele>109.86</ele>
        <time>2020-06-14T15:21:45Z</time>
      </trkpt>
      <trkpt lat="47.24302" lon="1.11052">
        <ele>111.81</ele>
        <time>2020-06-14T15:21:47Z</time>
      </trkpt>
      <trkpt lat="47.24418" lon="1.11102">
        <ele>109.79</ele>
        <time>2020-06-14T15:21:53Z</time>
      </trkpt>
      <trkpt lat="47.24453" lon="1.11103">
        <ele>114.42</ele>
        <time>2020-06-14T15:21:55Z</time>
      </trkpt>
      <trkpt lat="47.24508" lon="1.11092">
        <ele>119.11</ele>
        <time>2020-06-14T15:21:58Z</time>
      </trkpt>
      <trkpt lat="47.24528" lon="1.11087">
        <ele>119.21</ele>
        <time>2020-06-14T15:21:59Z</time>
      </trkpt>
      <trkpt lat="47.24684" lon="1.11047">
        <ele>119.17</ele>
        <time>2020-06-14T15:22:08Z</time>
      </trkpt>
      <trkpt lat="47.24781" lon="1.11063">
        <ele>119.86</ele>
        <time>2020-06-14T15:22:15Z</time>
      </trkpt>
      <trkpt lat="47.24874" lon="1.11092">
        <ele>123.79</ele>
        <time>2020-06-14T15:22:21Z</time>
      </trkpt>
      <trkpt lat="47.25081" lon="1.11156">
        <ele>123.59</ele>
        <time>2020-06-14T15:22:33Z</time>
      </trkpt>
      <trkpt lat="47.25231" lon="1.11202">
        <ele>120.49</ele>
        <time>2020-06-14T15:22:40Z</time>
      </trkpt>
      <trkpt lat="47.2536" lon="1.11242">
        <ele>113.96</ele>
        <time>2020-06-14T15:22:47Z</time>
      </trkpt>
      <trkpt lat="47.25405" lon="1.11257">
        <ele>110.67</ele>
        <time>2020-06-14T15:22:50Z</time>
      </trkpt>
      <trkpt lat="47.25432" lon="1.11264">
        <ele>107.44</ele>
        <time>2020-06-14T15:22:52Z</time>
      </trkpt>
      <trkpt lat="47.25452" lon="1.1127">
        <ele>106.27</ele>
        <time>2020-06-14T15:22:54Z</time>
      </trkpt>
      <trkpt lat="47.25475" lon="1.11318">
        <ele>107.4</ele>
        <time>2020-06-14T15:22:59Z</time>
      </trkpt>
      <trkpt lat="47.25488" lon="1.11382">
        <ele>110.6</ele>
        <time>2020-06-14T15:23:03Z</time>
      </trkpt>
      <trkpt lat="47.25492" lon="1.11447">
        <ele>113.39</ele>
        <time>2020-06-14T15:23:07Z</time>
      </trkpt>
      <trkpt lat="47.25492" lon="1.11502">
        <ele>116.73</ele>
        <time>2020-06-14T15:23:10Z</time>
      </trkpt>
      <trkpt lat="47.25492" lon="1.11519">
        <ele>116.73</ele>
        <time>2020-06-14T15:23:11Z</time>
      </trkpt>
      <trkpt lat="47.25493" lon="1.11554">
        <ele>115.23</ele>
        <time>2020-06-14T15:23:13Z</time>
      </trkpt>
      <trkpt lat="47.25517" lon="1.11618">
        <ele>114.46</ele>
        <time>2020-06-14T15:23:17Z</time>
      </trkpt>
      <trkpt lat="47.25629" lon="1.11839">
        <ele>113.38</ele>
        <time>2020-06-14T15:23:30Z</time>
      </trkpt>
      <trkpt lat="47.25748" lon="1.11961">
        <ele>108.53</ele>
        <time>2020-06-14T15:23:40Z</time>
      </trkpt>
      <trkpt lat="47.25776" lon="1.11992">
        <ele>109.5</ele>
        <time>2020-06-14T15:23:43Z</time>
      </trkpt>
      <trkpt lat="47.25784" lon="1.12004">
        <ele>108.85</ele>
        <time>2020-06-14T15:23:44Z</time>
      </trkpt>
      <trkpt lat="47.25823" lon="1.1207">
        <ele>108.82</ele>
        <time>2020-06-14T15:23:49Z</time>
      </trkpt>
      <trkpt lat="47.26082" lon="1.12244">
        <ele>105.51</ele>
        <time>2020-06-14T15:24:10Z</time>
      </trkpt>
      <trkpt lat="47.26128" lon="1.12284">
        <ele>101.78</ele>
        <time>2020-06-14T15:24:14Z</time>
      </trkpt>
      <trkpt lat="47.26174" lon="1.12321">
        <ele>98.02</ele>
        <time>2020-06-14T15:24:18Z</time>
      </trkpt>
      <trkpt lat="47.26192" lon="1.12344">
        <ele>93.59</ele>
        <time>2020-06-14T15:24:20Z</time>
      </trkpt>
      <trkpt lat="47.26207" lon="1.1237">
        <ele>90.37</ele>
        <time>2020-06-14T15:24:22Z</time>
      </trkpt>
      <trkpt lat="47.26242" lon="1.12394">
        <ele>87.12</ele>
        <time>2020-06-14T15:24:25Z</time>
      </trkpt>
      <trkpt lat="47.26256" lon="1.12398">
        <ele>88.19</ele>
        <time>2020-06-14T15:24:26Z</time>
      </trkpt>
      <trkpt lat="47.26298" lon="1.12407">
        <ele>84.99</ele>
        <time>2020-06-14T15:24:29Z</time>
      </trkpt>
      <trkpt lat="47.26331" lon="1.12418">
        <ele>81.6</ele>
        <time>2020-06-14T15:24:32Z</time>
      </trkpt>
      <trkpt lat="47.26348" lon="1.12436">
        <ele>80.86</ele>
        <time>2020-06-14T15:24:34Z</time>
      </trkpt>
      <trkpt lat="47.26363" lon="1.12461">
        <ele>77.34</ele>
        <time>2020-06-14T15:24:37Z</time>
      </trkpt>
      <trkpt lat="47.26351" lon="1.12479">
        <ele>77.78</ele>
        <time>2020-06-14T15:24:41Z</time>
      </trkpt>
      <trkpt lat="47.26323" lon="1.12488">
        <ele>79.71</ele>
        <time>2020-06-14T15:24:44Z</time>
      </trkpt>
      <trkpt lat="47.26109" lon="1.12492">
        <ele>83.07</ele>
        <time>2020-06-14T15:24:58Z</time>
      </trkpt>
      <trkpt lat="47.25942" lon="1.12634">
        <ele>84.41</ele>
        <time>2020-06-14T15:25:10Z</time>
      </trkpt>
      <trkpt lat="47.25933" lon="1.12682">
        <ele>84.64</ele>
        <time>2020-06-14T15:25:12Z</time>
      </trkpt>
      <trkpt lat="47.25917" lon="1.12771">
        <ele>84.58</ele>
        <time>2020-06-14T15:25:16Z</time>
      </trkpt>
      <trkpt lat="47.25881" lon="1.12836">
        <ele>87.56</ele>
        <time>2020-06-14T15:25:20Z</time>
      </trkpt>
      <trkpt lat="47.25705" lon="1.13033">
        <ele>91.2</ele>
        <time>2020-06-14T15:25:33Z</time>
      </trkpt>
      <trkpt lat="47.25652" lon="1.13101">
        <ele>95.1</ele>
        <time>2020-06-14T15:25:37Z</time>
      </trkpt>
      <trkpt lat="47.25466" lon="1.13346">
        <ele>94.51</ele>
        <time>2020-06-14T15:25:50Z</time>
      </trkpt>
      <trkpt lat="47.25395" lon="1.13438">
        <ele>98.54</ele>
        <time>2020-06-14T15:25:55Z</time>
      </trkpt>
      <trkpt lat="47.25382" lon="1.13455">
        <ele>98.81</ele>
        <time>2020-06-14T15:25:56Z</time>
      </trkpt>
      <trkpt lat="47.25306" lon="1.13576">
        <ele>102.25</ele>
        <time>2020-06-14T15:26:02Z</time>
      </trkpt>
      <trkpt lat="47.25295" lon="1.13599">
        <ele>102.37</ele>
        <time>2020-06-14T15:26:03Z</time>
      </trkpt>
      <trkpt lat="47.25264" lon="1.13667">
        <ele>99.13</ele>
        <time>2020-06-14T15:26:06Z</time>
      </trkpt>
      <trkpt lat="47.25254" lon="1.13689">
        <ele>99.25</ele>
        <time>2020-06-14T15:26:07Z</time>
      </trkpt>
      <trkpt lat="47.25186" lon="1.13845">
        <ele>94.48</ele>
        <time>2020-06-14T15:26:15Z</time>
      </trkpt>
      <trkpt lat="47.25151" lon="1.13921">
        <ele>91.27</ele>
        <time>2020-06-14T15:26:21Z</time>
      </trkpt>
      <trkpt lat="47.25141" lon="1.13941">
        <ele>89.22</ele>
        <time>2020-06-14T15:26:24Z</time>
      </trkpt>
      <trkpt lat="47.25138" lon="1.13944">
        <ele>88.89</ele>
        <time>2020-06-14T15:26:25Z</time>
      </trkpt>
      <trkpt lat="47.25117" lon="1.13935">
        <ele>92.78</ele>
        <time>2020-06-14T15:26:29Z</time>
      </trkpt>
      <trkpt lat="47.25088" lon="1.13916">
        <ele>96.91</ele>
        <time>2020-06-14T15:26:32Z</time>
      </trkpt>
      <trkpt lat="47.25049" lon="1.13892">
        <ele>101.05</ele>
        <time>2020-06-14T15:26:35Z</time>
      </trkpt>
      <trkpt lat="47.2502" lon="1.13867">
        <ele>105.55</ele>
        <time>2020-06-14T15:26:37Z</time>
      </trkpt>
      <trkpt lat="47.24978" lon="1.13807">
        <ele>111.76</ele>
        <time>2020-06-14T15:26:40Z</time>
      </trkpt>
      <trkpt lat="47.24965" lon="1.13783">
        <ele>115</ele>
        <time>2020-06-14T15:26:41Z</time>
      </trkpt>
      <trkpt lat="47.24952" lon="1.13759">
        <ele>114.8</ele>
        <time>2020-06-14T15:26:42Z</time>
      </trkpt>
      <trkpt lat="47.24914" lon="1.13684">
        <ele>118.38</ele>
        <time>2020-06-14T15:26:45Z</time>
      </trkpt>
      <trkpt lat="47.24874" lon="1.13606">
        <ele>121.47</ele>
        <time>2020-06-14T15:26:48Z</time>
      </trkpt>
      <trkpt lat="47.2482" lon="1.13503">
        <ele>125.13</ele>
        <time>2020-06-14T15:26:52Z</time>
      </trkpt>
      <trkpt lat="47.24807" lon="1.13478">
        <ele>125.11</ele>
        <time>2020-06-14T15:26:53Z</time>
      </trkpt>
      <trkpt lat="47.24794" lon="1.13453">
        <ele>118.21</ele>
        <time>2020-06-14T15:26:54Z</time>
      </trkpt>
      <trkpt lat="47.24781" lon="1.13428">
        <ele>113.99</ele>
        <time>2020-06-14T15:26:55Z</time>
      </trkpt>
      <trkpt lat="47.24769" lon="1.13402">
        <ele>115.45</ele>
        <time>2020-06-14T15:26:56Z</time>
      </trkpt>
      <trkpt lat="47.24756" lon="1.13377">
        <ele>125.6</ele>
        <time>2020-06-14T15:26:57Z</time>
      </trkpt>
      <trkpt lat="47.24586" lon="1.13053">
        <ele>129.05</ele>
        <time>2020-06-14T15:27:11Z</time>
      </trkpt>
      <trkpt lat="47.24556" lon="1.12995">
        <ele>127.74</ele>
        <time>2020-06-14T15:27:14Z</time>
      </trkpt>
      <trkpt lat="47.24532" lon="1.12948">
        <ele>123.83</ele>
        <time>2020-06-14T15:27:17Z</time>
      </trkpt>
      <trkpt lat="47.24525" lon="1.12934">
        <ele>124.47</ele>
        <time>2020-06-14T15:27:18Z</time>
      </trkpt>
      <trkpt lat="47.24512" lon="1.12911">
        <ele>122.11</ele>
        <time>2020-06-14T15:27:20Z</time>
      </trkpt>
      <trkpt lat="47.24475" lon="1.12898">
        <ele>123.87</ele>
        <time>2020-06-14T15:27:24Z</time>
      </trkpt>
      <trkpt lat="47.24416" lon="1.12904">
        <ele>127.3</ele>
        <time>2020-06-14T15:27:28Z</time>
      </trkpt>
      <trkpt lat="47.24401" lon="1.12906">
        <ele>126.91</ele>
        <time>2020-06-14T15:27:29Z</time>
      </trkpt>
      <trkpt lat="47.24341" lon="1.12915">
        <ele>125.27</ele>
        <time>2020-06-14T15:27:33Z</time>
      </trkpt>
      <trkpt lat="47.2407" lon="1.13077">
        <ele>122.99</ele>
        <time>2020-06-14T15:27:52Z</time>
      </trkpt>
      <trkpt lat="47.24058" lon="1.13085">
        <ele>122.72</ele>
        <time>2020-06-14T15:27:53Z</time>
      </trkpt>
      <trkpt lat="47.24014" lon="1.13135">
        <ele>124.77</ele>
        <time>2020-06-14T15:27:57Z</time>
      </trkpt>
      <trkpt lat="47.23916" lon="1.1326">
        <ele>121.39</ele>
        <time>2020-06-14T15:28:06Z</time>
      </trkpt>
      <trkpt lat="47.23903" lon="1.1327">
        <ele>122.57</ele>
        <time>2020-06-14T15:28:07Z</time>
      </trkpt>
      <trkpt lat="47.23874" lon="1.13289">
        <ele>126.41</ele>
        <time>2020-06-14T15:28:09Z</time>
      </trkpt>
      <trkpt lat="47.23859" lon="1.13298">
        <ele>126.38</ele>
        <time>2020-06-14T15:28:10Z</time>
      </trkpt>
      <trkpt lat="47.23761" lon="1.13335">
        <ele>129.48</ele>
        <time>2020-06-14T15:28:16Z</time>
      </trkpt>
      <trkpt lat="47.23643" lon="1.13416">
        <ele>128.83</ele>
        <time>2020-06-14T15:28:24Z</time>
      </trkpt>
      <trkpt lat="47.23579" lon="1.13484">
        <ele>126.95</ele>
        <time>2020-06-14T15:28:29Z</time>
      </trkpt>
      <trkpt lat="47.23557" lon="1.13508">
        <ele>125.42</ele>
        <time>2020-06-14T15:28:31Z</time>
      </trkpt>
      <trkpt lat="47.23527" lon="1.13533">
        <ele>121.76</ele>
        <time>2020-06-14T15:28:34Z</time>
      </trkpt>
      <trkpt lat="47.23513" lon="1.13539">
        <ele>118.85</ele>
        <time>2020-06-14T15:28:37Z</time>
      </trkpt>
      <trkpt lat="47.23507" lon="1.13542">
        <ele>118.78</ele>
        <time>2020-06-14T15:28:39Z</time>
      </trkpt>
      <trkpt lat="47.23453" lon="1.13582">
        <ele>118.39</ele>
        <time>2020-06-14T15:28:48Z</time>
      </trkpt>
      <trkpt lat="47.23338" lon="1.13689">
        <ele>116.43</ele>
        <time>2020-06-14T15:29:02Z</time>
      </trkpt>
      <trkpt lat="47.23265" lon="1.1376">
        <ele>117.02</ele>
        <time>2020-06-14T15:29:11Z</time>
      </trkpt>
      <trkpt lat="47.23332" lon="1.1393">
        <ele>116.37</ele>
        <time>2020-06-14T15:29:28Z</time>
      </trkpt>
      <trkpt lat="47.23465" lon="1.14148">
        <ele>112.69</ele>
        <time>2020-06-14T15:29:47Z</time>
      </trkpt>
      <trkpt lat="47.23471" lon="1.14159">
        <ele>112.45</ele>
        <time>2020-06-14T15:29:48Z</time>
      </trkpt>
      <trkpt lat="47.23545" lon="1.14388">
        <ele>105.88</ele>
        <time>2020-06-14T15:30:06Z</time>
      </trkpt>
      <trkpt lat="47.23567" lon="1.14493">
        <ele>98.73</ele>
        <time>2020-06-14T15:30:15Z</time>
      </trkpt>
      <trkpt lat="47.23573" lon="1.1452">
        <ele>97.96</ele>
        <time>2020-06-14T15:30:18Z</time>
      </trkpt>
      <trkpt lat="47.23577" lon="1.14552">
        <ele>97.46</ele>
        <time>2020-06-14T15:30:29Z</time>
      </trkpt>
      <trkpt lat="47.23574" lon="1.14582">
        <ele>99.43</ele>
        <time>2020-06-14T15:30:35Z</time>
      </trkpt>
      <trkpt lat="47.2357" lon="1.1462">
        <ele>100.63</ele>
        <time>2020-06-14T15:30:39Z</time>
      </trkpt>
      <trkpt lat="47.23594" lon="1.1471">
        <ele>105.14</ele>
        <time>2020-06-14T15:30:47Z</time>
      </trkpt>
      <trkpt lat="47.23607" lon="1.14798">
        <ele>108.46</ele>
        <time>2020-06-14T15:30:55Z</time>
      </trkpt>
      <trkpt lat="47.2362" lon="1.14865">
        <ele>111.59</ele>
        <time>2020-06-14T15:31:01Z</time>
      </trkpt>
      <trkpt lat="47.23631" lon="1.1491">
        <ele>113.34</ele>
        <time>2020-06-14T15:31:05Z</time>
      </trkpt>
      <trkpt lat="47.23645" lon="1.14971">
        <ele>117.69</ele>
        <time>2020-06-14T15:31:09Z</time>
      </trkpt>
      <trkpt lat="47.23686" lon="1.1508">
        <ele>120.99</ele>
        <time>2020-06-14T15:31:15Z</time>
      </trkpt>
      <trkpt lat="47.23713" lon="1.15148">
        <ele>124.26</ele>
        <time>2020-06-14T15:31:19Z</time>
      </trkpt>
      <trkpt lat="47.23731" lon="1.15196">
        <ele>124.77</ele>
        <time>2020-06-14T15:31:22Z</time>
      </trkpt>
      <trkpt lat="47.23788" lon="1.15362">
        <ele>125.95</ele>
        <time>2020-06-14T15:31:39Z</time>
      </trkpt>
      <trkpt lat="47.23799" lon="1.15428">
        <ele>124.35</ele>
        <time>2020-06-14T15:31:47Z</time>
      </trkpt>
      <trkpt lat="47.23757" lon="1.15521">
        <ele>123.64</ele>
        <time>2020-06-14T15:32:12Z</time>
      </trkpt>
      <trkpt lat="47.23639" lon="1.1569">
        <ele>123.27</ele>
        <time>2020-06-14T15:32:46Z</time>
      </trkpt>
      <trkpt lat="47.23583" lon="1.15764">
        <ele>122.13</ele>
        <time>2020-06-14T15:33:00Z</time>
      </trkpt>
      <trkpt lat="47.2356" lon="1.15792">
        <ele>122.44</ele>
        <time>2020-06-14T15:33:05Z</time>
      </trkpt>
      <trkpt lat="47.23501" lon="1.16061">
        <ele>122.41</ele>
        <time>2020-06-14T15:33:37Z</time>
      </trkpt>
      <trkpt lat="47.2339" lon="1.16262">
        <ele>123.79</ele>
        <time>2020-06-14T15:34:04Z</time>
      </trkpt>
      <trkpt lat="47.23351" lon="1.16361">
        <ele>121.99</ele>
        <time>2020-06-14T15:34:20Z</time>
      </trkpt>
      <trkpt lat="47.23614" lon="1.16645">
        <ele>118.3</ele>
        <time>2020-06-14T15:34:40Z</time>
      </trkpt>
      <trkpt lat="47.23667" lon="1.16702">
        <ele>114.32</ele>
        <time>2020-06-14T15:34:44Z</time>
      </trkpt>
      <trkpt lat="47.23701" lon="1.16735">
        <ele>111.05</ele>
        <time>2020-06-14T15:34:47Z</time>
      </trkpt>
      <trkpt lat="47.23712" lon="1.16741">
        <ele>110.77</ele>
        <time>2020-06-14T15:34:48Z</time>
      </trkpt>
      <trkpt lat="47.23771" lon="1.16713">
        <ele>108.57</ele>
        <time>2020-06-14T15:34:53Z</time>
      </trkpt>
      <trkpt lat="47.23791" lon="1.16695">
        <ele>105.99</ele>
        <time>2020-06-14T15:34:55Z</time>
      </trkpt>
      <trkpt lat="47.23822" lon="1.16691">
        <ele>103.97</ele>
        <time>2020-06-14T15:34:58Z</time>
      </trkpt>
      <trkpt lat="47.23853" lon="1.16725">
        <ele>105.83</ele>
        <time>2020-06-14T15:35:01Z</time>
      </trkpt>
      <trkpt lat="47.23898" lon="1.16792">
        <ele>110.47</ele>
        <time>2020-06-14T15:35:05Z</time>
      </trkpt>
      <trkpt lat="47.2392" lon="1.16828">
        <ele>111.78</ele>
        <time>2020-06-14T15:35:07Z</time>
      </trkpt>
      <trkpt lat="47.23996" lon="1.16986">
        <ele>108.17</ele>
        <time>2020-06-14T15:35:17Z</time>
      </trkpt>
      <trkpt lat="47.23979" lon="1.17023">
        <ele>111.31</ele>
        <time>2020-06-14T15:35:23Z</time>
      </trkpt>
      <trkpt lat="47.2397" lon="1.1703">
        <ele>112.36</ele>
        <time>2020-06-14T15:35:24Z</time>
      </trkpt>
      <trkpt lat="47.23923" lon="1.17074">
        <ele>116.36</ele>
        <time>2020-06-14T15:35:31Z</time>
      </trkpt>
      <trkpt lat="47.23903" lon="1.17094">
        <ele>117.13</ele>
        <time>2020-06-14T15:35:36Z</time>
      </trkpt>
      <trkpt lat="47.23867" lon="1.17204">
        <ele>120.84</ele>
        <time>2020-06-14T15:35:50Z</time>
      </trkpt>
      <trkpt lat="47.23861" lon="1.17252">
        <ele>121.69</ele>
        <time>2020-06-14T15:35:55Z</time>
      </trkpt>
      <trkpt lat="47.23851" lon="1.17315">
        <ele>121.99</ele>
        <time>2020-06-14T15:36:02Z</time>
      </trkpt>
      <trkpt lat="47.23841" lon="1.17357">
        <ele>124.45</ele>
        <time>2020-06-14T15:36:06Z</time>
      </trkpt>
      <trkpt lat="47.23817" lon="1.17432">
        <ele>124.25</ele>
        <time>2020-06-14T15:36:14Z</time>
      </trkpt>
      <trkpt lat="47.23799" lon="1.17491">
        <ele>125.31</ele>
        <time>2020-06-14T15:36:22Z</time>
      </trkpt>
      <trkpt lat="47.23791" lon="1.1756">
        <ele>128.08</ele>
        <time>2020-06-14T15:36:28Z</time>
      </trkpt>
      <trkpt lat="47.23775" lon="1.1769">
        <ele>127.67</ele>
        <time>2020-06-14T15:36:37Z</time>
      </trkpt>
      <trkpt lat="47.23762" lon="1.17826">
        <ele>130.77</ele>
        <time>2020-06-14T15:36:45Z</time>
      </trkpt>
      <trkpt lat="47.23746" lon="1.18057">
        <ele>131.78</ele>
        <time>2020-06-14T15:36:57Z</time>
      </trkpt>
      <trkpt lat="47.23732" lon="1.18485">
        <ele>130.68</ele>
        <time>2020-06-14T15:37:27Z</time>
      </trkpt>
      <trkpt lat="47.23724" lon="1.18542">
        <ele>133.43</ele>
        <time>2020-06-14T15:37:31Z</time>
      </trkpt>
      <trkpt lat="47.23751" lon="1.18818">
        <ele>135.46</ele>
        <time>2020-06-14T15:37:44Z</time>
      </trkpt>
      <trkpt lat="47.23779" lon="1.1901">
        <ele>136.41</ele>
        <time>2020-06-14T15:37:53Z</time>
      </trkpt>
      <trkpt lat="47.23781" lon="1.19232">
        <ele>137.82</ele>
        <time>2020-06-14T15:38:07Z</time>
      </trkpt>
      <trkpt lat="47.23805" lon="1.19299">
        <ele>140.06</ele>
        <time>2020-06-14T15:38:10Z</time>
      </trkpt>
      <trkpt lat="47.23835" lon="1.19379">
        <ele>138.47</ele>
        <time>2020-06-14T15:38:14Z</time>
      </trkpt>
      <trkpt lat="47.23948" lon="1.19557">
        <ele>139.27</ele>
        <time>2020-06-14T15:38:26Z</time>
      </trkpt>
      <trkpt lat="47.24182" lon="1.19916">
        <ele>137.81</ele>
        <time>2020-06-14T15:38:51Z</time>
      </trkpt>
      <trkpt lat="47.24193" lon="1.19941">
        <ele>138.41</ele>
        <time>2020-06-14T15:38:57Z</time>
      </trkpt>
      <trkpt lat="47.24211" lon="1.19999">
        <ele>140.81</ele>
        <time>2020-06-14T15:39:02Z</time>
      </trkpt>
      <trkpt lat="47.24234" lon="1.20074">
        <ele>140.86</ele>
        <time>2020-06-14T15:39:07Z</time>
      </trkpt>
      <trkpt lat="47.24281" lon="1.2028">
        <ele>144.99</ele>
        <time>2020-06-14T15:39:20Z</time>
      </trkpt>
      <trkpt lat="47.2438" lon="1.20554">
        <ele>144.54</ele>
        <time>2020-06-14T15:39:36Z</time>
      </trkpt>
      <trkpt lat="47.24467" lon="1.207">
        <ele>145.08</ele>
        <time>2020-06-14T15:39:47Z</time>
      </trkpt>
      <trkpt lat="47.24529" lon="1.20954">
        <ele>147.62</ele>
        <time>2020-06-14T15:40:01Z</time>
      </trkpt>
      <trkpt lat="47.24549" lon="1.21028">
        <ele>145.31</ele>
        <time>2020-06-14T15:40:06Z</time>
      </trkpt>
      <trkpt lat="47.24561" lon="1.21087">
        <ele>144.27</ele>
        <time>2020-06-14T15:40:16Z</time>
      </trkpt>
      <trkpt lat="47.24444" lon="1.21158">
        <ele>146.22</ele>
        <time>2020-06-14T15:40:35Z</time>
      </trkpt>
      <trkpt lat="47.24568" lon="1.21219">
        <ele>145.45</ele>
        <time>2020-06-14T15:40:36Z</time>
      </trkpt>
      <trkpt lat="47.24684" lon="1.21382">
        <ele>143.26</ele>
        <time>2020-06-14T15:40:53Z</time>
      </trkpt>
      <trkpt lat="47.24815" lon="1.21607">
        <ele>143.03</ele>
        <time>2020-06-14T15:41:09Z</time>
      </trkpt>
      <trkpt lat="47.25026" lon="1.21755">
        <ele>144.47</ele>
        <time>2020-06-14T15:41:30Z</time>
      </trkpt>
      <trkpt lat="47.25268" lon="1.21877">
        <ele>143.2</ele>
        <time>2020-06-14T15:41:52Z</time>
      </trkpt>
      <trkpt lat="47.25318" lon="1.21861">
        <ele>146.76</ele>
        <time>2020-06-14T15:41:57Z</time>
      </trkpt>
      <trkpt lat="47.2539" lon="1.21775">
        <ele>146.62</ele>
        <time>2020-06-14T15:42:03Z</time>
      </trkpt>
      <trkpt lat="47.25592" lon="1.21532">
        <ele>141.29</ele>
        <time>2020-06-14T15:42:17Z</time>
      </trkpt>
      <trkpt lat="47.25643" lon="1.21485">
        <ele>142.54</ele>
        <time>2020-06-14T15:42:20Z</time>
      </trkpt>
      <trkpt lat="47.2576" lon="1.21376">
        <ele>143.74</ele>
        <time>2020-06-14T15:42:29Z</time>
      </trkpt>
      <trkpt lat="47.25908" lon="1.21285">
        <ele>142.87</ele>
        <time>2020-06-14T15:42:49Z</time>
      </trkpt>
      <trkpt lat="47.25905" lon="1.21288">
        <ele>142.4</ele>
        <time>2020-06-14T15:44:00Z</time>
      </trkpt>
      <trkpt lat="47.25915" lon="1.21295">
        <ele>145.48</ele>
        <time>2020-06-14T15:46:33Z</time>
      </trkpt>
      <trkpt lat="47.25969" lon="1.21324">
        <ele>146.75</ele>
        <time>2020-06-14T15:46:40Z</time>
      </trkpt>
      <trkpt lat="47.25986" lon="1.21362">
        <ele>147.54</ele>
        <time>2020-06-14T15:46:46Z</time>
      </trkpt>
      <trkpt lat="47.26002" lon="1.21469">
        <ele>153.01</ele>
        <time>2020-06-14T15:46:52Z</time>
      </trkpt>
      <trkpt lat="47.26055" lon="1.21857">
        <ele>155.82</ele>
        <time>2020-06-14T15:47:08Z</time>
      </trkpt>
      <trkpt lat="47.26079" lon="1.22095">
        <ele>158.91</ele>
        <time>2020-06-14T15:47:18Z</time>
      </trkpt>
      <trkpt lat="47.26119" lon="1.2236">
        <ele>162.61</ele>
        <time>2020-06-14T15:47:28Z</time>
      </trkpt>
      <trkpt lat="47.2613" lon="1.22692">
        <ele>165.77</ele>
        <time>2020-06-14T15:47:40Z</time>
      </trkpt>
      <trkpt lat="47.26105" lon="1.23044">
        <ele>161.14</ele>
        <time>2020-06-14T15:47:52Z</time>
      </trkpt>
      <trkpt lat="47.26096" lon="1.23162">
        <ele>157.39</ele>
        <time>2020-06-14T15:47:56Z</time>
      </trkpt>
      <trkpt lat="47.26083" lon="1.23339">
        <ele>154.07</ele>
        <time>2020-06-14T15:48:02Z</time>
      </trkpt>
      <trkpt lat="47.26079" lon="1.23394">
        <ele>150.9</ele>
        <time>2020-06-14T15:48:04Z</time>
      </trkpt>
      <trkpt lat="47.26072" lon="1.23542">
        <ele>149.36</ele>
        <time>2020-06-14T15:48:10Z</time>
      </trkpt>
      <trkpt lat="47.26089" lon="1.23637">
        <ele>152.83</ele>
        <time>2020-06-14T15:48:14Z</time>
      </trkpt>
      <trkpt lat="47.26129" lon="1.23761">
        <ele>157.33</ele>
        <time>2020-06-14T15:48:19Z</time>
      </trkpt>
      <trkpt lat="47.26199" lon="1.23982">
        <ele>151.1</ele>
        <time>2020-06-14T15:48:31Z</time>
      </trkpt>
      <trkpt lat="47.26204" lon="1.24003">
        <ele>150.73</ele>
        <time>2020-06-14T15:48:40Z</time>
      </trkpt>
      <trkpt lat="47.26205" lon="1.24014">
        <ele>151.38</ele>
        <time>2020-06-14T15:48:41Z</time>
      </trkpt>
      <trkpt lat="47.26213" lon="1.24097">
        <ele>155.13</ele>
        <time>2020-06-14T15:48:46Z</time>
      </trkpt>
      <trkpt lat="47.26215" lon="1.24118">
        <ele>155.05</ele>
        <time>2020-06-14T15:48:47Z</time>
      </trkpt>
      <trkpt lat="47.26249" lon="1.24497">
        <ele>151.47</ele>
        <time>2020-06-14T15:49:02Z</time>
      </trkpt>
      <trkpt lat="47.26268" lon="1.24691">
        <ele>155.24</ele>
        <time>2020-06-14T15:49:10Z</time>
      </trkpt>
      <trkpt lat="47.26302" lon="1.25042">
        <ele>156.53</ele>
        <time>2020-06-14T15:49:24Z</time>
      </trkpt>
      <trkpt lat="47.26313" lon="1.25163">
        <ele>159.82</ele>
        <time>2020-06-14T15:49:29Z</time>
      </trkpt>
      <trkpt lat="47.26316" lon="1.25187">
        <ele>160.04</ele>
        <time>2020-06-14T15:49:30Z</time>
      </trkpt>
      <trkpt lat="47.26335" lon="1.25389">
        <ele>163.12</ele>
        <time>2020-06-14T15:49:38Z</time>
      </trkpt>
      <trkpt lat="47.26387" lon="1.25974">
        <ele>157.15</ele>
        <time>2020-06-14T15:50:01Z</time>
      </trkpt>
      <trkpt lat="47.26398" lon="1.26096">
        <ele>158.86</ele>
        <time>2020-06-14T15:50:06Z</time>
      </trkpt>
      <trkpt lat="47.2641" lon="1.26235">
        <ele>163.22</ele>
        <time>2020-06-14T15:50:12Z</time>
      </trkpt>
      <trkpt lat="47.26506" lon="1.26561">
        <ele>167.39</ele>
        <time>2020-06-14T15:50:26Z</time>
      </trkpt>
      <trkpt lat="47.26586" lon="1.27008">
        <ele>161.8</ele>
        <time>2020-06-14T15:50:45Z</time>
      </trkpt>
      <trkpt lat="47.26614" lon="1.27098">
        <ele>158.32</ele>
        <time>2020-06-14T15:50:49Z</time>
      </trkpt>
      <trkpt lat="47.26634" lon="1.27157">
        <ele>155.22</ele>
        <time>2020-06-14T15:50:52Z</time>
      </trkpt>
      <trkpt lat="47.26703" lon="1.2743">
        <ele>150.39</ele>
        <time>2020-06-14T15:51:05Z</time>
      </trkpt>
      <trkpt lat="47.26734" lon="1.27568">
        <ele>146.37</ele>
        <time>2020-06-14T15:51:13Z</time>
      </trkpt>
      <trkpt lat="47.26742" lon="1.27605">
        <ele>146.35</ele>
        <time>2020-06-14T15:51:18Z</time>
      </trkpt>
      <trkpt lat="47.26735" lon="1.27642">
        <ele>147.61</ele>
        <time>2020-06-14T15:51:22Z</time>
      </trkpt>
      <trkpt lat="47.26715" lon="1.27667">
        <ele>147.29</ele>
        <time>2020-06-14T15:51:25Z</time>
      </trkpt>
      <trkpt lat="47.26681" lon="1.27701">
        <ele>146.27</ele>
        <time>2020-06-14T15:51:29Z</time>
      </trkpt>
      <trkpt lat="47.26657" lon="1.27808">
        <ele>145.03</ele>
        <time>2020-06-14T15:51:36Z</time>
      </trkpt>
      <trkpt lat="47.26673" lon="1.28323">
        <ele>140.6</ele>
        <time>2020-06-14T15:52:01Z</time>
      </trkpt>
      <trkpt lat="47.26669" lon="1.28388">
        <ele>137.31</ele>
        <time>2020-06-14T15:52:04Z</time>
      </trkpt>
      <trkpt lat="47.26666" lon="1.28408">
        <ele>137.04</ele>
        <time>2020-06-14T15:52:05Z</time>
      </trkpt>
      <trkpt lat="47.26661" lon="1.28469">
        <ele>134.02</ele>
        <time>2020-06-14T15:52:08Z</time>
      </trkpt>
      <trkpt lat="47.26663" lon="1.28489">
        <ele>133.88</ele>
        <time>2020-06-14T15:52:09Z</time>
      </trkpt>
      <trkpt lat="47.26673" lon="1.28551">
        <ele>132.53</ele>
        <time>2020-06-14T15:52:12Z</time>
      </trkpt>
      <trkpt lat="47.26691" lon="1.28632">
        <ele>129.16</ele>
        <time>2020-06-14T15:52:16Z</time>
      </trkpt>
      <trkpt lat="47.26694" lon="1.28672">
        <ele>127.98</ele>
        <time>2020-06-14T15:52:18Z</time>
      </trkpt>
      <trkpt lat="47.26691" lon="1.28712">
        <ele>127.85</ele>
        <time>2020-06-14T15:52:20Z</time>
      </trkpt>
      <trkpt lat="47.26685" lon="1.28773">
        <ele>124.63</ele>
        <time>2020-06-14T15:52:24Z</time>
      </trkpt>
      <trkpt lat="47.26682" lon="1.28786">
        <ele>124.04</ele>
        <time>2020-06-14T15:52:26Z</time>
      </trkpt>
      <trkpt lat="47.26631" lon="1.28828">
        <ele>131</ele>
        <time>2020-06-14T15:52:42Z</time>
      </trkpt>
      <trkpt lat="47.266" lon="1.28854">
        <ele>134.23</ele>
        <time>2020-06-14T15:52:45Z</time>
      </trkpt>
      <trkpt lat="47.26567" lon="1.28881">
        <ele>137.38</ele>
        <time>2020-06-14T15:52:48Z</time>
      </trkpt>
      <trkpt lat="47.26477" lon="1.28955">
        <ele>142.14</ele>
        <time>2020-06-14T15:52:57Z</time>
      </trkpt>
      <trkpt lat="47.26382" lon="1.29036">
        <ele>145.61</ele>
        <time>2020-06-14T15:53:07Z</time>
      </trkpt>
      <trkpt lat="47.26319" lon="1.29089">
        <ele>148.69</ele>
        <time>2020-06-14T15:53:13Z</time>
      </trkpt>
      <trkpt lat="47.26308" lon="1.29097">
        <ele>148.51</ele>
        <time>2020-06-14T15:53:14Z</time>
      </trkpt>
      <trkpt lat="47.26224" lon="1.2917">
        <ele>147.96</ele>
        <time>2020-06-14T15:53:27Z</time>
      </trkpt>
      <trkpt lat="47.26235" lon="1.29206">
        <ele>149.46</ele>
        <time>2020-06-14T15:53:33Z</time>
      </trkpt>
      <trkpt lat="47.26252" lon="1.29244">
        <ele>148.42</ele>
        <time>2020-06-14T15:53:37Z</time>
      </trkpt>
      <trkpt lat="47.26254" lon="1.29253">
        <ele>147.23</ele>
        <time>2020-06-14T15:53:39Z</time>
      </trkpt>
      <trkpt lat="47.26255" lon="1.29264">
        <ele>147.02</ele>
        <time>2020-06-14T15:53:44Z</time>
      </trkpt>
      <trkpt lat="47.26258" lon="1.29267">
        <ele>147.72</ele>
        <time>2020-06-14T15:53:45Z</time>
      </trkpt>
      <trkpt lat="47.26284" lon="1.29318">
        <ele>148.08</ele>
        <time>2020-06-14T15:53:51Z</time>
      </trkpt>
      <trkpt lat="47.26286" lon="1.29343">
        <ele>147.44</ele>
        <time>2020-06-14T15:53:54Z</time>
      </trkpt>
      <trkpt lat="47.26384" lon="1.29607">
        <ele>143.85</ele>
        <time>2020-06-14T15:54:20Z</time>
      </trkpt>
      <trkpt lat="47.26423" lon="1.29704">
        <ele>143.47</ele>
        <time>2020-06-14T15:54:30Z</time>
      </trkpt>
      <trkpt lat="47.26479" lon="1.29816">
        <ele>142.08</ele>
        <time>2020-06-14T15:54:42Z</time>
      </trkpt>
      <trkpt lat="47.26543" lon="1.30025">
        <ele>142.61</ele>
        <time>2020-06-14T15:55:04Z</time>
      </trkpt>
      <trkpt lat="47.26569" lon="1.30128">
        <ele>141.82</ele>
        <time>2020-06-14T15:55:15Z</time>
      </trkpt>
      <trkpt lat="47.26654" lon="1.30479">
        <ele>140.08</ele>
        <time>2020-06-14T15:55:40Z</time>
      </trkpt>
      <trkpt lat="47.26656" lon="1.30492">
        <ele>140.88</ele>
        <time>2020-06-14T15:55:41Z</time>
      </trkpt>
      <trkpt lat="47.26657" lon="1.30504">
        <ele>141.05</ele>
        <time>2020-06-14T15:55:42Z</time>
      </trkpt>
      <trkpt lat="47.26641" lon="1.30536">
        <ele>140.87</ele>
        <time>2020-06-14T15:55:47Z</time>
      </trkpt>
      <trkpt lat="47.26633" lon="1.3054">
        <ele>140.9</ele>
        <time>2020-06-14T15:55:48Z</time>
      </trkpt>
      <trkpt lat="47.2655" lon="1.30617">
        <ele>138.47</ele>
        <time>2020-06-14T15:55:57Z</time>
      </trkpt>
      <trkpt lat="47.26529" lon="1.30632">
        <ele>137.73</ele>
        <time>2020-06-14T15:55:59Z</time>
      </trkpt>
      <trkpt lat="47.26509" lon="1.30647">
        <ele>135.84</ele>
        <time>2020-06-14T15:56:01Z</time>
      </trkpt>
      <trkpt lat="47.265" lon="1.30658">
        <ele>136.21</ele>
        <time>2020-06-14T15:56:02Z</time>
      </trkpt>
      <trkpt lat="47.26464" lon="1.30704">
        <ele>133.05</ele>
        <time>2020-06-14T15:56:07Z</time>
      </trkpt>
      <trkpt lat="47.26456" lon="1.30708">
        <ele>132.77</ele>
        <time>2020-06-14T15:56:08Z</time>
      </trkpt>
      <trkpt lat="47.26432" lon="1.30704">
        <ele>133.29</ele>
        <time>2020-06-14T15:56:11Z</time>
      </trkpt>
      <trkpt lat="47.26423" lon="1.30702">
        <ele>133.41</ele>
        <time>2020-06-14T15:56:12Z</time>
      </trkpt>
      <trkpt lat="47.26325" lon="1.30748">
        <ele>137.94</ele>
        <time>2020-06-14T15:56:21Z</time>
      </trkpt>
      <trkpt lat="47.26312" lon="1.30757">
        <ele>138</ele>
        <time>2020-06-14T15:56:22Z</time>
      </trkpt>
      <trkpt lat="47.26243" lon="1.308">
        <ele>142.47</ele>
        <time>2020-06-14T15:56:27Z</time>
      </trkpt>
      <trkpt lat="47.26216" lon="1.30812">
        <ele>141.66</ele>
        <time>2020-06-14T15:56:29Z</time>
      </trkpt>
      <trkpt lat="47.26142" lon="1.30822">
        <ele>140.97</ele>
        <time>2020-06-14T15:56:35Z</time>
      </trkpt>
      <trkpt lat="47.26136" lon="1.30823">
        <ele>139.53</ele>
        <time>2020-06-14T15:56:36Z</time>
      </trkpt>
      <trkpt lat="47.26131" lon="1.30826">
        <ele>139.95</ele>
        <time>2020-06-14T15:56:37Z</time>
      </trkpt>
      <trkpt lat="47.26154" lon="1.30955">
        <ele>138.7</ele>
        <time>2020-06-14T15:56:49Z</time>
      </trkpt>
      <trkpt lat="47.26163" lon="1.31">
        <ele>136.6</ele>
        <time>2020-06-14T15:56:53Z</time>
      </trkpt>
      <trkpt lat="47.26164" lon="1.31011">
        <ele>136.46</ele>
        <time>2020-06-14T15:56:54Z</time>
      </trkpt>
      <trkpt lat="47.26137" lon="1.31196">
        <ele>135.47</ele>
        <time>2020-06-14T15:57:06Z</time>
      </trkpt>
      <trkpt lat="47.26098" lon="1.31388">
        <ele>132.66</ele>
        <time>2020-06-14T15:57:18Z</time>
      </trkpt>
      <trkpt lat="47.26065" lon="1.31498">
        <ele>129.2</ele>
        <time>2020-06-14T15:57:27Z</time>
      </trkpt>
      <trkpt lat="47.26062" lon="1.31506">
        <ele>129.05</ele>
        <time>2020-06-14T15:57:28Z</time>
      </trkpt>
      <trkpt lat="47.26031" lon="1.31502">
        <ele>128.01</ele>
        <time>2020-06-14T15:57:38Z</time>
      </trkpt>
      <trkpt lat="47.25998" lon="1.31428">
        <ele>128.49</ele>
        <time>2020-06-14T15:57:48Z</time>
      </trkpt>
      <trkpt lat="47.25954" lon="1.31365">
        <ele>125.3</ele>
        <time>2020-06-14T15:57:58Z</time>
      </trkpt>
      <trkpt lat="47.25944" lon="1.31353">
        <ele>125.43</ele>
        <time>2020-06-14T15:58:00Z</time>
      </trkpt>
      <trkpt lat="47.25917" lon="1.31307">
        <ele>122.35</ele>
        <time>2020-06-14T15:58:06Z</time>
      </trkpt>
      <trkpt lat="47.25897" lon="1.313">
        <ele>120.6</ele>
        <time>2020-06-14T15:58:09Z</time>
      </trkpt>
      <trkpt lat="47.25884" lon="1.31299">
        <ele>119.42</ele>
        <time>2020-06-14T15:58:11Z</time>
      </trkpt>
      <trkpt lat="47.25878" lon="1.31298">
        <ele>119.31</ele>
        <time>2020-06-14T15:58:12Z</time>
      </trkpt>
      <trkpt lat="47.25829" lon="1.31268">
        <ele>117.13</ele>
        <time>2020-06-14T15:58:20Z</time>
      </trkpt>
      <trkpt lat="47.25817" lon="1.31266">
        <ele>116.29</ele>
        <time>2020-06-14T15:58:22Z</time>
      </trkpt>
      <trkpt lat="47.25804" lon="1.3127">
        <ele>116.45</ele>
        <time>2020-06-14T15:58:24Z</time>
      </trkpt>
      <trkpt lat="47.25723" lon="1.31308">
        <ele>122.54</ele>
        <time>2020-06-14T15:58:34Z</time>
      </trkpt>
      <trkpt lat="47.25702" lon="1.31321">
        <ele>124.35</ele>
        <time>2020-06-14T15:58:36Z</time>
      </trkpt>
      <trkpt lat="47.25662" lon="1.3136">
        <ele>128.16</ele>
        <time>2020-06-14T15:58:40Z</time>
      </trkpt>
      <trkpt lat="47.25652" lon="1.31371">
        <ele>129.49</ele>
        <time>2020-06-14T15:58:41Z</time>
      </trkpt>
      <trkpt lat="47.25625" lon="1.314">
        <ele>132.89</ele>
        <time>2020-06-14T15:58:44Z</time>
      </trkpt>
      <trkpt lat="47.25614" lon="1.31408">
        <ele>134.45</ele>
        <time>2020-06-14T15:58:45Z</time>
      </trkpt>
      <trkpt lat="47.25557" lon="1.31444">
        <ele>137.74</ele>
        <time>2020-06-14T15:58:50Z</time>
      </trkpt>
      <trkpt lat="47.25451" lon="1.31509">
        <ele>138.72</ele>
        <time>2020-06-14T15:59:00Z</time>
      </trkpt>
      <trkpt lat="47.25426" lon="1.31535">
        <ele>135.58</ele>
        <time>2020-06-14T15:59:05Z</time>
      </trkpt>
      <trkpt lat="47.25397" lon="1.3157">
        <ele>135.84</ele>
        <time>2020-06-14T15:59:13Z</time>
      </trkpt>
      <trkpt lat="47.25383" lon="1.3158">
        <ele>136.63</ele>
        <time>2020-06-14T15:59:15Z</time>
      </trkpt>
      <trkpt lat="47.25358" lon="1.31596">
        <ele>135.85</ele>
        <time>2020-06-14T15:59:19Z</time>
      </trkpt>
      <trkpt lat="47.25342" lon="1.31631">
        <ele>135.37</ele>
        <time>2020-06-14T15:59:25Z</time>
      </trkpt>
      <trkpt lat="47.25307" lon="1.31901">
        <ele>135.05</ele>
        <time>2020-06-14T15:59:51Z</time>
      </trkpt>
      <trkpt lat="47.25245" lon="1.32187">
        <ele>130.95</ele>
        <time>2020-06-14T16:00:10Z</time>
      </trkpt>
      <trkpt lat="47.25245" lon="1.32206">
        <ele>130.92</ele>
        <time>2020-06-14T16:00:11Z</time>
      </trkpt>
      <trkpt lat="47.25238" lon="1.32369">
        <ele>124.9</ele>
        <time>2020-06-14T16:00:20Z</time>
      </trkpt>
      <trkpt lat="47.25237" lon="1.32382">
        <ele>124.97</ele>
        <time>2020-06-14T16:00:21Z</time>
      </trkpt>
      <trkpt lat="47.25233" lon="1.32439">
        <ele>120.76</ele>
        <time>2020-06-14T16:00:27Z</time>
      </trkpt>
      <trkpt lat="47.25216" lon="1.32445">
        <ele>120.08</ele>
        <time>2020-06-14T16:00:31Z</time>
      </trkpt>
      <trkpt lat="47.25178" lon="1.32443">
        <ele>120.24</ele>
        <time>2020-06-14T16:00:35Z</time>
      </trkpt>
      <trkpt lat="47.2516" lon="1.32451">
        <ele>121.27</ele>
        <time>2020-06-14T16:00:37Z</time>
      </trkpt>
      <trkpt lat="47.25136" lon="1.32563">
        <ele>123</ele>
        <time>2020-06-14T16:00:44Z</time>
      </trkpt>
      <trkpt lat="47.25102" lon="1.32691">
        <ele>126.43</ele>
        <time>2020-06-14T16:00:50Z</time>
      </trkpt>
      <trkpt lat="47.25086" lon="1.32765">
        <ele>121.78</ele>
        <time>2020-06-14T16:00:54Z</time>
      </trkpt>
      <trkpt lat="47.25081" lon="1.3279">
        <ele>118.42</ele>
        <time>2020-06-14T16:00:56Z</time>
      </trkpt>
      <trkpt lat="47.25082" lon="1.32813">
        <ele>116.68</ele>
        <time>2020-06-14T16:01:01Z</time>
      </trkpt>
      <trkpt lat="47.25076" lon="1.32967">
        <ele>118.87</ele>
        <time>2020-06-14T16:01:10Z</time>
      </trkpt>
      <trkpt lat="47.25072" lon="1.33076">
        <ele>115.34</ele>
        <time>2020-06-14T16:01:15Z</time>
      </trkpt>
      <trkpt lat="47.25072" lon="1.33095">
        <ele>115.47</ele>
        <time>2020-06-14T16:01:16Z</time>
      </trkpt>
      <trkpt lat="47.25072" lon="1.33142">
        <ele>111.45</ele>
        <time>2020-06-14T16:01:19Z</time>
      </trkpt>
      <trkpt lat="47.25069" lon="1.33163">
        <ele>110.77</ele>
        <time>2020-06-14T16:01:21Z</time>
      </trkpt>
      <trkpt lat="47.25034" lon="1.33176">
        <ele>110.98</ele>
        <time>2020-06-14T16:01:26Z</time>
      </trkpt>
      <trkpt lat="47.25017" lon="1.33172">
        <ele>109.21</ele>
        <time>2020-06-14T16:01:29Z</time>
      </trkpt>
      <trkpt lat="47.25015" lon="1.33172">
        <ele>108.99</ele>
        <time>2020-06-14T16:01:30Z</time>
      </trkpt>
      <trkpt lat="47.25016" lon="1.33175">
        <ele>109.12</ele>
        <time>2020-06-14T16:01:34Z</time>
      </trkpt>
      <trkpt lat="47.25017" lon="1.33175">
        <ele>109.46</ele>
        <time>2020-06-14T16:01:35Z</time>
      </trkpt>
      <trkpt lat="47.25061" lon="1.33169">
        <ele>110.32</ele>
        <time>2020-06-14T16:01:51Z</time>
      </trkpt>
      <trkpt lat="47.25073" lon="1.33153">
        <ele>109.67</ele>
        <time>2020-06-14T16:01:56Z</time>
      </trkpt>
      <trkpt lat="47.25075" lon="1.33144">
        <ele>109.36</ele>
        <time>2020-06-14T16:02:17Z</time>
      </trkpt>
      <trkpt lat="47.25073" lon="1.33095">
        <ele>111.48</ele>
        <time>2020-06-14T16:02:22Z</time>
      </trkpt>
      <trkpt lat="47.2508" lon="1.32948">
        <ele>112.27</ele>
        <time>2020-06-14T16:02:31Z</time>
      </trkpt>
      <trkpt lat="47.25085" lon="1.32867">
        <ele>117.27</ele>
        <time>2020-06-14T16:02:36Z</time>
      </trkpt>
      <trkpt lat="47.25086" lon="1.32835">
        <ele>118.26</ele>
        <time>2020-06-14T16:02:38Z</time>
      </trkpt>
      <trkpt lat="47.25084" lon="1.32804">
        <ele>117.8</ele>
        <time>2020-06-14T16:02:49Z</time>
      </trkpt>
      <trkpt lat="47.25155" lon="1.32923">
        <ele>112.31</ele>
        <time>2020-06-14T16:03:04Z</time>
      </trkpt>
      <trkpt lat="47.2516" lon="1.3293">
        <ele>112.18</ele>
        <time>2020-06-14T16:03:05Z</time>
      </trkpt>
      <trkpt lat="47.25207" lon="1.32986">
        <ele>108.72</ele>
        <time>2020-06-14T16:03:14Z</time>
      </trkpt>
      <trkpt lat="47.25223" lon="1.33006">
        <ele>107.42</ele>
        <time>2020-06-14T16:03:17Z</time>
      </trkpt>
      <trkpt lat="47.25269" lon="1.3308">
        <ele>104.32</ele>
        <time>2020-06-14T16:03:25Z</time>
      </trkpt>
      <trkpt lat="47.25279" lon="1.331">
        <ele>103.6</ele>
        <time>2020-06-14T16:03:27Z</time>
      </trkpt>
      <trkpt lat="47.25303" lon="1.33152">
        <ele>100.22</ele>
        <time>2020-06-14T16:03:32Z</time>
      </trkpt>
      <trkpt lat="47.25342" lon="1.33267">
        <ele>96.78</ele>
        <time>2020-06-14T16:03:45Z</time>
      </trkpt>
      <trkpt lat="47.2535" lon="1.33295">
        <ele>97.54</ele>
        <time>2020-06-14T16:03:48Z</time>
      </trkpt>
      <trkpt lat="47.2537" lon="1.33348">
        <ele>100.68</ele>
        <time>2020-06-14T16:03:53Z</time>
      </trkpt>
      <trkpt lat="47.25374" lon="1.33361">
        <ele>101.61</ele>
        <time>2020-06-14T16:03:54Z</time>
      </trkpt>
      <trkpt lat="47.25387" lon="1.33398">
        <ele>105.31</ele>
        <time>2020-06-14T16:03:57Z</time>
      </trkpt>
      <trkpt lat="47.25412" lon="1.33437">
        <ele>109.25</ele>
        <time>2020-06-14T16:04:01Z</time>
      </trkpt>
      <trkpt lat="47.25421" lon="1.33445">
        <ele>110.76</ele>
        <time>2020-06-14T16:04:02Z</time>
      </trkpt>
      <trkpt lat="47.2543" lon="1.33453">
        <ele>111.09</ele>
        <time>2020-06-14T16:04:03Z</time>
      </trkpt>
      <trkpt lat="47.2547" lon="1.33503">
        <ele>113.03</ele>
        <time>2020-06-14T16:04:10Z</time>
      </trkpt>
      <trkpt lat="47.25473" lon="1.33513">
        <ele>113.42</ele>
        <time>2020-06-14T16:04:11Z</time>
      </trkpt>
      <trkpt lat="47.25485" lon="1.33555">
        <ele>116.93</ele>
        <time>2020-06-14T16:04:15Z</time>
      </trkpt>
      <trkpt lat="47.25504" lon="1.33611">
        <ele>121.38</ele>
        <time>2020-06-14T16:04:20Z</time>
      </trkpt>
      <trkpt lat="47.25516" lon="1.33644">
        <ele>124.72</ele>
        <time>2020-06-14T16:04:23Z</time>
      </trkpt>
      <trkpt lat="47.25529" lon="1.33675">
        <ele>128.62</ele>
        <time>2020-06-14T16:04:26Z</time>
      </trkpt>
      <trkpt lat="47.25557" lon="1.33739">
        <ele>132.9</ele>
        <time>2020-06-14T16:04:32Z</time>
      </trkpt>
      <trkpt lat="47.25574" lon="1.33785">
        <ele>134.74</ele>
        <time>2020-06-14T16:04:38Z</time>
      </trkpt>
      <trkpt lat="47.25573" lon="1.33789">
        <ele>134.15</ele>
        <time>2020-06-14T16:04:39Z</time>
      </trkpt>
      <trkpt lat="47.2556" lon="1.33804">
        <ele>134.45</ele>
        <time>2020-06-14T16:04:42Z</time>
      </trkpt>
      <trkpt lat="47.2547" lon="1.33912">
        <ele>137.3</ele>
        <time>2020-06-14T16:04:53Z</time>
      </trkpt>
      <trkpt lat="47.25428" lon="1.33973">
        <ele>134.99</ele>
        <time>2020-06-14T16:04:58Z</time>
      </trkpt>
      <trkpt lat="47.25372" lon="1.34155">
        <ele>127.8</ele>
        <time>2020-06-14T16:05:10Z</time>
      </trkpt>
      <trkpt lat="47.25366" lon="1.34169">
        <ele>127.8</ele>
        <time>2020-06-14T16:05:11Z</time>
      </trkpt>
      <trkpt lat="47.25304" lon="1.34297">
        <ele>131.95</ele>
        <time>2020-06-14T16:05:20Z</time>
      </trkpt>
      <trkpt lat="47.25298" lon="1.34308">
        <ele>131.43</ele>
        <time>2020-06-14T16:05:21Z</time>
      </trkpt>
      <trkpt lat="47.25288" lon="1.34325">
        <ele>128.42</ele>
        <time>2020-06-14T16:05:25Z</time>
      </trkpt>
      <trkpt lat="47.25375" lon="1.34149">
        <ele>128.17</ele>
        <time>2020-06-14T16:05:54Z</time>
      </trkpt>
      <trkpt lat="47.25361" lon="1.34134">
        <ele>128.79</ele>
        <time>2020-06-14T16:05:58Z</time>
      </trkpt>
      <trkpt lat="47.25291" lon="1.34106">
        <ele>125.1</ele>
        <time>2020-06-14T16:06:05Z</time>
      </trkpt>
      <trkpt lat="47.25278" lon="1.34101">
        <ele>124.47</ele>
        <time>2020-06-14T16:06:07Z</time>
      </trkpt>
      <trkpt lat="47.25267" lon="1.3409">
        <ele>122.97</ele>
        <time>2020-06-14T16:06:09Z</time>
      </trkpt>
      <trkpt lat="47.25247" lon="1.34068">
        <ele>119.76</ele>
        <time>2020-06-14T16:06:12Z</time>
      </trkpt>
      <trkpt lat="47.25208" lon="1.34044">
        <ele>114.04</ele>
        <time>2020-06-14T16:06:17Z</time>
      </trkpt>
      <trkpt lat="47.25199" lon="1.34039">
        <ele>113.13</ele>
        <time>2020-06-14T16:06:18Z</time>
      </trkpt>
      <trkpt lat="47.25172" lon="1.34015">
        <ele>109.61</ele>
        <time>2020-06-14T16:06:22Z</time>
      </trkpt>
      <trkpt lat="47.25153" lon="1.33996">
        <ele>108.08</ele>
        <time>2020-06-14T16:06:25Z</time>
      </trkpt>
      <trkpt lat="47.2513" lon="1.33967">
        <ele>105.06</ele>
        <time>2020-06-14T16:06:28Z</time>
      </trkpt>
      <trkpt lat="47.25122" lon="1.33956">
        <ele>105.07</ele>
        <time>2020-06-14T16:06:29Z</time>
      </trkpt>
      <trkpt lat="47.25082" lon="1.33909">
        <ele>101.14</ele>
        <time>2020-06-14T16:06:34Z</time>
      </trkpt>
      <trkpt lat="47.25073" lon="1.33901">
        <ele>100.92</ele>
        <time>2020-06-14T16:06:35Z</time>
      </trkpt>
      <trkpt lat="47.25057" lon="1.33885">
        <ele>99.19</ele>
        <time>2020-06-14T16:06:37Z</time>
      </trkpt>
      <trkpt lat="47.25049" lon="1.33875">
        <ele>98.91</ele>
        <time>2020-06-14T16:06:38Z</time>
      </trkpt>
      <trkpt lat="47.25032" lon="1.33834">
        <ele>96.85</ele>
        <time>2020-06-14T16:06:41Z</time>
      </trkpt>
      <trkpt lat="47.24995" lon="1.33729">
        <ele>92.72</ele>
        <time>2020-06-14T16:06:50Z</time>
      </trkpt>
      <trkpt lat="47.24985" lon="1.33734">
        <ele>92.85</ele>
        <time>2020-06-14T16:06:54Z</time>
      </trkpt>
      <trkpt lat="47.24925" lon="1.3382">
        <ele>92.7</ele>
        <time>2020-06-14T16:07:09Z</time>
      </trkpt>
      <trkpt lat="47.24958" lon="1.33769">
        <ele>92.46</ele>
        <time>2020-06-14T16:07:28Z</time>
      </trkpt>
      <trkpt lat="47.24933" lon="1.33767">
        <ele>92.69</ele>
        <time>2020-06-14T16:07:59Z</time>
      </trkpt>
      <trkpt lat="47.24912" lon="1.33764">
        <ele>93.83</ele>
        <time>2020-06-14T16:08:38Z</time>
      </trkpt>
      <trkpt lat="47.24894" lon="1.33783">
        <ele>95.07</ele>
        <time>2020-06-14T16:08:48Z</time>
      </trkpt>
      <trkpt lat="47.24866" lon="1.33811">
        <ele>96.7</ele>
        <time>2020-06-14T16:08:57Z</time>
      </trkpt>
      <trkpt lat="47.24861" lon="1.3381">
        <ele>97.62</ele>
        <time>2020-06-14T16:08:58Z</time>
      </trkpt>
      <trkpt lat="47.24829" lon="1.33807">
        <ele>100.67</ele>
        <time>2020-06-14T16:09:03Z</time>
      </trkpt>
      <trkpt lat="47.24766" lon="1.33805">
        <ele>103.27</ele>
        <time>2020-06-14T16:09:15Z</time>
      </trkpt>
      <trkpt lat="47.24765" lon="1.33809">
        <ele>103.39</ele>
        <time>2020-06-14T16:09:16Z</time>
      </trkpt>
      <trkpt lat="47.24654" lon="1.34108">
        <ele>102.95</ele>
        <time>2020-06-14T16:09:59Z</time>
      </trkpt>
      <trkpt lat="47.24628" lon="1.34161">
        <ele>99.36</ele>
        <time>2020-06-14T16:10:07Z</time>
      </trkpt>
      <trkpt lat="47.24627" lon="1.34168">
        <ele>99.25</ele>
        <time>2020-06-14T16:10:08Z</time>
      </trkpt>
      <trkpt lat="47.24621" lon="1.34195">
        <ele>95.18</ele>
        <time>2020-06-14T16:10:13Z</time>
      </trkpt>
      <trkpt lat="47.24616" lon="1.34199">
        <ele>94.51</ele>
        <time>2020-06-14T16:10:15Z</time>
      </trkpt>
      <trkpt lat="47.24608" lon="1.34196">
        <ele>93.03</ele>
        <time>2020-06-14T16:10:18Z</time>
      </trkpt>
      <trkpt lat="47.24601" lon="1.34185">
        <ele>91.31</ele>
        <time>2020-06-14T16:10:21Z</time>
      </trkpt>
      <trkpt lat="47.246" lon="1.34181">
        <ele>90.63</ele>
        <time>2020-06-14T16:10:22Z</time>
      </trkpt>
      <trkpt lat="47.24543" lon="1.34109">
        <ele>91.63</ele>
        <time>2020-06-14T16:10:41Z</time>
      </trkpt>
      <trkpt lat="47.24533" lon="1.34106">
        <ele>91.38</ele>
        <time>2020-06-14T16:10:42Z</time>
      </trkpt>
      <trkpt lat="47.24507" lon="1.34105">
        <ele>91.01</ele>
        <time>2020-06-14T16:10:45Z</time>
      </trkpt>
      <trkpt lat="47.24464" lon="1.34128">
        <ele>95.84</ele>
        <time>2020-06-14T16:10:53Z</time>
      </trkpt>
      <trkpt lat="47.24446" lon="1.34149">
        <ele>99.42</ele>
        <time>2020-06-14T16:10:55Z</time>
      </trkpt>
      <trkpt lat="47.24426" lon="1.3417">
        <ele>102.87</ele>
        <time>2020-06-14T16:10:57Z</time>
      </trkpt>
      <trkpt lat="47.24405" lon="1.34192">
        <ele>106.53</ele>
        <time>2020-06-14T16:10:59Z</time>
      </trkpt>
      <trkpt lat="47.24375" lon="1.34227">
        <ele>110.62</ele>
        <time>2020-06-14T16:11:02Z</time>
      </trkpt>
      <trkpt lat="47.24347" lon="1.3427">
        <ele>114.39</ele>
        <time>2020-06-14T16:11:05Z</time>
      </trkpt>
      <trkpt lat="47.24292" lon="1.34335">
        <ele>117.18</ele>
        <time>2020-06-14T16:11:11Z</time>
      </trkpt>
      <trkpt lat="47.24269" lon="1.34371">
        <ele>118.02</ele>
        <time>2020-06-14T16:11:14Z</time>
      </trkpt>
      <trkpt lat="47.2426" lon="1.34381">
        <ele>118.36</ele>
        <time>2020-06-14T16:11:15Z</time>
      </trkpt>
      <trkpt lat="47.24224" lon="1.34416">
        <ele>116.1</ele>
        <time>2020-06-14T16:11:19Z</time>
      </trkpt>
      <trkpt lat="47.24211" lon="1.3453">
        <ele>118.2</ele>
        <time>2020-06-14T16:11:26Z</time>
      </trkpt>
      <trkpt lat="47.24214" lon="1.34573">
        <ele>116.66</ele>
        <time>2020-06-14T16:11:29Z</time>
      </trkpt>
      <trkpt lat="47.24216" lon="1.34595">
        <ele>117.55</ele>
        <time>2020-06-14T16:11:31Z</time>
      </trkpt>
      <trkpt lat="47.24212" lon="1.34689">
        <ele>118.61</ele>
        <time>2020-06-14T16:11:37Z</time>
      </trkpt>
      <trkpt lat="47.24209" lon="1.34706">
        <ele>118.6</ele>
        <time>2020-06-14T16:11:38Z</time>
      </trkpt>
      <trkpt lat="47.24183" lon="1.34833">
        <ele>116.65</ele>
        <time>2020-06-14T16:11:45Z</time>
      </trkpt>
      <trkpt lat="47.24183" lon="1.34871">
        <ele>115.86</ele>
        <time>2020-06-14T16:11:47Z</time>
      </trkpt>
      <trkpt lat="47.24212" lon="1.34972">
        <ele>112.32</ele>
        <time>2020-06-14T16:11:53Z</time>
      </trkpt>
      <trkpt lat="47.24218" lon="1.34982">
        <ele>111.79</ele>
        <time>2020-06-14T16:11:54Z</time>
      </trkpt>
      <trkpt lat="47.24224" lon="1.34992">
        <ele>111.23</ele>
        <time>2020-06-14T16:11:55Z</time>
      </trkpt>
      <trkpt lat="47.2428" lon="1.35037">
        <ele>108.04</ele>
        <time>2020-06-14T16:12:02Z</time>
      </trkpt>
      <trkpt lat="47.2429" lon="1.35031">
        <ele>106.26</ele>
        <time>2020-06-14T16:12:05Z</time>
      </trkpt>
      <trkpt lat="47.24261" lon="1.35024">
        <ele>110.09</ele>
        <time>2020-06-14T16:12:13Z</time>
      </trkpt>
      <trkpt lat="47.24253" lon="1.35019">
        <ele>110.27</ele>
        <time>2020-06-14T16:12:14Z</time>
      </trkpt>
      <trkpt lat="47.24228" lon="1.3499">
        <ele>113.41</ele>
        <time>2020-06-14T16:12:17Z</time>
      </trkpt>
      <trkpt lat="47.24193" lon="1.34787">
        <ele>114.28</ele>
        <time>2020-06-14T16:12:29Z</time>
      </trkpt>
      <trkpt lat="47.24195" lon="1.34775">
        <ele>114.47</ele>
        <time>2020-06-14T16:12:30Z</time>
      </trkpt>
      <trkpt lat="47.24196" lon="1.34755">
        <ele>112.95</ele>
        <time>2020-06-14T16:12:33Z</time>
      </trkpt>
      <trkpt lat="47.24185" lon="1.34768">
        <ele>115.04</ele>
        <time>2020-06-14T16:12:37Z</time>
      </trkpt>
      <trkpt lat="47.2418" lon="1.34791">
        <ele>116.65</ele>
        <time>2020-06-14T16:12:39Z</time>
      </trkpt>
      <trkpt lat="47.24154" lon="1.34971">
        <ele>117.47</ele>
        <time>2020-06-14T16:12:52Z</time>
      </trkpt>
      <trkpt lat="47.24145" lon="1.34993">
        <ele>118.28</ele>
        <time>2020-06-14T16:12:54Z</time>
      </trkpt>
      <trkpt lat="47.24133" lon="1.35069">
        <ele>122.3</ele>
        <time>2020-06-14T16:12:59Z</time>
      </trkpt>
      <trkpt lat="47.24123" lon="1.35185">
        <ele>125.08</ele>
        <time>2020-06-14T16:13:06Z</time>
      </trkpt>
      <trkpt lat="47.24128" lon="1.35257">
        <ele>127.57</ele>
        <time>2020-06-14T16:13:10Z</time>
      </trkpt>
      <trkpt lat="47.24107" lon="1.35352">
        <ele>129.88</ele>
        <time>2020-06-14T16:13:15Z</time>
      </trkpt>
      <trkpt lat="47.24061" lon="1.35484">
        <ele>129.86</ele>
        <time>2020-06-14T16:13:22Z</time>
      </trkpt>
      <trkpt lat="47.24035" lon="1.35719">
        <ele>132.17</ele>
        <time>2020-06-14T16:13:32Z</time>
      </trkpt>
      <trkpt lat="47.24009" lon="1.3593">
        <ele>132.38</ele>
        <time>2020-06-14T16:13:41Z</time>
      </trkpt>
      <trkpt lat="47.2404" lon="1.36121">
        <ele>132.11</ele>
        <time>2020-06-14T16:13:49Z</time>
      </trkpt>
      <trkpt lat="47.24078" lon="1.36462">
        <ele>127.59</ele>
        <time>2020-06-14T16:14:05Z</time>
      </trkpt>
      <trkpt lat="47.24081" lon="1.36475">
        <ele>127.52</ele>
        <time>2020-06-14T16:14:07Z</time>
      </trkpt>
      <trkpt lat="47.24105" lon="1.36496">
        <ele>128.05</ele>
        <time>2020-06-14T16:14:11Z</time>
      </trkpt>
      <trkpt lat="47.24194" lon="1.36533">
        <ele>124.74</ele>
        <time>2020-06-14T16:14:21Z</time>
      </trkpt>
      <trkpt lat="47.24219" lon="1.36549">
        <ele>124.73</ele>
        <time>2020-06-14T16:15:17Z</time>
      </trkpt>
      <trkpt lat="47.24221" lon="1.3655">
        <ele>126.73</ele>
        <time>2020-06-14T16:23:35Z</time>
      </trkpt>
      <trkpt lat="47.24219" lon="1.3655">
        <ele>127.41</ele>
        <time>2020-06-14T16:30:44Z</time>
      </trkpt>
      <trkpt lat="47.24221" lon="1.36544">
        <ele>128.6</ele>
        <time>2020-06-14T16:39:57Z</time>
      </trkpt>
      <trkpt lat="47.24224" lon="1.36551">
        <ele>128.64</ele>
        <time>2020-06-14T16:42:06Z</time>
      </trkpt>
      <trkpt lat="47.24297" lon="1.36674">
        <ele>130.42</ele>
        <time>2020-06-14T16:42:20Z</time>
      </trkpt>
      <trkpt lat="47.24356" lon="1.36762">
        <ele>127.01</ele>
        <time>2020-06-14T16:42:30Z</time>
      </trkpt>
      <trkpt lat="47.24357" lon="1.36763">
        <ele>127.5</ele>
        <time>2020-06-14T16:43:12Z</time>
      </trkpt>
      <trkpt lat="47.24413" lon="1.36845">
        <ele>130.12</ele>
        <time>2020-06-14T16:43:21Z</time>
      </trkpt>
      <trkpt lat="47.24558" lon="1.37059">
        <ele>129.62</ele>
        <time>2020-06-14T16:43:38Z</time>
      </trkpt>
      <trkpt lat="47.24597" lon="1.37072">
        <ele>129.63</ele>
        <time>2020-06-14T16:43:43Z</time>
      </trkpt>
      <trkpt lat="47.2467" lon="1.3708">
        <ele>126.4</ele>
        <time>2020-06-14T16:43:53Z</time>
      </trkpt>
      <trkpt lat="47.24676" lon="1.3708">
        <ele>126.34</ele>
        <time>2020-06-14T16:43:54Z</time>
      </trkpt>
      <trkpt lat="47.24715" lon="1.37044">
        <ele>127.58</ele>
        <time>2020-06-14T16:43:59Z</time>
      </trkpt>
      <trkpt lat="47.24813" lon="1.36909">
        <ele>124.27</ele>
        <time>2020-06-14T16:44:09Z</time>
      </trkpt>
      <trkpt lat="47.24839" lon="1.36875">
        <ele>120.66</ele>
        <time>2020-06-14T16:44:12Z</time>
      </trkpt>
      <trkpt lat="47.24847" lon="1.36868">
        <ele>120.49</ele>
        <time>2020-06-14T16:44:13Z</time>
      </trkpt>
      <trkpt lat="47.24878" lon="1.3686">
        <ele>119.27</ele>
        <time>2020-06-14T16:44:16Z</time>
      </trkpt>
      <trkpt lat="47.24933" lon="1.36861">
        <ele>116.09</ele>
        <time>2020-06-14T16:44:21Z</time>
      </trkpt>
      <trkpt lat="47.24976" lon="1.36836">
        <ele>112.64</ele>
        <time>2020-06-14T16:44:25Z</time>
      </trkpt>
      <trkpt lat="47.25017" lon="1.36792">
        <ele>107.67</ele>
        <time>2020-06-14T16:44:29Z</time>
      </trkpt>
      <trkpt lat="47.25041" lon="1.3676">
        <ele>103.43</ele>
        <time>2020-06-14T16:44:32Z</time>
      </trkpt>
      <trkpt lat="47.25053" lon="1.36744">
        <ele>100.37</ele>
        <time>2020-06-14T16:44:34Z</time>
      </trkpt>
      <trkpt lat="47.25092" lon="1.36731">
        <ele>96.25</ele>
        <time>2020-06-14T16:44:38Z</time>
      </trkpt>
      <trkpt lat="47.25116" lon="1.36735">
        <ele>94.57</ele>
        <time>2020-06-14T16:44:40Z</time>
      </trkpt>
      <trkpt lat="47.25142" lon="1.36741">
        <ele>91.55</ele>
        <time>2020-06-14T16:44:42Z</time>
      </trkpt>
      <trkpt lat="47.25178" lon="1.36749">
        <ele>87.06</ele>
        <time>2020-06-14T16:44:45Z</time>
      </trkpt>
      <trkpt lat="47.25201" lon="1.36755">
        <ele>83.76</ele>
        <time>2020-06-14T16:44:48Z</time>
      </trkpt>
      <trkpt lat="47.25212" lon="1.36758">
        <ele>83.02</ele>
        <time>2020-06-14T16:44:51Z</time>
      </trkpt>
      <trkpt lat="47.25215" lon="1.36763">
        <ele>82.81</ele>
        <time>2020-06-14T16:44:52Z</time>
      </trkpt>
      <trkpt lat="47.2522" lon="1.3677">
        <ele>83.11</ele>
        <time>2020-06-14T16:44:53Z</time>
      </trkpt>
      <trkpt lat="47.25274" lon="1.36863">
        <ele>86.52</ele>
        <time>2020-06-14T16:45:01Z</time>
      </trkpt>
      <trkpt lat="47.25348" lon="1.36977">
        <ele>85.73</ele>
        <time>2020-06-14T16:45:09Z</time>
      </trkpt>
      <trkpt lat="47.25358" lon="1.36985">
        <ele>85.56</ele>
        <time>2020-06-14T16:45:10Z</time>
      </trkpt>
      <trkpt lat="47.25572" lon="1.37214">
        <ele>84.59</ele>
        <time>2020-06-14T16:45:29Z</time>
      </trkpt>
      <trkpt lat="47.25596" lon="1.37234">
        <ele>83.93</ele>
        <time>2020-06-14T16:45:31Z</time>
      </trkpt>
      <trkpt lat="47.25618" lon="1.37248">
        <ele>82.79</ele>
        <time>2020-06-14T16:45:33Z</time>
      </trkpt>
      <trkpt lat="47.25665" lon="1.37277">
        <ele>83.39</ele>
        <time>2020-06-14T16:45:37Z</time>
      </trkpt>
      <trkpt lat="47.25688" lon="1.37301">
        <ele>84.65</ele>
        <time>2020-06-14T16:45:39Z</time>
      </trkpt>
      <trkpt lat="47.25792" lon="1.37426">
        <ele>85.89</ele>
        <time>2020-06-14T16:45:51Z</time>
      </trkpt>
      <trkpt lat="47.25814" lon="1.37439">
        <ele>87.53</ele>
        <time>2020-06-14T16:45:53Z</time>
      </trkpt>
      <trkpt lat="47.25908" lon="1.37477">
        <ele>86.61</ele>
        <time>2020-06-14T16:46:00Z</time>
      </trkpt>
      <trkpt lat="47.25921" lon="1.37487">
        <ele>85.87</ele>
        <time>2020-06-14T16:46:01Z</time>
      </trkpt>
      <trkpt lat="47.2598" lon="1.37536">
        <ele>81.67</ele>
        <time>2020-06-14T16:46:06Z</time>
      </trkpt>
      <trkpt lat="47.26079" lon="1.37582">
        <ele>80.52</ele>
        <time>2020-06-14T16:46:15Z</time>
      </trkpt>
      <trkpt lat="47.26202" lon="1.377">
        <ele>75.94</ele>
        <time>2020-06-14T16:46:25Z</time>
      </trkpt>
      <trkpt lat="47.26236" lon="1.37738">
        <ele>73.81</ele>
        <time>2020-06-14T16:46:29Z</time>
      </trkpt>
      <trkpt lat="47.26244" lon="1.37743">
        <ele>73.54</ele>
        <time>2020-06-14T16:46:30Z</time>
      </trkpt>
      <trkpt lat="47.26356" lon="1.37764">
        <ele>72.67</ele>
        <time>2020-06-14T16:46:40Z</time>
      </trkpt>
      <trkpt lat="47.26403" lon="1.37769">
        <ele>71.34</ele>
        <time>2020-06-14T16:46:44Z</time>
      </trkpt>
      <trkpt lat="47.26414" lon="1.37773">
        <ele>71.28</ele>
        <time>2020-06-14T16:46:45Z</time>
      </trkpt>
      <trkpt lat="47.26521" lon="1.3776">
        <ele>70.93</ele>
        <time>2020-06-14T16:47:00Z</time>
      </trkpt>
      <trkpt lat="47.26723" lon="1.37859">
        <ele>70.67</ele>
        <time>2020-06-14T16:47:21Z</time>
      </trkpt>
      <trkpt lat="47.26761" lon="1.37843">
        <ele>72.22</ele>
        <time>2020-06-14T16:47:26Z</time>
      </trkpt>
      <trkpt lat="47.26766" lon="1.37837">
        <ele>72.24</ele>
        <time>2020-06-14T16:47:27Z</time>
      </trkpt>
      <trkpt lat="47.26807" lon="1.37841">
        <ele>71.9</ele>
        <time>2020-06-14T16:47:34Z</time>
      </trkpt>
      <trkpt lat="47.2688" lon="1.37897">
        <ele>70.65234375</ele>
      </trkpt>
      <trkpt lat="47.26629" lon="1.38222">
        <ele>72.0625</ele>
      </trkpt>
      <trkpt lat="47.26432" lon="1.38759">
        <ele>69.625</ele>
      </trkpt>
      <trkpt lat="47.26596" lon="1.39024">
        <ele>69</ele>
      </trkpt>
      <trkpt lat="47.26606" lon="1.39181">
        <ele>68.0625</ele>
      </trkpt>
      <trkpt lat="47.26545" lon="1.39461">
        <ele>67.640625</ele>
      </trkpt>
      <trkpt lat="47.26357" lon="1.39857">
        <ele>70.47265625</ele>
      </trkpt>
      <trkpt lat="47.26351" lon="1.40266">
        <ele>69.8046875</ele>
      </trkpt>
      <trkpt lat="47.26311" lon="1.40382">
        <ele>72.0234375</ele>
      </trkpt>
      <trkpt lat="47.25968" lon="1.40828">
        <ele>71</ele>
      </trkpt>
      <trkpt lat="47.2589" lon="1.41141">
        <ele>70.2265625</ele>
      </trkpt>
      <trkpt lat="47.25912" lon="1.41386">
        <ele>70</ele>
      </trkpt>
      <trkpt lat="47.25958" lon="1.41591">
        <ele>70.2421875</ele>
      </trkpt>
      <trkpt lat="47.26295" lon="1.41708">
        <ele>69.1640625</ele>
      </trkpt>
      <trkpt lat="47.26461" lon="1.41823">
        <ele>71.6640625</ele>
      </trkpt>
      <trkpt lat="47.26576" lon="1.42015">
        <ele>72.6015625</ele>
      </trkpt>
      <trkpt lat="47.26564" lon="1.42599">
        <ele>74.08203125</ele>
      </trkpt>
      <trkpt lat="47.26235" lon="1.42716">
        <ele>73.87109375</ele>
      </trkpt>
      <trkpt lat="47.26166" lon="1.42949">
        <ele>72.44140625</ele>
      </trkpt>
      <trkpt lat="47.25952" lon="1.42946">
        <ele>70.8671875</ele>
      </trkpt>
      <trkpt lat="47.2607" lon="1.43893">
        <ele>72</ele>
      </trkpt>
      <trkpt lat="47.26042" lon="1.44734">
        <ele>70.33203125</ele>
      </trkpt>
      <trkpt lat="47.26101" lon="1.44946">
        <ele>74.625</ele>
      </trkpt>
      <trkpt lat="47.26061" lon="1.45057">
        <ele>75.03125</ele>
      </trkpt>
      <trkpt lat="47.26103" lon="1.45428">
        <ele>73.40625</ele>
      </trkpt>
      <trkpt lat="47.26219" lon="1.45864">
        <ele>73.94140625</ele>
      </trkpt>
      <trkpt lat="47.26346" lon="1.46079">
        <ele>75.84765625</ele>
      </trkpt>
      <trkpt lat="47.25961" lon="1.46568">
        <ele>71.82421875</ele>
      </trkpt>
      <trkpt lat="47.25834" lon="1.46863">
        <ele>72.4921875</ele>
      </trkpt>
      <trkpt lat="47.25773" lon="1.46898">
        <ele>72</ele>
      </trkpt>
      <trkpt lat="47.25571" lon="1.47586">
        <ele>74</ele>
      </trkpt>
      <trkpt lat="47.25496" lon="1.47983">
        <ele>74.48828125</ele>
      </trkpt>
      <trkpt lat="47.25506" lon="1.48456">
        <ele>73.1328125</ele>
      </trkpt>
      <trkpt lat="47.26062" lon="1.48475">
        <ele>73.37109375</ele>
      </trkpt>
      <trkpt lat="47.26616" lon="1.48959">
        <ele>73.24609375</ele>
      </trkpt>
      <trkpt lat="47.26766" lon="1.48831">
        <ele>73.81640625</ele>
      </trkpt>
      <trkpt lat="47.2705" lon="1.48791">
        <ele>72.74609375</ele>
      </trkpt>
      <trkpt lat="47.27062" lon="1.48489">
        <ele>71.9921875</ele>
      </trkpt>
      <trkpt lat="47.2709" lon="1.48431">
        <ele>76.75</ele>
      </trkpt>
      <trkpt lat="47.2714" lon="1.48399">
        <ele>81.2734375</ele>
      </trkpt>
      <trkpt lat="47.27218" lon="1.48315">
        <ele>86.796875</ele>
      </trkpt>
      <trkpt lat="47.27244" lon="1.48274">
        <ele>89.40625</ele>
      </trkpt>
      <trkpt lat="47.27287" lon="1.48266">
        <ele>91.3828125</ele>
      </trkpt>
      <trkpt lat="47.27308" lon="1.48242">
        <ele>94.8671875</ele>
      </trkpt>
      <trkpt lat="47.27231" lon="1.48155">
        <ele>96.1875</ele>
      </trkpt>
      <trkpt lat="47.27127" lon="1.4797">
        <ele>103.7734375</ele>
      </trkpt>
      <trkpt lat="47.27068" lon="1.47656">
        <ele>114.0390625</ele>
      </trkpt>
      <trkpt lat="47.27033" lon="1.47217">
        <ele>114.75390625</ele>
      </trkpt>
      <trkpt lat="47.27065" lon="1.47057">
        <ele>116.0234375</ele>
      </trkpt>
      <trkpt lat="47.27057" lon="1.46902">
        <ele>112.59375</ele>
      </trkpt>
      <trkpt lat="47.27205" lon="1.4648">
        <ele>100.984375</ele>
      </trkpt>
      <trkpt lat="47.27103" lon="1.45915">
        <ele>105.9453125</ele>
      </trkpt>
      <trkpt lat="47.27104" lon="1.45725">
        <ele>108.87109375</ele>
      </trkpt>
      <trkpt lat="47.27404" lon="1.4565">
        <ele>109.7578125</ele>
      </trkpt>
      <trkpt lat="47.2748" lon="1.46048">
        <ele>111.9375</ele>
      </trkpt>
      <trkpt lat="47.27528" lon="1.46924">
        <ele>109.5</ele>
      </trkpt>
      <trkpt lat="47.27612" lon="1.47066">
        <ele>111.44921875</ele>
      </trkpt>
      <trkpt lat="47.27908" lon="1.47074">
        <ele>106.75</ele>
      </trkpt>
      <trkpt lat="47.28282" lon="1.47189">
        <ele>109.875</ele>
      </trkpt>
      <trkpt lat="47.28608" lon="1.47135">
        <ele>104.609375</ele>
      </trkpt>
      <trkpt lat="47.2886" lon="1.47529">
        <ele>101.05859375</ele>
      </trkpt>
      <trkpt lat="47.28898" lon="1.48025">
        <ele>100</ele>
      </trkpt>
      <trkpt lat="47.28963" lon="1.48179">
        <ele>99.12109375</ele>
      </trkpt>
      <trkpt lat="47.29362" lon="1.48478">
        <ele>93.34375</ele>
      </trkpt>
      <trkpt lat="47.29806" lon="1.48999">
        <ele>97.6953125</ele>
      </trkpt>
      <trkpt lat="47.3021" lon="1.4933">
        <ele>96.52734375</ele>
      </trkpt>
      <trkpt lat="47.30495" lon="1.49591">
        <ele>92.67578125</ele>
      </trkpt>
      <trkpt lat="47.30553" lon="1.49556">
        <ele>92.0390625</ele>
      </trkpt>
      <trkpt lat="47.3063" lon="1.50267">
        <ele>88.4453125</ele>
      </trkpt>
      <trkpt lat="47.30859" lon="1.50855">
        <ele>88</ele>
      </trkpt>
      <trkpt lat="47.30906" lon="1.51181">
        <ele>88.3203125</ele>
      </trkpt>
      <trkpt lat="47.30807" lon="1.51891">
        <ele>88.69921875</ele>
      </trkpt>
      <trkpt lat="47.30919" lon="1.52514">
        <ele>89</ele>
      </trkpt>
      <trkpt lat="47.30644" lon="1.5276">
        <ele>85.33203125</ele>
      </trkpt>
      <trkpt lat="47.30413" lon="1.53405">
        <ele>86.31640625</ele>
      </trkpt>
      <trkpt lat="47.30085" lon="1.53448">
        <ele>86.8046875</ele>
      </trkpt>
      <trkpt lat="47.29733" lon="1.53645">
        <ele>83.7265625</ele>
      </trkpt>
      <trkpt lat="47.2933" lon="1.53752">
        <ele>89.109375</ele>
      </trkpt>
      <trkpt lat="47.29539" lon="1.54138">
        <ele>78.4375</ele>
      </trkpt>
      <trkpt lat="47.29686" lon="1.54763">
        <ele>76.07421875</ele>
      </trkpt>
      <trkpt lat="47.29868" lon="1.54994">
        <ele>75.98828125</ele>
      </trkpt>
      <trkpt lat="47.29941" lon="1.55423">
        <ele>79.63671875</ele>
      </trkpt>
      <trkpt lat="47.29925" lon="1.55723">
        <ele>80.07421875</ele>
      </trkpt>
      <trkpt lat="47.29999" lon="1.56323">
        <ele>75.7265625</ele>
      </trkpt>
      <trkpt lat="47.30144" lon="1.57873">
        <ele>75.9921875</ele>
      </trkpt>
      <trkpt lat="47.30087" lon="1.58778">
        <ele>76.28515625</ele>
      </trkpt>
      <trkpt lat="47.30082" lon="1.59837">
        <ele>73.37109375</ele>
      </trkpt>
      <trkpt lat="47.30505" lon="1.59964">
        <ele>81.2578125</ele>
      </trkpt>
      <trkpt lat="47.30576" lon="1.59893">
        <ele>78.875</ele>
      </trkpt>
      <trkpt lat="47.30704" lon="1.59974">
        <ele>80.25</ele>
      </trkpt>
      <trkpt lat="47.30903" lon="1.60326">
        <ele>79.87109375</ele>
      </trkpt>
      <trkpt lat="47.31038" lon="1.60348">
        <ele>79.8046875</ele>
      </trkpt>
      <trkpt lat="47.31187" lon="1.60385">
        <ele>75.515625</ele>
      </trkpt>
      <trkpt lat="47.31565" lon="1.60099">
        <ele>80</ele>
      </trkpt>
      <trkpt lat="47.31775" lon="1.60351">
        <ele>80.8984375</ele>
      </trkpt>
      <trkpt lat="47.3189" lon="1.60321">
        <ele>78</ele>
      </trkpt>
      <trkpt lat="47.32649" lon="1.59699">
        <ele>85.31640625</ele>
      </trkpt>
      <trkpt lat="47.32797" lon="1.59338">
        <ele>86</ele>
      </trkpt>
      <trkpt lat="47.32975" lon="1.59364">
        <ele>81.04296875</ele>
      </trkpt>
      <trkpt lat="47.33356" lon="1.59216">
        <ele>80.54296875</ele>
      </trkpt>
      <trkpt lat="47.33639" lon="1.58745">
        <ele>81.8828125</ele>
      </trkpt>
      <trkpt lat="47.34113" lon="1.58602">
        <ele>80.08203125</ele>
      </trkpt>
      <trkpt lat="47.34052" lon="1.58853">
        <ele>84</ele>
      </trkpt>
      <trkpt lat="47.34195" lon="1.59352">
        <ele>82</ele>
      </trkpt>
      <trkpt lat="47.34285" lon="1.5953">
        <ele>87.39453125</ele>
      </trkpt>
      <trkpt lat="47.34402" lon="1.59493">
        <ele>90</ele>
      </trkpt>
      <trkpt lat="47.34385" lon="1.59745">
        <ele>97.18359375</ele>
      </trkpt>
      <trkpt lat="47.3523" lon="1.61651">
        <ele>105.7421875</ele>
      </trkpt>
      <trkpt lat="47.35973" lon="1.61645">
        <ele>110.98046875</ele>
      </trkpt>
      <trkpt lat="47.36249" lon="1.61765">
        <ele>116.64453125</ele>
      </trkpt>
      <trkpt lat="47.36491" lon="1.62069">
        <ele>111</ele>
      </trkpt>
      <trkpt lat="47.36662" lon="1.6217">
        <ele>110.32421875</ele>
      </trkpt>
      <trkpt lat="47.36972" lon="1.62307">
        <ele>102.73828125</ele>
      </trkpt>
      <trkpt lat="47.37301" lon="1.62342">
        <ele>96.265625</ele>
      </trkpt>
      <trkpt lat="47.37337" lon="1.62255">
        <ele>95.6953125</ele>
      </trkpt>
      <trkpt lat="47.37437" lon="1.62242">
        <ele>92.36328125</ele>
      </trkpt>
      <trkpt lat="47.37697" lon="1.62814">
        <ele>96.14453125</ele>
      </trkpt>
      <trkpt lat="47.37788" lon="1.62919">
        <ele>96.3046875</ele>
      </trkpt>
      <trkpt lat="47.37875" lon="1.63202">
        <ele>94.3515625</ele>
      </trkpt>
      <trkpt lat="47.38348" lon="1.62666">
        <ele>95.5859375</ele>
      </trkpt>
      <trkpt lat="47.38392" lon="1.62649">
        <ele>87.58203125</ele>
      </trkpt>
      <trkpt lat="47.38561" lon="1.62808">
        <ele>95.43359375</ele>
      </trkpt>
      <trkpt lat="47.3856" lon="1.62892">
        <ele>95.89453125</ele>
      </trkpt>
      <trkpt lat="47.38686" lon="1.63148">
        <ele>97.4375</ele>
      </trkpt>
      <trkpt lat="47.38883" lon="1.63371">
        <ele>97.74609375</ele>
      </trkpt>
      <trkpt lat="47.3973" lon="1.63599">
        <ele>99.96484375</ele>
      </trkpt>
      <trkpt lat="47.39917" lon="1.63728">
        <ele>95.98828125</ele>
      </trkpt>
      <trkpt lat="47.40329" lon="1.63881">
        <ele>103.60546875</ele>
      </trkpt>
      <trkpt lat="47.40957" lon="1.63585">
        <ele>101.80859375</ele>
      </trkpt>
      <trkpt lat="47.41196" lon="1.63666">
        <ele>103.29296875</ele>
      </trkpt>
      <trkpt lat="47.41654" lon="1.63565">
        <ele>109.078125</ele>
      </trkpt>
      <trkpt lat="47.42079" lon="1.66782">
        <ele>118.765625</ele>
      </trkpt>
      <trkpt lat="47.42159" lon="1.67007">
        <ele>117.67578125</ele>
      </trkpt>
      <trkpt lat="47.42246" lon="1.67028">
        <ele>118.62109375</ele>
      </trkpt>
      <trkpt lat="47.42337" lon="1.67216">
        <ele>117.765625</ele>
      </trkpt>
      <trkpt lat="47.43924" lon="1.6735">
        <ele>122.6640625</ele>
      </trkpt>
      <trkpt lat="47.44199" lon="1.67696">
        <ele>121.5703125</ele>
      </trkpt>
      <trkpt lat="47.45566" lon="1.6897">
        <ele>118.14453125</ele>
      </trkpt>
      <trkpt lat="47.45921" lon="1.6977">
        <ele>110.45703125</ele>
      </trkpt>
      <trkpt lat="47.47194" lon="1.69657">
        <ele>116.375</ele>
      </trkpt>
      <trkpt lat="47.4973" lon="1.67967">
        <ele>91</ele>
      </trkpt>
      <trkpt lat="47.49864" lon="1.67926">
        <ele>92</ele>
      </trkpt>
      <trkpt lat="47.50034" lon="1.67959">
        <ele>91</ele>
      </trkpt>
      <trkpt lat="47.5032" lon="1.68007">
        <ele>87</ele>
      </trkpt>
      <trkpt lat="47.50409" lon="1.68155">
        <ele>89.66015625</ele>
      </trkpt>
      <trkpt lat="47.50435" lon="1.68272">
        <ele>90.87109375</ele>
      </trkpt>
      <trkpt lat="47.50349" lon="1.69074">
        <ele>91.765625</ele>
      </trkpt>
      <trkpt lat="47.50381" lon="1.6965">
        <ele>94.9140625</ele>
      </trkpt>
      <trkpt lat="47.51273" lon="1.71588">
        <ele>94.08203125</ele>
      </trkpt>
      <trkpt lat="47.51286" lon="1.72088">
        <ele>91.5234375</ele>
      </trkpt>
      <trkpt lat="47.51707" lon="1.7212">
        <ele>93.66796875</ele>
      </trkpt>
      <trkpt lat="47.51645" lon="1.73115">
        <ele>93.48046875</ele>
      </trkpt>
      <trkpt lat="47.51866" lon="1.74448">
        <ele>97.95703125</ele>
      </trkpt>
      <trkpt lat="47.52411" lon="1.74405">
        <ele>103.89453125</ele>
      </trkpt>
      <trkpt lat="47.52437" lon="1.75084">
        <ele>100.7890625</ele>
      </trkpt>
      <trkpt lat="47.52514" lon="1.75381">
        <ele>102.109375</ele>
      </trkpt>
      <trkpt lat="47.52608" lon="1.76465">
        <ele>95.3515625</ele>
      </trkpt>
      <trkpt lat="47.5255" lon="1.76554">
        <ele>98.7890625</ele>
      </trkpt>
      <trkpt lat="47.52551" lon="1.76647">
        <ele>100.90625</ele>
      </trkpt>
      <trkpt lat="47.52663" lon="1.76707">
        <ele>94.71875</ele>
      </trkpt>
      <trkpt lat="47.52711" lon="1.77622">
        <ele>97.046875</ele>
      </trkpt>
      <trkpt lat="47.52617" lon="1.77858">
        <ele>97.87109375</ele>
      </trkpt>
      <trkpt lat="47.52589" lon="1.78604">
        <ele>103.34375</ele>
      </trkpt>
      <trkpt lat="47.52693" lon="1.79055">
        <ele>99.04296875</ele>
      </trkpt>
      <trkpt lat="47.52723" lon="1.79784">
        <ele>99.28515625</ele>
      </trkpt>
      <trkpt lat="47.52788" lon="1.80319">
        <ele>98.26171875</ele>
      </trkpt>
      <trkpt lat="47.52933" lon="1.80572">
        <ele>95.17578125</ele>
      </trkpt>
      <trkpt lat="47.53088" lon="1.80641">
        <ele>94.63671875</ele>
      </trkpt>
      <trkpt lat="47.5313" lon="1.80745">
        <ele>99.34375</ele>
      </trkpt>
      <trkpt lat="47.5344" lon="1.80544">
        <ele>98.4921875</ele>
      </trkpt>
      <trkpt lat="47.53445" lon="1.80778">
        <ele>98.58203125</ele>
      </trkpt>
      <trkpt lat="47.53713" lon="1.81031">
        <ele>99.94921875</ele>
      </trkpt>
      <trkpt lat="47.54545" lon="1.81956">
        <ele>116.890625</ele>
      </trkpt>
      <trkpt lat="47.55306" lon="1.82469">
        <ele>112</ele>
      </trkpt>
      <trkpt lat="47.55621" lon="1.831">
        <ele>108.72265625</ele>
      </trkpt>
      <trkpt lat="47.55636" lon="1.83248">
        <ele>108.19140625</ele>
      </trkpt>
      <trkpt lat="47.56048" lon="1.84055">
        <ele>119.09375</ele>
      </trkpt>
      <trkpt lat="47.56194" lon="1.84368">
        <ele>121.03125</ele>
      </trkpt>
      <trkpt lat="47.56235" lon="1.84847">
        <ele>122</ele>
      </trkpt>
      <trkpt lat="47.56579" lon="1.85327">
        <ele>122.0078125</ele>
      </trkpt>
      <trkpt lat="47.56788" lon="1.85513">
        <ele>112.2265625</ele>
      </trkpt>
      <trkpt lat="47.56914" lon="1.85728">
        <ele>115.765625</ele>
      </trkpt>
      <trkpt lat="47.56219" lon="1.86338">
        <ele>114.49609375</ele>
      </trkpt>
      <trkpt lat="47.5619" lon="1.86353">
        <ele>116.26953125</ele>
      </trkpt>
      <trkpt lat="47.56566" lon="1.86589">
        <ele>117.3671875</ele>
      </trkpt>
      <trkpt lat="47.57256" lon="1.87355">
        <ele>117.5703125</ele>
      </trkpt>
      <trkpt lat="47.58571" lon="1.8852">
        <ele>119.078125</ele>
      </trkpt>
      <trkpt lat="47.59609" lon="1.8932">
        <ele>113.89453125</ele>
      </trkpt>
      <trkpt lat="47.59949" lon="1.89804">
        <ele>119.9296875</ele>
      </trkpt>
      <trkpt lat="47.60763" lon="1.90303">
        <ele>124.90625</ele>
      </trkpt>
      <trkpt lat="47.60925" lon="1.90389">
        <ele>129.5859375</ele>
      </trkpt>
      <trkpt lat="47.6095" lon="1.90581">
        <ele>133.2734375</ele>
      </trkpt>
      <trkpt lat="47.61221" lon="1.91001">
        <ele>136.62890625</ele>
      </trkpt>
      <trkpt lat="47.61309" lon="1.9123">
        <ele>135.28515625</ele>
      </trkpt>
      <trkpt lat="47.61505" lon="1.91531">
        <ele>135.48046875</ele>
      </trkpt>
      <trkpt lat="47.61699" lon="1.92009">
        <ele>139.4375</ele>
      </trkpt>
      <trkpt lat="47.62469" lon="1.92828">
        <ele>138.60546875</ele>
      </trkpt>
      <trkpt lat="47.62767" lon="1.93378">
        <ele>127.13671875</ele>
      </trkpt>
      <trkpt lat="47.63183" lon="1.93596">
        <ele>135.7421875</ele>
      </trkpt>
      <trkpt lat="47.6379" lon="1.94581">
        <ele>140.5859375</ele>
      </trkpt>
      <trkpt lat="47.63864" lon="1.9459">
        <ele>139.31640625</ele>
      </trkpt>
      <trkpt lat="47.64081" lon="1.94415">
        <ele>140.4140625</ele>
      </trkpt>
      <trkpt lat="47.64306" lon="1.9495">
        <ele>138</ele>
      </trkpt>
      <trkpt lat="47.64648" lon="1.96003">
        <ele>141.328125</ele>
      </trkpt>
      <trkpt lat="47.64674" lon="1.96648">
        <ele>139.1171875</ele>
      </trkpt>
      <trkpt lat="47.64534" lon="1.97554">
        <ele>137.6953125</ele>
      </trkpt>
      <trkpt lat="47.64797" lon="1.97959">
        <ele>140.98046875</ele>
      </trkpt>
      <trkpt lat="47.65038" lon="1.9805">
        <ele>130.390625</ele>
      </trkpt>
      <trkpt lat="47.65139" lon="1.97582">
        <ele>125.25</ele>
      </trkpt>
      <trkpt lat="47.6548" lon="1.97427">
        <ele>122.625</ele>
      </trkpt>
      <trkpt lat="47.65623" lon="1.97069">
        <ele>124.03125</ele>
      </trkpt>
      <trkpt lat="47.65779" lon="1.97177">
        <ele>119.52734375</ele>
      </trkpt>
      <trkpt lat="47.65943" lon="1.9712">
        <ele>116.81640625</ele>
      </trkpt>
      <trkpt lat="47.66169" lon="1.97169">
        <ele>118</ele>
      </trkpt>
      <trkpt lat="47.66421" lon="1.9779">
        <ele>108.1328125</ele>
      </trkpt>
      <trkpt lat="47.66933" lon="1.98734">
        <ele>115.03125</ele>
      </trkpt>
      <trkpt lat="47.67225" lon="1.99024">
        <ele>113.5546875</ele>
      </trkpt>
      <trkpt lat="47.67531" lon="1.99197">
        <ele>117.6875</ele>
      </trkpt>
      <trkpt lat="47.67862" lon="1.99326">
        <ele>112.07421875</ele>
      </trkpt>
      <trkpt lat="47.68158" lon="1.99322">
        <ele>112.2734375</ele>
      </trkpt>
      <trkpt lat="47.68226" lon="1.99394">
        <ele>115.42578125</ele>
      </trkpt>
      <trkpt lat="47.6833" lon="1.9976">
        <ele>116.36328125</ele>
      </trkpt>
      <trkpt lat="47.6875" lon="2.005">
        <ele>124.3046875</ele>
      </trkpt>
      <trkpt lat="47.69388" lon="2.01404">
        <ele>117.57421875</ele>
      </trkpt>
      <trkpt lat="47.69558" lon="2.01824">
        <ele>114.67578125</ele>
      </trkpt>
      <trkpt lat="47.6987" lon="2.02064">
        <ele>118.0390625</ele>
      </trkpt>
      <trkpt lat="47.69943" lon="2.02244">
        <ele>120</ele>
      </trkpt>
    </trkseg>
  </trk>
  <trk>
    <name><![CDATA[trace mai 2022_2]]></name>
    <trkseg>
      <trkpt lat="47.34327" lon="1.10717">
        <ele>115.2</ele>
      </trkpt>
      <trkpt lat="47.34164" lon="1.10966">
        <ele>125.8</ele>
      </trkpt>
      <trkpt lat="47.34275" lon="1.11159">
        <ele>127</ele>
      </trkpt>
      <trkpt lat="47.34412" lon="1.11348">
        <ele>127</ele>
      </trkpt>
      <trkpt lat="47.34641" lon="1.11576">
        <ele>127.7</ele>
      </trkpt>
      <trkpt lat="47.34502" lon="1.11739">
        <ele>126.1</ele>
      </trkpt>
      <trkpt lat="47.34435" lon="1.12048">
        <ele>120.8</ele>
      </trkpt>
      <trkpt lat="47.34371" lon="1.12297">
        <ele>110</ele>
      </trkpt>
      <trkpt lat="47.34228" lon="1.12661">
        <ele>89.4</ele>
      </trkpt>
      <trkpt lat="47.34156" lon="1.12737">
        <ele>84.7</ele>
      </trkpt>
      <trkpt lat="47.34102" lon="1.1296">
        <ele>79</ele>
      </trkpt>
      <trkpt lat="47.34055" lon="1.13084">
        <ele>78</ele>
      </trkpt>
      <trkpt lat="47.3405" lon="1.13181">
        <ele>76</ele>
      </trkpt>
      <trkpt lat="47.34022" lon="1.13234">
        <ele>73.6</ele>
      </trkpt>
      <trkpt lat="47.33908" lon="1.13194">
        <ele>73.8</ele>
      </trkpt>
      <trkpt lat="47.33813" lon="1.13198">
        <ele>74.4</ele>
      </trkpt>
      <trkpt lat="47.3369" lon="1.13297">
        <ele>71</ele>
      </trkpt>
      <trkpt lat="47.33603" lon="1.13339">
        <ele>64.4</ele>
      </trkpt>
      <trkpt lat="47.33525" lon="1.13361">
        <ele>62.1</ele>
      </trkpt>
      <trkpt lat="47.33423" lon="1.13412">
        <ele>60.9</ele>
      </trkpt>
      <trkpt lat="47.33341" lon="1.13374">
        <ele>60</ele>
      </trkpt>
      <trkpt lat="47.3321" lon="1.13262">
        <ele>59.4</ele>
      </trkpt>
      <trkpt lat="47.3303" lon="1.13254">
        <ele>60.9</ele>
      </trkpt>
      <trkpt lat="47.32957" lon="1.13236">
        <ele>60</ele>
      </trkpt>
      <trkpt lat="47.32847" lon="1.13284">
        <ele>59.9</ele>
      </trkpt>
      <trkpt lat="47.32819" lon="1.1329">
        <ele>60.9</ele>
      </trkpt>
      <trkpt lat="47.3269" lon="1.13301">
        <ele>65.3</ele>
      </trkpt>
      <trkpt lat="47.32588" lon="1.12833">
        <ele>63.8</ele>
      </trkpt>
      <trkpt lat="47.32507" lon="1.12485">
        <ele>63.8</ele>
      </trkpt>
      <trkpt lat="47.32393" lon="1.12451">
        <ele>72.9</ele>
      </trkpt>
      <trkpt lat="47.32236" lon="1.12475">
        <ele>76.5</ele>
      </trkpt>
      <trkpt lat="47.3215" lon="1.12473">
        <ele>79.6</ele>
      </trkpt>
      <trkpt lat="47.32029" lon="1.12481">
        <ele>82.3</ele>
      </trkpt>
      <trkpt lat="47.31949" lon="1.12524">
        <ele>83.9</ele>
      </trkpt>
      <trkpt lat="47.31881" lon="1.12543">
        <ele>83.9</ele>
      </trkpt>
      <trkpt lat="47.3182" lon="1.12546">
        <ele>83.2</ele>
      </trkpt>
      <trkpt lat="47.31757" lon="1.1255">
        <ele>81.8</ele>
      </trkpt>
      <trkpt lat="47.3168" lon="1.12518">
        <ele>82.6</ele>
      </trkpt>
      <trkpt lat="47.316" lon="1.12473">
        <ele>84.4</ele>
      </trkpt>
      <trkpt lat="47.31357" lon="1.12312">
        <ele>86.4</ele>
      </trkpt>
      <trkpt lat="47.31193" lon="1.12179">
        <ele>90</ele>
      </trkpt>
      <trkpt lat="47.31104" lon="1.12106">
        <ele>92.2</ele>
      </trkpt>
      <trkpt lat="47.31034" lon="1.12061">
        <ele>93.1</ele>
      </trkpt>
      <trkpt lat="47.3102" lon="1.11975">
        <ele>94</ele>
      </trkpt>
      <trkpt lat="47.30612" lon="1.11966">
        <ele>106.8</ele>
      </trkpt>
      <trkpt lat="47.3049" lon="1.11906">
        <ele>99.1</ele>
      </trkpt>
      <trkpt lat="47.30441" lon="1.11842">
        <ele>94.7</ele>
      </trkpt>
      <trkpt lat="47.30447" lon="1.11631">
        <ele>91.6</ele>
      </trkpt>
      <trkpt lat="47.30356" lon="1.11468">
        <ele>77.2</ele>
      </trkpt>
      <trkpt lat="47.30237" lon="1.11352">
        <ele>72.8</ele>
      </trkpt>
      <trkpt lat="47.30141" lon="1.11344">
        <ele>72.4</ele>
      </trkpt>
      <trkpt lat="47.30048" lon="1.11383">
        <ele>73.8</ele>
      </trkpt>
      <trkpt lat="47.29952" lon="1.11335">
        <ele>73.1</ele>
      </trkpt>
      <trkpt lat="47.29876" lon="1.11297">
        <ele>73.8</ele>
      </trkpt>
      <trkpt lat="47.29777" lon="1.1134">
        <ele>77.4</ele>
      </trkpt>
      <trkpt lat="47.29658" lon="1.11322">
        <ele>75.8</ele>
      </trkpt>
      <trkpt lat="47.29492" lon="1.11297">
        <ele>75.3</ele>
      </trkpt>
      <trkpt lat="47.29303" lon="1.11258">
        <ele>74.1</ele>
      </trkpt>
      <trkpt lat="47.29125" lon="1.11331">
        <ele>75.9</ele>
      </trkpt>
      <trkpt lat="47.29018" lon="1.11413">
        <ele>77.8</ele>
      </trkpt>
      <trkpt lat="47.28811" lon="1.1134">
        <ele>82.9</ele>
      </trkpt>
      <trkpt lat="47.28668" lon="1.11275">
        <ele>79.7</ele>
      </trkpt>
      <trkpt lat="47.28636" lon="1.11262">
        <ele>77.9</ele>
      </trkpt>
      <trkpt lat="47.28613" lon="1.11168">
        <ele>77</ele>
      </trkpt>
      <trkpt lat="47.28578" lon="1.11125">
        <ele>80.4</ele>
      </trkpt>
      <trkpt lat="47.28202" lon="1.11249">
        <ele>81</ele>
      </trkpt>
      <trkpt lat="47.28127" lon="1.11237">
        <ele>85.8</ele>
      </trkpt>
      <trkpt lat="47.28019" lon="1.11284">
        <ele>81</ele>
      </trkpt>
      <trkpt lat="47.27903" lon="1.11387">
        <ele>82.2</ele>
      </trkpt>
      <trkpt lat="47.27824" lon="1.11458">
        <ele>81.7</ele>
      </trkpt>
      <trkpt lat="47.27555" lon="1.11449">
        <ele>79.6</ele>
      </trkpt>
      <trkpt lat="47.27429" lon="1.11413">
        <ele>81.1</ele>
      </trkpt>
      <trkpt lat="47.27336" lon="1.11363">
        <ele>83</ele>
      </trkpt>
      <trkpt lat="47.27272" lon="1.11378">
        <ele>81.5</ele>
      </trkpt>
      <trkpt lat="47.27242" lon="1.11428">
        <ele>81</ele>
      </trkpt>
      <trkpt lat="47.27205" lon="1.11501">
        <ele>81.6</ele>
      </trkpt>
      <trkpt lat="47.27187" lon="1.1154">
        <ele>80.8</ele>
      </trkpt>
      <trkpt lat="47.27158" lon="1.11569">
        <ele>81.3</ele>
      </trkpt>
      <trkpt lat="47.27086" lon="1.11602">
        <ele>82.3</ele>
      </trkpt>
      <trkpt lat="47.27059" lon="1.1161">
        <ele>83</ele>
      </trkpt>
      <trkpt lat="47.26987" lon="1.11659">
        <ele>83.1</ele>
      </trkpt>
      <trkpt lat="47.26929" lon="1.11724">
        <ele>85</ele>
      </trkpt>
      <trkpt lat="47.26748" lon="1.11801">
        <ele>94.4</ele>
      </trkpt>
      <trkpt lat="47.26705" lon="1.11823">
        <ele>95.2</ele>
      </trkpt>
      <trkpt lat="47.26624" lon="1.11911">
        <ele>95.8</ele>
      </trkpt>
      <trkpt lat="47.2653" lon="1.11951">
        <ele>101.4</ele>
      </trkpt>
      <trkpt lat="47.26441" lon="1.12011">
        <ele>103.2</ele>
      </trkpt>
      <trkpt lat="47.26404" lon="1.12069">
        <ele>102.7</ele>
      </trkpt>
      <trkpt lat="47.2639" lon="1.12125">
        <ele>100.5</ele>
      </trkpt>
      <trkpt lat="47.26385" lon="1.12209">
        <ele>96.4</ele>
      </trkpt>
      <trkpt lat="47.26345" lon="1.12271">
        <ele>90.6</ele>
      </trkpt>
      <trkpt lat="47.26371" lon="1.12363">
        <ele>88</ele>
      </trkpt>
      <trkpt lat="47.2638" lon="1.12453">
        <ele>85.8</ele>
      </trkpt>
    </trkseg>
  </trk>
</gpx>